<?xml version="1.0" encoding="UTF-8" standalone="no" ?>
<gpx xmlns="http://www.topografix.com/GPX/1/1" xmlns:xsi="http://www.w3.org/2001/XMLSchema-instance" xsi:schemaLocation="http://www.topografix.com/GPX/1/1 http://www.topografix.com/GPX/1/1/gpx.xsd" version="1.1" creator="VisuGPX - https://www.visugpx.com">
  <metadata>
    <name>Petit Ballon</name>
    <desc><![CDATA[Gunsbach - Muehlele - Munster - Luttenbach près Munster - [i]Col du petit-ballon (1163.m)[/i] - [i]Col du Strohberg (1155.m)[/i] - Ferme-Auberge du Strohberg - [i]Col du Strohberg (1155.m)[/i] - [i]Col du Petit-ballon (1163.m)[/i] - Luttenbach près Munster - Munster - Stosswihr - Soultzeren - VTF les Fougères - Soultzeren - Stosswihr - Munster - Gunsbach.]]></desc>
  </metadata>
  <trk>
    <name><![CDATA[Trip 2021-06-14]]></name>
    <trkseg>
      <trkpt lat="48.04833" lon="7.16222">
        <ele>466.97631836</ele>
        <time>2021-06-16T08:06:05Z</time>
      </trkpt>
      <trkpt lat="48.04831" lon="7.1622">
        <ele>466.97631836</ele>
        <time>2021-06-16T08:06:10Z</time>
      </trkpt>
      <trkpt lat="48.04818" lon="7.16211">
        <ele>466.97631836</ele>
        <time>2021-06-16T08:06:14Z</time>
      </trkpt>
      <trkpt lat="48.04805" lon="7.16204">
        <ele>467.0140686</ele>
        <time>2021-06-16T08:06:17Z</time>
      </trkpt>
      <trkpt lat="48.04794" lon="7.16201">
        <ele>464.71673584</ele>
        <time>2021-06-16T08:06:20Z</time>
      </trkpt>
      <trkpt lat="48.04782" lon="7.16203">
        <ele>462.31536865</ele>
        <time>2021-06-16T08:06:24Z</time>
      </trkpt>
      <trkpt lat="48.04779" lon="7.16214">
        <ele>461.41207886</ele>
        <time>2021-06-16T08:06:27Z</time>
      </trkpt>
      <trkpt lat="48.04784" lon="7.16223">
        <ele>461.41207886</ele>
        <time>2021-06-16T08:06:28Z</time>
      </trkpt>
      <trkpt lat="48.04787" lon="7.16234">
        <ele>459.45761108</ele>
        <time>2021-06-16T08:06:32Z</time>
      </trkpt>
      <trkpt lat="48.04788" lon="7.16247">
        <ele>458.3036499</ele>
        <time>2021-06-16T08:06:37Z</time>
      </trkpt>
      <trkpt lat="48.04778" lon="7.16252">
        <ele>457.09460449</ele>
        <time>2021-06-16T08:06:41Z</time>
      </trkpt>
      <trkpt lat="48.04767" lon="7.16242">
        <ele>455.73071289</ele>
        <time>2021-06-16T08:06:44Z</time>
      </trkpt>
      <trkpt lat="48.04759" lon="7.16241">
        <ele>453.47213745</ele>
        <time>2021-06-16T08:06:52Z</time>
      </trkpt>
      <trkpt lat="48.04762" lon="7.16257">
        <ele>453.47213745</ele>
        <time>2021-06-16T08:06:55Z</time>
      </trkpt>
      <trkpt lat="48.04767" lon="7.16269">
        <ele>453.47213745</ele>
        <time>2021-06-16T08:06:59Z</time>
      </trkpt>
      <trkpt lat="48.04773" lon="7.16278">
        <ele>453.47213745</ele>
        <time>2021-06-16T08:07:04Z</time>
      </trkpt>
      <trkpt lat="48.04781" lon="7.16283">
        <ele>453.74551392</ele>
        <time>2021-06-16T08:09:42Z</time>
      </trkpt>
      <trkpt lat="48.0478" lon="7.16279">
        <ele>453.99383545</ele>
        <time>2021-06-16T08:10:34Z</time>
      </trkpt>
      <trkpt lat="48.04775" lon="7.16271">
        <ele>453.99383545</ele>
        <time>2021-06-16T08:10:41Z</time>
      </trkpt>
      <trkpt lat="48.04769" lon="7.16256">
        <ele>453.71600342</ele>
        <time>2021-06-16T08:10:47Z</time>
      </trkpt>
      <trkpt lat="48.0476" lon="7.16252">
        <ele>453.71600342</ele>
        <time>2021-06-16T08:10:53Z</time>
      </trkpt>
      <trkpt lat="48.04758" lon="7.16268">
        <ele>452.40957642</ele>
        <time>2021-06-16T08:10:56Z</time>
      </trkpt>
      <trkpt lat="48.04759" lon="7.16285">
        <ele>451.04269409</ele>
        <time>2021-06-16T08:10:59Z</time>
      </trkpt>
      <trkpt lat="48.04761" lon="7.16302">
        <ele>449.86877441</ele>
        <time>2021-06-16T08:11:02Z</time>
      </trkpt>
      <trkpt lat="48.04763" lon="7.16317">
        <ele>448.81161499</ele>
        <time>2021-06-16T08:11:06Z</time>
      </trkpt>
      <trkpt lat="48.04776" lon="7.16321">
        <ele>445.92102051</ele>
        <time>2021-06-16T08:11:09Z</time>
      </trkpt>
      <trkpt lat="48.0479" lon="7.1632">
        <ele>444.5894165</ele>
        <time>2021-06-16T08:11:11Z</time>
      </trkpt>
      <trkpt lat="48.04802" lon="7.16322">
        <ele>443.23828125</ele>
        <time>2021-06-16T08:11:13Z</time>
      </trkpt>
      <trkpt lat="48.04815" lon="7.16326">
        <ele>441.94845581</ele>
        <time>2021-06-16T08:11:15Z</time>
      </trkpt>
      <trkpt lat="48.04829" lon="7.16337">
        <ele>441.94845581</ele>
        <time>2021-06-16T08:11:17Z</time>
      </trkpt>
      <trkpt lat="48.04841" lon="7.16349">
        <ele>440.64770508</ele>
        <time>2021-06-16T08:11:18Z</time>
      </trkpt>
      <trkpt lat="48.04832" lon="7.16352">
        <ele>440.64770508</ele>
        <time>2021-06-16T08:11:19Z</time>
      </trkpt>
      <trkpt lat="48.04825" lon="7.1636">
        <ele>437.92022705</ele>
        <time>2021-06-16T08:11:22Z</time>
      </trkpt>
      <trkpt lat="48.04798" lon="7.1636">
        <ele>437.92022705</ele>
        <time>2021-06-16T08:11:23Z</time>
      </trkpt>
      <trkpt lat="48.04784" lon="7.16361">
        <ele>436.33898926</ele>
        <time>2021-06-16T08:11:24Z</time>
      </trkpt>
      <trkpt lat="48.04775" lon="7.16364">
        <ele>436.33898926</ele>
        <time>2021-06-16T08:11:26Z</time>
      </trkpt>
      <trkpt lat="48.04772" lon="7.16366">
        <ele>433.58898926</ele>
        <time>2021-06-16T08:11:27Z</time>
      </trkpt>
      <trkpt lat="48.04763" lon="7.16371">
        <ele>433.58898926</ele>
        <time>2021-06-16T08:11:28Z</time>
      </trkpt>
      <trkpt lat="48.04753" lon="7.16383">
        <ele>432.02255249</ele>
        <time>2021-06-16T08:11:30Z</time>
      </trkpt>
      <trkpt lat="48.04744" lon="7.16399">
        <ele>430.3187561</ele>
        <time>2021-06-16T08:11:32Z</time>
      </trkpt>
      <trkpt lat="48.04733" lon="7.16418">
        <ele>428.55917358</ele>
        <time>2021-06-16T08:11:34Z</time>
      </trkpt>
      <trkpt lat="48.04722" lon="7.16436">
        <ele>426.91647339</ele>
        <time>2021-06-16T08:11:36Z</time>
      </trkpt>
      <trkpt lat="48.0471" lon="7.16449">
        <ele>425.22085571</ele>
        <time>2021-06-16T08:11:38Z</time>
      </trkpt>
      <trkpt lat="48.04701" lon="7.1646">
        <ele>423.37518311</ele>
        <time>2021-06-16T08:11:39Z</time>
      </trkpt>
      <trkpt lat="48.04693" lon="7.16468">
        <ele>423.37518311</ele>
        <time>2021-06-16T08:11:40Z</time>
      </trkpt>
      <trkpt lat="48.04686" lon="7.16477">
        <ele>421.45419312</ele>
        <time>2021-06-16T08:11:41Z</time>
      </trkpt>
      <trkpt lat="48.04676" lon="7.16485">
        <ele>419.51889038</ele>
        <time>2021-06-16T08:11:43Z</time>
      </trkpt>
      <trkpt lat="48.04663" lon="7.16494">
        <ele>417.67633057</ele>
        <time>2021-06-16T08:11:45Z</time>
      </trkpt>
      <trkpt lat="48.04652" lon="7.16501">
        <ele>415.96365356</ele>
        <time>2021-06-16T08:11:47Z</time>
      </trkpt>
      <trkpt lat="48.04642" lon="7.16507">
        <ele>414.51107788</ele>
        <time>2021-06-16T08:11:50Z</time>
      </trkpt>
      <trkpt lat="48.04634" lon="7.16502">
        <ele>413.17697144</ele>
        <time>2021-06-16T08:11:52Z</time>
      </trkpt>
      <trkpt lat="48.04628" lon="7.16488">
        <ele>411.67877197</ele>
        <time>2021-06-16T08:11:54Z</time>
      </trkpt>
      <trkpt lat="48.04622" lon="7.16478">
        <ele>409.00595093</ele>
        <time>2021-06-16T08:11:57Z</time>
      </trkpt>
      <trkpt lat="48.04612" lon="7.16477">
        <ele>407.75335693</ele>
        <time>2021-06-16T08:12:00Z</time>
      </trkpt>
      <trkpt lat="48.04603" lon="7.16492">
        <ele>406.45068359</ele>
        <time>2021-06-16T08:12:02Z</time>
      </trkpt>
      <trkpt lat="48.04594" lon="7.16508">
        <ele>405.0475769</ele>
        <time>2021-06-16T08:12:04Z</time>
      </trkpt>
      <trkpt lat="48.04583" lon="7.16517">
        <ele>403.60699463</ele>
        <time>2021-06-16T08:12:06Z</time>
      </trkpt>
      <trkpt lat="48.04571" lon="7.16521">
        <ele>402.12817383</ele>
        <time>2021-06-16T08:12:08Z</time>
      </trkpt>
      <trkpt lat="48.04562" lon="7.16521">
        <ele>400.66552734</ele>
        <time>2021-06-16T08:12:10Z</time>
      </trkpt>
      <trkpt lat="48.04552" lon="7.1652">
        <ele>397.82550049</ele>
        <time>2021-06-16T08:12:13Z</time>
      </trkpt>
      <trkpt lat="48.04545" lon="7.16515">
        <ele>396.71948242</ele>
        <time>2021-06-16T08:12:17Z</time>
      </trkpt>
      <trkpt lat="48.04535" lon="7.16524">
        <ele>395.6986084</ele>
        <time>2021-06-16T08:12:19Z</time>
      </trkpt>
      <trkpt lat="48.0453" lon="7.16529">
        <ele>395.6986084</ele>
        <time>2021-06-16T08:12:25Z</time>
      </trkpt>
      <trkpt lat="48.04528" lon="7.16546">
        <ele>394.33258057</ele>
        <time>2021-06-16T08:12:27Z</time>
      </trkpt>
      <trkpt lat="48.04529" lon="7.16555">
        <ele>394.33258057</ele>
        <time>2021-06-16T08:12:29Z</time>
      </trkpt>
      <trkpt lat="48.0453" lon="7.16569">
        <ele>393.72473145</ele>
        <time>2021-06-16T08:12:33Z</time>
      </trkpt>
      <trkpt lat="48.04534" lon="7.16588">
        <ele>393.72473145</ele>
        <time>2021-06-16T08:12:36Z</time>
      </trkpt>
      <trkpt lat="48.04537" lon="7.16607">
        <ele>393.72473145</ele>
        <time>2021-06-16T08:12:39Z</time>
      </trkpt>
      <trkpt lat="48.0454" lon="7.16631">
        <ele>392.60183716</ele>
        <time>2021-06-16T08:12:42Z</time>
      </trkpt>
      <trkpt lat="48.04542" lon="7.16652">
        <ele>392.60183716</ele>
        <time>2021-06-16T08:12:44Z</time>
      </trkpt>
      <trkpt lat="48.04545" lon="7.16671">
        <ele>392.60183716</ele>
        <time>2021-06-16T08:12:46Z</time>
      </trkpt>
      <trkpt lat="48.04546" lon="7.16687">
        <ele>391.46838379</ele>
        <time>2021-06-16T08:12:48Z</time>
      </trkpt>
      <trkpt lat="48.04546" lon="7.16704">
        <ele>391.46838379</ele>
        <time>2021-06-16T08:12:50Z</time>
      </trkpt>
      <trkpt lat="48.04545" lon="7.16719">
        <ele>391.46838379</ele>
        <time>2021-06-16T08:12:52Z</time>
      </trkpt>
      <trkpt lat="48.04544" lon="7.16734">
        <ele>391.46838379</ele>
        <time>2021-06-16T08:12:54Z</time>
      </trkpt>
      <trkpt lat="48.04544" lon="7.16752">
        <ele>390.1675415</ele>
        <time>2021-06-16T08:12:56Z</time>
      </trkpt>
      <trkpt lat="48.04543" lon="7.16772">
        <ele>390.1675415</ele>
        <time>2021-06-16T08:12:58Z</time>
      </trkpt>
      <trkpt lat="48.04546" lon="7.16794">
        <ele>390.1675415</ele>
        <time>2021-06-16T08:13:00Z</time>
      </trkpt>
      <trkpt lat="48.04549" lon="7.16812">
        <ele>390.1675415</ele>
        <time>2021-06-16T08:13:02Z</time>
      </trkpt>
      <trkpt lat="48.04548" lon="7.16828">
        <ele>390.1675415</ele>
        <time>2021-06-16T08:13:04Z</time>
      </trkpt>
      <trkpt lat="48.04548" lon="7.16844">
        <ele>390.1675415</ele>
        <time>2021-06-16T08:13:06Z</time>
      </trkpt>
      <trkpt lat="48.04549" lon="7.1686">
        <ele>390.1675415</ele>
        <time>2021-06-16T08:13:08Z</time>
      </trkpt>
      <trkpt lat="48.0455" lon="7.16876">
        <ele>390.1675415</ele>
        <time>2021-06-16T08:13:11Z</time>
      </trkpt>
      <trkpt lat="48.04551" lon="7.16894">
        <ele>389.25296021</ele>
        <time>2021-06-16T08:13:13Z</time>
      </trkpt>
      <trkpt lat="48.04553" lon="7.16911">
        <ele>389.25296021</ele>
        <time>2021-06-16T08:13:16Z</time>
      </trkpt>
      <trkpt lat="48.04559" lon="7.16933">
        <ele>389.25296021</ele>
        <time>2021-06-16T08:13:18Z</time>
      </trkpt>
      <trkpt lat="48.04561" lon="7.16951">
        <ele>389.25296021</ele>
        <time>2021-06-16T08:13:21Z</time>
      </trkpt>
      <trkpt lat="48.04559" lon="7.16971">
        <ele>389.25296021</ele>
        <time>2021-06-16T08:13:23Z</time>
      </trkpt>
      <trkpt lat="48.0456" lon="7.16988">
        <ele>389.25296021</ele>
        <time>2021-06-16T08:13:26Z</time>
      </trkpt>
      <trkpt lat="48.0456" lon="7.16995">
        <ele>388.35467529</ele>
        <time>2021-06-16T08:13:27Z</time>
      </trkpt>
      <trkpt lat="48.04559" lon="7.17008">
        <ele>388.35467529</ele>
        <time>2021-06-16T08:13:29Z</time>
      </trkpt>
      <trkpt lat="48.04556" lon="7.17024">
        <ele>388.35467529</ele>
        <time>2021-06-16T08:13:31Z</time>
      </trkpt>
      <trkpt lat="48.04554" lon="7.17037">
        <ele>388.35467529</ele>
        <time>2021-06-16T08:13:33Z</time>
      </trkpt>
      <trkpt lat="48.04554" lon="7.17054">
        <ele>388.35467529</ele>
        <time>2021-06-16T08:13:36Z</time>
      </trkpt>
      <trkpt lat="48.04555" lon="7.17071">
        <ele>388.35467529</ele>
        <time>2021-06-16T08:13:38Z</time>
      </trkpt>
      <trkpt lat="48.04559" lon="7.17085">
        <ele>388.35467529</ele>
        <time>2021-06-16T08:13:40Z</time>
      </trkpt>
      <trkpt lat="48.0456" lon="7.171">
        <ele>388.35467529</ele>
        <time>2021-06-16T08:13:43Z</time>
      </trkpt>
      <trkpt lat="48.04562" lon="7.17115">
        <ele>388.35467529</ele>
        <time>2021-06-16T08:13:46Z</time>
      </trkpt>
      <trkpt lat="48.04571" lon="7.17128">
        <ele>388.35467529</ele>
        <time>2021-06-16T08:13:49Z</time>
      </trkpt>
      <trkpt lat="48.04575" lon="7.17143">
        <ele>388.35467529</ele>
        <time>2021-06-16T08:13:51Z</time>
      </trkpt>
      <trkpt lat="48.04582" lon="7.17157">
        <ele>388.35467529</ele>
        <time>2021-06-16T08:13:53Z</time>
      </trkpt>
      <trkpt lat="48.04586" lon="7.17169">
        <ele>387.51434326</ele>
        <time>2021-06-16T08:13:55Z</time>
      </trkpt>
      <trkpt lat="48.04593" lon="7.17182">
        <ele>387.51434326</ele>
        <time>2021-06-16T08:13:57Z</time>
      </trkpt>
      <trkpt lat="48.04598" lon="7.17195">
        <ele>387.51434326</ele>
        <time>2021-06-16T08:13:59Z</time>
      </trkpt>
      <trkpt lat="48.04604" lon="7.17208">
        <ele>387.51434326</ele>
        <time>2021-06-16T08:14:01Z</time>
      </trkpt>
      <trkpt lat="48.04609" lon="7.17222">
        <ele>387.51434326</ele>
        <time>2021-06-16T08:14:03Z</time>
      </trkpt>
      <trkpt lat="48.04614" lon="7.17236">
        <ele>387.51434326</ele>
        <time>2021-06-16T08:14:05Z</time>
      </trkpt>
      <trkpt lat="48.04619" lon="7.1725">
        <ele>387.51434326</ele>
        <time>2021-06-16T08:14:07Z</time>
      </trkpt>
      <trkpt lat="48.04626" lon="7.17265">
        <ele>387.51434326</ele>
        <time>2021-06-16T08:14:09Z</time>
      </trkpt>
      <trkpt lat="48.04633" lon="7.17279">
        <ele>387.51434326</ele>
        <time>2021-06-16T08:14:11Z</time>
      </trkpt>
      <trkpt lat="48.04636" lon="7.17295">
        <ele>387.51434326</ele>
        <time>2021-06-16T08:14:13Z</time>
      </trkpt>
      <trkpt lat="48.04641" lon="7.17311">
        <ele>387.51434326</ele>
        <time>2021-06-16T08:14:15Z</time>
      </trkpt>
      <trkpt lat="48.04644" lon="7.17328">
        <ele>387.51434326</ele>
        <time>2021-06-16T08:14:17Z</time>
      </trkpt>
      <trkpt lat="48.04646" lon="7.17344">
        <ele>387.51434326</ele>
        <time>2021-06-16T08:14:19Z</time>
      </trkpt>
      <trkpt lat="48.04647" lon="7.1736">
        <ele>387.51434326</ele>
        <time>2021-06-16T08:14:21Z</time>
      </trkpt>
      <trkpt lat="48.04648" lon="7.17379">
        <ele>387.51434326</ele>
        <time>2021-06-16T08:14:23Z</time>
      </trkpt>
      <trkpt lat="48.04647" lon="7.17397">
        <ele>387.51434326</ele>
        <time>2021-06-16T08:14:25Z</time>
      </trkpt>
      <trkpt lat="48.04647" lon="7.1741">
        <ele>385.87536621</ele>
        <time>2021-06-16T08:14:27Z</time>
      </trkpt>
      <trkpt lat="48.04646" lon="7.17421">
        <ele>385.87536621</ele>
        <time>2021-06-16T08:14:28Z</time>
      </trkpt>
      <trkpt lat="48.04644" lon="7.17438">
        <ele>385.87536621</ele>
        <time>2021-06-16T08:14:30Z</time>
      </trkpt>
      <trkpt lat="48.04642" lon="7.17453">
        <ele>385.87536621</ele>
        <time>2021-06-16T08:14:32Z</time>
      </trkpt>
      <trkpt lat="48.0464" lon="7.17469">
        <ele>385.87536621</ele>
        <time>2021-06-16T08:14:34Z</time>
      </trkpt>
      <trkpt lat="48.04637" lon="7.17483">
        <ele>385.87536621</ele>
        <time>2021-06-16T08:14:36Z</time>
      </trkpt>
      <trkpt lat="48.04635" lon="7.17499">
        <ele>385.87536621</ele>
        <time>2021-06-16T08:14:39Z</time>
      </trkpt>
      <trkpt lat="48.04635" lon="7.17518">
        <ele>385.87536621</ele>
        <time>2021-06-16T08:14:42Z</time>
      </trkpt>
      <trkpt lat="48.04633" lon="7.17533">
        <ele>385.87536621</ele>
        <time>2021-06-16T08:14:46Z</time>
      </trkpt>
      <trkpt lat="48.04618" lon="7.17533">
        <ele>385.87536621</ele>
        <time>2021-06-16T08:14:50Z</time>
      </trkpt>
      <trkpt lat="48.04607" lon="7.17532">
        <ele>385.87536621</ele>
        <time>2021-06-16T08:14:54Z</time>
      </trkpt>
      <trkpt lat="48.04595" lon="7.17534">
        <ele>385.87536621</ele>
        <time>2021-06-16T08:14:56Z</time>
      </trkpt>
      <trkpt lat="48.04585" lon="7.17535">
        <ele>385.87536621</ele>
        <time>2021-06-16T08:14:58Z</time>
      </trkpt>
      <trkpt lat="48.04573" lon="7.17536">
        <ele>386.01290894</ele>
        <time>2021-06-16T08:15:00Z</time>
      </trkpt>
      <trkpt lat="48.04563" lon="7.17536">
        <ele>386.01290894</ele>
        <time>2021-06-16T08:15:02Z</time>
      </trkpt>
      <trkpt lat="48.04552" lon="7.17534">
        <ele>384.13696289</ele>
        <time>2021-06-16T08:15:04Z</time>
      </trkpt>
      <trkpt lat="48.04541" lon="7.17532">
        <ele>384.13696289</ele>
        <time>2021-06-16T08:15:06Z</time>
      </trkpt>
      <trkpt lat="48.0453" lon="7.17533">
        <ele>384.13696289</ele>
        <time>2021-06-16T08:15:08Z</time>
      </trkpt>
      <trkpt lat="48.04519" lon="7.1753">
        <ele>384.13696289</ele>
        <time>2021-06-16T08:15:10Z</time>
      </trkpt>
      <trkpt lat="48.04506" lon="7.17527">
        <ele>384.13696289</ele>
        <time>2021-06-16T08:15:12Z</time>
      </trkpt>
      <trkpt lat="48.04495" lon="7.17525">
        <ele>384.13696289</ele>
        <time>2021-06-16T08:15:14Z</time>
      </trkpt>
      <trkpt lat="48.04484" lon="7.17523">
        <ele>384.13696289</ele>
        <time>2021-06-16T08:15:16Z</time>
      </trkpt>
      <trkpt lat="48.04472" lon="7.17521">
        <ele>384.13696289</ele>
        <time>2021-06-16T08:15:18Z</time>
      </trkpt>
      <trkpt lat="48.0446" lon="7.17519">
        <ele>383.03302002</ele>
        <time>2021-06-16T08:15:20Z</time>
      </trkpt>
      <trkpt lat="48.0445" lon="7.17519">
        <ele>383.03302002</ele>
        <time>2021-06-16T08:15:22Z</time>
      </trkpt>
      <trkpt lat="48.04438" lon="7.17516">
        <ele>383.03302002</ele>
        <time>2021-06-16T08:15:24Z</time>
      </trkpt>
      <trkpt lat="48.04427" lon="7.17513">
        <ele>383.03302002</ele>
        <time>2021-06-16T08:15:26Z</time>
      </trkpt>
      <trkpt lat="48.04424" lon="7.17512">
        <ele>382.39642334</ele>
        <time>2021-06-16T08:15:27Z</time>
      </trkpt>
      <trkpt lat="48.04416" lon="7.17509">
        <ele>382.39642334</ele>
        <time>2021-06-16T08:15:28Z</time>
      </trkpt>
      <trkpt lat="48.04406" lon="7.17506">
        <ele>382.39642334</ele>
        <time>2021-06-16T08:15:30Z</time>
      </trkpt>
      <trkpt lat="48.04396" lon="7.17504">
        <ele>382.39642334</ele>
        <time>2021-06-16T08:15:32Z</time>
      </trkpt>
      <trkpt lat="48.04386" lon="7.17501">
        <ele>382.39642334</ele>
        <time>2021-06-16T08:15:34Z</time>
      </trkpt>
      <trkpt lat="48.04376" lon="7.17497">
        <ele>382.39642334</ele>
        <time>2021-06-16T08:15:36Z</time>
      </trkpt>
      <trkpt lat="48.04366" lon="7.17493">
        <ele>382.39642334</ele>
        <time>2021-06-16T08:15:38Z</time>
      </trkpt>
      <trkpt lat="48.04356" lon="7.1749">
        <ele>382.39642334</ele>
        <time>2021-06-16T08:15:40Z</time>
      </trkpt>
      <trkpt lat="48.04347" lon="7.17487">
        <ele>382.85678101</ele>
        <time>2021-06-16T08:15:42Z</time>
      </trkpt>
      <trkpt lat="48.04338" lon="7.17485">
        <ele>382.85678101</ele>
        <time>2021-06-16T08:15:44Z</time>
      </trkpt>
      <trkpt lat="48.04328" lon="7.17485">
        <ele>382.85678101</ele>
        <time>2021-06-16T08:15:46Z</time>
      </trkpt>
      <trkpt lat="48.04318" lon="7.17484">
        <ele>382.85678101</ele>
        <time>2021-06-16T08:15:48Z</time>
      </trkpt>
      <trkpt lat="48.04308" lon="7.17482">
        <ele>382.85678101</ele>
        <time>2021-06-16T08:15:50Z</time>
      </trkpt>
      <trkpt lat="48.04299" lon="7.17481">
        <ele>382.85678101</ele>
        <time>2021-06-16T08:15:52Z</time>
      </trkpt>
      <trkpt lat="48.04289" lon="7.1748">
        <ele>382.85678101</ele>
        <time>2021-06-16T08:15:54Z</time>
      </trkpt>
      <trkpt lat="48.04278" lon="7.17478">
        <ele>382.85678101</ele>
        <time>2021-06-16T08:15:57Z</time>
      </trkpt>
      <trkpt lat="48.04269" lon="7.17472">
        <ele>382.85678101</ele>
        <time>2021-06-16T08:16:00Z</time>
      </trkpt>
      <trkpt lat="48.04263" lon="7.17461">
        <ele>383.478302</ele>
        <time>2021-06-16T08:16:05Z</time>
      </trkpt>
      <trkpt lat="48.04261" lon="7.17447">
        <ele>383.478302</ele>
        <time>2021-06-16T08:16:10Z</time>
      </trkpt>
      <trkpt lat="48.0426" lon="7.17431">
        <ele>383.478302</ele>
        <time>2021-06-16T08:16:13Z</time>
      </trkpt>
      <trkpt lat="48.0426" lon="7.17413">
        <ele>383.478302</ele>
        <time>2021-06-16T08:16:16Z</time>
      </trkpt>
      <trkpt lat="48.04258" lon="7.17394">
        <ele>383.478302</ele>
        <time>2021-06-16T08:16:19Z</time>
      </trkpt>
      <trkpt lat="48.04258" lon="7.17376">
        <ele>383.478302</ele>
        <time>2021-06-16T08:16:21Z</time>
      </trkpt>
      <trkpt lat="48.04255" lon="7.17359">
        <ele>384.9175415</ele>
        <time>2021-06-16T08:16:24Z</time>
      </trkpt>
      <trkpt lat="48.04252" lon="7.17343">
        <ele>385.52087402</ele>
        <time>2021-06-16T08:16:27Z</time>
      </trkpt>
      <trkpt lat="48.0425" lon="7.17328">
        <ele>385.52087402</ele>
        <time>2021-06-16T08:16:29Z</time>
      </trkpt>
      <trkpt lat="48.04248" lon="7.1731">
        <ele>385.52087402</ele>
        <time>2021-06-16T08:16:32Z</time>
      </trkpt>
      <trkpt lat="48.04246" lon="7.17294">
        <ele>385.52087402</ele>
        <time>2021-06-16T08:16:34Z</time>
      </trkpt>
      <trkpt lat="48.04243" lon="7.17278">
        <ele>385.52087402</ele>
        <time>2021-06-16T08:16:37Z</time>
      </trkpt>
      <trkpt lat="48.04242" lon="7.17261">
        <ele>385.52087402</ele>
        <time>2021-06-16T08:16:40Z</time>
      </trkpt>
      <trkpt lat="48.04239" lon="7.17242">
        <ele>385.52087402</ele>
        <time>2021-06-16T08:16:43Z</time>
      </trkpt>
      <trkpt lat="48.04236" lon="7.17223">
        <ele>386.11520386</ele>
        <time>2021-06-16T08:16:46Z</time>
      </trkpt>
      <trkpt lat="48.04233" lon="7.17206">
        <ele>386.11520386</ele>
        <time>2021-06-16T08:16:48Z</time>
      </trkpt>
      <trkpt lat="48.04231" lon="7.17192">
        <ele>386.11520386</ele>
        <time>2021-06-16T08:16:50Z</time>
      </trkpt>
      <trkpt lat="48.04228" lon="7.17179">
        <ele>386.11520386</ele>
        <time>2021-06-16T08:16:52Z</time>
      </trkpt>
      <trkpt lat="48.04226" lon="7.17164">
        <ele>386.11520386</ele>
        <time>2021-06-16T08:16:54Z</time>
      </trkpt>
      <trkpt lat="48.04224" lon="7.1715">
        <ele>386.11520386</ele>
        <time>2021-06-16T08:16:56Z</time>
      </trkpt>
      <trkpt lat="48.04222" lon="7.17137">
        <ele>386.11520386</ele>
        <time>2021-06-16T08:16:58Z</time>
      </trkpt>
      <trkpt lat="48.0422" lon="7.17122">
        <ele>386.11520386</ele>
        <time>2021-06-16T08:17:00Z</time>
      </trkpt>
      <trkpt lat="48.04218" lon="7.17108">
        <ele>386.11520386</ele>
        <time>2021-06-16T08:17:03Z</time>
      </trkpt>
      <trkpt lat="48.04216" lon="7.17091">
        <ele>386.11520386</ele>
        <time>2021-06-16T08:17:05Z</time>
      </trkpt>
      <trkpt lat="48.04215" lon="7.17076">
        <ele>387.10025024</ele>
        <time>2021-06-16T08:17:08Z</time>
      </trkpt>
      <trkpt lat="48.04213" lon="7.17059">
        <ele>387.10025024</ele>
        <time>2021-06-16T08:17:10Z</time>
      </trkpt>
      <trkpt lat="48.04211" lon="7.17044">
        <ele>387.10025024</ele>
        <time>2021-06-16T08:17:12Z</time>
      </trkpt>
      <trkpt lat="48.04209" lon="7.17029">
        <ele>387.10025024</ele>
        <time>2021-06-16T08:17:14Z</time>
      </trkpt>
      <trkpt lat="48.04208" lon="7.17013">
        <ele>387.10025024</ele>
        <time>2021-06-16T08:17:16Z</time>
      </trkpt>
      <trkpt lat="48.04209" lon="7.16997">
        <ele>387.10025024</ele>
        <time>2021-06-16T08:17:18Z</time>
      </trkpt>
      <trkpt lat="48.0421" lon="7.16982">
        <ele>387.10025024</ele>
        <time>2021-06-16T08:17:20Z</time>
      </trkpt>
      <trkpt lat="48.04211" lon="7.16966">
        <ele>387.10025024</ele>
        <time>2021-06-16T08:17:22Z</time>
      </trkpt>
      <trkpt lat="48.04211" lon="7.1695">
        <ele>387.10025024</ele>
        <time>2021-06-16T08:17:24Z</time>
      </trkpt>
      <trkpt lat="48.04212" lon="7.16935">
        <ele>388.17367554</ele>
        <time>2021-06-16T08:17:26Z</time>
      </trkpt>
      <trkpt lat="48.04212" lon="7.16931">
        <ele>388.71994019</ele>
        <time>2021-06-16T08:17:27Z</time>
      </trkpt>
      <trkpt lat="48.04212" lon="7.16919">
        <ele>388.71994019</ele>
        <time>2021-06-16T08:17:28Z</time>
      </trkpt>
      <trkpt lat="48.04212" lon="7.16905">
        <ele>388.71994019</ele>
        <time>2021-06-16T08:17:30Z</time>
      </trkpt>
      <trkpt lat="48.04213" lon="7.16891">
        <ele>388.71994019</ele>
        <time>2021-06-16T08:17:32Z</time>
      </trkpt>
      <trkpt lat="48.04213" lon="7.16873">
        <ele>388.71994019</ele>
        <time>2021-06-16T08:17:34Z</time>
      </trkpt>
      <trkpt lat="48.04213" lon="7.16857">
        <ele>388.71994019</ele>
        <time>2021-06-16T08:17:36Z</time>
      </trkpt>
      <trkpt lat="48.04212" lon="7.1684">
        <ele>388.71994019</ele>
        <time>2021-06-16T08:17:38Z</time>
      </trkpt>
      <trkpt lat="48.04211" lon="7.16822">
        <ele>388.71994019</ele>
        <time>2021-06-16T08:17:40Z</time>
      </trkpt>
      <trkpt lat="48.04211" lon="7.16805">
        <ele>388.71994019</ele>
        <time>2021-06-16T08:17:42Z</time>
      </trkpt>
      <trkpt lat="48.04211" lon="7.16787">
        <ele>388.71994019</ele>
        <time>2021-06-16T08:17:44Z</time>
      </trkpt>
      <trkpt lat="48.04211" lon="7.16771">
        <ele>389.33618164</ele>
        <time>2021-06-16T08:17:46Z</time>
      </trkpt>
      <trkpt lat="48.04211" lon="7.16755">
        <ele>389.33618164</ele>
        <time>2021-06-16T08:17:48Z</time>
      </trkpt>
      <trkpt lat="48.0421" lon="7.16739">
        <ele>389.33618164</ele>
        <time>2021-06-16T08:17:50Z</time>
      </trkpt>
      <trkpt lat="48.0421" lon="7.16722">
        <ele>389.33618164</ele>
        <time>2021-06-16T08:17:52Z</time>
      </trkpt>
      <trkpt lat="48.04209" lon="7.16706">
        <ele>389.33618164</ele>
        <time>2021-06-16T08:17:54Z</time>
      </trkpt>
      <trkpt lat="48.04209" lon="7.1669">
        <ele>389.33618164</ele>
        <time>2021-06-16T08:17:56Z</time>
      </trkpt>
      <trkpt lat="48.04209" lon="7.16674">
        <ele>389.33618164</ele>
        <time>2021-06-16T08:17:58Z</time>
      </trkpt>
      <trkpt lat="48.0421" lon="7.16657">
        <ele>389.33618164</ele>
        <time>2021-06-16T08:18:00Z</time>
      </trkpt>
      <trkpt lat="48.0421" lon="7.1664">
        <ele>390.28643799</ele>
        <time>2021-06-16T08:18:02Z</time>
      </trkpt>
      <trkpt lat="48.0421" lon="7.16623">
        <ele>390.28643799</ele>
        <time>2021-06-16T08:18:04Z</time>
      </trkpt>
      <trkpt lat="48.04211" lon="7.16606">
        <ele>390.28643799</ele>
        <time>2021-06-16T08:18:06Z</time>
      </trkpt>
      <trkpt lat="48.04212" lon="7.1659">
        <ele>390.28643799</ele>
        <time>2021-06-16T08:18:08Z</time>
      </trkpt>
      <trkpt lat="48.04212" lon="7.16574">
        <ele>390.28643799</ele>
        <time>2021-06-16T08:18:10Z</time>
      </trkpt>
      <trkpt lat="48.04212" lon="7.16558">
        <ele>390.28643799</ele>
        <time>2021-06-16T08:18:12Z</time>
      </trkpt>
      <trkpt lat="48.04212" lon="7.16541">
        <ele>390.28643799</ele>
        <time>2021-06-16T08:18:14Z</time>
      </trkpt>
      <trkpt lat="48.04213" lon="7.16524">
        <ele>390.28643799</ele>
        <time>2021-06-16T08:18:16Z</time>
      </trkpt>
      <trkpt lat="48.04213" lon="7.16508">
        <ele>390.28643799</ele>
        <time>2021-06-16T08:18:18Z</time>
      </trkpt>
      <trkpt lat="48.04212" lon="7.16491">
        <ele>390.28643799</ele>
        <time>2021-06-16T08:18:20Z</time>
      </trkpt>
      <trkpt lat="48.04213" lon="7.16474">
        <ele>391.38198853</ele>
        <time>2021-06-16T08:18:22Z</time>
      </trkpt>
      <trkpt lat="48.04215" lon="7.16457">
        <ele>391.38198853</ele>
        <time>2021-06-16T08:18:24Z</time>
      </trkpt>
      <trkpt lat="48.04216" lon="7.1644">
        <ele>391.38198853</ele>
        <time>2021-06-16T08:18:26Z</time>
      </trkpt>
      <trkpt lat="48.04217" lon="7.16436">
        <ele>392.05041504</ele>
        <time>2021-06-16T08:18:27Z</time>
      </trkpt>
      <trkpt lat="48.04215" lon="7.16422">
        <ele>392.05041504</ele>
        <time>2021-06-16T08:18:28Z</time>
      </trkpt>
      <trkpt lat="48.04215" lon="7.16404">
        <ele>392.05041504</ele>
        <time>2021-06-16T08:18:30Z</time>
      </trkpt>
      <trkpt lat="48.04216" lon="7.16387">
        <ele>392.05041504</ele>
        <time>2021-06-16T08:18:32Z</time>
      </trkpt>
      <trkpt lat="48.04223" lon="7.16371">
        <ele>392.05041504</ele>
        <time>2021-06-16T08:18:34Z</time>
      </trkpt>
      <trkpt lat="48.0423" lon="7.16356">
        <ele>392.05041504</ele>
        <time>2021-06-16T08:18:36Z</time>
      </trkpt>
      <trkpt lat="48.04231" lon="7.1634">
        <ele>392.74136353</ele>
        <time>2021-06-16T08:18:38Z</time>
      </trkpt>
      <trkpt lat="48.04229" lon="7.16324">
        <ele>392.74136353</ele>
        <time>2021-06-16T08:18:40Z</time>
      </trkpt>
      <trkpt lat="48.04226" lon="7.1631">
        <ele>392.74136353</ele>
        <time>2021-06-16T08:18:42Z</time>
      </trkpt>
      <trkpt lat="48.04221" lon="7.16293">
        <ele>392.74136353</ele>
        <time>2021-06-16T08:18:44Z</time>
      </trkpt>
      <trkpt lat="48.04218" lon="7.16276">
        <ele>392.74136353</ele>
        <time>2021-06-16T08:18:46Z</time>
      </trkpt>
      <trkpt lat="48.04218" lon="7.16259">
        <ele>392.74136353</ele>
        <time>2021-06-16T08:18:48Z</time>
      </trkpt>
      <trkpt lat="48.04216" lon="7.16242">
        <ele>393.77645874</ele>
        <time>2021-06-16T08:18:50Z</time>
      </trkpt>
      <trkpt lat="48.04215" lon="7.16226">
        <ele>393.77645874</ele>
        <time>2021-06-16T08:18:52Z</time>
      </trkpt>
      <trkpt lat="48.04213" lon="7.1621">
        <ele>393.77645874</ele>
        <time>2021-06-16T08:18:54Z</time>
      </trkpt>
      <trkpt lat="48.04212" lon="7.16194">
        <ele>393.77645874</ele>
        <time>2021-06-16T08:18:56Z</time>
      </trkpt>
      <trkpt lat="48.0421" lon="7.16178">
        <ele>393.77645874</ele>
        <time>2021-06-16T08:18:58Z</time>
      </trkpt>
      <trkpt lat="48.04209" lon="7.16162">
        <ele>393.77645874</ele>
        <time>2021-06-16T08:19:00Z</time>
      </trkpt>
      <trkpt lat="48.04208" lon="7.16146">
        <ele>393.77645874</ele>
        <time>2021-06-16T08:19:02Z</time>
      </trkpt>
      <trkpt lat="48.04207" lon="7.16131">
        <ele>394.70056152</ele>
        <time>2021-06-16T08:19:04Z</time>
      </trkpt>
      <trkpt lat="48.04206" lon="7.16117">
        <ele>394.70056152</ele>
        <time>2021-06-16T08:19:06Z</time>
      </trkpt>
      <trkpt lat="48.04205" lon="7.16102">
        <ele>394.70056152</ele>
        <time>2021-06-16T08:19:08Z</time>
      </trkpt>
      <trkpt lat="48.04205" lon="7.16087">
        <ele>394.70056152</ele>
        <time>2021-06-16T08:19:10Z</time>
      </trkpt>
      <trkpt lat="48.04204" lon="7.16072">
        <ele>394.70056152</ele>
        <time>2021-06-16T08:19:12Z</time>
      </trkpt>
      <trkpt lat="48.04205" lon="7.16058">
        <ele>394.70056152</ele>
        <time>2021-06-16T08:19:14Z</time>
      </trkpt>
      <trkpt lat="48.04209" lon="7.16044">
        <ele>395.82424927</ele>
        <time>2021-06-16T08:19:16Z</time>
      </trkpt>
      <trkpt lat="48.04218" lon="7.16034">
        <ele>395.82424927</ele>
        <time>2021-06-16T08:19:18Z</time>
      </trkpt>
      <trkpt lat="48.04226" lon="7.16026">
        <ele>395.82424927</ele>
        <time>2021-06-16T08:19:20Z</time>
      </trkpt>
      <trkpt lat="48.04234" lon="7.16014">
        <ele>395.82424927</ele>
        <time>2021-06-16T08:19:23Z</time>
      </trkpt>
      <trkpt lat="48.04237" lon="7.15998">
        <ele>395.82424927</ele>
        <time>2021-06-16T08:19:25Z</time>
      </trkpt>
      <trkpt lat="48.04237" lon="7.15987">
        <ele>396.57821655</ele>
        <time>2021-06-16T08:19:27Z</time>
      </trkpt>
      <trkpt lat="48.04236" lon="7.15977">
        <ele>396.57821655</ele>
        <time>2021-06-16T08:19:28Z</time>
      </trkpt>
      <trkpt lat="48.04229" lon="7.15964">
        <ele>396.57821655</ele>
        <time>2021-06-16T08:19:31Z</time>
      </trkpt>
      <trkpt lat="48.04218" lon="7.15957">
        <ele>396.57821655</ele>
        <time>2021-06-16T08:19:33Z</time>
      </trkpt>
      <trkpt lat="48.04207" lon="7.15953">
        <ele>396.57821655</ele>
        <time>2021-06-16T08:19:35Z</time>
      </trkpt>
      <trkpt lat="48.04197" lon="7.15951">
        <ele>396.57821655</ele>
        <time>2021-06-16T08:19:37Z</time>
      </trkpt>
      <trkpt lat="48.04188" lon="7.15945">
        <ele>396.57821655</ele>
        <time>2021-06-16T08:19:39Z</time>
      </trkpt>
      <trkpt lat="48.04182" lon="7.15934">
        <ele>396.57821655</ele>
        <time>2021-06-16T08:19:42Z</time>
      </trkpt>
      <trkpt lat="48.04182" lon="7.15919">
        <ele>396.57821655</ele>
        <time>2021-06-16T08:19:45Z</time>
      </trkpt>
      <trkpt lat="48.04181" lon="7.15903">
        <ele>396.57821655</ele>
        <time>2021-06-16T08:19:48Z</time>
      </trkpt>
      <trkpt lat="48.04179" lon="7.15884">
        <ele>396.57821655</ele>
        <time>2021-06-16T08:19:51Z</time>
      </trkpt>
      <trkpt lat="48.04178" lon="7.15865">
        <ele>396.57821655</ele>
        <time>2021-06-16T08:19:54Z</time>
      </trkpt>
      <trkpt lat="48.04174" lon="7.15846">
        <ele>396.57821655</ele>
        <time>2021-06-16T08:19:56Z</time>
      </trkpt>
      <trkpt lat="48.04172" lon="7.15831">
        <ele>396.57821655</ele>
        <time>2021-06-16T08:19:58Z</time>
      </trkpt>
      <trkpt lat="48.04171" lon="7.15817">
        <ele>396.57821655</ele>
        <time>2021-06-16T08:20:00Z</time>
      </trkpt>
      <trkpt lat="48.04169" lon="7.158">
        <ele>396.57821655</ele>
        <time>2021-06-16T08:20:03Z</time>
      </trkpt>
      <trkpt lat="48.04167" lon="7.15783">
        <ele>396.57821655</ele>
        <time>2021-06-16T08:20:05Z</time>
      </trkpt>
      <trkpt lat="48.04165" lon="7.15768">
        <ele>396.57821655</ele>
        <time>2021-06-16T08:20:07Z</time>
      </trkpt>
      <trkpt lat="48.04163" lon="7.15754">
        <ele>396.57821655</ele>
        <time>2021-06-16T08:20:09Z</time>
      </trkpt>
      <trkpt lat="48.04161" lon="7.1574">
        <ele>397.4866333</ele>
        <time>2021-06-16T08:20:11Z</time>
      </trkpt>
      <trkpt lat="48.04159" lon="7.15725">
        <ele>397.4866333</ele>
        <time>2021-06-16T08:20:13Z</time>
      </trkpt>
      <trkpt lat="48.04157" lon="7.15709">
        <ele>397.4866333</ele>
        <time>2021-06-16T08:20:16Z</time>
      </trkpt>
      <trkpt lat="48.04154" lon="7.15692">
        <ele>397.4866333</ele>
        <time>2021-06-16T08:20:18Z</time>
      </trkpt>
      <trkpt lat="48.04152" lon="7.15678">
        <ele>397.4866333</ele>
        <time>2021-06-16T08:20:20Z</time>
      </trkpt>
      <trkpt lat="48.0415" lon="7.15663">
        <ele>397.4866333</ele>
        <time>2021-06-16T08:20:23Z</time>
      </trkpt>
      <trkpt lat="48.04147" lon="7.15644">
        <ele>398.28173828</ele>
        <time>2021-06-16T08:20:26Z</time>
      </trkpt>
      <trkpt lat="48.04147" lon="7.15639">
        <ele>398.9744873</ele>
        <time>2021-06-16T08:20:27Z</time>
      </trkpt>
      <trkpt lat="48.04145" lon="7.15628">
        <ele>398.9744873</ele>
        <time>2021-06-16T08:20:29Z</time>
      </trkpt>
      <trkpt lat="48.04142" lon="7.15614">
        <ele>398.9744873</ele>
        <time>2021-06-16T08:20:33Z</time>
      </trkpt>
      <trkpt lat="48.04134" lon="7.15612">
        <ele>399.60198975</ele>
        <time>2021-06-16T08:20:41Z</time>
      </trkpt>
      <trkpt lat="48.04123" lon="7.15613">
        <ele>399.60198975</ele>
        <time>2021-06-16T08:20:45Z</time>
      </trkpt>
      <trkpt lat="48.04119" lon="7.15598">
        <ele>399.60198975</ele>
        <time>2021-06-16T08:20:48Z</time>
      </trkpt>
      <trkpt lat="48.04116" lon="7.15579">
        <ele>399.60198975</ele>
        <time>2021-06-16T08:20:51Z</time>
      </trkpt>
      <trkpt lat="48.04115" lon="7.1556">
        <ele>399.60198975</ele>
        <time>2021-06-16T08:20:54Z</time>
      </trkpt>
      <trkpt lat="48.04113" lon="7.15543">
        <ele>399.60198975</ele>
        <time>2021-06-16T08:20:56Z</time>
      </trkpt>
      <trkpt lat="48.04111" lon="7.15529">
        <ele>399.60198975</ele>
        <time>2021-06-16T08:20:58Z</time>
      </trkpt>
      <trkpt lat="48.04108" lon="7.15514">
        <ele>399.60198975</ele>
        <time>2021-06-16T08:21:01Z</time>
      </trkpt>
      <trkpt lat="48.04106" lon="7.15496">
        <ele>399.60198975</ele>
        <time>2021-06-16T08:21:03Z</time>
      </trkpt>
      <trkpt lat="48.04106" lon="7.15482">
        <ele>399.60198975</ele>
        <time>2021-06-16T08:21:05Z</time>
      </trkpt>
      <trkpt lat="48.04104" lon="7.15466">
        <ele>399.60198975</ele>
        <time>2021-06-16T08:21:08Z</time>
      </trkpt>
      <trkpt lat="48.04103" lon="7.15447">
        <ele>399.60198975</ele>
        <time>2021-06-16T08:21:10Z</time>
      </trkpt>
      <trkpt lat="48.04101" lon="7.15433">
        <ele>400.52603149</ele>
        <time>2021-06-16T08:21:12Z</time>
      </trkpt>
      <trkpt lat="48.04099" lon="7.15419">
        <ele>400.52603149</ele>
        <time>2021-06-16T08:21:14Z</time>
      </trkpt>
      <trkpt lat="48.04099" lon="7.15405">
        <ele>400.52603149</ele>
        <time>2021-06-16T08:21:16Z</time>
      </trkpt>
      <trkpt lat="48.04096" lon="7.15388">
        <ele>400.52603149</ele>
        <time>2021-06-16T08:21:19Z</time>
      </trkpt>
      <trkpt lat="48.04093" lon="7.1537">
        <ele>401.65795898</ele>
        <time>2021-06-16T08:21:22Z</time>
      </trkpt>
      <trkpt lat="48.04091" lon="7.15353">
        <ele>401.65795898</ele>
        <time>2021-06-16T08:21:24Z</time>
      </trkpt>
      <trkpt lat="48.0409" lon="7.1534">
        <ele>401.65795898</ele>
        <time>2021-06-16T08:21:26Z</time>
      </trkpt>
      <trkpt lat="48.04089" lon="7.15336">
        <ele>402.29501343</ele>
        <time>2021-06-16T08:21:27Z</time>
      </trkpt>
      <trkpt lat="48.04088" lon="7.15326">
        <ele>402.29501343</ele>
        <time>2021-06-16T08:21:28Z</time>
      </trkpt>
      <trkpt lat="48.04086" lon="7.15312">
        <ele>402.29501343</ele>
        <time>2021-06-16T08:21:30Z</time>
      </trkpt>
      <trkpt lat="48.04084" lon="7.15298">
        <ele>402.29501343</ele>
        <time>2021-06-16T08:21:32Z</time>
      </trkpt>
      <trkpt lat="48.04082" lon="7.15283">
        <ele>402.29501343</ele>
        <time>2021-06-16T08:21:34Z</time>
      </trkpt>
      <trkpt lat="48.0408" lon="7.15269">
        <ele>402.29501343</ele>
        <time>2021-06-16T08:21:36Z</time>
      </trkpt>
      <trkpt lat="48.04077" lon="7.15254">
        <ele>402.29501343</ele>
        <time>2021-06-16T08:21:38Z</time>
      </trkpt>
      <trkpt lat="48.04073" lon="7.15239">
        <ele>402.29501343</ele>
        <time>2021-06-16T08:21:40Z</time>
      </trkpt>
      <trkpt lat="48.04071" lon="7.15224">
        <ele>402.29501343</ele>
        <time>2021-06-16T08:21:42Z</time>
      </trkpt>
      <trkpt lat="48.04069" lon="7.15209">
        <ele>402.29501343</ele>
        <time>2021-06-16T08:21:44Z</time>
      </trkpt>
      <trkpt lat="48.04068" lon="7.15193">
        <ele>402.29501343</ele>
        <time>2021-06-16T08:21:47Z</time>
      </trkpt>
      <trkpt lat="48.04066" lon="7.15175">
        <ele>403.01409912</ele>
        <time>2021-06-16T08:21:49Z</time>
      </trkpt>
      <trkpt lat="48.04064" lon="7.15159">
        <ele>403.01409912</ele>
        <time>2021-06-16T08:21:51Z</time>
      </trkpt>
      <trkpt lat="48.04063" lon="7.15142">
        <ele>403.01409912</ele>
        <time>2021-06-16T08:21:54Z</time>
      </trkpt>
      <trkpt lat="48.04061" lon="7.15124">
        <ele>403.01409912</ele>
        <time>2021-06-16T08:21:56Z</time>
      </trkpt>
      <trkpt lat="48.04058" lon="7.15111">
        <ele>403.01409912</ele>
        <time>2021-06-16T08:21:58Z</time>
      </trkpt>
      <trkpt lat="48.04057" lon="7.15094">
        <ele>403.01409912</ele>
        <time>2021-06-16T08:22:01Z</time>
      </trkpt>
      <trkpt lat="48.04057" lon="7.15076">
        <ele>403.01409912</ele>
        <time>2021-06-16T08:22:03Z</time>
      </trkpt>
      <trkpt lat="48.04055" lon="7.1506">
        <ele>404.19500732</ele>
        <time>2021-06-16T08:22:06Z</time>
      </trkpt>
      <trkpt lat="48.04052" lon="7.15042">
        <ele>404.19500732</ele>
        <time>2021-06-16T08:22:09Z</time>
      </trkpt>
      <trkpt lat="48.04048" lon="7.15026">
        <ele>404.19500732</ele>
        <time>2021-06-16T08:22:11Z</time>
      </trkpt>
      <trkpt lat="48.04046" lon="7.1501">
        <ele>405.89260864</ele>
        <time>2021-06-16T08:22:27Z</time>
      </trkpt>
      <trkpt lat="48.0405" lon="7.15004">
        <ele>405.89260864</ele>
        <time>2021-06-16T08:22:32Z</time>
      </trkpt>
      <trkpt lat="48.04055" lon="7.1499">
        <ele>405.89260864</ele>
        <time>2021-06-16T08:22:35Z</time>
      </trkpt>
      <trkpt lat="48.04054" lon="7.14974">
        <ele>405.89260864</ele>
        <time>2021-06-16T08:22:38Z</time>
      </trkpt>
      <trkpt lat="48.04052" lon="7.14957">
        <ele>405.89260864</ele>
        <time>2021-06-16T08:22:41Z</time>
      </trkpt>
      <trkpt lat="48.04047" lon="7.14939">
        <ele>405.89260864</ele>
        <time>2021-06-16T08:22:44Z</time>
      </trkpt>
      <trkpt lat="48.04042" lon="7.14923">
        <ele>405.89260864</ele>
        <time>2021-06-16T08:22:46Z</time>
      </trkpt>
      <trkpt lat="48.04039" lon="7.14908">
        <ele>405.89260864</ele>
        <time>2021-06-16T08:22:49Z</time>
      </trkpt>
      <trkpt lat="48.04035" lon="7.14893">
        <ele>405.89260864</ele>
        <time>2021-06-16T08:22:51Z</time>
      </trkpt>
      <trkpt lat="48.04031" lon="7.14879">
        <ele>405.89260864</ele>
        <time>2021-06-16T08:22:54Z</time>
      </trkpt>
      <trkpt lat="48.04025" lon="7.14863">
        <ele>405.89260864</ele>
        <time>2021-06-16T08:22:56Z</time>
      </trkpt>
      <trkpt lat="48.04021" lon="7.1485">
        <ele>405.89260864</ele>
        <time>2021-06-16T08:22:58Z</time>
      </trkpt>
      <trkpt lat="48.04018" lon="7.14838">
        <ele>405.89260864</ele>
        <time>2021-06-16T08:23:00Z</time>
      </trkpt>
      <trkpt lat="48.04014" lon="7.14824">
        <ele>405.89260864</ele>
        <time>2021-06-16T08:23:02Z</time>
      </trkpt>
      <trkpt lat="48.0401" lon="7.14809">
        <ele>405.89260864</ele>
        <time>2021-06-16T08:23:04Z</time>
      </trkpt>
      <trkpt lat="48.04007" lon="7.14795">
        <ele>405.89260864</ele>
        <time>2021-06-16T08:23:06Z</time>
      </trkpt>
      <trkpt lat="48.04005" lon="7.14782">
        <ele>405.89260864</ele>
        <time>2021-06-16T08:23:08Z</time>
      </trkpt>
      <trkpt lat="48.04003" lon="7.14768">
        <ele>405.89260864</ele>
        <time>2021-06-16T08:23:10Z</time>
      </trkpt>
      <trkpt lat="48.04" lon="7.14753">
        <ele>405.89260864</ele>
        <time>2021-06-16T08:23:12Z</time>
      </trkpt>
      <trkpt lat="48.03998" lon="7.14737">
        <ele>405.89260864</ele>
        <time>2021-06-16T08:23:15Z</time>
      </trkpt>
      <trkpt lat="48.03995" lon="7.1472">
        <ele>406.30517578</ele>
        <time>2021-06-16T08:23:17Z</time>
      </trkpt>
      <trkpt lat="48.03993" lon="7.14704">
        <ele>406.30517578</ele>
        <time>2021-06-16T08:23:20Z</time>
      </trkpt>
      <trkpt lat="48.0399" lon="7.14687">
        <ele>406.30517578</ele>
        <time>2021-06-16T08:23:22Z</time>
      </trkpt>
      <trkpt lat="48.03988" lon="7.14674">
        <ele>406.30517578</ele>
        <time>2021-06-16T08:23:24Z</time>
      </trkpt>
      <trkpt lat="48.03985" lon="7.1466">
        <ele>406.30517578</ele>
        <time>2021-06-16T08:23:26Z</time>
      </trkpt>
      <trkpt lat="48.03985" lon="7.14656">
        <ele>407.52380371</ele>
        <time>2021-06-16T08:23:27Z</time>
      </trkpt>
      <trkpt lat="48.03983" lon="7.14646">
        <ele>407.52380371</ele>
        <time>2021-06-16T08:23:28Z</time>
      </trkpt>
      <trkpt lat="48.03981" lon="7.1463">
        <ele>407.52380371</ele>
        <time>2021-06-16T08:23:31Z</time>
      </trkpt>
      <trkpt lat="48.03979" lon="7.14611">
        <ele>407.52380371</ele>
        <time>2021-06-16T08:23:33Z</time>
      </trkpt>
      <trkpt lat="48.03976" lon="7.14596">
        <ele>407.52380371</ele>
        <time>2021-06-16T08:23:35Z</time>
      </trkpt>
      <trkpt lat="48.03974" lon="7.1458">
        <ele>407.52380371</ele>
        <time>2021-06-16T08:23:38Z</time>
      </trkpt>
      <trkpt lat="48.03971" lon="7.14562">
        <ele>408.52688599</ele>
        <time>2021-06-16T08:23:40Z</time>
      </trkpt>
      <trkpt lat="48.0397" lon="7.14548">
        <ele>408.52688599</ele>
        <time>2021-06-16T08:23:42Z</time>
      </trkpt>
      <trkpt lat="48.03967" lon="7.14533">
        <ele>408.52688599</ele>
        <time>2021-06-16T08:23:44Z</time>
      </trkpt>
      <trkpt lat="48.03965" lon="7.14519">
        <ele>408.52688599</ele>
        <time>2021-06-16T08:23:46Z</time>
      </trkpt>
      <trkpt lat="48.03964" lon="7.14502">
        <ele>408.52688599</ele>
        <time>2021-06-16T08:23:49Z</time>
      </trkpt>
      <trkpt lat="48.03961" lon="7.14483">
        <ele>408.52688599</ele>
        <time>2021-06-16T08:23:51Z</time>
      </trkpt>
      <trkpt lat="48.03957" lon="7.14469">
        <ele>409.56698608</ele>
        <time>2021-06-16T08:23:53Z</time>
      </trkpt>
      <trkpt lat="48.03954" lon="7.14452">
        <ele>409.56698608</ele>
        <time>2021-06-16T08:23:55Z</time>
      </trkpt>
      <trkpt lat="48.03952" lon="7.14438">
        <ele>409.56698608</ele>
        <time>2021-06-16T08:23:57Z</time>
      </trkpt>
      <trkpt lat="48.03949" lon="7.14421">
        <ele>409.56698608</ele>
        <time>2021-06-16T08:24:00Z</time>
      </trkpt>
      <trkpt lat="48.03946" lon="7.14404">
        <ele>409.56698608</ele>
        <time>2021-06-16T08:24:02Z</time>
      </trkpt>
      <trkpt lat="48.03941" lon="7.14392">
        <ele>409.56698608</ele>
        <time>2021-06-16T08:24:04Z</time>
      </trkpt>
      <trkpt lat="48.03936" lon="7.14378">
        <ele>410.60595703</ele>
        <time>2021-06-16T08:24:06Z</time>
      </trkpt>
      <trkpt lat="48.0393" lon="7.14365">
        <ele>410.60595703</ele>
        <time>2021-06-16T08:24:08Z</time>
      </trkpt>
      <trkpt lat="48.03925" lon="7.1435">
        <ele>410.60595703</ele>
        <time>2021-06-16T08:24:11Z</time>
      </trkpt>
      <trkpt lat="48.03919" lon="7.14333">
        <ele>410.60595703</ele>
        <time>2021-06-16T08:24:13Z</time>
      </trkpt>
      <trkpt lat="48.03914" lon="7.14319">
        <ele>410.60595703</ele>
        <time>2021-06-16T08:24:15Z</time>
      </trkpt>
      <trkpt lat="48.03909" lon="7.14304">
        <ele>411.77661133</ele>
        <time>2021-06-16T08:24:18Z</time>
      </trkpt>
      <trkpt lat="48.03903" lon="7.14289">
        <ele>411.77661133</ele>
        <time>2021-06-16T08:24:20Z</time>
      </trkpt>
      <trkpt lat="48.03899" lon="7.14276">
        <ele>411.77661133</ele>
        <time>2021-06-16T08:24:22Z</time>
      </trkpt>
      <trkpt lat="48.03893" lon="7.14264">
        <ele>411.77661133</ele>
        <time>2021-06-16T08:24:24Z</time>
      </trkpt>
      <trkpt lat="48.03887" lon="7.14251">
        <ele>412.8979187</ele>
        <time>2021-06-16T08:24:26Z</time>
      </trkpt>
      <trkpt lat="48.03885" lon="7.14248">
        <ele>413.31719971</ele>
        <time>2021-06-16T08:24:27Z</time>
      </trkpt>
      <trkpt lat="48.03882" lon="7.14239">
        <ele>413.31719971</ele>
        <time>2021-06-16T08:24:28Z</time>
      </trkpt>
      <trkpt lat="48.0388" lon="7.14225">
        <ele>413.31719971</ele>
        <time>2021-06-16T08:24:30Z</time>
      </trkpt>
      <trkpt lat="48.03882" lon="7.14211">
        <ele>413.31719971</ele>
        <time>2021-06-16T08:24:32Z</time>
      </trkpt>
      <trkpt lat="48.03886" lon="7.14196">
        <ele>414.04055786</ele>
        <time>2021-06-16T08:24:35Z</time>
      </trkpt>
      <trkpt lat="48.03891" lon="7.14178">
        <ele>414.04055786</ele>
        <time>2021-06-16T08:24:38Z</time>
      </trkpt>
      <trkpt lat="48.039" lon="7.14163">
        <ele>414.04055786</ele>
        <time>2021-06-16T08:24:41Z</time>
      </trkpt>
      <trkpt lat="48.03907" lon="7.14149">
        <ele>414.04055786</ele>
        <time>2021-06-16T08:24:43Z</time>
      </trkpt>
      <trkpt lat="48.03911" lon="7.14135">
        <ele>414.04055786</ele>
        <time>2021-06-16T08:24:45Z</time>
      </trkpt>
      <trkpt lat="48.03915" lon="7.1412">
        <ele>414.04055786</ele>
        <time>2021-06-16T08:24:47Z</time>
      </trkpt>
      <trkpt lat="48.03919" lon="7.14104">
        <ele>414.04055786</ele>
        <time>2021-06-16T08:24:49Z</time>
      </trkpt>
      <trkpt lat="48.03923" lon="7.14091">
        <ele>414.04055786</ele>
        <time>2021-06-16T08:24:51Z</time>
      </trkpt>
      <trkpt lat="48.03927" lon="7.14078">
        <ele>414.04055786</ele>
        <time>2021-06-16T08:24:53Z</time>
      </trkpt>
      <trkpt lat="48.0393" lon="7.14062">
        <ele>414.04055786</ele>
        <time>2021-06-16T08:24:56Z</time>
      </trkpt>
      <trkpt lat="48.03933" lon="7.14044">
        <ele>414.04055786</ele>
        <time>2021-06-16T08:24:58Z</time>
      </trkpt>
      <trkpt lat="48.03936" lon="7.1403">
        <ele>414.04055786</ele>
        <time>2021-06-16T08:25:00Z</time>
      </trkpt>
      <trkpt lat="48.03943" lon="7.14016">
        <ele>414.04055786</ele>
        <time>2021-06-16T08:25:03Z</time>
      </trkpt>
      <trkpt lat="48.0395" lon="7.14001">
        <ele>414.04055786</ele>
        <time>2021-06-16T08:25:05Z</time>
      </trkpt>
      <trkpt lat="48.03956" lon="7.13989">
        <ele>414.04055786</ele>
        <time>2021-06-16T08:25:07Z</time>
      </trkpt>
      <trkpt lat="48.03964" lon="7.13979">
        <ele>414.04055786</ele>
        <time>2021-06-16T08:25:09Z</time>
      </trkpt>
      <trkpt lat="48.03972" lon="7.13966">
        <ele>414.7677002</ele>
        <time>2021-06-16T08:25:12Z</time>
      </trkpt>
      <trkpt lat="48.03971" lon="7.13949">
        <ele>414.7677002</ele>
        <time>2021-06-16T08:25:14Z</time>
      </trkpt>
      <trkpt lat="48.03967" lon="7.13934">
        <ele>414.7677002</ele>
        <time>2021-06-16T08:25:17Z</time>
      </trkpt>
      <trkpt lat="48.0396" lon="7.13921">
        <ele>414.7677002</ele>
        <time>2021-06-16T08:25:19Z</time>
      </trkpt>
      <trkpt lat="48.03954" lon="7.13909">
        <ele>414.7677002</ele>
        <time>2021-06-16T08:25:21Z</time>
      </trkpt>
      <trkpt lat="48.03949" lon="7.13894">
        <ele>415.86187744</ele>
        <time>2021-06-16T08:25:23Z</time>
      </trkpt>
      <trkpt lat="48.03948" lon="7.13878">
        <ele>415.86187744</ele>
        <time>2021-06-16T08:25:25Z</time>
      </trkpt>
      <trkpt lat="48.03947" lon="7.13866">
        <ele>416.82376099</ele>
        <time>2021-06-16T08:25:27Z</time>
      </trkpt>
      <trkpt lat="48.03946" lon="7.13855">
        <ele>416.82376099</ele>
        <time>2021-06-16T08:25:28Z</time>
      </trkpt>
      <trkpt lat="48.03946" lon="7.1384">
        <ele>416.82376099</ele>
        <time>2021-06-16T08:25:30Z</time>
      </trkpt>
      <trkpt lat="48.03946" lon="7.13825">
        <ele>416.82376099</ele>
        <time>2021-06-16T08:25:32Z</time>
      </trkpt>
      <trkpt lat="48.03948" lon="7.13811">
        <ele>416.82376099</ele>
        <time>2021-06-16T08:25:34Z</time>
      </trkpt>
      <trkpt lat="48.03949" lon="7.13796">
        <ele>417.51150513</ele>
        <time>2021-06-16T08:25:36Z</time>
      </trkpt>
      <trkpt lat="48.03952" lon="7.13783">
        <ele>417.51150513</ele>
        <time>2021-06-16T08:25:38Z</time>
      </trkpt>
      <trkpt lat="48.03955" lon="7.13767">
        <ele>417.51150513</ele>
        <time>2021-06-16T08:25:40Z</time>
      </trkpt>
      <trkpt lat="48.03956" lon="7.13753">
        <ele>417.51150513</ele>
        <time>2021-06-16T08:25:42Z</time>
      </trkpt>
      <trkpt lat="48.03957" lon="7.13738">
        <ele>418.58401489</ele>
        <time>2021-06-16T08:25:44Z</time>
      </trkpt>
      <trkpt lat="48.03957" lon="7.13723">
        <ele>418.58401489</ele>
        <time>2021-06-16T08:25:46Z</time>
      </trkpt>
      <trkpt lat="48.03957" lon="7.13709">
        <ele>418.58401489</ele>
        <time>2021-06-16T08:25:48Z</time>
      </trkpt>
      <trkpt lat="48.03956" lon="7.13695">
        <ele>419.64346313</ele>
        <time>2021-06-16T08:25:50Z</time>
      </trkpt>
      <trkpt lat="48.03956" lon="7.13681">
        <ele>419.64346313</ele>
        <time>2021-06-16T08:25:52Z</time>
      </trkpt>
      <trkpt lat="48.03957" lon="7.13665">
        <ele>419.64346313</ele>
        <time>2021-06-16T08:25:54Z</time>
      </trkpt>
      <trkpt lat="48.03958" lon="7.13652">
        <ele>419.64346313</ele>
        <time>2021-06-16T08:25:56Z</time>
      </trkpt>
      <trkpt lat="48.03959" lon="7.13637">
        <ele>419.64346313</ele>
        <time>2021-06-16T08:25:58Z</time>
      </trkpt>
      <trkpt lat="48.03962" lon="7.13621">
        <ele>419.64346313</ele>
        <time>2021-06-16T08:26:01Z</time>
      </trkpt>
      <trkpt lat="48.0397" lon="7.13607">
        <ele>420.59890747</ele>
        <time>2021-06-16T08:26:03Z</time>
      </trkpt>
      <trkpt lat="48.03979" lon="7.13598">
        <ele>420.59890747</ele>
        <time>2021-06-16T08:26:05Z</time>
      </trkpt>
      <trkpt lat="48.03987" lon="7.13587">
        <ele>420.59890747</ele>
        <time>2021-06-16T08:26:07Z</time>
      </trkpt>
      <trkpt lat="48.03996" lon="7.13578">
        <ele>421.84698486</ele>
        <time>2021-06-16T08:26:09Z</time>
      </trkpt>
      <trkpt lat="48.03999" lon="7.13563">
        <ele>421.84698486</ele>
        <time>2021-06-16T08:26:12Z</time>
      </trkpt>
      <trkpt lat="48.04" lon="7.13543">
        <ele>421.84698486</ele>
        <time>2021-06-16T08:26:15Z</time>
      </trkpt>
      <trkpt lat="48.04001" lon="7.13527">
        <ele>421.84698486</ele>
        <time>2021-06-16T08:26:17Z</time>
      </trkpt>
      <trkpt lat="48.04002" lon="7.13513">
        <ele>422.98812866</ele>
        <time>2021-06-16T08:26:19Z</time>
      </trkpt>
      <trkpt lat="48.04002" lon="7.13498">
        <ele>422.98812866</ele>
        <time>2021-06-16T08:26:21Z</time>
      </trkpt>
      <trkpt lat="48.04001" lon="7.13483">
        <ele>422.98812866</ele>
        <time>2021-06-16T08:26:23Z</time>
      </trkpt>
      <trkpt lat="48.03997" lon="7.1347">
        <ele>422.98812866</ele>
        <time>2021-06-16T08:26:25Z</time>
      </trkpt>
      <trkpt lat="48.03994" lon="7.13461">
        <ele>423.54946899</ele>
        <time>2021-06-16T08:26:27Z</time>
      </trkpt>
      <trkpt lat="48.03992" lon="7.1345">
        <ele>423.54946899</ele>
        <time>2021-06-16T08:26:28Z</time>
      </trkpt>
      <trkpt lat="48.03992" lon="7.13433">
        <ele>423.54946899</ele>
        <time>2021-06-16T08:26:31Z</time>
      </trkpt>
      <trkpt lat="48.03991" lon="7.13416">
        <ele>423.54946899</ele>
        <time>2021-06-16T08:26:33Z</time>
      </trkpt>
      <trkpt lat="48.0399" lon="7.13402">
        <ele>423.54946899</ele>
        <time>2021-06-16T08:26:35Z</time>
      </trkpt>
      <trkpt lat="48.0399" lon="7.13388">
        <ele>424.15390015</ele>
        <time>2021-06-16T08:26:38Z</time>
      </trkpt>
      <trkpt lat="48.03989" lon="7.13371">
        <ele>424.15390015</ele>
        <time>2021-06-16T08:26:41Z</time>
      </trkpt>
      <trkpt lat="48.03987" lon="7.13353">
        <ele>424.15390015</ele>
        <time>2021-06-16T08:26:44Z</time>
      </trkpt>
      <trkpt lat="48.03988" lon="7.13336">
        <ele>424.15390015</ele>
        <time>2021-06-16T08:26:47Z</time>
      </trkpt>
      <trkpt lat="48.03987" lon="7.13316">
        <ele>425.40826416</ele>
        <time>2021-06-16T08:26:50Z</time>
      </trkpt>
      <trkpt lat="48.03986" lon="7.13297">
        <ele>425.40826416</ele>
        <time>2021-06-16T08:26:53Z</time>
      </trkpt>
      <trkpt lat="48.03986" lon="7.1328">
        <ele>425.40826416</ele>
        <time>2021-06-16T08:26:56Z</time>
      </trkpt>
      <trkpt lat="48.03987" lon="7.13261">
        <ele>425.40826416</ele>
        <time>2021-06-16T08:26:59Z</time>
      </trkpt>
      <trkpt lat="48.03985" lon="7.13242">
        <ele>426.44024658</ele>
        <time>2021-06-16T08:27:01Z</time>
      </trkpt>
      <trkpt lat="48.03983" lon="7.13209">
        <ele>426.44024658</ele>
        <time>2021-06-16T08:27:07Z</time>
      </trkpt>
      <trkpt lat="48.03983" lon="7.13191">
        <ele>426.44024658</ele>
        <time>2021-06-16T08:27:10Z</time>
      </trkpt>
      <trkpt lat="48.03982" lon="7.13174">
        <ele>426.44024658</ele>
        <time>2021-06-16T08:27:13Z</time>
      </trkpt>
      <trkpt lat="48.03982" lon="7.13156">
        <ele>426.44024658</ele>
        <time>2021-06-16T08:27:16Z</time>
      </trkpt>
      <trkpt lat="48.03981" lon="7.13139">
        <ele>427.4961853</ele>
        <time>2021-06-16T08:27:19Z</time>
      </trkpt>
      <trkpt lat="48.0398" lon="7.13122">
        <ele>427.4961853</ele>
        <time>2021-06-16T08:27:22Z</time>
      </trkpt>
      <trkpt lat="48.03981" lon="7.13106">
        <ele>427.4961853</ele>
        <time>2021-06-16T08:27:25Z</time>
      </trkpt>
      <trkpt lat="48.03981" lon="7.13092">
        <ele>428.52148438</ele>
        <time>2021-06-16T08:27:27Z</time>
      </trkpt>
      <trkpt lat="48.03982" lon="7.13079">
        <ele>428.52148438</ele>
        <time>2021-06-16T08:27:29Z</time>
      </trkpt>
      <trkpt lat="48.03984" lon="7.13064">
        <ele>428.52148438</ele>
        <time>2021-06-16T08:27:31Z</time>
      </trkpt>
      <trkpt lat="48.03984" lon="7.13048">
        <ele>428.52148438</ele>
        <time>2021-06-16T08:27:34Z</time>
      </trkpt>
      <trkpt lat="48.03981" lon="7.13031">
        <ele>428.52148438</ele>
        <time>2021-06-16T08:27:36Z</time>
      </trkpt>
      <trkpt lat="48.03979" lon="7.13016">
        <ele>429.02740479</ele>
        <time>2021-06-16T08:27:39Z</time>
      </trkpt>
      <trkpt lat="48.03975" lon="7.13">
        <ele>429.02740479</ele>
        <time>2021-06-16T08:27:42Z</time>
      </trkpt>
      <trkpt lat="48.03971" lon="7.12984">
        <ele>429.02740479</ele>
        <time>2021-06-16T08:27:44Z</time>
      </trkpt>
      <trkpt lat="48.03967" lon="7.12969">
        <ele>430.35467529</ele>
        <time>2021-06-16T08:27:47Z</time>
      </trkpt>
      <trkpt lat="48.03964" lon="7.12952">
        <ele>430.35467529</ele>
        <time>2021-06-16T08:27:49Z</time>
      </trkpt>
      <trkpt lat="48.03962" lon="7.12938">
        <ele>430.35467529</ele>
        <time>2021-06-16T08:27:51Z</time>
      </trkpt>
      <trkpt lat="48.0396" lon="7.12922">
        <ele>431.40817261</ele>
        <time>2021-06-16T08:27:54Z</time>
      </trkpt>
      <trkpt lat="48.03963" lon="7.12904">
        <ele>431.40817261</ele>
        <time>2021-06-16T08:27:56Z</time>
      </trkpt>
      <trkpt lat="48.03963" lon="7.12891">
        <ele>431.40817261</ele>
        <time>2021-06-16T08:27:59Z</time>
      </trkpt>
      <trkpt lat="48.03967" lon="7.12878">
        <ele>432.53759766</ele>
        <time>2021-06-16T08:28:03Z</time>
      </trkpt>
      <trkpt lat="48.03976" lon="7.12865">
        <ele>432.53759766</ele>
        <time>2021-06-16T08:28:07Z</time>
      </trkpt>
      <trkpt lat="48.03971" lon="7.12848">
        <ele>432.53759766</ele>
        <time>2021-06-16T08:28:10Z</time>
      </trkpt>
      <trkpt lat="48.03965" lon="7.12832">
        <ele>432.53759766</ele>
        <time>2021-06-16T08:28:13Z</time>
      </trkpt>
      <trkpt lat="48.0396" lon="7.12815">
        <ele>432.53759766</ele>
        <time>2021-06-16T08:28:16Z</time>
      </trkpt>
      <trkpt lat="48.03956" lon="7.128">
        <ele>432.53759766</ele>
        <time>2021-06-16T08:28:18Z</time>
      </trkpt>
      <trkpt lat="48.03952" lon="7.12787">
        <ele>432.53759766</ele>
        <time>2021-06-16T08:28:20Z</time>
      </trkpt>
      <trkpt lat="48.03946" lon="7.12774">
        <ele>432.53759766</ele>
        <time>2021-06-16T08:28:22Z</time>
      </trkpt>
      <trkpt lat="48.03941" lon="7.1276">
        <ele>432.53759766</ele>
        <time>2021-06-16T08:28:24Z</time>
      </trkpt>
      <trkpt lat="48.03935" lon="7.12747">
        <ele>432.53759766</ele>
        <time>2021-06-16T08:28:26Z</time>
      </trkpt>
      <trkpt lat="48.03933" lon="7.12744">
        <ele>433.58267212</ele>
        <time>2021-06-16T08:28:27Z</time>
      </trkpt>
      <trkpt lat="48.03927" lon="7.12735">
        <ele>433.58267212</ele>
        <time>2021-06-16T08:28:28Z</time>
      </trkpt>
      <trkpt lat="48.0392" lon="7.12721">
        <ele>433.58267212</ele>
        <time>2021-06-16T08:28:30Z</time>
      </trkpt>
      <trkpt lat="48.03915" lon="7.12708">
        <ele>433.58267212</ele>
        <time>2021-06-16T08:28:33Z</time>
      </trkpt>
      <trkpt lat="48.03908" lon="7.12692">
        <ele>433.58267212</ele>
        <time>2021-06-16T08:28:35Z</time>
      </trkpt>
      <trkpt lat="48.03901" lon="7.12681">
        <ele>433.58267212</ele>
        <time>2021-06-16T08:28:37Z</time>
      </trkpt>
      <trkpt lat="48.03894" lon="7.12667">
        <ele>433.58267212</ele>
        <time>2021-06-16T08:28:39Z</time>
      </trkpt>
      <trkpt lat="48.03887" lon="7.12656">
        <ele>433.58267212</ele>
        <time>2021-06-16T08:28:41Z</time>
      </trkpt>
      <trkpt lat="48.03881" lon="7.12644">
        <ele>433.58267212</ele>
        <time>2021-06-16T08:28:43Z</time>
      </trkpt>
      <trkpt lat="48.03875" lon="7.12632">
        <ele>433.63018799</ele>
        <time>2021-06-16T08:28:45Z</time>
      </trkpt>
      <trkpt lat="48.0387" lon="7.1262">
        <ele>433.63018799</ele>
        <time>2021-06-16T08:28:47Z</time>
      </trkpt>
      <trkpt lat="48.03866" lon="7.12607">
        <ele>433.63018799</ele>
        <time>2021-06-16T08:28:49Z</time>
      </trkpt>
      <trkpt lat="48.03862" lon="7.12594">
        <ele>433.63018799</ele>
        <time>2021-06-16T08:28:51Z</time>
      </trkpt>
      <trkpt lat="48.03857" lon="7.12581">
        <ele>433.63018799</ele>
        <time>2021-06-16T08:28:53Z</time>
      </trkpt>
      <trkpt lat="48.03847" lon="7.1257">
        <ele>433.63018799</ele>
        <time>2021-06-16T08:28:55Z</time>
      </trkpt>
      <trkpt lat="48.0384" lon="7.12557">
        <ele>434.93228149</ele>
        <time>2021-06-16T08:28:57Z</time>
      </trkpt>
      <trkpt lat="48.03835" lon="7.12543">
        <ele>434.93228149</ele>
        <time>2021-06-16T08:29:00Z</time>
      </trkpt>
      <trkpt lat="48.03827" lon="7.12529">
        <ele>434.93228149</ele>
        <time>2021-06-16T08:29:02Z</time>
      </trkpt>
      <trkpt lat="48.03812" lon="7.12509">
        <ele>435.87188721</ele>
        <time>2021-06-16T08:29:07Z</time>
      </trkpt>
      <trkpt lat="48.03806" lon="7.12496">
        <ele>435.87188721</ele>
        <time>2021-06-16T08:29:10Z</time>
      </trkpt>
      <trkpt lat="48.03799" lon="7.12486">
        <ele>435.87188721</ele>
        <time>2021-06-16T08:29:13Z</time>
      </trkpt>
      <trkpt lat="48.03791" lon="7.12472">
        <ele>435.87188721</ele>
        <time>2021-06-16T08:29:16Z</time>
      </trkpt>
      <trkpt lat="48.03784" lon="7.12458">
        <ele>435.87188721</ele>
        <time>2021-06-16T08:29:18Z</time>
      </trkpt>
      <trkpt lat="48.03781" lon="7.12443">
        <ele>435.87188721</ele>
        <time>2021-06-16T08:29:21Z</time>
      </trkpt>
      <trkpt lat="48.03778" lon="7.12427">
        <ele>435.87188721</ele>
        <time>2021-06-16T08:29:23Z</time>
      </trkpt>
      <trkpt lat="48.03774" lon="7.12415">
        <ele>435.87188721</ele>
        <time>2021-06-16T08:29:25Z</time>
      </trkpt>
      <trkpt lat="48.03771" lon="7.12405">
        <ele>436.89871216</ele>
        <time>2021-06-16T08:29:27Z</time>
      </trkpt>
      <trkpt lat="48.03767" lon="7.12396">
        <ele>436.89871216</ele>
        <time>2021-06-16T08:29:28Z</time>
      </trkpt>
      <trkpt lat="48.03764" lon="7.12382">
        <ele>436.89871216</ele>
        <time>2021-06-16T08:29:30Z</time>
      </trkpt>
      <trkpt lat="48.03761" lon="7.12369">
        <ele>436.89871216</ele>
        <time>2021-06-16T08:29:32Z</time>
      </trkpt>
      <trkpt lat="48.03757" lon="7.12355">
        <ele>436.89871216</ele>
        <time>2021-06-16T08:29:34Z</time>
      </trkpt>
      <trkpt lat="48.03753" lon="7.1234">
        <ele>436.89871216</ele>
        <time>2021-06-16T08:29:36Z</time>
      </trkpt>
      <trkpt lat="48.0375" lon="7.12326">
        <ele>436.89871216</ele>
        <time>2021-06-16T08:29:38Z</time>
      </trkpt>
      <trkpt lat="48.03747" lon="7.12312">
        <ele>436.89871216</ele>
        <time>2021-06-16T08:29:40Z</time>
      </trkpt>
      <trkpt lat="48.03744" lon="7.12299">
        <ele>437.88439941</ele>
        <time>2021-06-16T08:29:42Z</time>
      </trkpt>
      <trkpt lat="48.0374" lon="7.12285">
        <ele>437.88439941</ele>
        <time>2021-06-16T08:29:44Z</time>
      </trkpt>
      <trkpt lat="48.03738" lon="7.12272">
        <ele>437.88439941</ele>
        <time>2021-06-16T08:29:46Z</time>
      </trkpt>
      <trkpt lat="48.03734" lon="7.12256">
        <ele>438.99765015</ele>
        <time>2021-06-16T08:29:49Z</time>
      </trkpt>
      <trkpt lat="48.03731" lon="7.12239">
        <ele>438.99765015</ele>
        <time>2021-06-16T08:29:51Z</time>
      </trkpt>
      <trkpt lat="48.03729" lon="7.12224">
        <ele>438.99765015</ele>
        <time>2021-06-16T08:29:53Z</time>
      </trkpt>
      <trkpt lat="48.03726" lon="7.1221">
        <ele>438.99765015</ele>
        <time>2021-06-16T08:29:55Z</time>
      </trkpt>
      <trkpt lat="48.03722" lon="7.12196">
        <ele>440.18237305</ele>
        <time>2021-06-16T08:29:57Z</time>
      </trkpt>
      <trkpt lat="48.03719" lon="7.1218">
        <ele>440.18237305</ele>
        <time>2021-06-16T08:30:00Z</time>
      </trkpt>
      <trkpt lat="48.03715" lon="7.12161">
        <ele>440.18237305</ele>
        <time>2021-06-16T08:30:03Z</time>
      </trkpt>
      <trkpt lat="48.03711" lon="7.12145">
        <ele>440.18237305</ele>
        <time>2021-06-16T08:30:05Z</time>
      </trkpt>
      <trkpt lat="48.03708" lon="7.12132">
        <ele>441.10125732</ele>
        <time>2021-06-16T08:30:07Z</time>
      </trkpt>
      <trkpt lat="48.03704" lon="7.12118">
        <ele>441.10125732</ele>
        <time>2021-06-16T08:30:09Z</time>
      </trkpt>
      <trkpt lat="48.03701" lon="7.12104">
        <ele>441.10125732</ele>
        <time>2021-06-16T08:30:11Z</time>
      </trkpt>
      <trkpt lat="48.03697" lon="7.12091">
        <ele>442.36883545</ele>
        <time>2021-06-16T08:30:13Z</time>
      </trkpt>
      <trkpt lat="48.03693" lon="7.12076">
        <ele>442.36883545</ele>
        <time>2021-06-16T08:30:16Z</time>
      </trkpt>
      <trkpt lat="48.03688" lon="7.1206">
        <ele>442.36883545</ele>
        <time>2021-06-16T08:30:18Z</time>
      </trkpt>
      <trkpt lat="48.03684" lon="7.12047">
        <ele>442.36883545</ele>
        <time>2021-06-16T08:30:20Z</time>
      </trkpt>
      <trkpt lat="48.03679" lon="7.12034">
        <ele>443.43771362</ele>
        <time>2021-06-16T08:30:22Z</time>
      </trkpt>
      <trkpt lat="48.03674" lon="7.1202">
        <ele>443.43771362</ele>
        <time>2021-06-16T08:30:24Z</time>
      </trkpt>
      <trkpt lat="48.0367" lon="7.12008">
        <ele>443.43771362</ele>
        <time>2021-06-16T08:30:26Z</time>
      </trkpt>
      <trkpt lat="48.03668" lon="7.12005">
        <ele>444.28790283</ele>
        <time>2021-06-16T08:30:27Z</time>
      </trkpt>
      <trkpt lat="48.03664" lon="7.11996">
        <ele>444.28790283</ele>
        <time>2021-06-16T08:30:28Z</time>
      </trkpt>
      <trkpt lat="48.03658" lon="7.11985">
        <ele>444.28790283</ele>
        <time>2021-06-16T08:30:30Z</time>
      </trkpt>
      <trkpt lat="48.03653" lon="7.11973">
        <ele>444.28790283</ele>
        <time>2021-06-16T08:30:32Z</time>
      </trkpt>
      <trkpt lat="48.03645" lon="7.11959">
        <ele>445.13204956</ele>
        <time>2021-06-16T08:30:35Z</time>
      </trkpt>
      <trkpt lat="48.03638" lon="7.11943">
        <ele>445.13204956</ele>
        <time>2021-06-16T08:30:38Z</time>
      </trkpt>
      <trkpt lat="48.03629" lon="7.11931">
        <ele>445.13204956</ele>
        <time>2021-06-16T08:30:41Z</time>
      </trkpt>
      <trkpt lat="48.03619" lon="7.11921">
        <ele>445.13204956</ele>
        <time>2021-06-16T08:30:44Z</time>
      </trkpt>
      <trkpt lat="48.03611" lon="7.11909">
        <ele>446.10546875</ele>
        <time>2021-06-16T08:30:47Z</time>
      </trkpt>
      <trkpt lat="48.03601" lon="7.11903">
        <ele>446.10546875</ele>
        <time>2021-06-16T08:30:50Z</time>
      </trkpt>
      <trkpt lat="48.03591" lon="7.11903">
        <ele>446.10546875</ele>
        <time>2021-06-16T08:30:53Z</time>
      </trkpt>
      <trkpt lat="48.03583" lon="7.1191">
        <ele>446.36453247</ele>
        <time>2021-06-16T08:30:57Z</time>
      </trkpt>
      <trkpt lat="48.03574" lon="7.11914">
        <ele>446.36453247</ele>
        <time>2021-06-16T08:31:05Z</time>
      </trkpt>
      <trkpt lat="48.03563" lon="7.11918">
        <ele>445.15414429</ele>
        <time>2021-06-16T08:31:08Z</time>
      </trkpt>
      <trkpt lat="48.03552" lon="7.11922">
        <ele>445.15414429</ele>
        <time>2021-06-16T08:31:10Z</time>
      </trkpt>
      <trkpt lat="48.03542" lon="7.11929">
        <ele>445.15414429</ele>
        <time>2021-06-16T08:31:13Z</time>
      </trkpt>
      <trkpt lat="48.03532" lon="7.11938">
        <ele>443.89932251</ele>
        <time>2021-06-16T08:31:15Z</time>
      </trkpt>
      <trkpt lat="48.03523" lon="7.11946">
        <ele>443.89932251</ele>
        <time>2021-06-16T08:31:17Z</time>
      </trkpt>
      <trkpt lat="48.03514" lon="7.11952">
        <ele>443.89932251</ele>
        <time>2021-06-16T08:31:19Z</time>
      </trkpt>
      <trkpt lat="48.03506" lon="7.11957">
        <ele>443.89932251</ele>
        <time>2021-06-16T08:31:21Z</time>
      </trkpt>
      <trkpt lat="48.03495" lon="7.11962">
        <ele>442.83139038</ele>
        <time>2021-06-16T08:31:23Z</time>
      </trkpt>
      <trkpt lat="48.03484" lon="7.11968">
        <ele>442.83139038</ele>
        <time>2021-06-16T08:31:25Z</time>
      </trkpt>
      <trkpt lat="48.03476" lon="7.11971">
        <ele>441.87158203</ele>
        <time>2021-06-16T08:31:27Z</time>
      </trkpt>
      <trkpt lat="48.03467" lon="7.11974">
        <ele>441.87158203</ele>
        <time>2021-06-16T08:31:28Z</time>
      </trkpt>
      <trkpt lat="48.03454" lon="7.11977">
        <ele>441.87158203</ele>
        <time>2021-06-16T08:31:30Z</time>
      </trkpt>
      <trkpt lat="48.03442" lon="7.1198">
        <ele>441.05761719</ele>
        <time>2021-06-16T08:31:32Z</time>
      </trkpt>
      <trkpt lat="48.03428" lon="7.11986">
        <ele>441.05761719</ele>
        <time>2021-06-16T08:31:34Z</time>
      </trkpt>
      <trkpt lat="48.03415" lon="7.1199">
        <ele>441.05761719</ele>
        <time>2021-06-16T08:31:36Z</time>
      </trkpt>
      <trkpt lat="48.03404" lon="7.11993">
        <ele>441.05761719</ele>
        <time>2021-06-16T08:31:38Z</time>
      </trkpt>
      <trkpt lat="48.03392" lon="7.11995">
        <ele>441.05761719</ele>
        <time>2021-06-16T08:31:40Z</time>
      </trkpt>
      <trkpt lat="48.0338" lon="7.11997">
        <ele>441.05761719</ele>
        <time>2021-06-16T08:31:42Z</time>
      </trkpt>
      <trkpt lat="48.03369" lon="7.11998">
        <ele>441.05761719</ele>
        <time>2021-06-16T08:31:44Z</time>
      </trkpt>
      <trkpt lat="48.03358" lon="7.12001">
        <ele>441.05761719</ele>
        <time>2021-06-16T08:31:46Z</time>
      </trkpt>
      <trkpt lat="48.03348" lon="7.12005">
        <ele>441.05761719</ele>
        <time>2021-06-16T08:31:48Z</time>
      </trkpt>
      <trkpt lat="48.03339" lon="7.12007">
        <ele>441.05761719</ele>
        <time>2021-06-16T08:31:50Z</time>
      </trkpt>
      <trkpt lat="48.0333" lon="7.12002">
        <ele>441.05761719</ele>
        <time>2021-06-16T08:31:53Z</time>
      </trkpt>
      <trkpt lat="48.03323" lon="7.11989">
        <ele>441.05761719</ele>
        <time>2021-06-16T08:31:55Z</time>
      </trkpt>
      <trkpt lat="48.03317" lon="7.11976">
        <ele>441.05761719</ele>
        <time>2021-06-16T08:31:57Z</time>
      </trkpt>
      <trkpt lat="48.03312" lon="7.11964">
        <ele>441.05761719</ele>
        <time>2021-06-16T08:31:59Z</time>
      </trkpt>
      <trkpt lat="48.03305" lon="7.11955">
        <ele>441.05761719</ele>
        <time>2021-06-16T08:32:02Z</time>
      </trkpt>
      <trkpt lat="48.03294" lon="7.11946">
        <ele>441.05761719</ele>
        <time>2021-06-16T08:32:05Z</time>
      </trkpt>
      <trkpt lat="48.03283" lon="7.11942">
        <ele>441.05761719</ele>
        <time>2021-06-16T08:32:08Z</time>
      </trkpt>
      <trkpt lat="48.03272" lon="7.11939">
        <ele>441.05761719</ele>
        <time>2021-06-16T08:32:10Z</time>
      </trkpt>
      <trkpt lat="48.03262" lon="7.11937">
        <ele>441.05761719</ele>
        <time>2021-06-16T08:32:12Z</time>
      </trkpt>
      <trkpt lat="48.03252" lon="7.1193">
        <ele>441.05761719</ele>
        <time>2021-06-16T08:32:15Z</time>
      </trkpt>
      <trkpt lat="48.03241" lon="7.11921">
        <ele>440.4781189</ele>
        <time>2021-06-16T08:32:18Z</time>
      </trkpt>
      <trkpt lat="48.03233" lon="7.11913">
        <ele>440.4781189</ele>
        <time>2021-06-16T08:32:21Z</time>
      </trkpt>
      <trkpt lat="48.03225" lon="7.11902">
        <ele>440.4781189</ele>
        <time>2021-06-16T08:32:25Z</time>
      </trkpt>
      <trkpt lat="48.0322" lon="7.11894">
        <ele>442.08618164</ele>
        <time>2021-06-16T08:32:27Z</time>
      </trkpt>
      <trkpt lat="48.03214" lon="7.11887">
        <ele>442.08618164</ele>
        <time>2021-06-16T08:32:30Z</time>
      </trkpt>
      <trkpt lat="48.03203" lon="7.11877">
        <ele>443.01824951</ele>
        <time>2021-06-16T08:32:33Z</time>
      </trkpt>
      <trkpt lat="48.03194" lon="7.11871">
        <ele>443.01824951</ele>
        <time>2021-06-16T08:32:36Z</time>
      </trkpt>
      <trkpt lat="48.03184" lon="7.11866">
        <ele>445.64282227</ele>
        <time>2021-06-16T08:32:39Z</time>
      </trkpt>
      <trkpt lat="48.03175" lon="7.11864">
        <ele>446.74972534</ele>
        <time>2021-06-16T08:32:42Z</time>
      </trkpt>
      <trkpt lat="48.03165" lon="7.11858">
        <ele>449.49786377</ele>
        <time>2021-06-16T08:32:45Z</time>
      </trkpt>
      <trkpt lat="48.03156" lon="7.11852">
        <ele>450.54971313</ele>
        <time>2021-06-16T08:32:48Z</time>
      </trkpt>
      <trkpt lat="48.03147" lon="7.11848">
        <ele>451.6763916</ele>
        <time>2021-06-16T08:32:51Z</time>
      </trkpt>
      <trkpt lat="48.03138" lon="7.11852">
        <ele>452.76483154</ele>
        <time>2021-06-16T08:32:55Z</time>
      </trkpt>
      <trkpt lat="48.03127" lon="7.1186">
        <ele>453.94921875</ele>
        <time>2021-06-16T08:32:58Z</time>
      </trkpt>
      <trkpt lat="48.03119" lon="7.1186">
        <ele>456.20587158</ele>
        <time>2021-06-16T08:33:02Z</time>
      </trkpt>
      <trkpt lat="48.03108" lon="7.11863">
        <ele>457.48223877</ele>
        <time>2021-06-16T08:33:06Z</time>
      </trkpt>
      <trkpt lat="48.03096" lon="7.1187">
        <ele>458.65612793</ele>
        <time>2021-06-16T08:33:09Z</time>
      </trkpt>
      <trkpt lat="48.03086" lon="7.11876">
        <ele>459.87335205</ele>
        <time>2021-06-16T08:33:13Z</time>
      </trkpt>
      <trkpt lat="48.03077" lon="7.11885">
        <ele>460.91583252</ele>
        <time>2021-06-16T08:33:16Z</time>
      </trkpt>
      <trkpt lat="48.0307" lon="7.11895">
        <ele>460.91583252</ele>
        <time>2021-06-16T08:33:19Z</time>
      </trkpt>
      <trkpt lat="48.03062" lon="7.11906">
        <ele>462.0133667</ele>
        <time>2021-06-16T08:33:22Z</time>
      </trkpt>
      <trkpt lat="48.03055" lon="7.11916">
        <ele>463.21252441</ele>
        <time>2021-06-16T08:33:26Z</time>
      </trkpt>
      <trkpt lat="48.03052" lon="7.1192">
        <ele>463.91235352</ele>
        <time>2021-06-16T08:33:27Z</time>
      </trkpt>
      <trkpt lat="48.03049" lon="7.11928">
        <ele>463.91235352</ele>
        <time>2021-06-16T08:33:30Z</time>
      </trkpt>
      <trkpt lat="48.03037" lon="7.11955">
        <ele>465.88442993</ele>
        <time>2021-06-16T08:33:38Z</time>
      </trkpt>
      <trkpt lat="48.03031" lon="7.11968">
        <ele>466.98474121</ele>
        <time>2021-06-16T08:33:42Z</time>
      </trkpt>
      <trkpt lat="48.03024" lon="7.11979">
        <ele>469.25460815</ele>
        <time>2021-06-16T08:33:46Z</time>
      </trkpt>
      <trkpt lat="48.03015" lon="7.11987">
        <ele>470.42697144</ele>
        <time>2021-06-16T08:33:51Z</time>
      </trkpt>
      <trkpt lat="48.03004" lon="7.11991">
        <ele>471.48724365</ele>
        <time>2021-06-16T08:33:55Z</time>
      </trkpt>
      <trkpt lat="48.02995" lon="7.11992">
        <ele>472.69708252</ele>
        <time>2021-06-16T08:33:59Z</time>
      </trkpt>
      <trkpt lat="48.02985" lon="7.11992">
        <ele>473.98999023</ele>
        <time>2021-06-16T08:34:03Z</time>
      </trkpt>
      <trkpt lat="48.02976" lon="7.11995">
        <ele>475.17221069</ele>
        <time>2021-06-16T08:34:07Z</time>
      </trkpt>
      <trkpt lat="48.02966" lon="7.11996">
        <ele>476.29522705</ele>
        <time>2021-06-16T08:34:11Z</time>
      </trkpt>
      <trkpt lat="48.02956" lon="7.11999">
        <ele>477.34335327</ele>
        <time>2021-06-16T08:34:15Z</time>
      </trkpt>
      <trkpt lat="48.02945" lon="7.12002">
        <ele>478.61190796</ele>
        <time>2021-06-16T08:34:19Z</time>
      </trkpt>
      <trkpt lat="48.02937" lon="7.12005">
        <ele>479.75216675</ele>
        <time>2021-06-16T08:34:23Z</time>
      </trkpt>
      <trkpt lat="48.02928" lon="7.12008">
        <ele>480.65963745</ele>
        <time>2021-06-16T08:34:27Z</time>
      </trkpt>
      <trkpt lat="48.02919" lon="7.12011">
        <ele>481.55010986</ele>
        <time>2021-06-16T08:34:30Z</time>
      </trkpt>
      <trkpt lat="48.02901" lon="7.1203">
        <ele>483.84429932</ele>
        <time>2021-06-16T08:34:38Z</time>
      </trkpt>
      <trkpt lat="48.02892" lon="7.12037">
        <ele>485.1053772</ele>
        <time>2021-06-16T08:34:43Z</time>
      </trkpt>
      <trkpt lat="48.02888" lon="7.12048">
        <ele>486.31497192</ele>
        <time>2021-06-16T08:34:48Z</time>
      </trkpt>
      <trkpt lat="48.02893" lon="7.1206">
        <ele>487.48547363</ele>
        <time>2021-06-16T08:34:53Z</time>
      </trkpt>
      <trkpt lat="48.02905" lon="7.12061">
        <ele>488.59649658</ele>
        <time>2021-06-16T08:34:56Z</time>
      </trkpt>
      <trkpt lat="48.02915" lon="7.12058">
        <ele>488.59649658</ele>
        <time>2021-06-16T08:34:59Z</time>
      </trkpt>
      <trkpt lat="48.02926" lon="7.12059">
        <ele>489.69335938</ele>
        <time>2021-06-16T08:35:05Z</time>
      </trkpt>
      <trkpt lat="48.02935" lon="7.12057">
        <ele>489.69335938</ele>
        <time>2021-06-16T08:35:09Z</time>
      </trkpt>
      <trkpt lat="48.02947" lon="7.12057">
        <ele>490.73095703</ele>
        <time>2021-06-16T08:35:15Z</time>
      </trkpt>
      <trkpt lat="48.02956" lon="7.12061">
        <ele>491.70910645</ele>
        <time>2021-06-16T08:35:18Z</time>
      </trkpt>
      <trkpt lat="48.02966" lon="7.12065">
        <ele>491.70910645</ele>
        <time>2021-06-16T08:35:22Z</time>
      </trkpt>
      <trkpt lat="48.02974" lon="7.12074">
        <ele>492.89941406</ele>
        <time>2021-06-16T08:35:26Z</time>
      </trkpt>
      <trkpt lat="48.02977" lon="7.12077">
        <ele>493.78701782</ele>
        <time>2021-06-16T08:35:27Z</time>
      </trkpt>
      <trkpt lat="48.02982" lon="7.12085">
        <ele>494.75146484</ele>
        <time>2021-06-16T08:35:30Z</time>
      </trkpt>
      <trkpt lat="48.0299" lon="7.12096">
        <ele>494.75146484</ele>
        <time>2021-06-16T08:35:33Z</time>
      </trkpt>
      <trkpt lat="48.02999" lon="7.12105">
        <ele>495.7484436</ele>
        <time>2021-06-16T08:35:37Z</time>
      </trkpt>
      <trkpt lat="48.03008" lon="7.12111">
        <ele>495.7484436</ele>
        <time>2021-06-16T08:35:40Z</time>
      </trkpt>
      <trkpt lat="48.03017" lon="7.12118">
        <ele>496.84521484</ele>
        <time>2021-06-16T08:35:44Z</time>
      </trkpt>
      <trkpt lat="48.03025" lon="7.1213">
        <ele>496.84521484</ele>
        <time>2021-06-16T08:35:49Z</time>
      </trkpt>
      <trkpt lat="48.03033" lon="7.1214">
        <ele>497.96807861</ele>
        <time>2021-06-16T08:35:53Z</time>
      </trkpt>
      <trkpt lat="48.03038" lon="7.12153">
        <ele>499.03582764</ele>
        <time>2021-06-16T08:35:58Z</time>
      </trkpt>
      <trkpt lat="48.03043" lon="7.1217">
        <ele>499.03582764</ele>
        <time>2021-06-16T08:36:02Z</time>
      </trkpt>
      <trkpt lat="48.03049" lon="7.12184">
        <ele>500.19641113</ele>
        <time>2021-06-16T08:36:06Z</time>
      </trkpt>
      <trkpt lat="48.03052" lon="7.12198">
        <ele>501.26712036</ele>
        <time>2021-06-16T08:36:10Z</time>
      </trkpt>
      <trkpt lat="48.03054" lon="7.12214">
        <ele>501.26712036</ele>
        <time>2021-06-16T08:36:14Z</time>
      </trkpt>
      <trkpt lat="48.03053" lon="7.1223">
        <ele>502.30392456</ele>
        <time>2021-06-16T08:36:19Z</time>
      </trkpt>
      <trkpt lat="48.03054" lon="7.12246">
        <ele>503.47247314</ele>
        <time>2021-06-16T08:36:23Z</time>
      </trkpt>
      <trkpt lat="48.03056" lon="7.1226">
        <ele>505.61477661</ele>
        <time>2021-06-16T08:36:27Z</time>
      </trkpt>
      <trkpt lat="48.03059" lon="7.12274">
        <ele>506.51934814</ele>
        <time>2021-06-16T08:36:30Z</time>
      </trkpt>
      <trkpt lat="48.03067" lon="7.12305">
        <ele>508.64544678</ele>
        <time>2021-06-16T08:36:38Z</time>
      </trkpt>
      <trkpt lat="48.03069" lon="7.12319">
        <ele>509.74545288</ele>
        <time>2021-06-16T08:36:43Z</time>
      </trkpt>
      <trkpt lat="48.0307" lon="7.12336">
        <ele>510.89337158</ele>
        <time>2021-06-16T08:36:47Z</time>
      </trkpt>
      <trkpt lat="48.03069" lon="7.12351">
        <ele>511.89825439</ele>
        <time>2021-06-16T08:36:51Z</time>
      </trkpt>
      <trkpt lat="48.03068" lon="7.12367">
        <ele>513.03759766</ele>
        <time>2021-06-16T08:36:55Z</time>
      </trkpt>
      <trkpt lat="48.03065" lon="7.12381">
        <ele>514.12536621</ele>
        <time>2021-06-16T08:36:59Z</time>
      </trkpt>
      <trkpt lat="48.03059" lon="7.12394">
        <ele>515.16900635</ele>
        <time>2021-06-16T08:37:03Z</time>
      </trkpt>
      <trkpt lat="48.03056" lon="7.12407">
        <ele>516.20703125</ele>
        <time>2021-06-16T08:37:07Z</time>
      </trkpt>
      <trkpt lat="48.03054" lon="7.1242">
        <ele>517.32293701</ele>
        <time>2021-06-16T08:37:12Z</time>
      </trkpt>
      <trkpt lat="48.03048" lon="7.12431">
        <ele>518.42382812</ele>
        <time>2021-06-16T08:37:17Z</time>
      </trkpt>
      <trkpt lat="48.03048" lon="7.12446">
        <ele>519.58978271</ele>
        <time>2021-06-16T08:37:21Z</time>
      </trkpt>
      <trkpt lat="48.03047" lon="7.12464">
        <ele>520.83880615</ele>
        <time>2021-06-16T08:37:25Z</time>
      </trkpt>
      <trkpt lat="48.03047" lon="7.12473">
        <ele>521.85412598</ele>
        <time>2021-06-16T08:37:27Z</time>
      </trkpt>
      <trkpt lat="48.0305" lon="7.12482">
        <ele>521.85412598</ele>
        <time>2021-06-16T08:37:29Z</time>
      </trkpt>
      <trkpt lat="48.03046" lon="7.12507">
        <ele>524.91693115</ele>
        <time>2021-06-16T08:37:40Z</time>
      </trkpt>
      <trkpt lat="48.03045" lon="7.12522">
        <ele>526.08856201</ele>
        <time>2021-06-16T08:37:46Z</time>
      </trkpt>
      <trkpt lat="48.03048" lon="7.12538">
        <ele>527.39367676</ele>
        <time>2021-06-16T08:37:50Z</time>
      </trkpt>
      <trkpt lat="48.03056" lon="7.1255">
        <ele>527.39367676</ele>
        <time>2021-06-16T08:37:52Z</time>
      </trkpt>
      <trkpt lat="48.03058" lon="7.12561">
        <ele>528.54534912</ele>
        <time>2021-06-16T08:37:57Z</time>
      </trkpt>
      <trkpt lat="48.03059" lon="7.12578">
        <ele>529.67767334</ele>
        <time>2021-06-16T08:38:00Z</time>
      </trkpt>
      <trkpt lat="48.0306" lon="7.12591">
        <ele>530.70495605</ele>
        <time>2021-06-16T08:38:03Z</time>
      </trkpt>
      <trkpt lat="48.03063" lon="7.12607">
        <ele>531.80810547</ele>
        <time>2021-06-16T08:38:06Z</time>
      </trkpt>
      <trkpt lat="48.03058" lon="7.1262">
        <ele>531.80810547</ele>
        <time>2021-06-16T08:38:09Z</time>
      </trkpt>
      <trkpt lat="48.03054" lon="7.12632">
        <ele>533.00823975</ele>
        <time>2021-06-16T08:38:13Z</time>
      </trkpt>
      <trkpt lat="48.03052" lon="7.12647">
        <ele>534.21685791</ele>
        <time>2021-06-16T08:38:18Z</time>
      </trkpt>
      <trkpt lat="48.03049" lon="7.12664">
        <ele>535.28912354</ele>
        <time>2021-06-16T08:38:22Z</time>
      </trkpt>
      <trkpt lat="48.03043" lon="7.12676">
        <ele>536.3394165</ele>
        <time>2021-06-16T08:38:26Z</time>
      </trkpt>
      <trkpt lat="48.0304" lon="7.1268">
        <ele>537.09326172</ele>
        <time>2021-06-16T08:38:27Z</time>
      </trkpt>
      <trkpt lat="48.03037" lon="7.12688">
        <ele>537.84118652</ele>
        <time>2021-06-16T08:38:30Z</time>
      </trkpt>
      <trkpt lat="48.03027" lon="7.12699">
        <ele>537.84118652</ele>
        <time>2021-06-16T08:38:33Z</time>
      </trkpt>
      <trkpt lat="48.03021" lon="7.12707">
        <ele>538.94049072</ele>
        <time>2021-06-16T08:38:38Z</time>
      </trkpt>
      <trkpt lat="48.03014" lon="7.12718">
        <ele>540.0289917</ele>
        <time>2021-06-16T08:38:42Z</time>
      </trkpt>
      <trkpt lat="48.03008" lon="7.12729">
        <ele>541.19421387</ele>
        <time>2021-06-16T08:38:47Z</time>
      </trkpt>
      <trkpt lat="48.02997" lon="7.12743">
        <ele>542.30041504</ele>
        <time>2021-06-16T08:38:51Z</time>
      </trkpt>
      <trkpt lat="48.02991" lon="7.12755">
        <ele>542.30041504</ele>
        <time>2021-06-16T08:38:55Z</time>
      </trkpt>
      <trkpt lat="48.02984" lon="7.12764">
        <ele>543.29602051</ele>
        <time>2021-06-16T08:38:59Z</time>
      </trkpt>
      <trkpt lat="48.02976" lon="7.12764">
        <ele>545.90887451</ele>
        <time>2021-06-16T08:39:05Z</time>
      </trkpt>
      <trkpt lat="48.02971" lon="7.12745">
        <ele>546.93249512</ele>
        <time>2021-06-16T08:39:09Z</time>
      </trkpt>
      <trkpt lat="48.02974" lon="7.12731">
        <ele>548.10925293</ele>
        <time>2021-06-16T08:39:13Z</time>
      </trkpt>
      <trkpt lat="48.02972" lon="7.12716">
        <ele>549.32305908</ele>
        <time>2021-06-16T08:39:17Z</time>
      </trkpt>
      <trkpt lat="48.02972" lon="7.12701">
        <ele>549.32305908</ele>
        <time>2021-06-16T08:39:21Z</time>
      </trkpt>
      <trkpt lat="48.02974" lon="7.12686">
        <ele>550.43469238</ele>
        <time>2021-06-16T08:39:25Z</time>
      </trkpt>
      <trkpt lat="48.02977" lon="7.12674">
        <ele>551.53283691</ele>
        <time>2021-06-16T08:39:27Z</time>
      </trkpt>
      <trkpt lat="48.02982" lon="7.12666">
        <ele>551.53283691</ele>
        <time>2021-06-16T08:39:29Z</time>
      </trkpt>
      <trkpt lat="48.02988" lon="7.12656">
        <ele>552.51245117</ele>
        <time>2021-06-16T08:39:34Z</time>
      </trkpt>
      <trkpt lat="48.02992" lon="7.1264">
        <ele>553.54602051</ele>
        <time>2021-06-16T08:39:38Z</time>
      </trkpt>
      <trkpt lat="48.02992" lon="7.12625">
        <ele>553.54602051</ele>
        <time>2021-06-16T08:39:42Z</time>
      </trkpt>
      <trkpt lat="48.02992" lon="7.12608">
        <ele>517.3694458</ele>
        <time>2021-06-16T08:40:23Z</time>
      </trkpt>
      <trkpt lat="48.02989" lon="7.12611">
        <ele>517.96362305</ele>
        <time>2021-06-16T08:43:39Z</time>
      </trkpt>
      <trkpt lat="48.02987" lon="7.1261">
        <ele>517.96362305</ele>
        <time>2021-06-16T08:43:48Z</time>
      </trkpt>
      <trkpt lat="48.02987" lon="7.1259">
        <ele>517.96362305</ele>
        <time>2021-06-16T08:43:53Z</time>
      </trkpt>
      <trkpt lat="48.02985" lon="7.12575">
        <ele>518.41680908</ele>
        <time>2021-06-16T08:43:57Z</time>
      </trkpt>
      <trkpt lat="48.02982" lon="7.12558">
        <ele>519.86468506</ele>
        <time>2021-06-16T08:44:01Z</time>
      </trkpt>
      <trkpt lat="48.02979" lon="7.12529">
        <ele>521.05352783</ele>
        <time>2021-06-16T08:44:08Z</time>
      </trkpt>
      <trkpt lat="48.02977" lon="7.12515">
        <ele>522.22967529</ele>
        <time>2021-06-16T08:44:12Z</time>
      </trkpt>
      <trkpt lat="48.0298" lon="7.12501">
        <ele>523.21661377</ele>
        <time>2021-06-16T08:44:17Z</time>
      </trkpt>
      <trkpt lat="48.02979" lon="7.12487">
        <ele>524.38311768</ele>
        <time>2021-06-16T08:44:22Z</time>
      </trkpt>
      <trkpt lat="48.02976" lon="7.12471">
        <ele>525.33666992</ele>
        <time>2021-06-16T08:44:27Z</time>
      </trkpt>
      <trkpt lat="48.02976" lon="7.1246">
        <ele>525.33666992</ele>
        <time>2021-06-16T08:44:31Z</time>
      </trkpt>
      <trkpt lat="48.02972" lon="7.12445">
        <ele>526.29638672</ele>
        <time>2021-06-16T08:44:36Z</time>
      </trkpt>
      <trkpt lat="48.02969" lon="7.12433">
        <ele>527.23590088</ele>
        <time>2021-06-16T08:44:43Z</time>
      </trkpt>
      <trkpt lat="48.02969" lon="7.12417">
        <ele>528.27545166</ele>
        <time>2021-06-16T08:44:46Z</time>
      </trkpt>
      <trkpt lat="48.02962" lon="7.12408">
        <ele>529.36029053</ele>
        <time>2021-06-16T08:44:49Z</time>
      </trkpt>
      <trkpt lat="48.02953" lon="7.12402">
        <ele>529.36029053</ele>
        <time>2021-06-16T08:44:54Z</time>
      </trkpt>
      <trkpt lat="48.02943" lon="7.12402">
        <ele>530.480896</ele>
        <time>2021-06-16T08:44:58Z</time>
      </trkpt>
      <trkpt lat="48.02935" lon="7.12408">
        <ele>531.56738281</ele>
        <time>2021-06-16T08:45:04Z</time>
      </trkpt>
      <trkpt lat="48.02934" lon="7.12421">
        <ele>532.79595947</ele>
        <time>2021-06-16T08:45:09Z</time>
      </trkpt>
      <trkpt lat="48.02941" lon="7.12432">
        <ele>534.05291748</ele>
        <time>2021-06-16T08:45:14Z</time>
      </trkpt>
      <trkpt lat="48.02947" lon="7.12448">
        <ele>535.13012695</ele>
        <time>2021-06-16T08:45:18Z</time>
      </trkpt>
      <trkpt lat="48.02952" lon="7.12464">
        <ele>535.13012695</ele>
        <time>2021-06-16T08:45:22Z</time>
      </trkpt>
      <trkpt lat="48.02955" lon="7.12479">
        <ele>536.16741943</ele>
        <time>2021-06-16T08:45:25Z</time>
      </trkpt>
      <trkpt lat="48.02956" lon="7.12487">
        <ele>536.83636475</ele>
        <time>2021-06-16T08:45:27Z</time>
      </trkpt>
      <trkpt lat="48.02953" lon="7.12496">
        <ele>537.43798828</ele>
        <time>2021-06-16T08:45:31Z</time>
      </trkpt>
      <trkpt lat="48.0295" lon="7.12511">
        <ele>537.43798828</ele>
        <time>2021-06-16T08:45:36Z</time>
      </trkpt>
      <trkpt lat="48.02947" lon="7.12526">
        <ele>538.50048828</ele>
        <time>2021-06-16T08:45:40Z</time>
      </trkpt>
      <trkpt lat="48.02943" lon="7.12538">
        <ele>539.63079834</ele>
        <time>2021-06-16T08:45:44Z</time>
      </trkpt>
      <trkpt lat="48.02934" lon="7.12549">
        <ele>540.78869629</ele>
        <time>2021-06-16T08:45:49Z</time>
      </trkpt>
      <trkpt lat="48.02932" lon="7.12563">
        <ele>541.85644531</ele>
        <time>2021-06-16T08:45:53Z</time>
      </trkpt>
      <trkpt lat="48.02928" lon="7.12578">
        <ele>542.91876221</ele>
        <time>2021-06-16T08:45:57Z</time>
      </trkpt>
      <trkpt lat="48.02925" lon="7.12593">
        <ele>542.91876221</ele>
        <time>2021-06-16T08:46:01Z</time>
      </trkpt>
      <trkpt lat="48.02922" lon="7.12605">
        <ele>544.00268555</ele>
        <time>2021-06-16T08:46:05Z</time>
      </trkpt>
      <trkpt lat="48.02916" lon="7.12616">
        <ele>545.10949707</ele>
        <time>2021-06-16T08:46:09Z</time>
      </trkpt>
      <trkpt lat="48.02911" lon="7.12628">
        <ele>546.33843994</ele>
        <time>2021-06-16T08:46:13Z</time>
      </trkpt>
      <trkpt lat="48.02905" lon="7.12639">
        <ele>546.33843994</ele>
        <time>2021-06-16T08:46:17Z</time>
      </trkpt>
      <trkpt lat="48.02901" lon="7.12653">
        <ele>547.50219727</ele>
        <time>2021-06-16T08:46:21Z</time>
      </trkpt>
      <trkpt lat="48.02897" lon="7.12666">
        <ele>548.7008667</ele>
        <time>2021-06-16T08:46:25Z</time>
      </trkpt>
      <trkpt lat="48.02895" lon="7.12674">
        <ele>549.51635742</ele>
        <time>2021-06-16T08:46:27Z</time>
      </trkpt>
      <trkpt lat="48.02889" lon="7.12679">
        <ele>550.38812256</ele>
        <time>2021-06-16T08:46:31Z</time>
      </trkpt>
      <trkpt lat="48.02881" lon="7.12684">
        <ele>550.38812256</ele>
        <time>2021-06-16T08:46:35Z</time>
      </trkpt>
      <trkpt lat="48.02869" lon="7.12685">
        <ele>551.58117676</ele>
        <time>2021-06-16T08:46:38Z</time>
      </trkpt>
      <trkpt lat="48.02859" lon="7.12686">
        <ele>552.77478027</ele>
        <time>2021-06-16T08:46:42Z</time>
      </trkpt>
      <trkpt lat="48.02849" lon="7.12688">
        <ele>553.95404053</ele>
        <time>2021-06-16T08:46:46Z</time>
      </trkpt>
      <trkpt lat="48.02839" lon="7.12689">
        <ele>555.15820312</ele>
        <time>2021-06-16T08:46:50Z</time>
      </trkpt>
      <trkpt lat="48.02829" lon="7.12688">
        <ele>556.27270508</ele>
        <time>2021-06-16T08:46:54Z</time>
      </trkpt>
      <trkpt lat="48.02819" lon="7.12686">
        <ele>556.27270508</ele>
        <time>2021-06-16T08:46:57Z</time>
      </trkpt>
      <trkpt lat="48.02809" lon="7.12687">
        <ele>557.35345459</ele>
        <time>2021-06-16T08:47:01Z</time>
      </trkpt>
      <trkpt lat="48.028" lon="7.12686">
        <ele>558.50518799</ele>
        <time>2021-06-16T08:47:05Z</time>
      </trkpt>
      <trkpt lat="48.02791" lon="7.12683">
        <ele>559.60070801</ele>
        <time>2021-06-16T08:47:10Z</time>
      </trkpt>
      <trkpt lat="48.02781" lon="7.12677">
        <ele>560.72558594</ele>
        <time>2021-06-16T08:47:14Z</time>
      </trkpt>
      <trkpt lat="48.02771" lon="7.12676">
        <ele>561.8605957</ele>
        <time>2021-06-16T08:47:18Z</time>
      </trkpt>
      <trkpt lat="48.0276" lon="7.12678">
        <ele>563.10809326</ele>
        <time>2021-06-16T08:47:21Z</time>
      </trkpt>
      <trkpt lat="48.02751" lon="7.12675">
        <ele>563.10809326</ele>
        <time>2021-06-16T08:47:24Z</time>
      </trkpt>
      <trkpt lat="48.02739" lon="7.12667">
        <ele>564.3125</ele>
        <time>2021-06-16T08:47:26Z</time>
      </trkpt>
      <trkpt lat="48.02737" lon="7.12667">
        <ele>564.85467529</ele>
        <time>2021-06-16T08:47:27Z</time>
      </trkpt>
      <trkpt lat="48.0273" lon="7.12666">
        <ele>564.85467529</ele>
        <time>2021-06-16T08:47:30Z</time>
      </trkpt>
      <trkpt lat="48.02708" lon="7.12669">
        <ele>566.64642334</ele>
        <time>2021-06-16T08:47:38Z</time>
      </trkpt>
      <trkpt lat="48.02698" lon="7.12672">
        <ele>567.74841309</ele>
        <time>2021-06-16T08:47:43Z</time>
      </trkpt>
      <trkpt lat="48.02687" lon="7.12673">
        <ele>568.93267822</ele>
        <time>2021-06-16T08:47:46Z</time>
      </trkpt>
      <trkpt lat="48.02676" lon="7.12672">
        <ele>568.93267822</ele>
        <time>2021-06-16T08:47:49Z</time>
      </trkpt>
      <trkpt lat="48.02668" lon="7.12672">
        <ele>570.11248779</ele>
        <time>2021-06-16T08:47:53Z</time>
      </trkpt>
      <trkpt lat="48.02658" lon="7.12673">
        <ele>571.19299316</ele>
        <time>2021-06-16T08:47:57Z</time>
      </trkpt>
      <trkpt lat="48.02649" lon="7.12674">
        <ele>573.35327148</ele>
        <time>2021-06-16T08:48:02Z</time>
      </trkpt>
      <trkpt lat="48.02636" lon="7.12678">
        <ele>573.35327148</ele>
        <time>2021-06-16T08:48:05Z</time>
      </trkpt>
      <trkpt lat="48.02628" lon="7.12682">
        <ele>574.48571777</ele>
        <time>2021-06-16T08:48:10Z</time>
      </trkpt>
      <trkpt lat="48.02619" lon="7.12687">
        <ele>575.60675049</ele>
        <time>2021-06-16T08:48:15Z</time>
      </trkpt>
      <trkpt lat="48.02606" lon="7.12687">
        <ele>576.75842285</ele>
        <time>2021-06-16T08:48:19Z</time>
      </trkpt>
      <trkpt lat="48.02597" lon="7.12691">
        <ele>577.79290771</ele>
        <time>2021-06-16T08:48:24Z</time>
      </trkpt>
      <trkpt lat="48.0259" lon="7.12696">
        <ele>578.73309326</ele>
        <time>2021-06-16T08:48:27Z</time>
      </trkpt>
      <trkpt lat="48.02585" lon="7.12701">
        <ele>579.80957031</ele>
        <time>2021-06-16T08:48:30Z</time>
      </trkpt>
      <trkpt lat="48.02577" lon="7.12711">
        <ele>579.80957031</ele>
        <time>2021-06-16T08:48:34Z</time>
      </trkpt>
      <trkpt lat="48.02569" lon="7.12717">
        <ele>580.92443848</ele>
        <time>2021-06-16T08:48:38Z</time>
      </trkpt>
      <trkpt lat="48.02562" lon="7.12727">
        <ele>582.19824219</ele>
        <time>2021-06-16T08:48:42Z</time>
      </trkpt>
      <trkpt lat="48.02553" lon="7.12736">
        <ele>583.2755127</ele>
        <time>2021-06-16T08:48:45Z</time>
      </trkpt>
      <trkpt lat="48.02546" lon="7.12748">
        <ele>583.2755127</ele>
        <time>2021-06-16T08:48:49Z</time>
      </trkpt>
      <trkpt lat="48.02545" lon="7.12766">
        <ele>584.25854492</ele>
        <time>2021-06-16T08:48:53Z</time>
      </trkpt>
      <trkpt lat="48.02544" lon="7.1278">
        <ele>585.340271</ele>
        <time>2021-06-16T08:48:58Z</time>
      </trkpt>
      <trkpt lat="48.02541" lon="7.12794">
        <ele>586.42907715</ele>
        <time>2021-06-16T08:49:03Z</time>
      </trkpt>
      <trkpt lat="48.02534" lon="7.12797">
        <ele>586.42907715</ele>
        <time>2021-06-16T08:49:07Z</time>
      </trkpt>
      <trkpt lat="48.02521" lon="7.12796">
        <ele>587.49560547</ele>
        <time>2021-06-16T08:49:11Z</time>
      </trkpt>
      <trkpt lat="48.02515" lon="7.12806">
        <ele>588.54492188</ele>
        <time>2021-06-16T08:49:17Z</time>
      </trkpt>
      <trkpt lat="48.02506" lon="7.12807">
        <ele>589.70666504</ele>
        <time>2021-06-16T08:49:25Z</time>
      </trkpt>
      <trkpt lat="48.025" lon="7.12805">
        <ele>590.71746826</ele>
        <time>2021-06-16T08:49:27Z</time>
      </trkpt>
      <trkpt lat="48.02494" lon="7.12801">
        <ele>590.71746826</ele>
        <time>2021-06-16T08:49:31Z</time>
      </trkpt>
      <trkpt lat="48.02485" lon="7.12796">
        <ele>592.97473145</ele>
        <time>2021-06-16T08:49:38Z</time>
      </trkpt>
      <trkpt lat="48.02473" lon="7.12789">
        <ele>592.97473145</ele>
        <time>2021-06-16T08:49:40Z</time>
      </trkpt>
      <trkpt lat="48.02463" lon="7.12784">
        <ele>592.97473145</ele>
        <time>2021-06-16T08:49:42Z</time>
      </trkpt>
      <trkpt lat="48.02454" lon="7.12782">
        <ele>594.05395508</ele>
        <time>2021-06-16T08:49:45Z</time>
      </trkpt>
      <trkpt lat="48.02443" lon="7.12779">
        <ele>594.05395508</ele>
        <time>2021-06-16T08:49:48Z</time>
      </trkpt>
      <trkpt lat="48.02433" lon="7.12777">
        <ele>595.19592285</ele>
        <time>2021-06-16T08:49:51Z</time>
      </trkpt>
      <trkpt lat="48.02422" lon="7.12772">
        <ele>595.19592285</ele>
        <time>2021-06-16T08:49:53Z</time>
      </trkpt>
      <trkpt lat="48.02414" lon="7.12767">
        <ele>596.27288818</ele>
        <time>2021-06-16T08:49:56Z</time>
      </trkpt>
      <trkpt lat="48.02404" lon="7.12761">
        <ele>597.41552734</ele>
        <time>2021-06-16T08:50:00Z</time>
      </trkpt>
      <trkpt lat="48.02393" lon="7.12758">
        <ele>597.41552734</ele>
        <time>2021-06-16T08:50:04Z</time>
      </trkpt>
      <trkpt lat="48.02385" lon="7.12763">
        <ele>598.46807861</ele>
        <time>2021-06-16T08:50:08Z</time>
      </trkpt>
      <trkpt lat="48.02377" lon="7.12771">
        <ele>600.9352417</ele>
        <time>2021-06-16T08:50:14Z</time>
      </trkpt>
      <trkpt lat="48.02366" lon="7.12778">
        <ele>602.12774658</ele>
        <time>2021-06-16T08:50:18Z</time>
      </trkpt>
      <trkpt lat="48.02359" lon="7.12787">
        <ele>602.12774658</ele>
        <time>2021-06-16T08:50:22Z</time>
      </trkpt>
      <trkpt lat="48.02348" lon="7.12784">
        <ele>603.20373535</ele>
        <time>2021-06-16T08:50:25Z</time>
      </trkpt>
      <trkpt lat="48.02342" lon="7.12778">
        <ele>604.14562988</ele>
        <time>2021-06-16T08:50:27Z</time>
      </trkpt>
      <trkpt lat="48.02335" lon="7.12767">
        <ele>604.14562988</ele>
        <time>2021-06-16T08:50:28Z</time>
      </trkpt>
      <trkpt lat="48.02325" lon="7.12757">
        <ele>605.09710693</ele>
        <time>2021-06-16T08:50:31Z</time>
      </trkpt>
      <trkpt lat="48.02314" lon="7.12754">
        <ele>605.09710693</ele>
        <time>2021-06-16T08:50:34Z</time>
      </trkpt>
      <trkpt lat="48.02301" lon="7.1275">
        <ele>606.29589844</ele>
        <time>2021-06-16T08:50:37Z</time>
      </trkpt>
      <trkpt lat="48.02291" lon="7.12741">
        <ele>606.29589844</ele>
        <time>2021-06-16T08:50:39Z</time>
      </trkpt>
      <trkpt lat="48.02283" lon="7.12732">
        <ele>607.45098877</ele>
        <time>2021-06-16T08:50:41Z</time>
      </trkpt>
      <trkpt lat="48.02275" lon="7.12733">
        <ele>608.61273193</ele>
        <time>2021-06-16T08:50:46Z</time>
      </trkpt>
      <trkpt lat="48.02265" lon="7.12727">
        <ele>609.62683105</ele>
        <time>2021-06-16T08:50:49Z</time>
      </trkpt>
      <trkpt lat="48.02257" lon="7.12724">
        <ele>609.62683105</ele>
        <time>2021-06-16T08:50:52Z</time>
      </trkpt>
      <trkpt lat="48.02247" lon="7.12726">
        <ele>611.8737793</ele>
        <time>2021-06-16T08:50:57Z</time>
      </trkpt>
      <trkpt lat="48.02247" lon="7.1274">
        <ele>613.00024414</ele>
        <time>2021-06-16T08:51:02Z</time>
      </trkpt>
      <trkpt lat="48.02253" lon="7.12747">
        <ele>617.3692627</ele>
        <time>2021-06-16T08:51:17Z</time>
      </trkpt>
      <trkpt lat="48.02265" lon="7.12768">
        <ele>617.3692627</ele>
        <time>2021-06-16T08:51:19Z</time>
      </trkpt>
      <trkpt lat="48.02272" lon="7.12789">
        <ele>618.64880371</ele>
        <time>2021-06-16T08:51:21Z</time>
      </trkpt>
      <trkpt lat="48.02278" lon="7.12799">
        <ele>618.64880371</ele>
        <time>2021-06-16T08:51:23Z</time>
      </trkpt>
      <trkpt lat="48.02285" lon="7.12812">
        <ele>618.64880371</ele>
        <time>2021-06-16T08:51:25Z</time>
      </trkpt>
      <trkpt lat="48.02289" lon="7.12819">
        <ele>620.31719971</ele>
        <time>2021-06-16T08:51:27Z</time>
      </trkpt>
      <trkpt lat="48.02292" lon="7.12828">
        <ele>620.31719971</ele>
        <time>2021-06-16T08:51:30Z</time>
      </trkpt>
      <trkpt lat="48.02299" lon="7.12838">
        <ele>621.04541016</ele>
        <time>2021-06-16T08:51:34Z</time>
      </trkpt>
      <trkpt lat="48.02309" lon="7.12843">
        <ele>622.09313965</ele>
        <time>2021-06-16T08:51:37Z</time>
      </trkpt>
      <trkpt lat="48.02317" lon="7.12852">
        <ele>622.09313965</ele>
        <time>2021-06-16T08:51:40Z</time>
      </trkpt>
      <trkpt lat="48.02325" lon="7.12862">
        <ele>623.21044922</ele>
        <time>2021-06-16T08:51:43Z</time>
      </trkpt>
      <trkpt lat="48.02333" lon="7.12867">
        <ele>624.37750244</ele>
        <time>2021-06-16T08:51:46Z</time>
      </trkpt>
      <trkpt lat="48.02343" lon="7.12875">
        <ele>625.48217773</ele>
        <time>2021-06-16T08:51:50Z</time>
      </trkpt>
      <trkpt lat="48.02354" lon="7.12883">
        <ele>625.48217773</ele>
        <time>2021-06-16T08:51:53Z</time>
      </trkpt>
      <trkpt lat="48.02364" lon="7.12892">
        <ele>626.69702148</ele>
        <time>2021-06-16T08:51:56Z</time>
      </trkpt>
      <trkpt lat="48.02371" lon="7.12891">
        <ele>627.86578369</ele>
        <time>2021-06-16T08:52:01Z</time>
      </trkpt>
      <trkpt lat="48.02386" lon="7.12865">
        <ele>630.21984863</ele>
        <time>2021-06-16T08:52:07Z</time>
      </trkpt>
      <trkpt lat="48.02398" lon="7.12869">
        <ele>630.21984863</ele>
        <time>2021-06-16T08:52:11Z</time>
      </trkpt>
      <trkpt lat="48.02408" lon="7.12876">
        <ele>631.2913208</ele>
        <time>2021-06-16T08:52:14Z</time>
      </trkpt>
      <trkpt lat="48.02417" lon="7.1289">
        <ele>631.2913208</ele>
        <time>2021-06-16T08:52:16Z</time>
      </trkpt>
      <trkpt lat="48.02424" lon="7.12894">
        <ele>633.59594727</ele>
        <time>2021-06-16T08:52:24Z</time>
      </trkpt>
      <trkpt lat="48.0243" lon="7.12891">
        <ele>633.59594727</ele>
        <time>2021-06-16T08:52:26Z</time>
      </trkpt>
      <trkpt lat="48.02432" lon="7.12894">
        <ele>634.6786499</ele>
        <time>2021-06-16T08:52:27Z</time>
      </trkpt>
      <trkpt lat="48.02438" lon="7.12899">
        <ele>634.6786499</ele>
        <time>2021-06-16T08:52:29Z</time>
      </trkpt>
      <trkpt lat="48.02446" lon="7.12907">
        <ele>635.71765137</ele>
        <time>2021-06-16T08:52:32Z</time>
      </trkpt>
      <trkpt lat="48.02455" lon="7.12917">
        <ele>635.71765137</ele>
        <time>2021-06-16T08:52:35Z</time>
      </trkpt>
      <trkpt lat="48.02461" lon="7.12926">
        <ele>636.80657959</ele>
        <time>2021-06-16T08:52:39Z</time>
      </trkpt>
      <trkpt lat="48.02469" lon="7.12936">
        <ele>637.90875244</ele>
        <time>2021-06-16T08:52:43Z</time>
      </trkpt>
      <trkpt lat="48.0248" lon="7.12944">
        <ele>637.90875244</ele>
        <time>2021-06-16T08:52:46Z</time>
      </trkpt>
      <trkpt lat="48.02489" lon="7.12955">
        <ele>638.99682617</ele>
        <time>2021-06-16T08:52:49Z</time>
      </trkpt>
      <trkpt lat="48.02497" lon="7.12959">
        <ele>640.07354736</ele>
        <time>2021-06-16T08:52:54Z</time>
      </trkpt>
      <trkpt lat="48.02507" lon="7.12963">
        <ele>641.20288086</ele>
        <time>2021-06-16T08:53:00Z</time>
      </trkpt>
      <trkpt lat="48.02516" lon="7.12966">
        <ele>642.37207031</ele>
        <time>2021-06-16T08:53:05Z</time>
      </trkpt>
      <trkpt lat="48.02527" lon="7.12968">
        <ele>643.44006348</ele>
        <time>2021-06-16T08:53:08Z</time>
      </trkpt>
      <trkpt lat="48.02538" lon="7.12972">
        <ele>643.44006348</ele>
        <time>2021-06-16T08:53:11Z</time>
      </trkpt>
      <trkpt lat="48.02552" lon="7.12979">
        <ele>644.63745117</ele>
        <time>2021-06-16T08:53:14Z</time>
      </trkpt>
      <trkpt lat="48.02559" lon="7.1299">
        <ele>645.67053223</ele>
        <time>2021-06-16T08:53:17Z</time>
      </trkpt>
      <trkpt lat="48.02566" lon="7.13001">
        <ele>646.78240967</ele>
        <time>2021-06-16T08:53:21Z</time>
      </trkpt>
      <trkpt lat="48.02574" lon="7.13014">
        <ele>646.78240967</ele>
        <time>2021-06-16T08:53:24Z</time>
      </trkpt>
      <trkpt lat="48.02582" lon="7.13023">
        <ele>648.4753418</ele>
        <time>2021-06-16T08:53:27Z</time>
      </trkpt>
      <trkpt lat="48.02589" lon="7.13029">
        <ele>648.4753418</ele>
        <time>2021-06-16T08:53:29Z</time>
      </trkpt>
      <trkpt lat="48.02593" lon="7.13041">
        <ele>650.35095215</ele>
        <time>2021-06-16T08:53:35Z</time>
      </trkpt>
      <trkpt lat="48.02594" lon="7.13053">
        <ele>651.47460938</ele>
        <time>2021-06-16T08:53:40Z</time>
      </trkpt>
      <trkpt lat="48.02598" lon="7.13068">
        <ele>651.47460938</ele>
        <time>2021-06-16T08:53:44Z</time>
      </trkpt>
      <trkpt lat="48.02602" lon="7.13084">
        <ele>652.55303955</ele>
        <time>2021-06-16T08:53:48Z</time>
      </trkpt>
      <trkpt lat="48.02605" lon="7.13098">
        <ele>652.55303955</ele>
        <time>2021-06-16T08:53:52Z</time>
      </trkpt>
      <trkpt lat="48.02607" lon="7.13112">
        <ele>654.7210083</ele>
        <time>2021-06-16T08:53:58Z</time>
      </trkpt>
      <trkpt lat="48.02605" lon="7.13127">
        <ele>654.7210083</ele>
        <time>2021-06-16T08:54:05Z</time>
      </trkpt>
      <trkpt lat="48.02611" lon="7.13148">
        <ele>654.7210083</ele>
        <time>2021-06-16T08:54:08Z</time>
      </trkpt>
      <trkpt lat="48.02615" lon="7.13163">
        <ele>656.96520996</ele>
        <time>2021-06-16T08:54:10Z</time>
      </trkpt>
      <trkpt lat="48.02617" lon="7.13173">
        <ele>656.96520996</ele>
        <time>2021-06-16T08:54:14Z</time>
      </trkpt>
      <trkpt lat="48.02621" lon="7.13191">
        <ele>658.00195312</ele>
        <time>2021-06-16T08:54:16Z</time>
      </trkpt>
      <trkpt lat="48.02626" lon="7.13207">
        <ele>658.00195312</ele>
        <time>2021-06-16T08:54:19Z</time>
      </trkpt>
      <trkpt lat="48.02628" lon="7.13221">
        <ele>659.11859131</ele>
        <time>2021-06-16T08:54:22Z</time>
      </trkpt>
      <trkpt lat="48.02631" lon="7.13234">
        <ele>660.14093018</ele>
        <time>2021-06-16T08:54:25Z</time>
      </trkpt>
      <trkpt lat="48.02631" lon="7.13243">
        <ele>660.8605957</ele>
        <time>2021-06-16T08:54:27Z</time>
      </trkpt>
      <trkpt lat="48.0263" lon="7.13254">
        <ele>660.8605957</ele>
        <time>2021-06-16T08:54:30Z</time>
      </trkpt>
      <trkpt lat="48.02633" lon="7.1327">
        <ele>661.57879639</ele>
        <time>2021-06-16T08:54:33Z</time>
      </trkpt>
      <trkpt lat="48.02638" lon="7.13287">
        <ele>661.57879639</ele>
        <time>2021-06-16T08:54:36Z</time>
      </trkpt>
      <trkpt lat="48.02645" lon="7.13305">
        <ele>661.57879639</ele>
        <time>2021-06-16T08:54:38Z</time>
      </trkpt>
      <trkpt lat="48.02652" lon="7.13321">
        <ele>662.59936523</ele>
        <time>2021-06-16T08:54:40Z</time>
      </trkpt>
      <trkpt lat="48.02651" lon="7.13333">
        <ele>662.59936523</ele>
        <time>2021-06-16T08:54:44Z</time>
      </trkpt>
      <trkpt lat="48.02644" lon="7.13334">
        <ele>663.54620361</ele>
        <time>2021-06-16T08:54:47Z</time>
      </trkpt>
      <trkpt lat="48.02635" lon="7.13324">
        <ele>665.83123779</ele>
        <time>2021-06-16T08:54:51Z</time>
      </trkpt>
      <trkpt lat="48.02637" lon="7.13311">
        <ele>666.93182373</ele>
        <time>2021-06-16T08:54:56Z</time>
      </trkpt>
      <trkpt lat="48.02643" lon="7.13298">
        <ele>668.02697754</ele>
        <time>2021-06-16T08:55:02Z</time>
      </trkpt>
      <trkpt lat="48.02646" lon="7.13284">
        <ele>669.17407227</ele>
        <time>2021-06-16T08:55:06Z</time>
      </trkpt>
      <trkpt lat="48.02642" lon="7.13269">
        <ele>670.25592041</ele>
        <time>2021-06-16T08:55:10Z</time>
      </trkpt>
      <trkpt lat="48.02639" lon="7.13255">
        <ele>670.25592041</ele>
        <time>2021-06-16T08:55:14Z</time>
      </trkpt>
      <trkpt lat="48.02636" lon="7.13242">
        <ele>671.28692627</ele>
        <time>2021-06-16T08:55:19Z</time>
      </trkpt>
      <trkpt lat="48.02632" lon="7.13231">
        <ele>672.58673096</ele>
        <time>2021-06-16T08:55:25Z</time>
      </trkpt>
      <trkpt lat="48.02627" lon="7.13224">
        <ele>674.30041504</ele>
        <time>2021-06-16T08:55:27Z</time>
      </trkpt>
      <trkpt lat="48.02621" lon="7.1322">
        <ele>674.97369385</ele>
        <time>2021-06-16T08:55:30Z</time>
      </trkpt>
      <trkpt lat="48.02612" lon="7.13215">
        <ele>676.05566406</ele>
        <time>2021-06-16T08:55:36Z</time>
      </trkpt>
      <trkpt lat="48.02603" lon="7.1321">
        <ele>677.21075439</ele>
        <time>2021-06-16T08:55:42Z</time>
      </trkpt>
      <trkpt lat="48.02596" lon="7.13197">
        <ele>678.20477295</ele>
        <time>2021-06-16T08:55:47Z</time>
      </trkpt>
      <trkpt lat="48.02587" lon="7.13183">
        <ele>679.36999512</ele>
        <time>2021-06-16T08:55:50Z</time>
      </trkpt>
      <trkpt lat="48.0258" lon="7.13175">
        <ele>679.36999512</ele>
        <time>2021-06-16T08:55:54Z</time>
      </trkpt>
      <trkpt lat="48.0257" lon="7.13168">
        <ele>680.5803833</ele>
        <time>2021-06-16T08:55:57Z</time>
      </trkpt>
      <trkpt lat="48.0256" lon="7.13167">
        <ele>681.7098999</ele>
        <time>2021-06-16T08:56:01Z</time>
      </trkpt>
      <trkpt lat="48.02539" lon="7.13163">
        <ele>682.77490234</ele>
        <time>2021-06-16T08:56:08Z</time>
      </trkpt>
      <trkpt lat="48.02527" lon="7.13157">
        <ele>682.77490234</ele>
        <time>2021-06-16T08:56:11Z</time>
      </trkpt>
      <trkpt lat="48.02517" lon="7.13152">
        <ele>683.91943359</ele>
        <time>2021-06-16T08:56:15Z</time>
      </trkpt>
      <trkpt lat="48.02507" lon="7.13152">
        <ele>685.02471924</ele>
        <time>2021-06-16T08:56:20Z</time>
      </trkpt>
      <trkpt lat="48.02496" lon="7.13155">
        <ele>686.16949463</ele>
        <time>2021-06-16T08:56:24Z</time>
      </trkpt>
      <trkpt lat="48.02488" lon="7.13155">
        <ele>687.7298584</ele>
        <time>2021-06-16T08:56:27Z</time>
      </trkpt>
      <trkpt lat="48.0248" lon="7.13156">
        <ele>687.7298584</ele>
        <time>2021-06-16T08:56:30Z</time>
      </trkpt>
      <trkpt lat="48.02469" lon="7.13153">
        <ele>688.40386963</ele>
        <time>2021-06-16T08:56:33Z</time>
      </trkpt>
      <trkpt lat="48.02461" lon="7.1315">
        <ele>689.51843262</ele>
        <time>2021-06-16T08:56:37Z</time>
      </trkpt>
      <trkpt lat="48.0245" lon="7.13152">
        <ele>690.61132812</ele>
        <time>2021-06-16T08:56:42Z</time>
      </trkpt>
      <trkpt lat="48.02441" lon="7.13154">
        <ele>691.6383667</ele>
        <time>2021-06-16T08:56:48Z</time>
      </trkpt>
      <trkpt lat="48.0243" lon="7.13157">
        <ele>692.77435303</ele>
        <time>2021-06-16T08:56:53Z</time>
      </trkpt>
      <trkpt lat="48.02419" lon="7.13158">
        <ele>693.90264893</ele>
        <time>2021-06-16T08:56:57Z</time>
      </trkpt>
      <trkpt lat="48.0241" lon="7.1316">
        <ele>693.90264893</ele>
        <time>2021-06-16T08:57:00Z</time>
      </trkpt>
      <trkpt lat="48.02399" lon="7.13153">
        <ele>695.04162598</ele>
        <time>2021-06-16T08:57:03Z</time>
      </trkpt>
      <trkpt lat="48.0239" lon="7.13149">
        <ele>695.04162598</ele>
        <time>2021-06-16T08:57:05Z</time>
      </trkpt>
      <trkpt lat="48.02381" lon="7.13149">
        <ele>696.15246582</ele>
        <time>2021-06-16T08:57:09Z</time>
      </trkpt>
      <trkpt lat="48.0237" lon="7.13148">
        <ele>697.25646973</ele>
        <time>2021-06-16T08:57:13Z</time>
      </trkpt>
      <trkpt lat="48.02361" lon="7.13148">
        <ele>698.35632324</ele>
        <time>2021-06-16T08:57:17Z</time>
      </trkpt>
      <trkpt lat="48.02351" lon="7.13147">
        <ele>699.49224854</ele>
        <time>2021-06-16T08:57:21Z</time>
      </trkpt>
      <trkpt lat="48.0234" lon="7.13143">
        <ele>699.49224854</ele>
        <time>2021-06-16T08:57:25Z</time>
      </trkpt>
      <trkpt lat="48.02334" lon="7.13141">
        <ele>701.0848999</ele>
        <time>2021-06-16T08:57:27Z</time>
      </trkpt>
      <trkpt lat="48.02327" lon="7.13137">
        <ele>701.0848999</ele>
        <time>2021-06-16T08:57:29Z</time>
      </trkpt>
      <trkpt lat="48.02317" lon="7.13131">
        <ele>701.72857666</ele>
        <time>2021-06-16T08:57:32Z</time>
      </trkpt>
      <trkpt lat="48.02308" lon="7.13125">
        <ele>701.72857666</ele>
        <time>2021-06-16T08:57:35Z</time>
      </trkpt>
      <trkpt lat="48.02299" lon="7.13116">
        <ele>702.73168945</ele>
        <time>2021-06-16T08:57:38Z</time>
      </trkpt>
      <trkpt lat="48.0229" lon="7.13109">
        <ele>703.86834717</ele>
        <time>2021-06-16T08:57:44Z</time>
      </trkpt>
      <trkpt lat="48.02282" lon="7.13103">
        <ele>705.05047607</ele>
        <time>2021-06-16T08:57:49Z</time>
      </trkpt>
      <trkpt lat="48.02274" lon="7.13096">
        <ele>705.97900391</ele>
        <time>2021-06-16T08:57:52Z</time>
      </trkpt>
      <trkpt lat="48.02264" lon="7.13086">
        <ele>707.09289551</ele>
        <time>2021-06-16T08:57:56Z</time>
      </trkpt>
      <trkpt lat="48.02254" lon="7.13076">
        <ele>707.09289551</ele>
        <time>2021-06-16T08:57:58Z</time>
      </trkpt>
      <trkpt lat="48.02246" lon="7.13071">
        <ele>708.19287109</ele>
        <time>2021-06-16T08:58:03Z</time>
      </trkpt>
      <trkpt lat="48.02234" lon="7.13063">
        <ele>708.19287109</ele>
        <time>2021-06-16T08:58:06Z</time>
      </trkpt>
      <trkpt lat="48.02225" lon="7.1306">
        <ele>709.31799316</ele>
        <time>2021-06-16T08:58:09Z</time>
      </trkpt>
      <trkpt lat="48.02215" lon="7.13055">
        <ele>710.54998779</ele>
        <time>2021-06-16T08:58:12Z</time>
      </trkpt>
      <trkpt lat="48.02206" lon="7.13048">
        <ele>710.54998779</ele>
        <time>2021-06-16T08:58:16Z</time>
      </trkpt>
      <trkpt lat="48.02199" lon="7.13043">
        <ele>711.7130127</ele>
        <time>2021-06-16T08:58:21Z</time>
      </trkpt>
      <trkpt lat="48.02185" lon="7.13041">
        <ele>712.95172119</ele>
        <time>2021-06-16T08:58:25Z</time>
      </trkpt>
      <trkpt lat="48.02179" lon="7.1304">
        <ele>713.94787598</ele>
        <time>2021-06-16T08:58:27Z</time>
      </trkpt>
      <trkpt lat="48.02173" lon="7.13037">
        <ele>713.94787598</ele>
        <time>2021-06-16T08:58:30Z</time>
      </trkpt>
      <trkpt lat="48.02164" lon="7.13034">
        <ele>714.91760254</ele>
        <time>2021-06-16T08:58:33Z</time>
      </trkpt>
      <trkpt lat="48.02154" lon="7.13032">
        <ele>716.15655518</ele>
        <time>2021-06-16T08:58:37Z</time>
      </trkpt>
      <trkpt lat="48.02144" lon="7.13033">
        <ele>716.15655518</ele>
        <time>2021-06-16T08:58:41Z</time>
      </trkpt>
      <trkpt lat="48.02135" lon="7.13035">
        <ele>717.25415039</ele>
        <time>2021-06-16T08:58:45Z</time>
      </trkpt>
      <trkpt lat="48.02126" lon="7.1304">
        <ele>718.31060791</ele>
        <time>2021-06-16T08:58:49Z</time>
      </trkpt>
      <trkpt lat="48.02116" lon="7.13042">
        <ele>719.50390625</ele>
        <time>2021-06-16T08:58:54Z</time>
      </trkpt>
      <trkpt lat="48.02104" lon="7.13041">
        <ele>720.70062256</ele>
        <time>2021-06-16T08:58:57Z</time>
      </trkpt>
      <trkpt lat="48.02095" lon="7.13043">
        <ele>720.70062256</ele>
        <time>2021-06-16T08:59:02Z</time>
      </trkpt>
      <trkpt lat="48.02086" lon="7.13046">
        <ele>721.82037354</ele>
        <time>2021-06-16T08:59:06Z</time>
      </trkpt>
      <trkpt lat="48.02076" lon="7.13046">
        <ele>723.99536133</ele>
        <time>2021-06-16T08:59:12Z</time>
      </trkpt>
      <trkpt lat="48.02066" lon="7.13057">
        <ele>723.99536133</ele>
        <time>2021-06-16T08:59:16Z</time>
      </trkpt>
      <trkpt lat="48.02057" lon="7.13063">
        <ele>724.97857666</ele>
        <time>2021-06-16T08:59:20Z</time>
      </trkpt>
      <trkpt lat="48.02049" lon="7.13073">
        <ele>726.16174316</ele>
        <time>2021-06-16T08:59:25Z</time>
      </trkpt>
      <trkpt lat="48.02044" lon="7.13078">
        <ele>727.15228271</ele>
        <time>2021-06-16T08:59:27Z</time>
      </trkpt>
      <trkpt lat="48.02038" lon="7.13081">
        <ele>727.15228271</ele>
        <time>2021-06-16T08:59:30Z</time>
      </trkpt>
      <trkpt lat="48.02025" lon="7.1308">
        <ele>728.11816406</ele>
        <time>2021-06-16T08:59:33Z</time>
      </trkpt>
      <trkpt lat="48.02014" lon="7.13082">
        <ele>728.11816406</ele>
        <time>2021-06-16T08:59:36Z</time>
      </trkpt>
      <trkpt lat="48.02005" lon="7.13082">
        <ele>729.12927246</ele>
        <time>2021-06-16T08:59:40Z</time>
      </trkpt>
      <trkpt lat="48.01995" lon="7.13087">
        <ele>730.39093018</ele>
        <time>2021-06-16T08:59:44Z</time>
      </trkpt>
      <trkpt lat="48.01983" lon="7.13086">
        <ele>731.46984863</ele>
        <time>2021-06-16T08:59:47Z</time>
      </trkpt>
      <trkpt lat="48.01973" lon="7.13079">
        <ele>731.46984863</ele>
        <time>2021-06-16T08:59:49Z</time>
      </trkpt>
      <trkpt lat="48.01965" lon="7.13079">
        <ele>732.55566406</ele>
        <time>2021-06-16T08:59:53Z</time>
      </trkpt>
      <trkpt lat="48.01954" lon="7.13077">
        <ele>732.55566406</ele>
        <time>2021-06-16T08:59:57Z</time>
      </trkpt>
      <trkpt lat="48.01944" lon="7.13074">
        <ele>733.71777344</ele>
        <time>2021-06-16T09:00:00Z</time>
      </trkpt>
      <trkpt lat="48.01926" lon="7.13074">
        <ele>736.07727051</ele>
        <time>2021-06-16T09:00:08Z</time>
      </trkpt>
      <trkpt lat="48.01916" lon="7.13071">
        <ele>736.07727051</ele>
        <time>2021-06-16T09:00:11Z</time>
      </trkpt>
      <trkpt lat="48.01906" lon="7.13071">
        <ele>737.11523438</ele>
        <time>2021-06-16T09:00:15Z</time>
      </trkpt>
      <trkpt lat="48.01897" lon="7.13077">
        <ele>738.21075439</ele>
        <time>2021-06-16T09:00:20Z</time>
      </trkpt>
      <trkpt lat="48.01894" lon="7.13093">
        <ele>739.19085693</ele>
        <time>2021-06-16T09:00:23Z</time>
      </trkpt>
      <trkpt lat="48.01892" lon="7.13103">
        <ele>740.24749756</ele>
        <time>2021-06-16T09:00:27Z</time>
      </trkpt>
      <trkpt lat="48.01886" lon="7.1311">
        <ele>740.24749756</ele>
        <time>2021-06-16T09:00:31Z</time>
      </trkpt>
      <trkpt lat="48.01866" lon="7.13117">
        <ele>742.39862061</ele>
        <time>2021-06-16T09:00:38Z</time>
      </trkpt>
      <trkpt lat="48.01857" lon="7.13121">
        <ele>742.39862061</ele>
        <time>2021-06-16T09:00:42Z</time>
      </trkpt>
      <trkpt lat="48.01847" lon="7.13123">
        <ele>743.45587158</ele>
        <time>2021-06-16T09:00:46Z</time>
      </trkpt>
      <trkpt lat="48.01837" lon="7.13122">
        <ele>744.63012695</ele>
        <time>2021-06-16T09:00:50Z</time>
      </trkpt>
      <trkpt lat="48.01828" lon="7.13127">
        <ele>745.79608154</ele>
        <time>2021-06-16T09:00:54Z</time>
      </trkpt>
      <trkpt lat="48.01818" lon="7.13129">
        <ele>745.79608154</ele>
        <time>2021-06-16T09:00:57Z</time>
      </trkpt>
      <trkpt lat="48.0181" lon="7.13134">
        <ele>746.91186523</ele>
        <time>2021-06-16T09:01:02Z</time>
      </trkpt>
      <trkpt lat="48.018" lon="7.13134">
        <ele>748.04736328</ele>
        <time>2021-06-16T09:01:05Z</time>
      </trkpt>
      <trkpt lat="48.01791" lon="7.13134">
        <ele>748.04736328</ele>
        <time>2021-06-16T09:01:09Z</time>
      </trkpt>
      <trkpt lat="48.01782" lon="7.13128">
        <ele>749.03979492</ele>
        <time>2021-06-16T09:01:12Z</time>
      </trkpt>
      <trkpt lat="48.01771" lon="7.13125">
        <ele>750.12780762</ele>
        <time>2021-06-16T09:01:15Z</time>
      </trkpt>
      <trkpt lat="48.01762" lon="7.13121">
        <ele>751.22454834</ele>
        <time>2021-06-16T09:01:21Z</time>
      </trkpt>
      <trkpt lat="48.01752" lon="7.13117">
        <ele>751.22454834</ele>
        <time>2021-06-16T09:01:24Z</time>
      </trkpt>
      <trkpt lat="48.01745" lon="7.1312">
        <ele>753.08520508</ele>
        <time>2021-06-16T09:01:27Z</time>
      </trkpt>
      <trkpt lat="48.01735" lon="7.1312">
        <ele>753.81750488</ele>
        <time>2021-06-16T09:01:30Z</time>
      </trkpt>
      <trkpt lat="48.01714" lon="7.13112">
        <ele>754.85510254</ele>
        <time>2021-06-16T09:01:38Z</time>
      </trkpt>
      <trkpt lat="48.01704" lon="7.13109">
        <ele>755.83215332</ele>
        <time>2021-06-16T09:01:42Z</time>
      </trkpt>
      <trkpt lat="48.01693" lon="7.1311">
        <ele>756.99255371</ele>
        <time>2021-06-16T09:01:47Z</time>
      </trkpt>
      <trkpt lat="48.01675" lon="7.13108">
        <ele>756.99255371</ele>
        <time>2021-06-16T09:01:51Z</time>
      </trkpt>
      <trkpt lat="48.01666" lon="7.13109">
        <ele>759.38879395</ele>
        <time>2021-06-16T09:01:58Z</time>
      </trkpt>
      <trkpt lat="48.01655" lon="7.13107">
        <ele>759.38879395</ele>
        <time>2021-06-16T09:02:01Z</time>
      </trkpt>
      <trkpt lat="48.01645" lon="7.13104">
        <ele>759.38879395</ele>
        <time>2021-06-16T09:02:03Z</time>
      </trkpt>
      <trkpt lat="48.01638" lon="7.13105">
        <ele>761.54937744</ele>
        <time>2021-06-16T09:02:08Z</time>
      </trkpt>
      <trkpt lat="48.01627" lon="7.13106">
        <ele>761.54937744</ele>
        <time>2021-06-16T09:02:12Z</time>
      </trkpt>
      <trkpt lat="48.01619" lon="7.13105">
        <ele>762.6161499</ele>
        <time>2021-06-16T09:02:15Z</time>
      </trkpt>
      <trkpt lat="48.01607" lon="7.13103">
        <ele>763.69915771</ele>
        <time>2021-06-16T09:02:19Z</time>
      </trkpt>
      <trkpt lat="48.01597" lon="7.13102">
        <ele>763.69915771</ele>
        <time>2021-06-16T09:02:23Z</time>
      </trkpt>
      <trkpt lat="48.01587" lon="7.13098">
        <ele>765.56671143</ele>
        <time>2021-06-16T09:02:27Z</time>
      </trkpt>
      <trkpt lat="48.01578" lon="7.13102">
        <ele>765.56671143</ele>
        <time>2021-06-16T09:02:31Z</time>
      </trkpt>
      <trkpt lat="48.01574" lon="7.13115">
        <ele>766.32513428</ele>
        <time>2021-06-16T09:02:35Z</time>
      </trkpt>
      <trkpt lat="48.01567" lon="7.13121">
        <ele>767.50646973</ele>
        <time>2021-06-16T09:02:39Z</time>
      </trkpt>
      <trkpt lat="48.01555" lon="7.13123">
        <ele>768.67926025</ele>
        <time>2021-06-16T09:02:43Z</time>
      </trkpt>
      <trkpt lat="48.01548" lon="7.13133">
        <ele>768.67926025</ele>
        <time>2021-06-16T09:02:48Z</time>
      </trkpt>
      <trkpt lat="48.01539" lon="7.13142">
        <ele>769.73547363</ele>
        <time>2021-06-16T09:02:52Z</time>
      </trkpt>
      <trkpt lat="48.01529" lon="7.13151">
        <ele>770.74237061</ele>
        <time>2021-06-16T09:02:56Z</time>
      </trkpt>
      <trkpt lat="48.01523" lon="7.13162">
        <ele>770.74237061</ele>
        <time>2021-06-16T09:03:00Z</time>
      </trkpt>
      <trkpt lat="48.01514" lon="7.13168">
        <ele>771.81323242</ele>
        <time>2021-06-16T09:03:04Z</time>
      </trkpt>
      <trkpt lat="48.01504" lon="7.13171">
        <ele>772.97875977</ele>
        <time>2021-06-16T09:03:08Z</time>
      </trkpt>
      <trkpt lat="48.01494" lon="7.13174">
        <ele>772.97875977</ele>
        <time>2021-06-16T09:03:11Z</time>
      </trkpt>
      <trkpt lat="48.01484" lon="7.13175">
        <ele>774.02093506</ele>
        <time>2021-06-16T09:03:14Z</time>
      </trkpt>
      <trkpt lat="48.01475" lon="7.13176">
        <ele>774.02093506</ele>
        <time>2021-06-16T09:03:17Z</time>
      </trkpt>
      <trkpt lat="48.01465" lon="7.13179">
        <ele>775.03302002</ele>
        <time>2021-06-16T09:03:22Z</time>
      </trkpt>
      <trkpt lat="48.01454" lon="7.13183">
        <ele>776.13397217</ele>
        <time>2021-06-16T09:03:26Z</time>
      </trkpt>
      <trkpt lat="48.01449" lon="7.13183">
        <ele>776.89733887</ele>
        <time>2021-06-16T09:03:27Z</time>
      </trkpt>
      <trkpt lat="48.01443" lon="7.13186">
        <ele>777.67895508</ele>
        <time>2021-06-16T09:03:32Z</time>
      </trkpt>
      <trkpt lat="48.01434" lon="7.1319">
        <ele>777.67895508</ele>
        <time>2021-06-16T09:03:36Z</time>
      </trkpt>
      <trkpt lat="48.01424" lon="7.13196">
        <ele>778.74487305</ele>
        <time>2021-06-16T09:03:41Z</time>
      </trkpt>
      <trkpt lat="48.01418" lon="7.13209">
        <ele>779.75372314</ele>
        <time>2021-06-16T09:03:45Z</time>
      </trkpt>
      <trkpt lat="48.01412" lon="7.13219">
        <ele>780.83099365</ele>
        <time>2021-06-16T09:03:50Z</time>
      </trkpt>
      <trkpt lat="48.01405" lon="7.1323">
        <ele>782.00732422</ele>
        <time>2021-06-16T09:03:53Z</time>
      </trkpt>
      <trkpt lat="48.01398" lon="7.1324">
        <ele>783.24291992</ele>
        <time>2021-06-16T09:03:57Z</time>
      </trkpt>
      <trkpt lat="48.01394" lon="7.13253">
        <ele>784.49615479</ele>
        <time>2021-06-16T09:04:01Z</time>
      </trkpt>
      <trkpt lat="48.01386" lon="7.13265">
        <ele>785.62896729</ele>
        <time>2021-06-16T09:04:05Z</time>
      </trkpt>
      <trkpt lat="48.01383" lon="7.13281">
        <ele>786.80200195</ele>
        <time>2021-06-16T09:04:09Z</time>
      </trkpt>
      <trkpt lat="48.0138" lon="7.13294">
        <ele>786.80200195</ele>
        <time>2021-06-16T09:04:13Z</time>
      </trkpt>
      <trkpt lat="48.01376" lon="7.13307">
        <ele>787.87866211</ele>
        <time>2021-06-16T09:04:17Z</time>
      </trkpt>
      <trkpt lat="48.01372" lon="7.13321">
        <ele>789.07019043</ele>
        <time>2021-06-16T09:04:21Z</time>
      </trkpt>
      <trkpt lat="48.01365" lon="7.13329">
        <ele>790.14349365</ele>
        <time>2021-06-16T09:04:25Z</time>
      </trkpt>
      <trkpt lat="48.01358" lon="7.13334">
        <ele>790.87127686</ele>
        <time>2021-06-16T09:04:27Z</time>
      </trkpt>
      <trkpt lat="48.01354" lon="7.13342">
        <ele>790.87127686</ele>
        <time>2021-06-16T09:04:30Z</time>
      </trkpt>
      <trkpt lat="48.01346" lon="7.13353">
        <ele>791.58099365</ele>
        <time>2021-06-16T09:04:34Z</time>
      </trkpt>
      <trkpt lat="48.01339" lon="7.13367">
        <ele>792.74310303</ele>
        <time>2021-06-16T09:04:39Z</time>
      </trkpt>
      <trkpt lat="48.01328" lon="7.13374">
        <ele>794.05828857</ele>
        <time>2021-06-16T09:04:42Z</time>
      </trkpt>
      <trkpt lat="48.01321" lon="7.1338">
        <ele>795.12652588</ele>
        <time>2021-06-16T09:04:47Z</time>
      </trkpt>
      <trkpt lat="48.01313" lon="7.13395">
        <ele>795.12652588</ele>
        <time>2021-06-16T09:04:50Z</time>
      </trkpt>
      <trkpt lat="48.01305" lon="7.13406">
        <ele>796.38952637</ele>
        <time>2021-06-16T09:04:54Z</time>
      </trkpt>
      <trkpt lat="48.01295" lon="7.13411">
        <ele>797.57159424</ele>
        <time>2021-06-16T09:04:58Z</time>
      </trkpt>
      <trkpt lat="48.01284" lon="7.13416">
        <ele>798.71551514</ele>
        <time>2021-06-16T09:05:02Z</time>
      </trkpt>
      <trkpt lat="48.01271" lon="7.13424">
        <ele>798.71551514</ele>
        <time>2021-06-16T09:05:04Z</time>
      </trkpt>
      <trkpt lat="48.01264" lon="7.13432">
        <ele>799.81140137</ele>
        <time>2021-06-16T09:05:10Z</time>
      </trkpt>
      <trkpt lat="48.01257" lon="7.13443">
        <ele>800.97796631</ele>
        <time>2021-06-16T09:05:14Z</time>
      </trkpt>
      <trkpt lat="48.01251" lon="7.13453">
        <ele>802.20812988</ele>
        <time>2021-06-16T09:05:20Z</time>
      </trkpt>
      <trkpt lat="48.01245" lon="7.13465">
        <ele>803.23114014</ele>
        <time>2021-06-16T09:05:23Z</time>
      </trkpt>
      <trkpt lat="48.01237" lon="7.13472">
        <ele>804.18548584</ele>
        <time>2021-06-16T09:05:27Z</time>
      </trkpt>
      <trkpt lat="48.01229" lon="7.1348">
        <ele>804.18548584</ele>
        <time>2021-06-16T09:05:30Z</time>
      </trkpt>
      <trkpt lat="48.0122" lon="7.13489">
        <ele>805.09814453</ele>
        <time>2021-06-16T09:05:34Z</time>
      </trkpt>
      <trkpt lat="48.0121" lon="7.13496">
        <ele>806.26116943</ele>
        <time>2021-06-16T09:05:38Z</time>
      </trkpt>
      <trkpt lat="48.01205" lon="7.13506">
        <ele>807.45477295</ele>
        <time>2021-06-16T09:05:43Z</time>
      </trkpt>
      <trkpt lat="48.01195" lon="7.13515">
        <ele>807.45477295</ele>
        <time>2021-06-16T09:05:46Z</time>
      </trkpt>
      <trkpt lat="48.01186" lon="7.13521">
        <ele>808.61401367</ele>
        <time>2021-06-16T09:05:50Z</time>
      </trkpt>
      <trkpt lat="48.01179" lon="7.13529">
        <ele>809.7565918</ele>
        <time>2021-06-16T09:05:55Z</time>
      </trkpt>
      <trkpt lat="48.0117" lon="7.13537">
        <ele>809.7565918</ele>
        <time>2021-06-16T09:05:58Z</time>
      </trkpt>
      <trkpt lat="48.0116" lon="7.13541">
        <ele>810.93389893</ele>
        <time>2021-06-16T09:06:03Z</time>
      </trkpt>
      <trkpt lat="48.01149" lon="7.13545">
        <ele>812.13592529</ele>
        <time>2021-06-16T09:06:08Z</time>
      </trkpt>
      <trkpt lat="48.01138" lon="7.13548">
        <ele>813.17272949</ele>
        <time>2021-06-16T09:06:11Z</time>
      </trkpt>
      <trkpt lat="48.01129" lon="7.13549">
        <ele>814.28625488</ele>
        <time>2021-06-16T09:06:16Z</time>
      </trkpt>
      <trkpt lat="48.01119" lon="7.13549">
        <ele>814.28625488</ele>
        <time>2021-06-16T09:06:19Z</time>
      </trkpt>
      <trkpt lat="48.01108" lon="7.13548">
        <ele>815.36413574</ele>
        <time>2021-06-16T09:06:21Z</time>
      </trkpt>
      <trkpt lat="48.01098" lon="7.13543">
        <ele>815.36413574</ele>
        <time>2021-06-16T09:06:23Z</time>
      </trkpt>
      <trkpt lat="48.01083" lon="7.13538">
        <ele>816.47393799</ele>
        <time>2021-06-16T09:06:25Z</time>
      </trkpt>
      <trkpt lat="48.01067" lon="7.13534">
        <ele>816.47393799</ele>
        <time>2021-06-16T09:06:26Z</time>
      </trkpt>
      <trkpt lat="48.01059" lon="7.1353">
        <ele>817.14093018</ele>
        <time>2021-06-16T09:06:29Z</time>
      </trkpt>
      <trkpt lat="48.01053" lon="7.13527">
        <ele>817.72137451</ele>
        <time>2021-06-16T09:06:36Z</time>
      </trkpt>
      <trkpt lat="48.01044" lon="7.13524">
        <ele>821.18060303</ele>
        <time>2021-06-16T09:06:46Z</time>
      </trkpt>
      <trkpt lat="48.01032" lon="7.13521">
        <ele>822.26153564</ele>
        <time>2021-06-16T09:06:52Z</time>
      </trkpt>
      <trkpt lat="48.01021" lon="7.1352">
        <ele>823.33129883</ele>
        <time>2021-06-16T09:06:57Z</time>
      </trkpt>
      <trkpt lat="48.01012" lon="7.13515">
        <ele>824.42730713</ele>
        <time>2021-06-16T09:07:02Z</time>
      </trkpt>
      <trkpt lat="48.00998" lon="7.13509">
        <ele>825.58514404</ele>
        <time>2021-06-16T09:07:06Z</time>
      </trkpt>
      <trkpt lat="48.0099" lon="7.13506">
        <ele>825.58514404</ele>
        <time>2021-06-16T09:07:10Z</time>
      </trkpt>
      <trkpt lat="48.00981" lon="7.13501">
        <ele>827.85723877</ele>
        <time>2021-06-16T09:07:20Z</time>
      </trkpt>
      <trkpt lat="48.00975" lon="7.13491">
        <ele>829.08081055</ele>
        <time>2021-06-16T09:07:24Z</time>
      </trkpt>
      <trkpt lat="48.00968" lon="7.13485">
        <ele>830.8550415</ele>
        <time>2021-06-16T09:07:27Z</time>
      </trkpt>
      <trkpt lat="48.00963" lon="7.13477">
        <ele>830.8550415</ele>
        <time>2021-06-16T09:07:30Z</time>
      </trkpt>
      <trkpt lat="48.0095" lon="7.13454">
        <ele>832.69311523</ele>
        <time>2021-06-16T09:07:38Z</time>
      </trkpt>
      <trkpt lat="48.00944" lon="7.13443">
        <ele>833.80627441</ele>
        <time>2021-06-16T09:07:42Z</time>
      </trkpt>
      <trkpt lat="48.00942" lon="7.13429">
        <ele>834.99072266</ele>
        <time>2021-06-16T09:07:46Z</time>
      </trkpt>
      <trkpt lat="48.00939" lon="7.13415">
        <ele>836.18823242</ele>
        <time>2021-06-16T09:07:50Z</time>
      </trkpt>
      <trkpt lat="48.00934" lon="7.13405">
        <ele>836.18823242</ele>
        <time>2021-06-16T09:07:54Z</time>
      </trkpt>
      <trkpt lat="48.00927" lon="7.13394">
        <ele>837.31591797</ele>
        <time>2021-06-16T09:07:59Z</time>
      </trkpt>
      <trkpt lat="48.00924" lon="7.13379">
        <ele>838.39874268</ele>
        <time>2021-06-16T09:08:02Z</time>
      </trkpt>
      <trkpt lat="48.00919" lon="7.1337">
        <ele>839.4831543</ele>
        <time>2021-06-16T09:08:06Z</time>
      </trkpt>
      <trkpt lat="48.00913" lon="7.13357">
        <ele>840.57910156</ele>
        <time>2021-06-16T09:08:10Z</time>
      </trkpt>
      <trkpt lat="48.00907" lon="7.13345">
        <ele>841.66271973</ele>
        <time>2021-06-16T09:08:14Z</time>
      </trkpt>
      <trkpt lat="48.009" lon="7.13332">
        <ele>841.66271973</ele>
        <time>2021-06-16T09:08:18Z</time>
      </trkpt>
      <trkpt lat="48.00893" lon="7.13321">
        <ele>842.71105957</ele>
        <time>2021-06-16T09:08:22Z</time>
      </trkpt>
      <trkpt lat="48.00889" lon="7.13312">
        <ele>844.61920166</ele>
        <time>2021-06-16T09:08:27Z</time>
      </trkpt>
      <trkpt lat="48.00883" lon="7.13301">
        <ele>845.284729</ele>
        <time>2021-06-16T09:08:31Z</time>
      </trkpt>
      <trkpt lat="48.00876" lon="7.13291">
        <ele>846.50268555</ele>
        <time>2021-06-16T09:08:35Z</time>
      </trkpt>
      <trkpt lat="48.00869" lon="7.13281">
        <ele>847.72662354</ele>
        <time>2021-06-16T09:08:39Z</time>
      </trkpt>
      <trkpt lat="48.0086" lon="7.13272">
        <ele>847.72662354</ele>
        <time>2021-06-16T09:08:42Z</time>
      </trkpt>
      <trkpt lat="48.0085" lon="7.13265">
        <ele>848.85736084</ele>
        <time>2021-06-16T09:08:45Z</time>
      </trkpt>
      <trkpt lat="48.00839" lon="7.13261">
        <ele>848.85736084</ele>
        <time>2021-06-16T09:08:47Z</time>
      </trkpt>
      <trkpt lat="48.0083" lon="7.1326">
        <ele>850.00787354</ele>
        <time>2021-06-16T09:08:50Z</time>
      </trkpt>
      <trkpt lat="48.00819" lon="7.1326">
        <ele>850.00787354</ele>
        <time>2021-06-16T09:08:53Z</time>
      </trkpt>
      <trkpt lat="48.00808" lon="7.13259">
        <ele>851.05450439</ele>
        <time>2021-06-16T09:08:57Z</time>
      </trkpt>
      <trkpt lat="48.00797" lon="7.13257">
        <ele>851.05450439</ele>
        <time>2021-06-16T09:09:01Z</time>
      </trkpt>
      <trkpt lat="48.00787" lon="7.1325">
        <ele>852.1159668</ele>
        <time>2021-06-16T09:09:05Z</time>
      </trkpt>
      <trkpt lat="48.00779" lon="7.13245">
        <ele>853.28692627</ele>
        <time>2021-06-16T09:09:10Z</time>
      </trkpt>
      <trkpt lat="48.00771" lon="7.13239">
        <ele>854.51794434</ele>
        <time>2021-06-16T09:09:14Z</time>
      </trkpt>
      <trkpt lat="48.0076" lon="7.13232">
        <ele>855.63842773</ele>
        <time>2021-06-16T09:09:19Z</time>
      </trkpt>
      <trkpt lat="48.00751" lon="7.13228">
        <ele>855.63842773</ele>
        <time>2021-06-16T09:09:23Z</time>
      </trkpt>
      <trkpt lat="48.00738" lon="7.13227">
        <ele>856.6439209</ele>
        <time>2021-06-16T09:09:25Z</time>
      </trkpt>
      <trkpt lat="48.00732" lon="7.13225">
        <ele>857.17529297</ele>
        <time>2021-06-16T09:09:27Z</time>
      </trkpt>
      <trkpt lat="48.00724" lon="7.13225">
        <ele>857.17529297</ele>
        <time>2021-06-16T09:09:29Z</time>
      </trkpt>
      <trkpt lat="48.00713" lon="7.13225">
        <ele>857.8203125</ele>
        <time>2021-06-16T09:09:32Z</time>
      </trkpt>
      <trkpt lat="48.00705" lon="7.13228">
        <ele>857.8203125</ele>
        <time>2021-06-16T09:09:36Z</time>
      </trkpt>
      <trkpt lat="48.00692" lon="7.13232">
        <ele>858.8838501</ele>
        <time>2021-06-16T09:09:40Z</time>
      </trkpt>
      <trkpt lat="48.00682" lon="7.13241">
        <ele>860.13757324</ele>
        <time>2021-06-16T09:09:44Z</time>
      </trkpt>
      <trkpt lat="48.00675" lon="7.13247">
        <ele>861.29626465</ele>
        <time>2021-06-16T09:09:50Z</time>
      </trkpt>
      <trkpt lat="48.00661" lon="7.13255">
        <ele>861.29626465</ele>
        <time>2021-06-16T09:09:52Z</time>
      </trkpt>
      <trkpt lat="48.00653" lon="7.13261">
        <ele>862.23779297</ele>
        <time>2021-06-16T09:09:55Z</time>
      </trkpt>
      <trkpt lat="48.00644" lon="7.13267">
        <ele>862.23779297</ele>
        <time>2021-06-16T09:09:58Z</time>
      </trkpt>
      <trkpt lat="48.00636" lon="7.13275">
        <ele>862.23779297</ele>
        <time>2021-06-16T09:10:01Z</time>
      </trkpt>
      <trkpt lat="48.00623" lon="7.13294">
        <ele>864.51672363</ele>
        <time>2021-06-16T09:10:08Z</time>
      </trkpt>
      <trkpt lat="48.00614" lon="7.13305">
        <ele>864.51672363</ele>
        <time>2021-06-16T09:10:11Z</time>
      </trkpt>
      <trkpt lat="48.00608" lon="7.13314">
        <ele>865.5994873</ele>
        <time>2021-06-16T09:10:14Z</time>
      </trkpt>
      <trkpt lat="48.006" lon="7.13326">
        <ele>865.5994873</ele>
        <time>2021-06-16T09:10:16Z</time>
      </trkpt>
      <trkpt lat="48.00592" lon="7.13336">
        <ele>865.5994873</ele>
        <time>2021-06-16T09:10:19Z</time>
      </trkpt>
      <trkpt lat="48.00587" lon="7.13348">
        <ele>866.6852417</ele>
        <time>2021-06-16T09:10:22Z</time>
      </trkpt>
      <trkpt lat="48.0058" lon="7.13356">
        <ele>866.6852417</ele>
        <time>2021-06-16T09:10:25Z</time>
      </trkpt>
      <trkpt lat="48.00574" lon="7.1336">
        <ele>868.19934082</ele>
        <time>2021-06-16T09:10:27Z</time>
      </trkpt>
      <trkpt lat="48.00567" lon="7.13366">
        <ele>868.19934082</ele>
        <time>2021-06-16T09:10:29Z</time>
      </trkpt>
      <trkpt lat="48.00559" lon="7.13375">
        <ele>868.19934082</ele>
        <time>2021-06-16T09:10:31Z</time>
      </trkpt>
      <trkpt lat="48.00553" lon="7.13385">
        <ele>868.19934082</ele>
        <time>2021-06-16T09:10:34Z</time>
      </trkpt>
      <trkpt lat="48.00545" lon="7.13396">
        <ele>868.19934082</ele>
        <time>2021-06-16T09:10:37Z</time>
      </trkpt>
      <trkpt lat="48.00534" lon="7.13403">
        <ele>868.19934082</ele>
        <time>2021-06-16T09:10:41Z</time>
      </trkpt>
      <trkpt lat="48.00522" lon="7.13409">
        <ele>868.19934082</ele>
        <time>2021-06-16T09:10:44Z</time>
      </trkpt>
      <trkpt lat="48.0051" lon="7.13414">
        <ele>868.19934082</ele>
        <time>2021-06-16T09:10:47Z</time>
      </trkpt>
      <trkpt lat="48.00499" lon="7.13415">
        <ele>869.81726074</ele>
        <time>2021-06-16T09:10:50Z</time>
      </trkpt>
      <trkpt lat="48.00486" lon="7.13416">
        <ele>870.92193604</ele>
        <time>2021-06-16T09:10:53Z</time>
      </trkpt>
      <trkpt lat="48.00474" lon="7.13416">
        <ele>870.92193604</ele>
        <time>2021-06-16T09:10:56Z</time>
      </trkpt>
      <trkpt lat="48.00462" lon="7.13414">
        <ele>872.01690674</ele>
        <time>2021-06-16T09:10:59Z</time>
      </trkpt>
      <trkpt lat="48.00449" lon="7.13412">
        <ele>872.01690674</ele>
        <time>2021-06-16T09:11:02Z</time>
      </trkpt>
      <trkpt lat="48.00436" lon="7.13406">
        <ele>873.07318115</ele>
        <time>2021-06-16T09:11:05Z</time>
      </trkpt>
      <trkpt lat="48.00423" lon="7.13405">
        <ele>873.07318115</ele>
        <time>2021-06-16T09:11:07Z</time>
      </trkpt>
      <trkpt lat="48.00414" lon="7.13402">
        <ele>874.39685059</ele>
        <time>2021-06-16T09:11:10Z</time>
      </trkpt>
      <trkpt lat="48.00405" lon="7.13395">
        <ele>875.59667969</ele>
        <time>2021-06-16T09:11:14Z</time>
      </trkpt>
      <trkpt lat="48.00396" lon="7.13386">
        <ele>875.59667969</ele>
        <time>2021-06-16T09:11:18Z</time>
      </trkpt>
      <trkpt lat="48.00389" lon="7.13374">
        <ele>876.65234375</ele>
        <time>2021-06-16T09:11:21Z</time>
      </trkpt>
      <trkpt lat="48.0037" lon="7.13377">
        <ele>876.65234375</ele>
        <time>2021-06-16T09:11:22Z</time>
      </trkpt>
      <trkpt lat="48.00363" lon="7.13374">
        <ele>876.65234375</ele>
        <time>2021-06-16T09:11:26Z</time>
      </trkpt>
      <trkpt lat="48.0034" lon="7.13382">
        <ele>877.66949463</ele>
        <time>2021-06-16T09:11:27Z</time>
      </trkpt>
      <trkpt lat="48.0033" lon="7.13388">
        <ele>877.66949463</ele>
        <time>2021-06-16T09:11:28Z</time>
      </trkpt>
      <trkpt lat="48.00324" lon="7.13385">
        <ele>877.66949463</ele>
        <time>2021-06-16T09:11:31Z</time>
      </trkpt>
      <trkpt lat="48.00312" lon="7.13383">
        <ele>877.66949463</ele>
        <time>2021-06-16T09:11:33Z</time>
      </trkpt>
      <trkpt lat="48.00306" lon="7.13372">
        <ele>877.66949463</ele>
        <time>2021-06-16T09:11:36Z</time>
      </trkpt>
      <trkpt lat="48.00297" lon="7.1336">
        <ele>877.66949463</ele>
        <time>2021-06-16T09:11:39Z</time>
      </trkpt>
      <trkpt lat="48.0029" lon="7.13349">
        <ele>879.59765625</ele>
        <time>2021-06-16T09:11:42Z</time>
      </trkpt>
      <trkpt lat="48.0028" lon="7.13338">
        <ele>879.59765625</ele>
        <time>2021-06-16T09:11:45Z</time>
      </trkpt>
      <trkpt lat="48.00267" lon="7.1333">
        <ele>880.65515137</ele>
        <time>2021-06-16T09:11:47Z</time>
      </trkpt>
      <trkpt lat="48.00261" lon="7.13319">
        <ele>880.65515137</ele>
        <time>2021-06-16T09:11:50Z</time>
      </trkpt>
      <trkpt lat="48.00258" lon="7.13305">
        <ele>880.65515137</ele>
        <time>2021-06-16T09:11:53Z</time>
      </trkpt>
      <trkpt lat="48.00258" lon="7.13291">
        <ele>881.92333984</ele>
        <time>2021-06-16T09:11:56Z</time>
      </trkpt>
      <trkpt lat="48.00253" lon="7.13276">
        <ele>881.92333984</ele>
        <time>2021-06-16T09:12:00Z</time>
      </trkpt>
      <trkpt lat="48.00235" lon="7.13253">
        <ele>882.85461426</ele>
        <time>2021-06-16T09:12:07Z</time>
      </trkpt>
      <trkpt lat="48.00224" lon="7.13249">
        <ele>884.07177734</ele>
        <time>2021-06-16T09:12:10Z</time>
      </trkpt>
      <trkpt lat="48.0021" lon="7.13247">
        <ele>884.07177734</ele>
        <time>2021-06-16T09:12:13Z</time>
      </trkpt>
      <trkpt lat="48.002" lon="7.13245">
        <ele>885.21496582</ele>
        <time>2021-06-16T09:12:16Z</time>
      </trkpt>
      <trkpt lat="48.0019" lon="7.13245">
        <ele>886.38482666</ele>
        <time>2021-06-16T09:12:21Z</time>
      </trkpt>
      <trkpt lat="48.00182" lon="7.13242">
        <ele>887.47143555</ele>
        <time>2021-06-16T09:12:24Z</time>
      </trkpt>
      <trkpt lat="48.00176" lon="7.13238">
        <ele>888.21557617</ele>
        <time>2021-06-16T09:12:27Z</time>
      </trkpt>
      <trkpt lat="48.00169" lon="7.13234">
        <ele>888.21557617</ele>
        <time>2021-06-16T09:12:29Z</time>
      </trkpt>
      <trkpt lat="48.00161" lon="7.13227">
        <ele>889.02172852</ele>
        <time>2021-06-16T09:12:32Z</time>
      </trkpt>
      <trkpt lat="48.00151" lon="7.1322">
        <ele>889.02172852</ele>
        <time>2021-06-16T09:12:35Z</time>
      </trkpt>
      <trkpt lat="48.00141" lon="7.13213">
        <ele>890.15686035</ele>
        <time>2021-06-16T09:12:39Z</time>
      </trkpt>
      <trkpt lat="48.00132" lon="7.132">
        <ele>891.30480957</ele>
        <time>2021-06-16T09:12:42Z</time>
      </trkpt>
      <trkpt lat="48.00123" lon="7.13192">
        <ele>891.30480957</ele>
        <time>2021-06-16T09:12:44Z</time>
      </trkpt>
      <trkpt lat="48.00117" lon="7.13179">
        <ele>892.47662354</ele>
        <time>2021-06-16T09:12:47Z</time>
      </trkpt>
      <trkpt lat="48.00107" lon="7.13168">
        <ele>892.47662354</ele>
        <time>2021-06-16T09:12:49Z</time>
      </trkpt>
      <trkpt lat="48.001" lon="7.13158">
        <ele>893.44207764</ele>
        <time>2021-06-16T09:12:52Z</time>
      </trkpt>
      <trkpt lat="48.00092" lon="7.13142">
        <ele>894.60931396</ele>
        <time>2021-06-16T09:12:58Z</time>
      </trkpt>
      <trkpt lat="48.00082" lon="7.13136">
        <ele>895.64086914</ele>
        <time>2021-06-16T09:13:03Z</time>
      </trkpt>
      <trkpt lat="48.00073" lon="7.13129">
        <ele>896.75512695</ele>
        <time>2021-06-16T09:13:08Z</time>
      </trkpt>
      <trkpt lat="48.00064" lon="7.1312">
        <ele>896.75512695</ele>
        <time>2021-06-16T09:13:11Z</time>
      </trkpt>
      <trkpt lat="48.00054" lon="7.13115">
        <ele>896.75512695</ele>
        <time>2021-06-16T09:13:13Z</time>
      </trkpt>
      <trkpt lat="48.00047" lon="7.13108">
        <ele>897.8581543</ele>
        <time>2021-06-16T09:13:15Z</time>
      </trkpt>
      <trkpt lat="48.00037" lon="7.131">
        <ele>897.8581543</ele>
        <time>2021-06-16T09:13:18Z</time>
      </trkpt>
      <trkpt lat="48.00029" lon="7.1309">
        <ele>899.12451172</ele>
        <time>2021-06-16T09:13:22Z</time>
      </trkpt>
      <trkpt lat="48.00021" lon="7.13082">
        <ele>900.20666504</ele>
        <time>2021-06-16T09:13:26Z</time>
      </trkpt>
      <trkpt lat="48.00017" lon="7.13079">
        <ele>900.97314453</ele>
        <time>2021-06-16T09:13:27Z</time>
      </trkpt>
      <trkpt lat="48.00012" lon="7.13073">
        <ele>900.97314453</ele>
        <time>2021-06-16T09:13:30Z</time>
      </trkpt>
      <trkpt lat="48.00002" lon="7.13067">
        <ele>901.78491211</ele>
        <time>2021-06-16T09:13:33Z</time>
      </trkpt>
      <trkpt lat="47.99994" lon="7.13059">
        <ele>903.07611084</ele>
        <time>2021-06-16T09:13:37Z</time>
      </trkpt>
      <trkpt lat="47.99989" lon="7.13047">
        <ele>904.20861816</ele>
        <time>2021-06-16T09:13:41Z</time>
      </trkpt>
      <trkpt lat="47.9998" lon="7.13035">
        <ele>905.2177124</ele>
        <time>2021-06-16T09:13:44Z</time>
      </trkpt>
      <trkpt lat="47.99971" lon="7.13027">
        <ele>905.2177124</ele>
        <time>2021-06-16T09:13:47Z</time>
      </trkpt>
      <trkpt lat="47.99962" lon="7.13019">
        <ele>906.29577637</ele>
        <time>2021-06-16T09:13:52Z</time>
      </trkpt>
      <trkpt lat="47.99953" lon="7.13012">
        <ele>907.30877686</ele>
        <time>2021-06-16T09:13:57Z</time>
      </trkpt>
      <trkpt lat="47.99944" lon="7.13012">
        <ele>909.68865967</ele>
        <time>2021-06-16T09:14:03Z</time>
      </trkpt>
      <trkpt lat="47.99933" lon="7.13007">
        <ele>909.68865967</ele>
        <time>2021-06-16T09:14:06Z</time>
      </trkpt>
      <trkpt lat="47.99922" lon="7.12999">
        <ele>910.80456543</ele>
        <time>2021-06-16T09:14:09Z</time>
      </trkpt>
      <trkpt lat="47.99911" lon="7.12996">
        <ele>910.80456543</ele>
        <time>2021-06-16T09:14:12Z</time>
      </trkpt>
      <trkpt lat="47.999" lon="7.12993">
        <ele>911.95214844</ele>
        <time>2021-06-16T09:14:15Z</time>
      </trkpt>
      <trkpt lat="47.99891" lon="7.12992">
        <ele>913.13793945</ele>
        <time>2021-06-16T09:14:20Z</time>
      </trkpt>
      <trkpt lat="47.99882" lon="7.1299">
        <ele>914.29510498</ele>
        <time>2021-06-16T09:14:26Z</time>
      </trkpt>
      <trkpt lat="47.99878" lon="7.12987">
        <ele>915.13153076</ele>
        <time>2021-06-16T09:14:27Z</time>
      </trkpt>
      <trkpt lat="47.99872" lon="7.12984">
        <ele>915.94134521</ele>
        <time>2021-06-16T09:14:31Z</time>
      </trkpt>
      <trkpt lat="47.99862" lon="7.1298">
        <ele>915.94134521</ele>
        <time>2021-06-16T09:14:35Z</time>
      </trkpt>
      <trkpt lat="47.99852" lon="7.12968">
        <ele>917.09234619</ele>
        <time>2021-06-16T09:14:38Z</time>
      </trkpt>
      <trkpt lat="47.99841" lon="7.1295">
        <ele>918.28570557</ele>
        <time>2021-06-16T09:14:40Z</time>
      </trkpt>
      <trkpt lat="47.99823" lon="7.12968">
        <ele>919.29956055</ele>
        <time>2021-06-16T09:19:51Z</time>
      </trkpt>
      <trkpt lat="47.99823" lon="7.12972">
        <ele>919.14050293</ele>
        <time>2021-06-16T09:20:06Z</time>
      </trkpt>
      <trkpt lat="47.99809" lon="7.1297">
        <ele>920.82476807</ele>
        <time>2021-06-16T09:20:10Z</time>
      </trkpt>
      <trkpt lat="47.99801" lon="7.12962">
        <ele>922.08209229</ele>
        <time>2021-06-16T09:20:16Z</time>
      </trkpt>
      <trkpt lat="47.9979" lon="7.12959">
        <ele>923.27203369</ele>
        <time>2021-06-16T09:20:20Z</time>
      </trkpt>
      <trkpt lat="47.99779" lon="7.12962">
        <ele>923.27203369</ele>
        <time>2021-06-16T09:20:22Z</time>
      </trkpt>
      <trkpt lat="47.9977" lon="7.12962">
        <ele>925.19934082</ele>
        <time>2021-06-16T09:20:27Z</time>
      </trkpt>
      <trkpt lat="47.99764" lon="7.12955">
        <ele>925.89581299</ele>
        <time>2021-06-16T09:20:31Z</time>
      </trkpt>
      <trkpt lat="47.99753" lon="7.12951">
        <ele>925.89581299</ele>
        <time>2021-06-16T09:20:35Z</time>
      </trkpt>
      <trkpt lat="47.99744" lon="7.12954">
        <ele>925.89581299</ele>
        <time>2021-06-16T09:20:39Z</time>
      </trkpt>
      <trkpt lat="47.99735" lon="7.12957">
        <ele>928.16766357</ele>
        <time>2021-06-16T09:20:44Z</time>
      </trkpt>
      <trkpt lat="47.99726" lon="7.12961">
        <ele>930.32348633</ele>
        <time>2021-06-16T09:20:51Z</time>
      </trkpt>
      <trkpt lat="47.99717" lon="7.12969">
        <ele>931.50964355</ele>
        <time>2021-06-16T09:20:56Z</time>
      </trkpt>
      <trkpt lat="47.99706" lon="7.12978">
        <ele>933.81341553</ele>
        <time>2021-06-16T09:21:02Z</time>
      </trkpt>
      <trkpt lat="47.99693" lon="7.12983">
        <ele>933.81341553</ele>
        <time>2021-06-16T09:21:05Z</time>
      </trkpt>
      <trkpt lat="47.99683" lon="7.12987">
        <ele>934.95739746</ele>
        <time>2021-06-16T09:21:09Z</time>
      </trkpt>
      <trkpt lat="47.99672" lon="7.12995">
        <ele>936.16333008</ele>
        <time>2021-06-16T09:21:11Z</time>
      </trkpt>
      <trkpt lat="47.99662" lon="7.12997">
        <ele>936.16333008</ele>
        <time>2021-06-16T09:21:14Z</time>
      </trkpt>
      <trkpt lat="47.99651" lon="7.12998">
        <ele>937.1998291</ele>
        <time>2021-06-16T09:21:18Z</time>
      </trkpt>
      <trkpt lat="47.9964" lon="7.12999">
        <ele>938.15869141</ele>
        <time>2021-06-16T09:21:21Z</time>
      </trkpt>
      <trkpt lat="47.9963" lon="7.13">
        <ele>939.4083252</ele>
        <time>2021-06-16T09:21:26Z</time>
      </trkpt>
      <trkpt lat="47.99626" lon="7.13">
        <ele>940.31774902</ele>
        <time>2021-06-16T09:21:27Z</time>
      </trkpt>
      <trkpt lat="47.99619" lon="7.13">
        <ele>941.21575928</ele>
        <time>2021-06-16T09:21:30Z</time>
      </trkpt>
      <trkpt lat="47.99609" lon="7.13001">
        <ele>941.21575928</ele>
        <time>2021-06-16T09:21:34Z</time>
      </trkpt>
      <trkpt lat="47.996" lon="7.12998">
        <ele>943.25836182</ele>
        <time>2021-06-16T09:21:39Z</time>
      </trkpt>
      <trkpt lat="47.99591" lon="7.12996">
        <ele>944.36712646</ele>
        <time>2021-06-16T09:21:44Z</time>
      </trkpt>
      <trkpt lat="47.99581" lon="7.12996">
        <ele>944.36712646</ele>
        <time>2021-06-16T09:21:48Z</time>
      </trkpt>
      <trkpt lat="47.99571" lon="7.12998">
        <ele>945.50921631</ele>
        <time>2021-06-16T09:21:52Z</time>
      </trkpt>
      <trkpt lat="47.9956" lon="7.12995">
        <ele>946.61126709</ele>
        <time>2021-06-16T09:21:57Z</time>
      </trkpt>
      <trkpt lat="47.9955" lon="7.12995">
        <ele>947.72021484</ele>
        <time>2021-06-16T09:22:00Z</time>
      </trkpt>
      <trkpt lat="47.9954" lon="7.12994">
        <ele>947.72021484</ele>
        <time>2021-06-16T09:22:04Z</time>
      </trkpt>
      <trkpt lat="47.99531" lon="7.12992">
        <ele>948.93963623</ele>
        <time>2021-06-16T09:22:08Z</time>
      </trkpt>
      <trkpt lat="47.99521" lon="7.1299">
        <ele>950.04150391</ele>
        <time>2021-06-16T09:22:12Z</time>
      </trkpt>
      <trkpt lat="47.99513" lon="7.12987">
        <ele>951.24182129</ele>
        <time>2021-06-16T09:22:16Z</time>
      </trkpt>
      <trkpt lat="47.99503" lon="7.12985">
        <ele>951.24182129</ele>
        <time>2021-06-16T09:22:20Z</time>
      </trkpt>
      <trkpt lat="47.99492" lon="7.12984">
        <ele>952.28179932</ele>
        <time>2021-06-16T09:22:24Z</time>
      </trkpt>
      <trkpt lat="47.99485" lon="7.12984">
        <ele>953.78771973</ele>
        <time>2021-06-16T09:22:27Z</time>
      </trkpt>
      <trkpt lat="47.99477" lon="7.12986">
        <ele>954.44189453</ele>
        <time>2021-06-16T09:22:31Z</time>
      </trkpt>
      <trkpt lat="47.99468" lon="7.12984">
        <ele>954.44189453</ele>
        <time>2021-06-16T09:22:35Z</time>
      </trkpt>
      <trkpt lat="47.99459" lon="7.12983">
        <ele>955.5791626</ele>
        <time>2021-06-16T09:22:39Z</time>
      </trkpt>
      <trkpt lat="47.9945" lon="7.12979">
        <ele>956.73474121</ele>
        <time>2021-06-16T09:22:44Z</time>
      </trkpt>
      <trkpt lat="47.9944" lon="7.12975">
        <ele>957.8147583</ele>
        <time>2021-06-16T09:22:48Z</time>
      </trkpt>
      <trkpt lat="47.9943" lon="7.12973">
        <ele>958.9786377</ele>
        <time>2021-06-16T09:22:52Z</time>
      </trkpt>
      <trkpt lat="47.9942" lon="7.12971">
        <ele>958.9786377</ele>
        <time>2021-06-16T09:22:56Z</time>
      </trkpt>
      <trkpt lat="47.99412" lon="7.12966">
        <ele>961.21813965</ele>
        <time>2021-06-16T09:23:01Z</time>
      </trkpt>
      <trkpt lat="47.994" lon="7.12962">
        <ele>962.18615723</ele>
        <time>2021-06-16T09:23:06Z</time>
      </trkpt>
      <trkpt lat="47.99389" lon="7.12959">
        <ele>963.390625</ele>
        <time>2021-06-16T09:23:10Z</time>
      </trkpt>
      <trkpt lat="47.99379" lon="7.12956">
        <ele>963.390625</ele>
        <time>2021-06-16T09:23:14Z</time>
      </trkpt>
      <trkpt lat="47.99369" lon="7.12953">
        <ele>964.51806641</ele>
        <time>2021-06-16T09:23:18Z</time>
      </trkpt>
      <trkpt lat="47.9936" lon="7.12951">
        <ele>965.58197021</ele>
        <time>2021-06-16T09:23:23Z</time>
      </trkpt>
      <trkpt lat="47.99351" lon="7.12948">
        <ele>967.43878174</ele>
        <time>2021-06-16T09:23:27Z</time>
      </trkpt>
      <trkpt lat="47.99342" lon="7.12947">
        <ele>967.43878174</ele>
        <time>2021-06-16T09:23:30Z</time>
      </trkpt>
      <trkpt lat="47.9933" lon="7.12951">
        <ele>968.25402832</ele>
        <time>2021-06-16T09:23:33Z</time>
      </trkpt>
      <trkpt lat="47.99321" lon="7.12953">
        <ele>969.38421631</ele>
        <time>2021-06-16T09:23:37Z</time>
      </trkpt>
      <trkpt lat="47.99311" lon="7.12955">
        <ele>970.4909668</ele>
        <time>2021-06-16T09:23:41Z</time>
      </trkpt>
      <trkpt lat="47.99301" lon="7.12954">
        <ele>971.56658936</ele>
        <time>2021-06-16T09:23:47Z</time>
      </trkpt>
      <trkpt lat="47.9929" lon="7.12955">
        <ele>972.67755127</ele>
        <time>2021-06-16T09:23:51Z</time>
      </trkpt>
      <trkpt lat="47.99278" lon="7.1296">
        <ele>973.86785889</ele>
        <time>2021-06-16T09:23:56Z</time>
      </trkpt>
      <trkpt lat="47.99271" lon="7.12963">
        <ele>975.00378418</ele>
        <time>2021-06-16T09:24:01Z</time>
      </trkpt>
      <trkpt lat="47.9926" lon="7.12964">
        <ele>977.13330078</ele>
        <time>2021-06-16T09:24:12Z</time>
      </trkpt>
      <trkpt lat="47.99254" lon="7.12946">
        <ele>978.3482666</ele>
        <time>2021-06-16T09:24:16Z</time>
      </trkpt>
      <trkpt lat="47.99245" lon="7.12944">
        <ele>981.14465332</ele>
        <time>2021-06-16T09:24:27Z</time>
      </trkpt>
      <trkpt lat="47.99238" lon="7.12947">
        <ele>981.14465332</ele>
        <time>2021-06-16T09:24:30Z</time>
      </trkpt>
      <trkpt lat="47.99234" lon="7.1296">
        <ele>981.83520508</ele>
        <time>2021-06-16T09:24:33Z</time>
      </trkpt>
      <trkpt lat="47.99231" lon="7.12975">
        <ele>982.94250488</ele>
        <time>2021-06-16T09:24:37Z</time>
      </trkpt>
      <trkpt lat="47.9923" lon="7.12991">
        <ele>982.94250488</ele>
        <time>2021-06-16T09:24:40Z</time>
      </trkpt>
      <trkpt lat="47.99229" lon="7.13009">
        <ele>984.04156494</ele>
        <time>2021-06-16T09:24:43Z</time>
      </trkpt>
      <trkpt lat="47.99233" lon="7.13032">
        <ele>984.04156494</ele>
        <time>2021-06-16T09:24:45Z</time>
      </trkpt>
      <trkpt lat="47.99229" lon="7.13032">
        <ele>985.1786499</ele>
        <time>2021-06-16T09:24:52Z</time>
      </trkpt>
      <trkpt lat="47.99218" lon="7.13022">
        <ele>986.19287109</ele>
        <time>2021-06-16T09:24:55Z</time>
      </trkpt>
      <trkpt lat="47.99208" lon="7.13021">
        <ele>986.19287109</ele>
        <time>2021-06-16T09:24:58Z</time>
      </trkpt>
      <trkpt lat="47.992" lon="7.13015">
        <ele>987.38830566</ele>
        <time>2021-06-16T09:25:03Z</time>
      </trkpt>
      <trkpt lat="47.99192" lon="7.13005">
        <ele>988.42370605</ele>
        <time>2021-06-16T09:25:08Z</time>
      </trkpt>
      <trkpt lat="47.99183" lon="7.12997">
        <ele>989.48028564</ele>
        <time>2021-06-16T09:25:12Z</time>
      </trkpt>
      <trkpt lat="47.99175" lon="7.1299">
        <ele>990.69085693</ele>
        <time>2021-06-16T09:25:17Z</time>
      </trkpt>
      <trkpt lat="47.99166" lon="7.12981">
        <ele>990.69085693</ele>
        <time>2021-06-16T09:25:21Z</time>
      </trkpt>
      <trkpt lat="47.99158" lon="7.12971">
        <ele>992.85705566</ele>
        <time>2021-06-16T09:25:26Z</time>
      </trkpt>
      <trkpt lat="47.99155" lon="7.12967">
        <ele>993.28686523</ele>
        <time>2021-06-16T09:25:27Z</time>
      </trkpt>
      <trkpt lat="47.99151" lon="7.12961">
        <ele>993.97021484</ele>
        <time>2021-06-16T09:25:31Z</time>
      </trkpt>
      <trkpt lat="47.99143" lon="7.1295">
        <ele>995.04730225</ele>
        <time>2021-06-16T09:25:35Z</time>
      </trkpt>
      <trkpt lat="47.99136" lon="7.12941">
        <ele>996.21765137</ele>
        <time>2021-06-16T09:25:39Z</time>
      </trkpt>
      <trkpt lat="47.99129" lon="7.12932">
        <ele>997.2779541</ele>
        <time>2021-06-16T09:25:43Z</time>
      </trkpt>
      <trkpt lat="47.99122" lon="7.12922">
        <ele>997.2779541</ele>
        <time>2021-06-16T09:25:47Z</time>
      </trkpt>
      <trkpt lat="47.99115" lon="7.12913">
        <ele>998.39312744</ele>
        <time>2021-06-16T09:25:52Z</time>
      </trkpt>
      <trkpt lat="47.99107" lon="7.12904">
        <ele>999.4864502</ele>
        <time>2021-06-16T09:25:56Z</time>
      </trkpt>
      <trkpt lat="47.99099" lon="7.12894">
        <ele>1000.66192627</ele>
        <time>2021-06-16T09:26:00Z</time>
      </trkpt>
      <trkpt lat="47.99083" lon="7.12878">
        <ele>1002.86798096</ele>
        <time>2021-06-16T09:26:09Z</time>
      </trkpt>
      <trkpt lat="47.99073" lon="7.1287">
        <ele>1003.97235107</ele>
        <time>2021-06-16T09:26:13Z</time>
      </trkpt>
      <trkpt lat="47.99066" lon="7.12859">
        <ele>1005.08209229</ele>
        <time>2021-06-16T09:26:18Z</time>
      </trkpt>
      <trkpt lat="47.99057" lon="7.1285">
        <ele>1006.19329834</ele>
        <time>2021-06-16T09:26:23Z</time>
      </trkpt>
      <trkpt lat="47.9905" lon="7.12843">
        <ele>1008.07281494</ele>
        <time>2021-06-16T09:26:27Z</time>
      </trkpt>
      <trkpt lat="47.99045" lon="7.12836">
        <ele>1008.07281494</ele>
        <time>2021-06-16T09:26:30Z</time>
      </trkpt>
      <trkpt lat="47.99036" lon="7.12829">
        <ele>1008.68035889</ele>
        <time>2021-06-16T09:26:34Z</time>
      </trkpt>
      <trkpt lat="47.99028" lon="7.12821">
        <ele>1009.83007812</ele>
        <time>2021-06-16T09:26:38Z</time>
      </trkpt>
      <trkpt lat="47.99021" lon="7.12813">
        <ele>1010.92449951</ele>
        <time>2021-06-16T09:26:42Z</time>
      </trkpt>
      <trkpt lat="47.99014" lon="7.12805">
        <ele>1012.08905029</ele>
        <time>2021-06-16T09:26:46Z</time>
      </trkpt>
      <trkpt lat="47.99004" lon="7.12799">
        <ele>1013.22186279</ele>
        <time>2021-06-16T09:26:51Z</time>
      </trkpt>
      <trkpt lat="47.98994" lon="7.12791">
        <ele>1013.22186279</ele>
        <time>2021-06-16T09:26:55Z</time>
      </trkpt>
      <trkpt lat="47.98985" lon="7.12785">
        <ele>1014.25280762</ele>
        <time>2021-06-16T09:27:00Z</time>
      </trkpt>
      <trkpt lat="47.98967" lon="7.12769">
        <ele>1016.60198975</ele>
        <time>2021-06-16T09:27:08Z</time>
      </trkpt>
      <trkpt lat="47.98959" lon="7.12761">
        <ele>1017.81610107</ele>
        <time>2021-06-16T09:27:12Z</time>
      </trkpt>
      <trkpt lat="47.98951" lon="7.12753">
        <ele>1018.84997559</ele>
        <time>2021-06-16T09:27:16Z</time>
      </trkpt>
      <trkpt lat="47.98943" lon="7.12743">
        <ele>1020.04266357</ele>
        <time>2021-06-16T09:27:21Z</time>
      </trkpt>
      <trkpt lat="47.98934" lon="7.12735">
        <ele>1020.04266357</ele>
        <time>2021-06-16T09:27:25Z</time>
      </trkpt>
      <trkpt lat="47.98929" lon="7.12731">
        <ele>1021.52862549</ele>
        <time>2021-06-16T09:27:27Z</time>
      </trkpt>
      <trkpt lat="47.98924" lon="7.12726">
        <ele>1022.1539917</ele>
        <time>2021-06-16T09:27:30Z</time>
      </trkpt>
      <trkpt lat="47.98909" lon="7.1271">
        <ele>1023.1986084</ele>
        <time>2021-06-16T09:27:38Z</time>
      </trkpt>
      <trkpt lat="47.98903" lon="7.127">
        <ele>1024.43566895</ele>
        <time>2021-06-16T09:27:43Z</time>
      </trkpt>
      <trkpt lat="47.98894" lon="7.1269">
        <ele>1025.52893066</ele>
        <time>2021-06-16T09:27:48Z</time>
      </trkpt>
      <trkpt lat="47.98883" lon="7.12682">
        <ele>1026.63293457</ele>
        <time>2021-06-16T09:27:52Z</time>
      </trkpt>
      <trkpt lat="47.98875" lon="7.12676">
        <ele>1027.74658203</ele>
        <time>2021-06-16T09:27:57Z</time>
      </trkpt>
      <trkpt lat="47.98865" lon="7.12668">
        <ele>1028.72302246</ele>
        <time>2021-06-16T09:28:01Z</time>
      </trkpt>
      <trkpt lat="47.98862" lon="7.12655">
        <ele>1029.76489258</ele>
        <time>2021-06-16T09:28:06Z</time>
      </trkpt>
      <trkpt lat="47.98864" lon="7.1264">
        <ele>1029.76489258</ele>
        <time>2021-06-16T09:28:10Z</time>
      </trkpt>
      <trkpt lat="47.98867" lon="7.12622">
        <ele>1030.88476562</ele>
        <time>2021-06-16T09:28:14Z</time>
      </trkpt>
      <trkpt lat="47.98871" lon="7.12607">
        <ele>1031.98681641</ele>
        <time>2021-06-16T09:28:18Z</time>
      </trkpt>
      <trkpt lat="47.98874" lon="7.12592">
        <ele>1033.01904297</ele>
        <time>2021-06-16T09:28:22Z</time>
      </trkpt>
      <trkpt lat="47.98877" lon="7.12577">
        <ele>1033.01904297</ele>
        <time>2021-06-16T09:28:26Z</time>
      </trkpt>
      <trkpt lat="47.98879" lon="7.12571">
        <ele>1033.97546387</ele>
        <time>2021-06-16T09:28:27Z</time>
      </trkpt>
      <trkpt lat="47.98879" lon="7.12562">
        <ele>1033.97546387</ele>
        <time>2021-06-16T09:28:30Z</time>
      </trkpt>
      <trkpt lat="47.98882" lon="7.12546">
        <ele>1035.07556152</ele>
        <time>2021-06-16T09:28:34Z</time>
      </trkpt>
      <trkpt lat="47.98884" lon="7.12532">
        <ele>1036.09472656</ele>
        <time>2021-06-16T09:28:38Z</time>
      </trkpt>
      <trkpt lat="47.98885" lon="7.12516">
        <ele>1037.24560547</ele>
        <time>2021-06-16T09:28:42Z</time>
      </trkpt>
      <trkpt lat="47.98888" lon="7.12501">
        <ele>1038.34362793</ele>
        <time>2021-06-16T09:28:46Z</time>
      </trkpt>
      <trkpt lat="47.98892" lon="7.12488">
        <ele>1039.44458008</ele>
        <time>2021-06-16T09:28:50Z</time>
      </trkpt>
      <trkpt lat="47.98896" lon="7.12475">
        <ele>1039.44458008</ele>
        <time>2021-06-16T09:28:54Z</time>
      </trkpt>
      <trkpt lat="47.98904" lon="7.12463">
        <ele>1040.57629395</ele>
        <time>2021-06-16T09:28:58Z</time>
      </trkpt>
      <trkpt lat="47.98909" lon="7.12452">
        <ele>1041.65686035</ele>
        <time>2021-06-16T09:29:02Z</time>
      </trkpt>
      <trkpt lat="47.98914" lon="7.12438">
        <ele>1042.76135254</ele>
        <time>2021-06-16T09:29:05Z</time>
      </trkpt>
      <trkpt lat="47.98921" lon="7.12427">
        <ele>1042.76135254</ele>
        <time>2021-06-16T09:29:09Z</time>
      </trkpt>
      <trkpt lat="47.98929" lon="7.12418">
        <ele>1043.78149414</ele>
        <time>2021-06-16T09:29:13Z</time>
      </trkpt>
      <trkpt lat="47.98935" lon="7.12407">
        <ele>1044.95495605</ele>
        <time>2021-06-16T09:29:17Z</time>
      </trkpt>
      <trkpt lat="47.9894" lon="7.12394">
        <ele>1046.07727051</ele>
        <time>2021-06-16T09:29:21Z</time>
      </trkpt>
      <trkpt lat="47.98947" lon="7.12381">
        <ele>1046.07727051</ele>
        <time>2021-06-16T09:29:25Z</time>
      </trkpt>
      <trkpt lat="47.98951" lon="7.12374">
        <ele>1047.67382812</ele>
        <time>2021-06-16T09:29:27Z</time>
      </trkpt>
      <trkpt lat="47.98956" lon="7.12366">
        <ele>1047.67382812</ele>
        <time>2021-06-16T09:29:30Z</time>
      </trkpt>
      <trkpt lat="47.98965" lon="7.12357">
        <ele>1048.36694336</ele>
        <time>2021-06-16T09:29:34Z</time>
      </trkpt>
      <trkpt lat="47.98973" lon="7.12347">
        <ele>1049.42651367</ele>
        <time>2021-06-16T09:29:38Z</time>
      </trkpt>
      <trkpt lat="47.98982" lon="7.1234">
        <ele>1050.53308105</ele>
        <time>2021-06-16T09:29:41Z</time>
      </trkpt>
      <trkpt lat="47.98992" lon="7.12334">
        <ele>1051.59118652</ele>
        <time>2021-06-16T09:29:45Z</time>
      </trkpt>
      <trkpt lat="47.99002" lon="7.1233">
        <ele>1052.72277832</ele>
        <time>2021-06-16T09:29:49Z</time>
      </trkpt>
      <trkpt lat="47.99011" lon="7.12327">
        <ele>1053.84814453</ele>
        <time>2021-06-16T09:29:53Z</time>
      </trkpt>
      <trkpt lat="47.99022" lon="7.12327">
        <ele>1054.95043945</ele>
        <time>2021-06-16T09:29:57Z</time>
      </trkpt>
      <trkpt lat="47.99033" lon="7.12328">
        <ele>1056.21716309</ele>
        <time>2021-06-16T09:30:00Z</time>
      </trkpt>
      <trkpt lat="47.99052" lon="7.1233">
        <ele>1059.81384277</ele>
        <time>2021-06-16T09:30:08Z</time>
      </trkpt>
      <trkpt lat="47.99064" lon="7.12331">
        <ele>1060.92687988</ele>
        <time>2021-06-16T09:30:12Z</time>
      </trkpt>
      <trkpt lat="47.99074" lon="7.12332">
        <ele>1062.04455566</ele>
        <time>2021-06-16T09:30:16Z</time>
      </trkpt>
      <trkpt lat="47.99085" lon="7.12333">
        <ele>1063.27441406</ele>
        <time>2021-06-16T09:30:20Z</time>
      </trkpt>
      <trkpt lat="47.99096" lon="7.12333">
        <ele>1064.46166992</ele>
        <time>2021-06-16T09:30:24Z</time>
      </trkpt>
      <trkpt lat="47.99103" lon="7.12334">
        <ele>1065.4074707</ele>
        <time>2021-06-16T09:30:27Z</time>
      </trkpt>
      <trkpt lat="47.9911" lon="7.12335">
        <ele>1066.50671387</ele>
        <time>2021-06-16T09:30:31Z</time>
      </trkpt>
      <trkpt lat="47.99119" lon="7.12333">
        <ele>1067.59790039</ele>
        <time>2021-06-16T09:30:35Z</time>
      </trkpt>
      <trkpt lat="47.99129" lon="7.12327">
        <ele>1067.59790039</ele>
        <time>2021-06-16T09:30:39Z</time>
      </trkpt>
      <trkpt lat="47.99138" lon="7.12321">
        <ele>1069.99731445</ele>
        <time>2021-06-16T09:30:43Z</time>
      </trkpt>
      <trkpt lat="47.99147" lon="7.12312">
        <ele>1071.15258789</ele>
        <time>2021-06-16T09:30:48Z</time>
      </trkpt>
      <trkpt lat="47.99155" lon="7.12301">
        <ele>1072.28442383</ele>
        <time>2021-06-16T09:30:51Z</time>
      </trkpt>
      <trkpt lat="47.99163" lon="7.12294">
        <ele>1073.33752441</ele>
        <time>2021-06-16T09:30:55Z</time>
      </trkpt>
      <trkpt lat="47.99172" lon="7.12286">
        <ele>1073.33752441</ele>
        <time>2021-06-16T09:30:58Z</time>
      </trkpt>
      <trkpt lat="47.99181" lon="7.1228">
        <ele>1075.7388916</ele>
        <time>2021-06-16T09:31:02Z</time>
      </trkpt>
      <trkpt lat="47.99189" lon="7.12272">
        <ele>1076.77478027</ele>
        <time>2021-06-16T09:31:06Z</time>
      </trkpt>
      <trkpt lat="47.99198" lon="7.12264">
        <ele>1077.94128418</ele>
        <time>2021-06-16T09:31:10Z</time>
      </trkpt>
      <trkpt lat="47.99206" lon="7.12253">
        <ele>1079.18945312</ele>
        <time>2021-06-16T09:31:14Z</time>
      </trkpt>
      <trkpt lat="47.99205" lon="7.12238">
        <ele>1079.18945312</ele>
        <time>2021-06-16T09:31:17Z</time>
      </trkpt>
      <trkpt lat="47.99199" lon="7.12225">
        <ele>1080.33605957</ele>
        <time>2021-06-16T09:31:21Z</time>
      </trkpt>
      <trkpt lat="47.99192" lon="7.12215">
        <ele>1081.53637695</ele>
        <time>2021-06-16T09:31:25Z</time>
      </trkpt>
      <trkpt lat="47.99185" lon="7.1221">
        <ele>1083.1418457</ele>
        <time>2021-06-16T09:31:27Z</time>
      </trkpt>
      <trkpt lat="47.99178" lon="7.12207">
        <ele>1083.88647461</ele>
        <time>2021-06-16T09:31:29Z</time>
      </trkpt>
      <trkpt lat="47.99168" lon="7.12205">
        <ele>1085.02905273</ele>
        <time>2021-06-16T09:31:32Z</time>
      </trkpt>
      <trkpt lat="47.99157" lon="7.12204">
        <ele>1085.02905273</ele>
        <time>2021-06-16T09:31:35Z</time>
      </trkpt>
      <trkpt lat="47.99147" lon="7.12201">
        <ele>1086.14782715</ele>
        <time>2021-06-16T09:31:38Z</time>
      </trkpt>
      <trkpt lat="47.99137" lon="7.12198">
        <ele>1088.53283691</ele>
        <time>2021-06-16T09:31:42Z</time>
      </trkpt>
      <trkpt lat="47.99126" lon="7.12192">
        <ele>1088.53283691</ele>
        <time>2021-06-16T09:31:46Z</time>
      </trkpt>
      <trkpt lat="47.99116" lon="7.12186">
        <ele>1089.61535645</ele>
        <time>2021-06-16T09:31:49Z</time>
      </trkpt>
      <trkpt lat="47.99107" lon="7.12181">
        <ele>1090.90478516</ele>
        <time>2021-06-16T09:31:52Z</time>
      </trkpt>
      <trkpt lat="47.99098" lon="7.12175">
        <ele>1090.90478516</ele>
        <time>2021-06-16T09:31:55Z</time>
      </trkpt>
      <trkpt lat="47.99089" lon="7.1217">
        <ele>1090.90478516</ele>
        <time>2021-06-16T09:31:58Z</time>
      </trkpt>
      <trkpt lat="47.9908" lon="7.12164">
        <ele>1091.92346191</ele>
        <time>2021-06-16T09:32:01Z</time>
      </trkpt>
      <trkpt lat="47.99071" lon="7.12156">
        <ele>1091.92346191</ele>
        <time>2021-06-16T09:32:04Z</time>
      </trkpt>
      <trkpt lat="47.99061" lon="7.12151">
        <ele>1091.92346191</ele>
        <time>2021-06-16T09:32:07Z</time>
      </trkpt>
      <trkpt lat="47.99053" lon="7.12146">
        <ele>1092.94238281</ele>
        <time>2021-06-16T09:32:11Z</time>
      </trkpt>
      <trkpt lat="47.99045" lon="7.12137">
        <ele>1092.94238281</ele>
        <time>2021-06-16T09:32:15Z</time>
      </trkpt>
      <trkpt lat="47.99035" lon="7.12129">
        <ele>1094.11816406</ele>
        <time>2021-06-16T09:32:18Z</time>
      </trkpt>
      <trkpt lat="47.99027" lon="7.12124">
        <ele>1094.11816406</ele>
        <time>2021-06-16T09:32:21Z</time>
      </trkpt>
      <trkpt lat="47.99017" lon="7.12121">
        <ele>1095.17810059</ele>
        <time>2021-06-16T09:32:24Z</time>
      </trkpt>
      <trkpt lat="47.9901" lon="7.12117">
        <ele>1096.05029297</ele>
        <time>2021-06-16T09:32:27Z</time>
      </trkpt>
      <trkpt lat="47.99003" lon="7.12115">
        <ele>1096.05029297</ele>
        <time>2021-06-16T09:32:29Z</time>
      </trkpt>
      <trkpt lat="47.98992" lon="7.12113">
        <ele>1096.8203125</ele>
        <time>2021-06-16T09:32:33Z</time>
      </trkpt>
      <trkpt lat="47.98982" lon="7.1211">
        <ele>1096.8203125</ele>
        <time>2021-06-16T09:32:36Z</time>
      </trkpt>
      <trkpt lat="47.98972" lon="7.12108">
        <ele>1096.8203125</ele>
        <time>2021-06-16T09:32:39Z</time>
      </trkpt>
      <trkpt lat="47.98962" lon="7.12106">
        <ele>1097.8203125</ele>
        <time>2021-06-16T09:32:42Z</time>
      </trkpt>
      <trkpt lat="47.98951" lon="7.12105">
        <ele>1097.8203125</ele>
        <time>2021-06-16T09:32:45Z</time>
      </trkpt>
      <trkpt lat="47.98941" lon="7.12102">
        <ele>1097.8203125</ele>
        <time>2021-06-16T09:32:48Z</time>
      </trkpt>
      <trkpt lat="47.9893" lon="7.12097">
        <ele>1098.79418945</ele>
        <time>2021-06-16T09:32:51Z</time>
      </trkpt>
      <trkpt lat="47.9892" lon="7.1209">
        <ele>1098.79418945</ele>
        <time>2021-06-16T09:32:54Z</time>
      </trkpt>
      <trkpt lat="47.98911" lon="7.12082">
        <ele>1100.06469727</ele>
        <time>2021-06-16T09:32:57Z</time>
      </trkpt>
      <trkpt lat="47.98903" lon="7.12075">
        <ele>1100.06469727</ele>
        <time>2021-06-16T09:33:00Z</time>
      </trkpt>
      <trkpt lat="47.98895" lon="7.12069">
        <ele>1101.20800781</ele>
        <time>2021-06-16T09:33:03Z</time>
      </trkpt>
      <trkpt lat="47.98886" lon="7.12063">
        <ele>1101.20800781</ele>
        <time>2021-06-16T09:33:06Z</time>
      </trkpt>
      <trkpt lat="47.98877" lon="7.12058">
        <ele>1102.23803711</ele>
        <time>2021-06-16T09:33:09Z</time>
      </trkpt>
      <trkpt lat="47.98867" lon="7.12055">
        <ele>1103.35302734</ele>
        <time>2021-06-16T09:33:12Z</time>
      </trkpt>
      <trkpt lat="47.98856" lon="7.1205">
        <ele>1103.35302734</ele>
        <time>2021-06-16T09:33:16Z</time>
      </trkpt>
      <trkpt lat="47.98846" lon="7.12043">
        <ele>1104.45935059</ele>
        <time>2021-06-16T09:33:19Z</time>
      </trkpt>
      <trkpt lat="47.98837" lon="7.12039">
        <ele>1104.45935059</ele>
        <time>2021-06-16T09:33:22Z</time>
      </trkpt>
      <trkpt lat="47.98826" lon="7.12035">
        <ele>1105.59631348</ele>
        <time>2021-06-16T09:33:25Z</time>
      </trkpt>
      <trkpt lat="47.98818" lon="7.12034">
        <ele>1106.34716797</ele>
        <time>2021-06-16T09:33:27Z</time>
      </trkpt>
      <trkpt lat="47.98811" lon="7.12035">
        <ele>1106.34716797</ele>
        <time>2021-06-16T09:33:29Z</time>
      </trkpt>
      <trkpt lat="47.988" lon="7.12038">
        <ele>1106.34716797</ele>
        <time>2021-06-16T09:33:32Z</time>
      </trkpt>
      <trkpt lat="47.9879" lon="7.12041">
        <ele>1107.11657715</ele>
        <time>2021-06-16T09:33:35Z</time>
      </trkpt>
      <trkpt lat="47.98781" lon="7.12044">
        <ele>1108.21179199</ele>
        <time>2021-06-16T09:33:38Z</time>
      </trkpt>
      <trkpt lat="47.98772" lon="7.12048">
        <ele>1108.21179199</ele>
        <time>2021-06-16T09:33:41Z</time>
      </trkpt>
      <trkpt lat="47.98762" lon="7.12052">
        <ele>1109.35180664</ele>
        <time>2021-06-16T09:33:45Z</time>
      </trkpt>
      <trkpt lat="47.9875" lon="7.12055">
        <ele>1110.4642334</ele>
        <time>2021-06-16T09:33:48Z</time>
      </trkpt>
      <trkpt lat="47.9874" lon="7.12058">
        <ele>1111.68933105</ele>
        <time>2021-06-16T09:33:52Z</time>
      </trkpt>
      <trkpt lat="47.98729" lon="7.1206">
        <ele>1111.68933105</ele>
        <time>2021-06-16T09:33:55Z</time>
      </trkpt>
      <trkpt lat="47.98719" lon="7.12063">
        <ele>1112.76879883</ele>
        <time>2021-06-16T09:33:58Z</time>
      </trkpt>
      <trkpt lat="47.9871" lon="7.12065">
        <ele>1112.76879883</ele>
        <time>2021-06-16T09:34:01Z</time>
      </trkpt>
      <trkpt lat="47.987" lon="7.12067">
        <ele>1114.02172852</ele>
        <time>2021-06-16T09:34:05Z</time>
      </trkpt>
      <trkpt lat="47.98689" lon="7.1207">
        <ele>1115.11157227</ele>
        <time>2021-06-16T09:34:08Z</time>
      </trkpt>
      <trkpt lat="47.98679" lon="7.12072">
        <ele>1115.11157227</ele>
        <time>2021-06-16T09:34:12Z</time>
      </trkpt>
      <trkpt lat="47.98669" lon="7.12073">
        <ele>1116.23486328</ele>
        <time>2021-06-16T09:34:15Z</time>
      </trkpt>
      <trkpt lat="47.9866" lon="7.12076">
        <ele>1117.3527832</ele>
        <time>2021-06-16T09:34:18Z</time>
      </trkpt>
      <trkpt lat="47.9865" lon="7.12077">
        <ele>1118.66210938</ele>
        <time>2021-06-16T09:34:22Z</time>
      </trkpt>
      <trkpt lat="47.98639" lon="7.1208">
        <ele>1118.66210938</ele>
        <time>2021-06-16T09:34:25Z</time>
      </trkpt>
      <trkpt lat="47.98633" lon="7.12081">
        <ele>1120.35144043</ele>
        <time>2021-06-16T09:34:27Z</time>
      </trkpt>
      <trkpt lat="47.98626" lon="7.12083">
        <ele>1121.09680176</ele>
        <time>2021-06-16T09:34:30Z</time>
      </trkpt>
      <trkpt lat="47.98616" lon="7.12083">
        <ele>1121.09680176</ele>
        <time>2021-06-16T09:34:33Z</time>
      </trkpt>
      <trkpt lat="47.98607" lon="7.12084">
        <ele>1122.24291992</ele>
        <time>2021-06-16T09:34:37Z</time>
      </trkpt>
      <trkpt lat="47.98595" lon="7.12085">
        <ele>1123.34350586</ele>
        <time>2021-06-16T09:34:41Z</time>
      </trkpt>
      <trkpt lat="47.98584" lon="7.12085">
        <ele>1124.43505859</ele>
        <time>2021-06-16T09:34:45Z</time>
      </trkpt>
      <trkpt lat="47.98573" lon="7.12087">
        <ele>1125.52270508</ele>
        <time>2021-06-16T09:34:49Z</time>
      </trkpt>
      <trkpt lat="47.98563" lon="7.12088">
        <ele>1125.52270508</ele>
        <time>2021-06-16T09:34:53Z</time>
      </trkpt>
      <trkpt lat="47.98554" lon="7.12089">
        <ele>1126.65185547</ele>
        <time>2021-06-16T09:34:57Z</time>
      </trkpt>
      <trkpt lat="47.98544" lon="7.12091">
        <ele>1127.54309082</ele>
        <time>2021-06-16T09:35:01Z</time>
      </trkpt>
      <trkpt lat="47.98534" lon="7.12094">
        <ele>1127.54309082</ele>
        <time>2021-06-16T09:35:05Z</time>
      </trkpt>
      <trkpt lat="47.98524" lon="7.12095">
        <ele>1129.82189941</ele>
        <time>2021-06-16T09:35:09Z</time>
      </trkpt>
      <trkpt lat="47.98515" lon="7.12101">
        <ele>1130.89575195</ele>
        <time>2021-06-16T09:35:14Z</time>
      </trkpt>
      <trkpt lat="47.98508" lon="7.1211">
        <ele>1132.0213623</ele>
        <time>2021-06-16T09:35:21Z</time>
      </trkpt>
      <trkpt lat="47.98504" lon="7.12122">
        <ele>1132.60791016</ele>
        <time>2021-06-16T09:35:31Z</time>
      </trkpt>
      <trkpt lat="47.98508" lon="7.12127">
        <ele>1132.60791016</ele>
        <time>2021-06-16T09:35:34Z</time>
      </trkpt>
      <trkpt lat="47.98513" lon="7.1213">
        <ele>1132.49108887</ele>
        <time>2021-06-16T09:37:34Z</time>
      </trkpt>
      <trkpt lat="47.98512" lon="7.12126">
        <ele>1132.49108887</ele>
        <time>2021-06-16T09:37:40Z</time>
      </trkpt>
      <trkpt lat="47.98509" lon="7.12106">
        <ele>1132.49108887</ele>
        <time>2021-06-16T09:37:45Z</time>
      </trkpt>
      <trkpt lat="47.98506" lon="7.1209">
        <ele>1132.82141113</ele>
        <time>2021-06-16T09:37:50Z</time>
      </trkpt>
      <trkpt lat="47.98504" lon="7.12097">
        <ele>1163.65270996</ele>
        <time>2021-06-16T09:40:55Z</time>
      </trkpt>
      <trkpt lat="47.98523" lon="7.12179">
        <ele>1162.61779785</ele>
        <time>2021-06-16T10:02:06Z</time>
      </trkpt>
      <trkpt lat="47.98526" lon="7.12188">
        <ele>1162.61779785</ele>
        <time>2021-06-16T10:02:08Z</time>
      </trkpt>
      <trkpt lat="47.98533" lon="7.12205">
        <ele>1162.61779785</ele>
        <time>2021-06-16T10:02:10Z</time>
      </trkpt>
      <trkpt lat="47.98534" lon="7.12219">
        <ele>1162.61779785</ele>
        <time>2021-06-16T10:02:12Z</time>
      </trkpt>
      <trkpt lat="47.98535" lon="7.12236">
        <ele>1161.02856445</ele>
        <time>2021-06-16T10:02:14Z</time>
      </trkpt>
      <trkpt lat="47.98534" lon="7.12251">
        <ele>1161.02856445</ele>
        <time>2021-06-16T10:02:16Z</time>
      </trkpt>
      <trkpt lat="47.98532" lon="7.12267">
        <ele>1161.02856445</ele>
        <time>2021-06-16T10:02:19Z</time>
      </trkpt>
      <trkpt lat="47.9853" lon="7.12283">
        <ele>1161.02856445</ele>
        <time>2021-06-16T10:02:23Z</time>
      </trkpt>
      <trkpt lat="47.98528" lon="7.12297">
        <ele>1161.02856445</ele>
        <time>2021-06-16T10:02:28Z</time>
      </trkpt>
      <trkpt lat="47.98523" lon="7.12312">
        <ele>1161.02856445</ele>
        <time>2021-06-16T10:02:33Z</time>
      </trkpt>
      <trkpt lat="47.98517" lon="7.12327">
        <ele>1161.02856445</ele>
        <time>2021-06-16T10:02:37Z</time>
      </trkpt>
      <trkpt lat="47.98511" lon="7.12337">
        <ele>1161.02856445</ele>
        <time>2021-06-16T10:02:40Z</time>
      </trkpt>
      <trkpt lat="47.98504" lon="7.12349">
        <ele>1161.02856445</ele>
        <time>2021-06-16T10:02:43Z</time>
      </trkpt>
      <trkpt lat="47.98497" lon="7.12358">
        <ele>1160.50390625</ele>
        <time>2021-06-16T10:02:45Z</time>
      </trkpt>
      <trkpt lat="47.98492" lon="7.12365">
        <ele>1160.50390625</ele>
        <time>2021-06-16T10:02:47Z</time>
      </trkpt>
      <trkpt lat="47.98487" lon="7.12377">
        <ele>1160.50390625</ele>
        <time>2021-06-16T10:02:51Z</time>
      </trkpt>
      <trkpt lat="47.98485" lon="7.12395">
        <ele>1159.77709961</ele>
        <time>2021-06-16T10:02:54Z</time>
      </trkpt>
      <trkpt lat="47.98478" lon="7.12407">
        <ele>1159.77709961</ele>
        <time>2021-06-16T10:02:56Z</time>
      </trkpt>
      <trkpt lat="47.98474" lon="7.12422">
        <ele>1159.77709961</ele>
        <time>2021-06-16T10:02:59Z</time>
      </trkpt>
      <trkpt lat="47.98475" lon="7.1244">
        <ele>1159.77709961</ele>
        <time>2021-06-16T10:03:02Z</time>
      </trkpt>
      <trkpt lat="47.98473" lon="7.12458">
        <ele>1159.77709961</ele>
        <time>2021-06-16T10:03:04Z</time>
      </trkpt>
      <trkpt lat="47.98475" lon="7.12476">
        <ele>1159.77709961</ele>
        <time>2021-06-16T10:03:06Z</time>
      </trkpt>
      <trkpt lat="47.98476" lon="7.12491">
        <ele>1159.77709961</ele>
        <time>2021-06-16T10:03:08Z</time>
      </trkpt>
      <trkpt lat="47.98476" lon="7.1251">
        <ele>1158.42236328</ele>
        <time>2021-06-16T10:03:10Z</time>
      </trkpt>
      <trkpt lat="47.98476" lon="7.12527">
        <ele>1158.42236328</ele>
        <time>2021-06-16T10:03:13Z</time>
      </trkpt>
      <trkpt lat="47.98475" lon="7.12549">
        <ele>1157.43066406</ele>
        <time>2021-06-16T10:03:15Z</time>
      </trkpt>
      <trkpt lat="47.98469" lon="7.12573">
        <ele>1157.43066406</ele>
        <time>2021-06-16T10:03:17Z</time>
      </trkpt>
      <trkpt lat="47.98465" lon="7.12595">
        <ele>1157.43066406</ele>
        <time>2021-06-16T10:03:19Z</time>
      </trkpt>
      <trkpt lat="47.98462" lon="7.12614">
        <ele>1157.43066406</ele>
        <time>2021-06-16T10:03:21Z</time>
      </trkpt>
      <trkpt lat="47.98462" lon="7.12629">
        <ele>1156.13598633</ele>
        <time>2021-06-16T10:03:24Z</time>
      </trkpt>
      <trkpt lat="47.98459" lon="7.12651">
        <ele>1156.13598633</ele>
        <time>2021-06-16T10:03:26Z</time>
      </trkpt>
      <trkpt lat="47.98459" lon="7.12666">
        <ele>1156.13598633</ele>
        <time>2021-06-16T10:03:28Z</time>
      </trkpt>
      <trkpt lat="47.98459" lon="7.12681">
        <ele>1156.13598633</ele>
        <time>2021-06-16T10:03:31Z</time>
      </trkpt>
      <trkpt lat="47.98462" lon="7.12697">
        <ele>1156.13598633</ele>
        <time>2021-06-16T10:03:33Z</time>
      </trkpt>
      <trkpt lat="47.98466" lon="7.12711">
        <ele>1156.13598633</ele>
        <time>2021-06-16T10:03:35Z</time>
      </trkpt>
      <trkpt lat="47.9847" lon="7.12723">
        <ele>1156.13598633</ele>
        <time>2021-06-16T10:03:38Z</time>
      </trkpt>
      <trkpt lat="47.9847" lon="7.12736">
        <ele>1156.13598633</ele>
        <time>2021-06-16T10:03:40Z</time>
      </trkpt>
      <trkpt lat="47.98468" lon="7.12754">
        <ele>1156.13598633</ele>
        <time>2021-06-16T10:03:42Z</time>
      </trkpt>
      <trkpt lat="47.98468" lon="7.12768">
        <ele>1155.83410645</ele>
        <time>2021-06-16T10:03:45Z</time>
      </trkpt>
      <trkpt lat="47.98471" lon="7.12781">
        <ele>1155.83410645</ele>
        <time>2021-06-16T10:03:47Z</time>
      </trkpt>
      <trkpt lat="47.98476" lon="7.12796">
        <ele>1155.83410645</ele>
        <time>2021-06-16T10:03:49Z</time>
      </trkpt>
      <trkpt lat="47.98482" lon="7.1281">
        <ele>1155.83410645</ele>
        <time>2021-06-16T10:03:51Z</time>
      </trkpt>
      <trkpt lat="47.98488" lon="7.12822">
        <ele>1155.83410645</ele>
        <time>2021-06-16T10:03:53Z</time>
      </trkpt>
      <trkpt lat="47.98493" lon="7.12836">
        <ele>1155.83410645</ele>
        <time>2021-06-16T10:03:55Z</time>
      </trkpt>
      <trkpt lat="47.98502" lon="7.12847">
        <ele>1155.83410645</ele>
        <time>2021-06-16T10:03:57Z</time>
      </trkpt>
      <trkpt lat="47.98512" lon="7.12859">
        <ele>1155.83410645</ele>
        <time>2021-06-16T10:03:59Z</time>
      </trkpt>
      <trkpt lat="47.98521" lon="7.12872">
        <ele>1155.83410645</ele>
        <time>2021-06-16T10:04:01Z</time>
      </trkpt>
      <trkpt lat="47.98529" lon="7.12885">
        <ele>1155.83410645</ele>
        <time>2021-06-16T10:04:03Z</time>
      </trkpt>
      <trkpt lat="47.98537" lon="7.12899">
        <ele>1155.83410645</ele>
        <time>2021-06-16T10:04:05Z</time>
      </trkpt>
      <trkpt lat="47.98542" lon="7.12911">
        <ele>1155.83410645</ele>
        <time>2021-06-16T10:04:07Z</time>
      </trkpt>
      <trkpt lat="47.98547" lon="7.12925">
        <ele>1155.83410645</ele>
        <time>2021-06-16T10:04:10Z</time>
      </trkpt>
      <trkpt lat="47.98549" lon="7.12941">
        <ele>1155.83410645</ele>
        <time>2021-06-16T10:04:13Z</time>
      </trkpt>
      <trkpt lat="47.9855" lon="7.1296">
        <ele>1155.83410645</ele>
        <time>2021-06-16T10:04:16Z</time>
      </trkpt>
      <trkpt lat="47.98554" lon="7.12978">
        <ele>1155.83410645</ele>
        <time>2021-06-16T10:04:19Z</time>
      </trkpt>
      <trkpt lat="47.98559" lon="7.12995">
        <ele>1155.83410645</ele>
        <time>2021-06-16T10:04:22Z</time>
      </trkpt>
      <trkpt lat="47.98563" lon="7.13009">
        <ele>1155.83410645</ele>
        <time>2021-06-16T10:04:25Z</time>
      </trkpt>
      <trkpt lat="47.98566" lon="7.13022">
        <ele>1155.83410645</ele>
        <time>2021-06-16T10:04:29Z</time>
      </trkpt>
      <trkpt lat="47.98568" lon="7.13036">
        <ele>1155.83410645</ele>
        <time>2021-06-16T10:04:34Z</time>
      </trkpt>
      <trkpt lat="47.98564" lon="7.13048">
        <ele>1156.30993652</ele>
        <time>2021-06-16T10:04:39Z</time>
      </trkpt>
      <trkpt lat="47.98562" lon="7.13058">
        <ele>1154.2322998</ele>
        <time>2021-06-16T10:04:45Z</time>
      </trkpt>
      <trkpt lat="47.98555" lon="7.13069">
        <ele>1154.2322998</ele>
        <time>2021-06-16T10:04:49Z</time>
      </trkpt>
      <trkpt lat="47.9855" lon="7.13083">
        <ele>1151.78857422</ele>
        <time>2021-06-16T10:04:53Z</time>
      </trkpt>
      <trkpt lat="47.98545" lon="7.131">
        <ele>1150.39123535</ele>
        <time>2021-06-16T10:04:55Z</time>
      </trkpt>
      <trkpt lat="47.98541" lon="7.13114">
        <ele>1149.19152832</ele>
        <time>2021-06-16T10:04:57Z</time>
      </trkpt>
      <trkpt lat="47.98537" lon="7.13127">
        <ele>1147.93457031</ele>
        <time>2021-06-16T10:05:00Z</time>
      </trkpt>
      <trkpt lat="47.98529" lon="7.13143">
        <ele>1146.53271484</ele>
        <time>2021-06-16T10:05:03Z</time>
      </trkpt>
      <trkpt lat="47.98522" lon="7.13157">
        <ele>1144.34289551</ele>
        <time>2021-06-16T10:05:06Z</time>
      </trkpt>
      <trkpt lat="47.98516" lon="7.13171">
        <ele>1143.16833496</ele>
        <time>2021-06-16T10:05:09Z</time>
      </trkpt>
      <trkpt lat="47.98511" lon="7.13186">
        <ele>1142.10083008</ele>
        <time>2021-06-16T10:05:12Z</time>
      </trkpt>
      <trkpt lat="47.98504" lon="7.13198">
        <ele>1139.5168457</ele>
        <time>2021-06-16T10:05:15Z</time>
      </trkpt>
      <trkpt lat="47.98499" lon="7.13215">
        <ele>1138.32763672</ele>
        <time>2021-06-16T10:05:18Z</time>
      </trkpt>
      <trkpt lat="47.98494" lon="7.13231">
        <ele>1136.1262207</ele>
        <time>2021-06-16T10:05:21Z</time>
      </trkpt>
      <trkpt lat="47.98488" lon="7.13247">
        <ele>1135.08959961</ele>
        <time>2021-06-16T10:05:24Z</time>
      </trkpt>
      <trkpt lat="47.98482" lon="7.13259">
        <ele>1132.94335938</ele>
        <time>2021-06-16T10:05:27Z</time>
      </trkpt>
      <trkpt lat="47.9848" lon="7.13272">
        <ele>1131.92077637</ele>
        <time>2021-06-16T10:05:31Z</time>
      </trkpt>
      <trkpt lat="47.98484" lon="7.13289">
        <ele>1130.88671875</ele>
        <time>2021-06-16T10:05:34Z</time>
      </trkpt>
      <trkpt lat="47.98487" lon="7.13293">
        <ele>1128.3638916</ele>
        <time>2021-06-16T10:05:45Z</time>
      </trkpt>
      <trkpt lat="47.98496" lon="7.13289">
        <ele>1128.3638916</ele>
        <time>2021-06-16T10:05:53Z</time>
      </trkpt>
      <trkpt lat="47.98506" lon="7.13282">
        <ele>1128.1081543</ele>
        <time>2021-06-16T10:05:57Z</time>
      </trkpt>
      <trkpt lat="47.98515" lon="7.13272">
        <ele>1126.4979248</ele>
        <time>2021-06-16T10:06:00Z</time>
      </trkpt>
      <trkpt lat="47.98523" lon="7.13266">
        <ele>1125.27124023</ele>
        <time>2021-06-16T10:06:04Z</time>
      </trkpt>
      <trkpt lat="47.98533" lon="7.13259">
        <ele>1123.91687012</ele>
        <time>2021-06-16T10:06:06Z</time>
      </trkpt>
      <trkpt lat="47.98542" lon="7.13256">
        <ele>1122.75463867</ele>
        <time>2021-06-16T10:06:11Z</time>
      </trkpt>
      <trkpt lat="47.9855" lon="7.13255">
        <ele>1121.65185547</ele>
        <time>2021-06-16T10:06:16Z</time>
      </trkpt>
      <trkpt lat="47.98561" lon="7.13253">
        <ele>1120.50476074</ele>
        <time>2021-06-16T10:06:21Z</time>
      </trkpt>
      <trkpt lat="47.9857" lon="7.13249">
        <ele>1119.36450195</ele>
        <time>2021-06-16T10:06:25Z</time>
      </trkpt>
      <trkpt lat="47.98577" lon="7.13252">
        <ele>1118.23876953</ele>
        <time>2021-06-16T10:06:30Z</time>
      </trkpt>
      <trkpt lat="47.9858" lon="7.13269">
        <ele>1117.0970459</ele>
        <time>2021-06-16T10:06:34Z</time>
      </trkpt>
      <trkpt lat="47.98572" lon="7.13281">
        <ele>1115.90075684</ele>
        <time>2021-06-16T10:06:37Z</time>
      </trkpt>
      <trkpt lat="47.98562" lon="7.1329">
        <ele>1114.8605957</ele>
        <time>2021-06-16T10:06:40Z</time>
      </trkpt>
      <trkpt lat="47.9855" lon="7.13301">
        <ele>1113.70202637</ele>
        <time>2021-06-16T10:06:42Z</time>
      </trkpt>
      <trkpt lat="47.98541" lon="7.13312">
        <ele>1113.70202637</ele>
        <time>2021-06-16T10:06:44Z</time>
      </trkpt>
      <trkpt lat="47.98538" lon="7.13315">
        <ele>1112.58581543</ele>
        <time>2021-06-16T10:06:45Z</time>
      </trkpt>
      <trkpt lat="47.9853" lon="7.13324">
        <ele>1112.58581543</ele>
        <time>2021-06-16T10:06:46Z</time>
      </trkpt>
      <trkpt lat="47.98521" lon="7.13335">
        <ele>1111.45349121</ele>
        <time>2021-06-16T10:06:48Z</time>
      </trkpt>
      <trkpt lat="47.98512" lon="7.13347">
        <ele>1110.13598633</ele>
        <time>2021-06-16T10:06:50Z</time>
      </trkpt>
      <trkpt lat="47.98503" lon="7.1336">
        <ele>1110.13598633</ele>
        <time>2021-06-16T10:06:52Z</time>
      </trkpt>
      <trkpt lat="47.98495" lon="7.13372">
        <ele>1108.90246582</ele>
        <time>2021-06-16T10:06:54Z</time>
      </trkpt>
      <trkpt lat="47.98486" lon="7.13384">
        <ele>1107.90759277</ele>
        <time>2021-06-16T10:06:56Z</time>
      </trkpt>
      <trkpt lat="47.98477" lon="7.13389">
        <ele>1107.90759277</ele>
        <time>2021-06-16T10:06:58Z</time>
      </trkpt>
      <trkpt lat="47.98468" lon="7.13392">
        <ele>1106.82714844</ele>
        <time>2021-06-16T10:07:00Z</time>
      </trkpt>
      <trkpt lat="47.98459" lon="7.13394">
        <ele>1106.82714844</ele>
        <time>2021-06-16T10:07:03Z</time>
      </trkpt>
      <trkpt lat="47.9845" lon="7.13389">
        <ele>1106.82714844</ele>
        <time>2021-06-16T10:07:06Z</time>
      </trkpt>
      <trkpt lat="47.98441" lon="7.13379">
        <ele>1105.91357422</ele>
        <time>2021-06-16T10:07:09Z</time>
      </trkpt>
      <trkpt lat="47.98433" lon="7.13371">
        <ele>1104.8581543</ele>
        <time>2021-06-16T10:07:12Z</time>
      </trkpt>
      <trkpt lat="47.98425" lon="7.13362">
        <ele>1103.71643066</ele>
        <time>2021-06-16T10:07:16Z</time>
      </trkpt>
      <trkpt lat="47.98417" lon="7.1335">
        <ele>1102.56176758</ele>
        <time>2021-06-16T10:07:20Z</time>
      </trkpt>
      <trkpt lat="47.98408" lon="7.13338">
        <ele>1102.56176758</ele>
        <time>2021-06-16T10:07:23Z</time>
      </trkpt>
      <trkpt lat="47.98398" lon="7.1333">
        <ele>1101.42358398</ele>
        <time>2021-06-16T10:07:25Z</time>
      </trkpt>
      <trkpt lat="47.9839" lon="7.13323">
        <ele>1100.21130371</ele>
        <time>2021-06-16T10:07:28Z</time>
      </trkpt>
      <trkpt lat="47.98381" lon="7.13317">
        <ele>1099.08740234</ele>
        <time>2021-06-16T10:07:32Z</time>
      </trkpt>
      <trkpt lat="47.98373" lon="7.1331">
        <ele>1099.08740234</ele>
        <time>2021-06-16T10:07:35Z</time>
      </trkpt>
      <trkpt lat="47.98363" lon="7.13301">
        <ele>1097.80371094</ele>
        <time>2021-06-16T10:07:39Z</time>
      </trkpt>
      <trkpt lat="47.98353" lon="7.13292">
        <ele>1096.67749023</ele>
        <time>2021-06-16T10:07:42Z</time>
      </trkpt>
      <trkpt lat="47.98345" lon="7.13287">
        <ele>1095.2487793</ele>
        <time>2021-06-16T10:07:45Z</time>
      </trkpt>
      <trkpt lat="47.98336" lon="7.13285">
        <ele>1095.2487793</ele>
        <time>2021-06-16T10:07:47Z</time>
      </trkpt>
      <trkpt lat="47.98327" lon="7.13278">
        <ele>1094.52319336</ele>
        <time>2021-06-16T10:07:50Z</time>
      </trkpt>
      <trkpt lat="47.98316" lon="7.1327">
        <ele>1093.28625488</ele>
        <time>2021-06-16T10:07:54Z</time>
      </trkpt>
      <trkpt lat="47.98303" lon="7.13277">
        <ele>1100.13781738</ele>
        <time>2021-06-16T13:12:05Z</time>
      </trkpt>
      <trkpt lat="47.98316" lon="7.13275">
        <ele>1100.34326172</ele>
        <time>2021-06-16T13:12:07Z</time>
      </trkpt>
      <trkpt lat="47.98319" lon="7.13277">
        <ele>1101.3503418</ele>
        <time>2021-06-16T13:12:18Z</time>
      </trkpt>
      <trkpt lat="47.98324" lon="7.13279">
        <ele>1101.3503418</ele>
        <time>2021-06-16T13:12:22Z</time>
      </trkpt>
      <trkpt lat="47.98335" lon="7.13283">
        <ele>1101.3503418</ele>
        <time>2021-06-16T13:12:28Z</time>
      </trkpt>
      <trkpt lat="47.98344" lon="7.13291">
        <ele>1101.71252441</ele>
        <time>2021-06-16T13:12:33Z</time>
      </trkpt>
      <trkpt lat="47.98355" lon="7.13299">
        <ele>1101.71252441</ele>
        <time>2021-06-16T13:12:37Z</time>
      </trkpt>
      <trkpt lat="47.98364" lon="7.13304">
        <ele>1103.21557617</ele>
        <time>2021-06-16T13:12:41Z</time>
      </trkpt>
      <trkpt lat="47.98373" lon="7.1331">
        <ele>1104.38769531</ele>
        <time>2021-06-16T13:12:47Z</time>
      </trkpt>
      <trkpt lat="47.98383" lon="7.13319">
        <ele>1105.49072266</ele>
        <time>2021-06-16T13:12:52Z</time>
      </trkpt>
      <trkpt lat="47.98393" lon="7.13325">
        <ele>1105.49072266</ele>
        <time>2021-06-16T13:12:55Z</time>
      </trkpt>
      <trkpt lat="47.98399" lon="7.13331">
        <ele>1107.65698242</ele>
        <time>2021-06-16T13:13:02Z</time>
      </trkpt>
      <trkpt lat="47.98407" lon="7.1334">
        <ele>1107.65698242</ele>
        <time>2021-06-16T13:13:05Z</time>
      </trkpt>
      <trkpt lat="47.98415" lon="7.13347">
        <ele>1108.7869873</ele>
        <time>2021-06-16T13:13:09Z</time>
      </trkpt>
      <trkpt lat="47.98424" lon="7.13356">
        <ele>1108.7869873</ele>
        <time>2021-06-16T13:13:13Z</time>
      </trkpt>
      <trkpt lat="47.9843" lon="7.13364">
        <ele>1110.7668457</ele>
        <time>2021-06-16T13:13:17Z</time>
      </trkpt>
      <trkpt lat="47.98437" lon="7.13371">
        <ele>1110.7668457</ele>
        <time>2021-06-16T13:13:20Z</time>
      </trkpt>
      <trkpt lat="47.98455" lon="7.13387">
        <ele>1112.67102051</ele>
        <time>2021-06-16T13:13:28Z</time>
      </trkpt>
      <trkpt lat="47.98466" lon="7.13391">
        <ele>1112.67102051</ele>
        <time>2021-06-16T13:13:31Z</time>
      </trkpt>
      <trkpt lat="47.98476" lon="7.1339">
        <ele>1113.63806152</ele>
        <time>2021-06-16T13:13:35Z</time>
      </trkpt>
      <trkpt lat="47.98486" lon="7.13387">
        <ele>1113.63806152</ele>
        <time>2021-06-16T13:13:37Z</time>
      </trkpt>
      <trkpt lat="47.98497" lon="7.13381">
        <ele>1113.63806152</ele>
        <time>2021-06-16T13:13:40Z</time>
      </trkpt>
      <trkpt lat="47.98505" lon="7.13373">
        <ele>1114.65881348</ele>
        <time>2021-06-16T13:13:43Z</time>
      </trkpt>
      <trkpt lat="47.98512" lon="7.13362">
        <ele>1114.65881348</ele>
        <time>2021-06-16T13:13:46Z</time>
      </trkpt>
      <trkpt lat="47.98517" lon="7.13348">
        <ele>1115.70446777</ele>
        <time>2021-06-16T13:13:50Z</time>
      </trkpt>
      <trkpt lat="47.98528" lon="7.13339">
        <ele>1116.82788086</ele>
        <time>2021-06-16T13:13:54Z</time>
      </trkpt>
      <trkpt lat="47.98534" lon="7.13329">
        <ele>1116.82788086</ele>
        <time>2021-06-16T13:13:58Z</time>
      </trkpt>
      <trkpt lat="47.98541" lon="7.13319">
        <ele>1117.90612793</ele>
        <time>2021-06-16T13:14:03Z</time>
      </trkpt>
      <trkpt lat="47.98548" lon="7.13308">
        <ele>1119.02050781</ele>
        <time>2021-06-16T13:14:07Z</time>
      </trkpt>
      <trkpt lat="47.98558" lon="7.13299">
        <ele>1120.12268066</ele>
        <time>2021-06-16T13:14:11Z</time>
      </trkpt>
      <trkpt lat="47.98566" lon="7.1329">
        <ele>1120.12268066</ele>
        <time>2021-06-16T13:14:14Z</time>
      </trkpt>
      <trkpt lat="47.98571" lon="7.13285">
        <ele>1121.82507324</ele>
        <time>2021-06-16T13:14:17Z</time>
      </trkpt>
      <trkpt lat="47.98577" lon="7.13278">
        <ele>1121.82507324</ele>
        <time>2021-06-16T13:14:18Z</time>
      </trkpt>
      <trkpt lat="47.98583" lon="7.13269">
        <ele>1123.80456543</ele>
        <time>2021-06-16T13:14:27Z</time>
      </trkpt>
      <trkpt lat="47.98577" lon="7.1326">
        <ele>1125.0859375</ele>
        <time>2021-06-16T13:14:47Z</time>
      </trkpt>
      <trkpt lat="47.98568" lon="7.13257">
        <ele>1126.36376953</ele>
        <time>2021-06-16T13:14:58Z</time>
      </trkpt>
      <trkpt lat="47.98559" lon="7.13259">
        <ele>1127.15844727</ele>
        <time>2021-06-16T13:15:06Z</time>
      </trkpt>
      <trkpt lat="47.98552" lon="7.13265">
        <ele>1128.83129883</ele>
        <time>2021-06-16T13:15:16Z</time>
      </trkpt>
      <trkpt lat="47.98544" lon="7.13266">
        <ele>1129.3170166</ele>
        <time>2021-06-16T13:15:27Z</time>
      </trkpt>
      <trkpt lat="47.98535" lon="7.13267">
        <ele>1130.36633301</ele>
        <time>2021-06-16T13:15:46Z</time>
      </trkpt>
      <trkpt lat="47.98526" lon="7.13273">
        <ele>1131.31408691</ele>
        <time>2021-06-16T13:15:59Z</time>
      </trkpt>
      <trkpt lat="47.98517" lon="7.13276">
        <ele>1132.50317383</ele>
        <time>2021-06-16T13:16:08Z</time>
      </trkpt>
      <trkpt lat="47.9851" lon="7.1328">
        <ele>1133.30664062</ele>
        <time>2021-06-16T13:16:17Z</time>
      </trkpt>
      <trkpt lat="47.98503" lon="7.13285">
        <ele>1134.38037109</ele>
        <time>2021-06-16T13:16:37Z</time>
      </trkpt>
      <trkpt lat="47.98496" lon="7.13289">
        <ele>1134.38037109</ele>
        <time>2021-06-16T13:16:46Z</time>
      </trkpt>
      <trkpt lat="47.98483" lon="7.13289">
        <ele>1137.22619629</ele>
        <time>2021-06-16T13:18:26Z</time>
      </trkpt>
      <trkpt lat="47.98484" lon="7.13284">
        <ele>1137.22619629</ele>
        <time>2021-06-16T13:18:46Z</time>
      </trkpt>
      <trkpt lat="47.9849" lon="7.1327">
        <ele>1137.22619629</ele>
        <time>2021-06-16T13:18:57Z</time>
      </trkpt>
      <trkpt lat="47.98493" lon="7.13257">
        <ele>1138.75244141</ele>
        <time>2021-06-16T13:19:10Z</time>
      </trkpt>
      <trkpt lat="47.98498" lon="7.13246">
        <ele>1140.19677734</ele>
        <time>2021-06-16T13:19:16Z</time>
      </trkpt>
      <trkpt lat="47.98508" lon="7.13211">
        <ele>1143.82568359</ele>
        <time>2021-06-16T13:20:29Z</time>
      </trkpt>
      <trkpt lat="47.98509" lon="7.13213">
        <ele>1144.14465332</ele>
        <time>2021-06-16T13:20:41Z</time>
      </trkpt>
      <trkpt lat="47.98516" lon="7.13197">
        <ele>1145.64038086</ele>
        <time>2021-06-16T13:20:50Z</time>
      </trkpt>
      <trkpt lat="47.98516" lon="7.13184">
        <ele>1146.67224121</ele>
        <time>2021-06-16T13:21:07Z</time>
      </trkpt>
      <trkpt lat="47.98528" lon="7.13163">
        <ele>1148.71923828</ele>
        <time>2021-06-16T13:21:31Z</time>
      </trkpt>
      <trkpt lat="47.98533" lon="7.13149">
        <ele>1149.83850098</ele>
        <time>2021-06-16T13:21:42Z</time>
      </trkpt>
      <trkpt lat="47.98535" lon="7.13136">
        <ele>1151.87060547</ele>
        <time>2021-06-16T13:21:59Z</time>
      </trkpt>
      <trkpt lat="47.98541" lon="7.13123">
        <ele>1153.01196289</ele>
        <time>2021-06-16T13:22:10Z</time>
      </trkpt>
      <trkpt lat="47.98543" lon="7.13114">
        <ele>1154.67797852</ele>
        <time>2021-06-16T13:22:16Z</time>
      </trkpt>
      <trkpt lat="47.98549" lon="7.13093">
        <ele>1157.19335938</ele>
        <time>2021-06-16T13:22:59Z</time>
      </trkpt>
      <trkpt lat="47.98554" lon="7.13084">
        <ele>1158.26965332</ele>
        <time>2021-06-16T13:23:05Z</time>
      </trkpt>
      <trkpt lat="47.98557" lon="7.1307">
        <ele>1159.40539551</ele>
        <time>2021-06-16T13:23:17Z</time>
      </trkpt>
      <trkpt lat="47.98558" lon="7.13059">
        <ele>1159.40539551</ele>
        <time>2021-06-16T13:23:26Z</time>
      </trkpt>
      <trkpt lat="47.98562" lon="7.13044">
        <ele>1160.25598145</ele>
        <time>2021-06-16T13:23:39Z</time>
      </trkpt>
      <trkpt lat="47.98565" lon="7.13031">
        <ele>1161.12561035</ele>
        <time>2021-06-16T13:23:47Z</time>
      </trkpt>
      <trkpt lat="47.98563" lon="7.13017">
        <ele>1162.44616699</ele>
        <time>2021-06-16T13:23:59Z</time>
      </trkpt>
      <trkpt lat="47.98563" lon="7.13009">
        <ele>1162.77319336</ele>
        <time>2021-06-16T13:25:03Z</time>
      </trkpt>
      <trkpt lat="47.98563" lon="7.13007">
        <ele>1162.77319336</ele>
        <time>2021-06-16T13:25:06Z</time>
      </trkpt>
      <trkpt lat="47.98558" lon="7.12987">
        <ele>1162.77319336</ele>
        <time>2021-06-16T13:25:11Z</time>
      </trkpt>
      <trkpt lat="47.98555" lon="7.12974">
        <ele>1162.77319336</ele>
        <time>2021-06-16T13:25:15Z</time>
      </trkpt>
      <trkpt lat="47.98553" lon="7.12969">
        <ele>1163.2154541</ele>
        <time>2021-06-16T13:25:17Z</time>
      </trkpt>
      <trkpt lat="47.98553" lon="7.12959">
        <ele>1163.2154541</ele>
        <time>2021-06-16T13:25:20Z</time>
      </trkpt>
      <trkpt lat="47.98544" lon="7.12931">
        <ele>1163.2154541</ele>
        <time>2021-06-16T13:25:28Z</time>
      </trkpt>
      <trkpt lat="47.98541" lon="7.12917">
        <ele>1163.2154541</ele>
        <time>2021-06-16T13:25:32Z</time>
      </trkpt>
      <trkpt lat="47.98537" lon="7.12905">
        <ele>1163.2154541</ele>
        <time>2021-06-16T13:25:36Z</time>
      </trkpt>
      <trkpt lat="47.98531" lon="7.12892">
        <ele>1163.2154541</ele>
        <time>2021-06-16T13:25:40Z</time>
      </trkpt>
      <trkpt lat="47.98525" lon="7.12878">
        <ele>1163.2154541</ele>
        <time>2021-06-16T13:25:44Z</time>
      </trkpt>
      <trkpt lat="47.98518" lon="7.12864">
        <ele>1163.2154541</ele>
        <time>2021-06-16T13:25:47Z</time>
      </trkpt>
      <trkpt lat="47.98513" lon="7.12851">
        <ele>1163.2154541</ele>
        <time>2021-06-16T13:25:50Z</time>
      </trkpt>
      <trkpt lat="47.98506" lon="7.12836">
        <ele>1163.2154541</ele>
        <time>2021-06-16T13:25:53Z</time>
      </trkpt>
      <trkpt lat="47.985" lon="7.12824">
        <ele>1163.2154541</ele>
        <time>2021-06-16T13:25:56Z</time>
      </trkpt>
      <trkpt lat="47.98493" lon="7.12812">
        <ele>1163.2154541</ele>
        <time>2021-06-16T13:25:59Z</time>
      </trkpt>
      <trkpt lat="47.98489" lon="7.12799">
        <ele>1163.2154541</ele>
        <time>2021-06-16T13:26:02Z</time>
      </trkpt>
      <trkpt lat="47.98484" lon="7.12788">
        <ele>1163.2154541</ele>
        <time>2021-06-16T13:26:05Z</time>
      </trkpt>
      <trkpt lat="47.98478" lon="7.12774">
        <ele>1163.2154541</ele>
        <time>2021-06-16T13:26:09Z</time>
      </trkpt>
      <trkpt lat="47.98478" lon="7.12756">
        <ele>1163.2154541</ele>
        <time>2021-06-16T13:26:12Z</time>
      </trkpt>
      <trkpt lat="47.98478" lon="7.12741">
        <ele>1163.2154541</ele>
        <time>2021-06-16T13:26:15Z</time>
      </trkpt>
      <trkpt lat="47.98478" lon="7.12736">
        <ele>1163.08154297</ele>
        <time>2021-06-16T13:26:17Z</time>
      </trkpt>
      <trkpt lat="47.98478" lon="7.12724">
        <ele>1163.08154297</ele>
        <time>2021-06-16T13:26:18Z</time>
      </trkpt>
      <trkpt lat="47.98478" lon="7.12708">
        <ele>1163.08154297</ele>
        <time>2021-06-16T13:26:20Z</time>
      </trkpt>
      <trkpt lat="47.98476" lon="7.12693">
        <ele>1163.08154297</ele>
        <time>2021-06-16T13:26:23Z</time>
      </trkpt>
      <trkpt lat="47.98476" lon="7.12677">
        <ele>1163.08154297</ele>
        <time>2021-06-16T13:26:26Z</time>
      </trkpt>
      <trkpt lat="47.98477" lon="7.12662">
        <ele>1163.08154297</ele>
        <time>2021-06-16T13:26:29Z</time>
      </trkpt>
      <trkpt lat="47.9848" lon="7.12647">
        <ele>1163.08154297</ele>
        <time>2021-06-16T13:26:32Z</time>
      </trkpt>
      <trkpt lat="47.98482" lon="7.12632">
        <ele>1163.08154297</ele>
        <time>2021-06-16T13:26:35Z</time>
      </trkpt>
      <trkpt lat="47.98485" lon="7.12617">
        <ele>1163.08154297</ele>
        <time>2021-06-16T13:26:39Z</time>
      </trkpt>
      <trkpt lat="47.98488" lon="7.12598">
        <ele>1163.08154297</ele>
        <time>2021-06-16T13:26:42Z</time>
      </trkpt>
      <trkpt lat="47.98488" lon="7.12581">
        <ele>1163.08154297</ele>
        <time>2021-06-16T13:26:45Z</time>
      </trkpt>
      <trkpt lat="47.98489" lon="7.12565">
        <ele>1163.08154297</ele>
        <time>2021-06-16T13:26:48Z</time>
      </trkpt>
      <trkpt lat="47.98489" lon="7.12551">
        <ele>1163.08154297</ele>
        <time>2021-06-16T13:26:54Z</time>
      </trkpt>
      <trkpt lat="47.98488" lon="7.12536">
        <ele>1163.08154297</ele>
        <time>2021-06-16T13:26:58Z</time>
      </trkpt>
      <trkpt lat="47.98492" lon="7.1252">
        <ele>1162.86193848</ele>
        <time>2021-06-16T13:27:03Z</time>
      </trkpt>
      <trkpt lat="47.98493" lon="7.12504">
        <ele>1162.86193848</ele>
        <time>2021-06-16T13:27:07Z</time>
      </trkpt>
      <trkpt lat="47.98493" lon="7.12488">
        <ele>1162.86193848</ele>
        <time>2021-06-16T13:27:10Z</time>
      </trkpt>
      <trkpt lat="47.985" lon="7.12475">
        <ele>1162.86193848</ele>
        <time>2021-06-16T13:27:13Z</time>
      </trkpt>
      <trkpt lat="47.98504" lon="7.12465">
        <ele>1164.63720703</ele>
        <time>2021-06-16T13:27:17Z</time>
      </trkpt>
      <trkpt lat="47.98509" lon="7.12451">
        <ele>1164.63720703</ele>
        <time>2021-06-16T13:27:18Z</time>
      </trkpt>
      <trkpt lat="47.98512" lon="7.12435">
        <ele>1164.63720703</ele>
        <time>2021-06-16T13:27:21Z</time>
      </trkpt>
      <trkpt lat="47.98518" lon="7.1242">
        <ele>1164.63720703</ele>
        <time>2021-06-16T13:27:25Z</time>
      </trkpt>
      <trkpt lat="47.98523" lon="7.12406">
        <ele>1165.4510498</ele>
        <time>2021-06-16T13:27:29Z</time>
      </trkpt>
      <trkpt lat="47.98525" lon="7.12391">
        <ele>1165.4510498</ele>
        <time>2021-06-16T13:27:33Z</time>
      </trkpt>
      <trkpt lat="47.98527" lon="7.12376">
        <ele>1165.4510498</ele>
        <time>2021-06-16T13:27:36Z</time>
      </trkpt>
      <trkpt lat="47.98532" lon="7.12364">
        <ele>1166.62536621</ele>
        <time>2021-06-16T13:27:40Z</time>
      </trkpt>
      <trkpt lat="47.98534" lon="7.12349">
        <ele>1166.62536621</ele>
        <time>2021-06-16T13:27:43Z</time>
      </trkpt>
      <trkpt lat="47.98533" lon="7.1233">
        <ele>1166.62536621</ele>
        <time>2021-06-16T13:27:45Z</time>
      </trkpt>
      <trkpt lat="47.98534" lon="7.12317">
        <ele>1166.62536621</ele>
        <time>2021-06-16T13:27:48Z</time>
      </trkpt>
      <trkpt lat="47.98537" lon="7.123">
        <ele>1166.62536621</ele>
        <time>2021-06-16T13:27:51Z</time>
      </trkpt>
      <trkpt lat="47.98539" lon="7.12285">
        <ele>1166.62536621</ele>
        <time>2021-06-16T13:27:54Z</time>
      </trkpt>
      <trkpt lat="47.98534" lon="7.1227">
        <ele>1166.62536621</ele>
        <time>2021-06-16T13:27:56Z</time>
      </trkpt>
      <trkpt lat="47.98529" lon="7.12258">
        <ele>1166.62536621</ele>
        <time>2021-06-16T13:27:59Z</time>
      </trkpt>
      <trkpt lat="47.98529" lon="7.12239">
        <ele>1166.62536621</ele>
        <time>2021-06-16T13:28:02Z</time>
      </trkpt>
      <trkpt lat="47.98529" lon="7.12223">
        <ele>1167.71520996</ele>
        <time>2021-06-16T13:28:05Z</time>
      </trkpt>
      <trkpt lat="47.98529" lon="7.12205">
        <ele>1167.71520996</ele>
        <time>2021-06-16T13:28:08Z</time>
      </trkpt>
      <trkpt lat="47.98527" lon="7.1219">
        <ele>1167.71520996</ele>
        <time>2021-06-16T13:28:11Z</time>
      </trkpt>
      <trkpt lat="47.98526" lon="7.12174">
        <ele>1167.71520996</ele>
        <time>2021-06-16T13:28:15Z</time>
      </trkpt>
      <trkpt lat="47.98524" lon="7.12165">
        <ele>1168.37585449</ele>
        <time>2021-06-16T13:28:17Z</time>
      </trkpt>
      <trkpt lat="47.9852" lon="7.12156">
        <ele>1168.37585449</ele>
        <time>2021-06-16T13:28:19Z</time>
      </trkpt>
      <trkpt lat="47.98514" lon="7.12145">
        <ele>1169.37915039</ele>
        <time>2021-06-16T13:28:23Z</time>
      </trkpt>
      <trkpt lat="47.9851" lon="7.12133">
        <ele>1169.37915039</ele>
        <time>2021-06-16T13:28:28Z</time>
      </trkpt>
      <trkpt lat="47.9851" lon="7.12117">
        <ele>1169.37915039</ele>
        <time>2021-06-16T13:28:33Z</time>
      </trkpt>
      <trkpt lat="47.9851" lon="7.1211">
        <ele>1170.72119141</ele>
        <time>2021-06-16T13:29:17Z</time>
      </trkpt>
      <trkpt lat="47.98513" lon="7.12101">
        <ele>1170.72119141</ele>
        <time>2021-06-16T13:29:22Z</time>
      </trkpt>
      <trkpt lat="47.98523" lon="7.12096">
        <ele>1169.96325684</ele>
        <time>2021-06-16T13:29:26Z</time>
      </trkpt>
      <trkpt lat="47.98535" lon="7.12094">
        <ele>1168.41308594</ele>
        <time>2021-06-16T13:29:29Z</time>
      </trkpt>
      <trkpt lat="47.98549" lon="7.12091">
        <ele>1167.22363281</ele>
        <time>2021-06-16T13:29:31Z</time>
      </trkpt>
      <trkpt lat="47.98563" lon="7.1209">
        <ele>1166.14770508</ele>
        <time>2021-06-16T13:29:33Z</time>
      </trkpt>
      <trkpt lat="47.98579" lon="7.12089">
        <ele>1164.98730469</ele>
        <time>2021-06-16T13:29:35Z</time>
      </trkpt>
      <trkpt lat="47.98596" lon="7.12087">
        <ele>1163.7947998</ele>
        <time>2021-06-16T13:29:37Z</time>
      </trkpt>
      <trkpt lat="47.98611" lon="7.12087">
        <ele>1163.7947998</ele>
        <time>2021-06-16T13:29:38Z</time>
      </trkpt>
      <trkpt lat="47.9862" lon="7.12086">
        <ele>1162.4074707</ele>
        <time>2021-06-16T13:29:39Z</time>
      </trkpt>
      <trkpt lat="47.9863" lon="7.12084">
        <ele>1162.4074707</ele>
        <time>2021-06-16T13:29:40Z</time>
      </trkpt>
      <trkpt lat="47.98642" lon="7.12082">
        <ele>1160.85766602</ele>
        <time>2021-06-16T13:29:41Z</time>
      </trkpt>
      <trkpt lat="47.98653" lon="7.12079">
        <ele>1160.85766602</ele>
        <time>2021-06-16T13:29:42Z</time>
      </trkpt>
      <trkpt lat="47.98665" lon="7.12077">
        <ele>1159.24255371</ele>
        <time>2021-06-16T13:29:43Z</time>
      </trkpt>
      <trkpt lat="47.98677" lon="7.12075">
        <ele>1159.24255371</ele>
        <time>2021-06-16T13:29:44Z</time>
      </trkpt>
      <trkpt lat="47.98689" lon="7.12073">
        <ele>1157.60791016</ele>
        <time>2021-06-16T13:29:45Z</time>
      </trkpt>
      <trkpt lat="47.98702" lon="7.1207">
        <ele>1157.60791016</ele>
        <time>2021-06-16T13:29:46Z</time>
      </trkpt>
      <trkpt lat="47.98716" lon="7.12067">
        <ele>1155.85107422</ele>
        <time>2021-06-16T13:29:47Z</time>
      </trkpt>
      <trkpt lat="47.98729" lon="7.12064">
        <ele>1155.85107422</ele>
        <time>2021-06-16T13:29:48Z</time>
      </trkpt>
      <trkpt lat="47.98742" lon="7.12061">
        <ele>1154.17871094</ele>
        <time>2021-06-16T13:29:49Z</time>
      </trkpt>
      <trkpt lat="47.98756" lon="7.12056">
        <ele>1154.17871094</ele>
        <time>2021-06-16T13:29:50Z</time>
      </trkpt>
      <trkpt lat="47.98771" lon="7.12051">
        <ele>1152.60168457</ele>
        <time>2021-06-16T13:29:51Z</time>
      </trkpt>
      <trkpt lat="47.98785" lon="7.12046">
        <ele>1152.60168457</ele>
        <time>2021-06-16T13:29:52Z</time>
      </trkpt>
      <trkpt lat="47.98799" lon="7.12042">
        <ele>1150.92602539</ele>
        <time>2021-06-16T13:29:53Z</time>
      </trkpt>
      <trkpt lat="47.98829" lon="7.12039">
        <ele>1149.51123047</ele>
        <time>2021-06-16T13:29:55Z</time>
      </trkpt>
      <trkpt lat="47.98843" lon="7.12042">
        <ele>1149.51123047</ele>
        <time>2021-06-16T13:29:56Z</time>
      </trkpt>
      <trkpt lat="47.98857" lon="7.12048">
        <ele>1147.91333008</ele>
        <time>2021-06-16T13:29:57Z</time>
      </trkpt>
      <trkpt lat="47.98871" lon="7.12055">
        <ele>1147.91333008</ele>
        <time>2021-06-16T13:29:58Z</time>
      </trkpt>
      <trkpt lat="47.98885" lon="7.12061">
        <ele>1146.13867188</ele>
        <time>2021-06-16T13:29:59Z</time>
      </trkpt>
      <trkpt lat="47.98899" lon="7.12069">
        <ele>1146.13867188</ele>
        <time>2021-06-16T13:30:00Z</time>
      </trkpt>
      <trkpt lat="47.98912" lon="7.12076">
        <ele>1144.3125</ele>
        <time>2021-06-16T13:30:01Z</time>
      </trkpt>
      <trkpt lat="47.98924" lon="7.12084">
        <ele>1142.85424805</ele>
        <time>2021-06-16T13:30:02Z</time>
      </trkpt>
      <trkpt lat="47.98935" lon="7.12093">
        <ele>1141.80078125</ele>
        <time>2021-06-16T13:30:03Z</time>
      </trkpt>
      <trkpt lat="47.98946" lon="7.12102">
        <ele>1140.78942871</ele>
        <time>2021-06-16T13:30:04Z</time>
      </trkpt>
      <trkpt lat="47.98956" lon="7.12109">
        <ele>1140.78942871</ele>
        <time>2021-06-16T13:30:05Z</time>
      </trkpt>
      <trkpt lat="47.98966" lon="7.12113">
        <ele>1139.58752441</ele>
        <time>2021-06-16T13:30:06Z</time>
      </trkpt>
      <trkpt lat="47.98978" lon="7.12115">
        <ele>1139.58752441</ele>
        <time>2021-06-16T13:30:07Z</time>
      </trkpt>
      <trkpt lat="47.98988" lon="7.12116">
        <ele>1138.15942383</ele>
        <time>2021-06-16T13:30:08Z</time>
      </trkpt>
      <trkpt lat="47.98999" lon="7.12118">
        <ele>1138.15942383</ele>
        <time>2021-06-16T13:30:09Z</time>
      </trkpt>
      <trkpt lat="47.99009" lon="7.1212">
        <ele>1136.93310547</ele>
        <time>2021-06-16T13:30:10Z</time>
      </trkpt>
      <trkpt lat="47.9902" lon="7.12124">
        <ele>1136.93310547</ele>
        <time>2021-06-16T13:30:11Z</time>
      </trkpt>
      <trkpt lat="47.9903" lon="7.12128">
        <ele>1135.70471191</ele>
        <time>2021-06-16T13:30:12Z</time>
      </trkpt>
      <trkpt lat="47.9905" lon="7.1214">
        <ele>1134.40917969</ele>
        <time>2021-06-16T13:30:14Z</time>
      </trkpt>
      <trkpt lat="47.9906" lon="7.12147">
        <ele>1134.40917969</ele>
        <time>2021-06-16T13:30:15Z</time>
      </trkpt>
      <trkpt lat="47.9908" lon="7.12163">
        <ele>1132.97949219</ele>
        <time>2021-06-16T13:30:17Z</time>
      </trkpt>
      <trkpt lat="47.99089" lon="7.1217">
        <ele>1132.97949219</ele>
        <time>2021-06-16T13:30:18Z</time>
      </trkpt>
      <trkpt lat="47.99099" lon="7.12178">
        <ele>1132.12268066</ele>
        <time>2021-06-16T13:30:19Z</time>
      </trkpt>
      <trkpt lat="47.99107" lon="7.12185">
        <ele>1132.12268066</ele>
        <time>2021-06-16T13:30:20Z</time>
      </trkpt>
      <trkpt lat="47.99117" lon="7.12191">
        <ele>1132.12268066</ele>
        <time>2021-06-16T13:30:21Z</time>
      </trkpt>
      <trkpt lat="47.99129" lon="7.12197">
        <ele>1130.92150879</ele>
        <time>2021-06-16T13:30:23Z</time>
      </trkpt>
      <trkpt lat="47.99144" lon="7.12203">
        <ele>1129.55126953</ele>
        <time>2021-06-16T13:30:25Z</time>
      </trkpt>
      <trkpt lat="47.99158" lon="7.12208">
        <ele>1127.90454102</ele>
        <time>2021-06-16T13:30:27Z</time>
      </trkpt>
      <trkpt lat="47.99171" lon="7.12214">
        <ele>1126.24365234</ele>
        <time>2021-06-16T13:30:29Z</time>
      </trkpt>
      <trkpt lat="47.99184" lon="7.12221">
        <ele>1124.6003418</ele>
        <time>2021-06-16T13:30:31Z</time>
      </trkpt>
      <trkpt lat="47.99197" lon="7.12233">
        <ele>1122.97045898</ele>
        <time>2021-06-16T13:30:33Z</time>
      </trkpt>
      <trkpt lat="47.99207" lon="7.12246">
        <ele>1121.36889648</ele>
        <time>2021-06-16T13:30:35Z</time>
      </trkpt>
      <trkpt lat="47.99212" lon="7.12261">
        <ele>1119.89599609</ele>
        <time>2021-06-16T13:30:37Z</time>
      </trkpt>
      <trkpt lat="47.99208" lon="7.12274">
        <ele>1118.3170166</ele>
        <time>2021-06-16T13:30:40Z</time>
      </trkpt>
      <trkpt lat="47.99194" lon="7.12283">
        <ele>1116.69580078</ele>
        <time>2021-06-16T13:30:41Z</time>
      </trkpt>
      <trkpt lat="47.99183" lon="7.12292">
        <ele>1116.69580078</ele>
        <time>2021-06-16T13:30:42Z</time>
      </trkpt>
      <trkpt lat="47.99173" lon="7.12299">
        <ele>1115.01391602</ele>
        <time>2021-06-16T13:30:43Z</time>
      </trkpt>
      <trkpt lat="47.9916" lon="7.12306">
        <ele>1115.01391602</ele>
        <time>2021-06-16T13:30:44Z</time>
      </trkpt>
      <trkpt lat="47.99149" lon="7.12313">
        <ele>1113.15063477</ele>
        <time>2021-06-16T13:30:45Z</time>
      </trkpt>
      <trkpt lat="47.99138" lon="7.1232">
        <ele>1111.57299805</ele>
        <time>2021-06-16T13:30:46Z</time>
      </trkpt>
      <trkpt lat="47.99129" lon="7.12326">
        <ele>1110.52380371</ele>
        <time>2021-06-16T13:30:47Z</time>
      </trkpt>
      <trkpt lat="47.99118" lon="7.12329">
        <ele>1110.52380371</ele>
        <time>2021-06-16T13:30:48Z</time>
      </trkpt>
      <trkpt lat="47.99094" lon="7.1233">
        <ele>1109.0168457</ele>
        <time>2021-06-16T13:30:50Z</time>
      </trkpt>
      <trkpt lat="47.99081" lon="7.12328">
        <ele>1106.96484375</ele>
        <time>2021-06-16T13:30:51Z</time>
      </trkpt>
      <trkpt lat="47.99068" lon="7.12327">
        <ele>1105.34619141</ele>
        <time>2021-06-16T13:30:52Z</time>
      </trkpt>
      <trkpt lat="47.99057" lon="7.12328">
        <ele>1104.29541016</ele>
        <time>2021-06-16T13:30:53Z</time>
      </trkpt>
      <trkpt lat="47.99036" lon="7.12325">
        <ele>1102.01391602</ele>
        <time>2021-06-16T13:30:55Z</time>
      </trkpt>
      <trkpt lat="47.99025" lon="7.12323">
        <ele>1100.97192383</ele>
        <time>2021-06-16T13:30:56Z</time>
      </trkpt>
      <trkpt lat="47.99014" lon="7.12325">
        <ele>1099.81689453</ele>
        <time>2021-06-16T13:30:57Z</time>
      </trkpt>
      <trkpt lat="47.99004" lon="7.12325">
        <ele>1098.70581055</ele>
        <time>2021-06-16T13:30:58Z</time>
      </trkpt>
      <trkpt lat="47.98992" lon="7.12329">
        <ele>1097.23754883</ele>
        <time>2021-06-16T13:31:00Z</time>
      </trkpt>
      <trkpt lat="47.98977" lon="7.12339">
        <ele>1095.71911621</ele>
        <time>2021-06-16T13:31:02Z</time>
      </trkpt>
      <trkpt lat="47.98962" lon="7.1235">
        <ele>1094.21447754</ele>
        <time>2021-06-16T13:31:04Z</time>
      </trkpt>
      <trkpt lat="47.9895" lon="7.12364">
        <ele>1092.24780273</ele>
        <time>2021-06-16T13:31:06Z</time>
      </trkpt>
      <trkpt lat="47.98939" lon="7.12383">
        <ele>1090.56982422</ele>
        <time>2021-06-16T13:31:08Z</time>
      </trkpt>
      <trkpt lat="47.9893" lon="7.12406">
        <ele>1089.05212402</ele>
        <time>2021-06-16T13:31:10Z</time>
      </trkpt>
      <trkpt lat="47.98923" lon="7.12424">
        <ele>1087.55126953</ele>
        <time>2021-06-16T13:31:11Z</time>
      </trkpt>
      <trkpt lat="47.98915" lon="7.1244">
        <ele>1086.11132812</ele>
        <time>2021-06-16T13:31:13Z</time>
      </trkpt>
      <trkpt lat="47.98905" lon="7.12456">
        <ele>1086.11132812</ele>
        <time>2021-06-16T13:31:14Z</time>
      </trkpt>
      <trkpt lat="47.98898" lon="7.12467">
        <ele>1084.54931641</ele>
        <time>2021-06-16T13:31:15Z</time>
      </trkpt>
      <trkpt lat="47.98887" lon="7.1249">
        <ele>1083.38146973</ele>
        <time>2021-06-16T13:31:17Z</time>
      </trkpt>
      <trkpt lat="47.98882" lon="7.12503">
        <ele>1082.32128906</ele>
        <time>2021-06-16T13:31:18Z</time>
      </trkpt>
      <trkpt lat="47.98879" lon="7.12516">
        <ele>1082.32128906</ele>
        <time>2021-06-16T13:31:19Z</time>
      </trkpt>
      <trkpt lat="47.98877" lon="7.12531">
        <ele>1080.77526855</ele>
        <time>2021-06-16T13:31:20Z</time>
      </trkpt>
      <trkpt lat="47.98875" lon="7.12547">
        <ele>1080.77526855</ele>
        <time>2021-06-16T13:31:21Z</time>
      </trkpt>
      <trkpt lat="47.98874" lon="7.12562">
        <ele>1078.95727539</ele>
        <time>2021-06-16T13:31:22Z</time>
      </trkpt>
      <trkpt lat="47.98872" lon="7.12577">
        <ele>1078.95727539</ele>
        <time>2021-06-16T13:31:23Z</time>
      </trkpt>
      <trkpt lat="47.9887" lon="7.12605">
        <ele>1078.95727539</ele>
        <time>2021-06-16T13:31:25Z</time>
      </trkpt>
      <trkpt lat="47.98866" lon="7.12623">
        <ele>1075.72802734</ele>
        <time>2021-06-16T13:31:27Z</time>
      </trkpt>
      <trkpt lat="47.98861" lon="7.12646">
        <ele>1074.28430176</ele>
        <time>2021-06-16T13:31:29Z</time>
      </trkpt>
      <trkpt lat="47.98856" lon="7.12665">
        <ele>1072.9206543</ele>
        <time>2021-06-16T13:31:31Z</time>
      </trkpt>
      <trkpt lat="47.98857" lon="7.1268">
        <ele>1071.73120117</ele>
        <time>2021-06-16T13:31:33Z</time>
      </trkpt>
      <trkpt lat="47.98871" lon="7.12688">
        <ele>1070.4140625</ele>
        <time>2021-06-16T13:31:35Z</time>
      </trkpt>
      <trkpt lat="47.98886" lon="7.12696">
        <ele>1068.86157227</ele>
        <time>2021-06-16T13:31:37Z</time>
      </trkpt>
      <trkpt lat="47.98898" lon="7.12704">
        <ele>1068.86157227</ele>
        <time>2021-06-16T13:31:38Z</time>
      </trkpt>
      <trkpt lat="47.98906" lon="7.12711">
        <ele>1067.34521484</ele>
        <time>2021-06-16T13:31:39Z</time>
      </trkpt>
      <trkpt lat="47.98913" lon="7.1272">
        <ele>1067.34521484</ele>
        <time>2021-06-16T13:31:40Z</time>
      </trkpt>
      <trkpt lat="47.98921" lon="7.1273">
        <ele>1065.60705566</ele>
        <time>2021-06-16T13:31:41Z</time>
      </trkpt>
      <trkpt lat="47.9893" lon="7.12738">
        <ele>1065.60705566</ele>
        <time>2021-06-16T13:31:42Z</time>
      </trkpt>
      <trkpt lat="47.9894" lon="7.12748">
        <ele>1063.80493164</ele>
        <time>2021-06-16T13:31:43Z</time>
      </trkpt>
      <trkpt lat="47.98949" lon="7.12758">
        <ele>1063.80493164</ele>
        <time>2021-06-16T13:31:44Z</time>
      </trkpt>
      <trkpt lat="47.9897" lon="7.12779">
        <ele>1060.17224121</ele>
        <time>2021-06-16T13:31:46Z</time>
      </trkpt>
      <trkpt lat="47.98982" lon="7.12791">
        <ele>1059.06982422</ele>
        <time>2021-06-16T13:31:47Z</time>
      </trkpt>
      <trkpt lat="47.98993" lon="7.12801">
        <ele>1057.89611816</ele>
        <time>2021-06-16T13:31:48Z</time>
      </trkpt>
      <trkpt lat="47.99005" lon="7.12812">
        <ele>1056.85192871</ele>
        <time>2021-06-16T13:31:49Z</time>
      </trkpt>
      <trkpt lat="47.99018" lon="7.12819">
        <ele>1055.68249512</ele>
        <time>2021-06-16T13:31:50Z</time>
      </trkpt>
      <trkpt lat="47.9903" lon="7.12827">
        <ele>1054.44970703</ele>
        <time>2021-06-16T13:31:51Z</time>
      </trkpt>
      <trkpt lat="47.9904" lon="7.12837">
        <ele>1053.2911377</ele>
        <time>2021-06-16T13:31:52Z</time>
      </trkpt>
      <trkpt lat="47.99052" lon="7.12846">
        <ele>1052.12097168</ele>
        <time>2021-06-16T13:31:53Z</time>
      </trkpt>
      <trkpt lat="47.99073" lon="7.12867">
        <ele>1049.6907959</ele>
        <time>2021-06-16T13:31:55Z</time>
      </trkpt>
      <trkpt lat="47.99084" lon="7.12879">
        <ele>1048.45483398</ele>
        <time>2021-06-16T13:31:56Z</time>
      </trkpt>
      <trkpt lat="47.99094" lon="7.12891">
        <ele>1047.18676758</ele>
        <time>2021-06-16T13:31:57Z</time>
      </trkpt>
      <trkpt lat="47.99104" lon="7.12904">
        <ele>1045.87976074</ele>
        <time>2021-06-16T13:31:58Z</time>
      </trkpt>
      <trkpt lat="47.99114" lon="7.12915">
        <ele>1044.61755371</ele>
        <time>2021-06-16T13:31:59Z</time>
      </trkpt>
      <trkpt lat="47.99123" lon="7.12925">
        <ele>1043.4083252</ele>
        <time>2021-06-16T13:32:00Z</time>
      </trkpt>
      <trkpt lat="47.99132" lon="7.12936">
        <ele>1042.2376709</ele>
        <time>2021-06-16T13:32:01Z</time>
      </trkpt>
      <trkpt lat="47.99138" lon="7.12946">
        <ele>1041.17614746</ele>
        <time>2021-06-16T13:32:02Z</time>
      </trkpt>
      <trkpt lat="47.99146" lon="7.12956">
        <ele>1040.0612793</ele>
        <time>2021-06-16T13:32:03Z</time>
      </trkpt>
      <trkpt lat="47.99153" lon="7.12966">
        <ele>1038.92333984</ele>
        <time>2021-06-16T13:32:04Z</time>
      </trkpt>
      <trkpt lat="47.9916" lon="7.12974">
        <ele>1037.88720703</ele>
        <time>2021-06-16T13:32:05Z</time>
      </trkpt>
      <trkpt lat="47.99168" lon="7.12982">
        <ele>1037.88720703</ele>
        <time>2021-06-16T13:32:06Z</time>
      </trkpt>
      <trkpt lat="47.99176" lon="7.1299">
        <ele>1036.39038086</ele>
        <time>2021-06-16T13:32:07Z</time>
      </trkpt>
      <trkpt lat="47.99184" lon="7.12997">
        <ele>1036.39038086</ele>
        <time>2021-06-16T13:32:08Z</time>
      </trkpt>
      <trkpt lat="47.99194" lon="7.13008">
        <ele>1034.43078613</ele>
        <time>2021-06-16T13:32:10Z</time>
      </trkpt>
      <trkpt lat="47.99205" lon="7.13021">
        <ele>1032.63232422</ele>
        <time>2021-06-16T13:32:12Z</time>
      </trkpt>
      <trkpt lat="47.99216" lon="7.13034">
        <ele>1030.94836426</ele>
        <time>2021-06-16T13:32:14Z</time>
      </trkpt>
      <trkpt lat="47.99227" lon="7.13053">
        <ele>1028.48876953</ele>
        <time>2021-06-16T13:32:17Z</time>
      </trkpt>
      <trkpt lat="47.99233" lon="7.13063">
        <ele>1026.59338379</ele>
        <time>2021-06-16T13:32:21Z</time>
      </trkpt>
      <trkpt lat="47.99239" lon="7.13063">
        <ele>1024.59460449</ele>
        <time>2021-06-16T13:33:07Z</time>
      </trkpt>
      <trkpt lat="47.99243" lon="7.13043">
        <ele>1024.59460449</ele>
        <time>2021-06-16T13:33:11Z</time>
      </trkpt>
      <trkpt lat="47.99247" lon="7.13024">
        <ele>1023.39379883</ele>
        <time>2021-06-16T13:33:14Z</time>
      </trkpt>
      <trkpt lat="47.9925" lon="7.12998">
        <ele>1021.61523438</ele>
        <time>2021-06-16T13:33:17Z</time>
      </trkpt>
      <trkpt lat="47.99252" lon="7.12976">
        <ele>1020.65582275</ele>
        <time>2021-06-16T13:33:19Z</time>
      </trkpt>
      <trkpt lat="47.99255" lon="7.12957">
        <ele>1019.37280273</ele>
        <time>2021-06-16T13:33:21Z</time>
      </trkpt>
      <trkpt lat="47.99262" lon="7.12941">
        <ele>1018.21325684</ele>
        <time>2021-06-16T13:33:23Z</time>
      </trkpt>
      <trkpt lat="47.99272" lon="7.12932">
        <ele>1016.96716309</ele>
        <time>2021-06-16T13:33:25Z</time>
      </trkpt>
      <trkpt lat="47.99286" lon="7.12925">
        <ele>1015.7232666</ele>
        <time>2021-06-16T13:33:27Z</time>
      </trkpt>
      <trkpt lat="47.99299" lon="7.12918">
        <ele>1014.38098145</ele>
        <time>2021-06-16T13:33:30Z</time>
      </trkpt>
      <trkpt lat="47.99312" lon="7.12912">
        <ele>1012.92260742</ele>
        <time>2021-06-16T13:33:31Z</time>
      </trkpt>
      <trkpt lat="47.99326" lon="7.12909">
        <ele>1011.26593018</ele>
        <time>2021-06-16T13:33:33Z</time>
      </trkpt>
      <trkpt lat="47.99339" lon="7.12908">
        <ele>1009.60198975</ele>
        <time>2021-06-16T13:33:35Z</time>
      </trkpt>
      <trkpt lat="47.99357" lon="7.12911">
        <ele>1007.71179199</ele>
        <time>2021-06-16T13:33:37Z</time>
      </trkpt>
      <trkpt lat="47.99374" lon="7.12916">
        <ele>1007.71179199</ele>
        <time>2021-06-16T13:33:38Z</time>
      </trkpt>
      <trkpt lat="47.99384" lon="7.12922">
        <ele>1005.79205322</ele>
        <time>2021-06-16T13:33:39Z</time>
      </trkpt>
      <trkpt lat="47.99393" lon="7.12928">
        <ele>1004.2878418</ele>
        <time>2021-06-16T13:33:40Z</time>
      </trkpt>
      <trkpt lat="47.99404" lon="7.12935">
        <ele>1003.14489746</ele>
        <time>2021-06-16T13:33:41Z</time>
      </trkpt>
      <trkpt lat="47.99415" lon="7.12942">
        <ele>1002.00933838</ele>
        <time>2021-06-16T13:33:42Z</time>
      </trkpt>
      <trkpt lat="47.99426" lon="7.12948">
        <ele>1000.96917725</ele>
        <time>2021-06-16T13:33:43Z</time>
      </trkpt>
      <trkpt lat="47.99437" lon="7.12953">
        <ele>999.84881592</ele>
        <time>2021-06-16T13:33:44Z</time>
      </trkpt>
      <trkpt lat="47.99447" lon="7.12958">
        <ele>998.72131348</ele>
        <time>2021-06-16T13:33:45Z</time>
      </trkpt>
      <trkpt lat="47.99458" lon="7.12961">
        <ele>997.51477051</ele>
        <time>2021-06-16T13:33:46Z</time>
      </trkpt>
      <trkpt lat="47.99468" lon="7.12962">
        <ele>996.33996582</ele>
        <time>2021-06-16T13:33:47Z</time>
      </trkpt>
      <trkpt lat="47.9948" lon="7.12965">
        <ele>995.18127441</ele>
        <time>2021-06-16T13:33:48Z</time>
      </trkpt>
      <trkpt lat="47.99495" lon="7.12968">
        <ele>993.92974854</ele>
        <time>2021-06-16T13:33:49Z</time>
      </trkpt>
      <trkpt lat="47.99511" lon="7.12971">
        <ele>992.68060303</ele>
        <time>2021-06-16T13:33:50Z</time>
      </trkpt>
      <trkpt lat="47.99529" lon="7.12974">
        <ele>991.49908447</ele>
        <time>2021-06-16T13:33:51Z</time>
      </trkpt>
      <trkpt lat="47.99546" lon="7.12975">
        <ele>990.31280518</ele>
        <time>2021-06-16T13:33:52Z</time>
      </trkpt>
      <trkpt lat="47.99561" lon="7.12977">
        <ele>989.12438965</ele>
        <time>2021-06-16T13:33:53Z</time>
      </trkpt>
      <trkpt lat="47.99575" lon="7.12978">
        <ele>987.88024902</ele>
        <time>2021-06-16T13:33:54Z</time>
      </trkpt>
      <trkpt lat="47.99592" lon="7.1298">
        <ele>986.74304199</ele>
        <time>2021-06-16T13:33:55Z</time>
      </trkpt>
      <trkpt lat="47.99605" lon="7.1298">
        <ele>985.51690674</ele>
        <time>2021-06-16T13:33:56Z</time>
      </trkpt>
      <trkpt lat="47.9962" lon="7.12981">
        <ele>984.34399414</ele>
        <time>2021-06-16T13:33:57Z</time>
      </trkpt>
      <trkpt lat="47.99634" lon="7.12982">
        <ele>983.23535156</ele>
        <time>2021-06-16T13:33:58Z</time>
      </trkpt>
      <trkpt lat="47.99647" lon="7.12981">
        <ele>982.1003418</ele>
        <time>2021-06-16T13:33:59Z</time>
      </trkpt>
      <trkpt lat="47.99657" lon="7.12981">
        <ele>982.1003418</ele>
        <time>2021-06-16T13:34:00Z</time>
      </trkpt>
      <trkpt lat="47.99667" lon="7.12979">
        <ele>980.60296631</ele>
        <time>2021-06-16T13:34:01Z</time>
      </trkpt>
      <trkpt lat="47.99676" lon="7.12975">
        <ele>979.04492188</ele>
        <time>2021-06-16T13:34:02Z</time>
      </trkpt>
      <trkpt lat="47.99685" lon="7.12969">
        <ele>977.93359375</ele>
        <time>2021-06-16T13:34:03Z</time>
      </trkpt>
      <trkpt lat="47.99693" lon="7.12962">
        <ele>976.78198242</ele>
        <time>2021-06-16T13:34:04Z</time>
      </trkpt>
      <trkpt lat="47.99707" lon="7.12952">
        <ele>975.6361084</ele>
        <time>2021-06-16T13:34:05Z</time>
      </trkpt>
      <trkpt lat="47.99718" lon="7.12944">
        <ele>974.59753418</ele>
        <time>2021-06-16T13:34:06Z</time>
      </trkpt>
      <trkpt lat="47.99728" lon="7.12931">
        <ele>974.59753418</ele>
        <time>2021-06-16T13:34:07Z</time>
      </trkpt>
      <trkpt lat="47.99738" lon="7.12927">
        <ele>973.15893555</ele>
        <time>2021-06-16T13:34:08Z</time>
      </trkpt>
      <trkpt lat="47.99749" lon="7.12924">
        <ele>973.15893555</ele>
        <time>2021-06-16T13:34:09Z</time>
      </trkpt>
      <trkpt lat="47.99761" lon="7.12921">
        <ele>971.23461914</ele>
        <time>2021-06-16T13:34:10Z</time>
      </trkpt>
      <trkpt lat="47.99774" lon="7.12921">
        <ele>971.23461914</ele>
        <time>2021-06-16T13:34:11Z</time>
      </trkpt>
      <trkpt lat="47.99786" lon="7.1293">
        <ele>969.2121582</ele>
        <time>2021-06-16T13:34:12Z</time>
      </trkpt>
      <trkpt lat="47.99797" lon="7.12938">
        <ele>967.5802002</ele>
        <time>2021-06-16T13:34:13Z</time>
      </trkpt>
      <trkpt lat="47.99808" lon="7.12947">
        <ele>966.51202393</ele>
        <time>2021-06-16T13:34:14Z</time>
      </trkpt>
      <trkpt lat="47.99822" lon="7.12959">
        <ele>964.35406494</ele>
        <time>2021-06-16T13:34:16Z</time>
      </trkpt>
      <trkpt lat="47.99839" lon="7.12975">
        <ele>963.28295898</ele>
        <time>2021-06-16T13:34:17Z</time>
      </trkpt>
      <trkpt lat="47.99851" lon="7.12982">
        <ele>962.17333984</ele>
        <time>2021-06-16T13:34:18Z</time>
      </trkpt>
      <trkpt lat="47.99874" lon="7.13006">
        <ele>959.9831543</ele>
        <time>2021-06-16T13:34:20Z</time>
      </trkpt>
      <trkpt lat="47.99889" lon="7.13017">
        <ele>959.9831543</ele>
        <time>2021-06-16T13:34:21Z</time>
      </trkpt>
      <trkpt lat="47.99902" lon="7.13028">
        <ele>958.58007812</ele>
        <time>2021-06-16T13:34:22Z</time>
      </trkpt>
      <trkpt lat="47.99917" lon="7.13039">
        <ele>958.58007812</ele>
        <time>2021-06-16T13:34:23Z</time>
      </trkpt>
      <trkpt lat="47.9993" lon="7.13049">
        <ele>956.77246094</ele>
        <time>2021-06-16T13:34:24Z</time>
      </trkpt>
      <trkpt lat="47.99941" lon="7.13059">
        <ele>956.77246094</ele>
        <time>2021-06-16T13:34:25Z</time>
      </trkpt>
      <trkpt lat="47.99952" lon="7.13066">
        <ele>954.98083496</ele>
        <time>2021-06-16T13:34:26Z</time>
      </trkpt>
      <trkpt lat="47.99964" lon="7.13072">
        <ele>954.98083496</ele>
        <time>2021-06-16T13:34:27Z</time>
      </trkpt>
      <trkpt lat="47.99976" lon="7.13081">
        <ele>953.05529785</ele>
        <time>2021-06-16T13:34:28Z</time>
      </trkpt>
      <trkpt lat="47.99991" lon="7.13089">
        <ele>953.05529785</ele>
        <time>2021-06-16T13:34:29Z</time>
      </trkpt>
      <trkpt lat="48.00003" lon="7.13099">
        <ele>951.16455078</ele>
        <time>2021-06-16T13:34:30Z</time>
      </trkpt>
      <trkpt lat="48.00016" lon="7.13108">
        <ele>949.62261963</ele>
        <time>2021-06-16T13:34:31Z</time>
      </trkpt>
      <trkpt lat="48.00029" lon="7.13121">
        <ele>948.62030029</ele>
        <time>2021-06-16T13:34:32Z</time>
      </trkpt>
      <trkpt lat="48.00044" lon="7.13133">
        <ele>948.62030029</ele>
        <time>2021-06-16T13:34:33Z</time>
      </trkpt>
      <trkpt lat="48.00055" lon="7.13144">
        <ele>947.1539917</ele>
        <time>2021-06-16T13:34:34Z</time>
      </trkpt>
      <trkpt lat="48.00064" lon="7.13155">
        <ele>945.62890625</ele>
        <time>2021-06-16T13:34:35Z</time>
      </trkpt>
      <trkpt lat="48.00073" lon="7.13168">
        <ele>945.62890625</ele>
        <time>2021-06-16T13:34:36Z</time>
      </trkpt>
      <trkpt lat="48.00084" lon="7.13179">
        <ele>944.1953125</ele>
        <time>2021-06-16T13:34:37Z</time>
      </trkpt>
      <trkpt lat="48.00094" lon="7.13189">
        <ele>942.64556885</ele>
        <time>2021-06-16T13:34:38Z</time>
      </trkpt>
      <trkpt lat="48.00103" lon="7.13201">
        <ele>941.51776123</ele>
        <time>2021-06-16T13:34:39Z</time>
      </trkpt>
      <trkpt lat="48.00112" lon="7.13213">
        <ele>940.50640869</ele>
        <time>2021-06-16T13:34:40Z</time>
      </trkpt>
      <trkpt lat="48.00123" lon="7.13225">
        <ele>939.42840576</ele>
        <time>2021-06-16T13:34:41Z</time>
      </trkpt>
      <trkpt lat="48.00135" lon="7.13236">
        <ele>938.371521</ele>
        <time>2021-06-16T13:34:42Z</time>
      </trkpt>
      <trkpt lat="48.0015" lon="7.13246">
        <ele>938.371521</ele>
        <time>2021-06-16T13:34:43Z</time>
      </trkpt>
      <trkpt lat="48.00163" lon="7.13258">
        <ele>936.84277344</ele>
        <time>2021-06-16T13:34:44Z</time>
      </trkpt>
      <trkpt lat="48.00174" lon="7.13268">
        <ele>935.27520752</ele>
        <time>2021-06-16T13:34:45Z</time>
      </trkpt>
      <trkpt lat="48.00184" lon="7.13278">
        <ele>934.25946045</ele>
        <time>2021-06-16T13:34:46Z</time>
      </trkpt>
      <trkpt lat="48.00194" lon="7.13287">
        <ele>933.22674561</ele>
        <time>2021-06-16T13:34:47Z</time>
      </trkpt>
      <trkpt lat="48.00205" lon="7.13295">
        <ele>933.22674561</ele>
        <time>2021-06-16T13:34:48Z</time>
      </trkpt>
      <trkpt lat="48.00216" lon="7.13304">
        <ele>931.85705566</ele>
        <time>2021-06-16T13:34:49Z</time>
      </trkpt>
      <trkpt lat="48.00228" lon="7.13313">
        <ele>931.85705566</ele>
        <time>2021-06-16T13:34:50Z</time>
      </trkpt>
      <trkpt lat="48.0024" lon="7.1332">
        <ele>930.10314941</ele>
        <time>2021-06-16T13:34:51Z</time>
      </trkpt>
      <trkpt lat="48.00252" lon="7.13324">
        <ele>930.10314941</ele>
        <time>2021-06-16T13:34:52Z</time>
      </trkpt>
      <trkpt lat="48.00262" lon="7.13328">
        <ele>928.55554199</ele>
        <time>2021-06-16T13:34:53Z</time>
      </trkpt>
      <trkpt lat="48.00283" lon="7.13336">
        <ele>927.13641357</ele>
        <time>2021-06-16T13:34:55Z</time>
      </trkpt>
      <trkpt lat="48.00295" lon="7.13341">
        <ele>927.13641357</ele>
        <time>2021-06-16T13:34:56Z</time>
      </trkpt>
      <trkpt lat="48.00306" lon="7.13352">
        <ele>925.77661133</ele>
        <time>2021-06-16T13:34:58Z</time>
      </trkpt>
      <trkpt lat="48.00318" lon="7.13366">
        <ele>924.63671875</ele>
        <time>2021-06-16T13:34:59Z</time>
      </trkpt>
      <trkpt lat="48.00327" lon="7.13376">
        <ele>924.63671875</ele>
        <time>2021-06-16T13:35:00Z</time>
      </trkpt>
      <trkpt lat="48.00335" lon="7.13385">
        <ele>924.63671875</ele>
        <time>2021-06-16T13:35:01Z</time>
      </trkpt>
      <trkpt lat="48.00344" lon="7.13395">
        <ele>923.47241211</ele>
        <time>2021-06-16T13:35:02Z</time>
      </trkpt>
      <trkpt lat="48.00353" lon="7.13403">
        <ele>923.47241211</ele>
        <time>2021-06-16T13:35:03Z</time>
      </trkpt>
      <trkpt lat="48.00363" lon="7.13411">
        <ele>922.26013184</ele>
        <time>2021-06-16T13:35:04Z</time>
      </trkpt>
      <trkpt lat="48.00372" lon="7.13417">
        <ele>922.26013184</ele>
        <time>2021-06-16T13:35:05Z</time>
      </trkpt>
      <trkpt lat="48.0038" lon="7.13423">
        <ele>922.26013184</ele>
        <time>2021-06-16T13:35:06Z</time>
      </trkpt>
      <trkpt lat="48.00391" lon="7.13432">
        <ele>921.16955566</ele>
        <time>2021-06-16T13:35:08Z</time>
      </trkpt>
      <trkpt lat="48.00404" lon="7.13441">
        <ele>921.16955566</ele>
        <time>2021-06-16T13:35:10Z</time>
      </trkpt>
      <trkpt lat="48.00416" lon="7.13443">
        <ele>919.9473877</ele>
        <time>2021-06-16T13:35:13Z</time>
      </trkpt>
      <trkpt lat="48.00425" lon="7.13443">
        <ele>918.49182129</ele>
        <time>2021-06-16T13:35:17Z</time>
      </trkpt>
      <trkpt lat="48.00432" lon="7.13442">
        <ele>917.87017822</ele>
        <time>2021-06-16T13:36:10Z</time>
      </trkpt>
      <trkpt lat="48.0044" lon="7.13447">
        <ele>917.87017822</ele>
        <time>2021-06-16T13:36:13Z</time>
      </trkpt>
      <trkpt lat="48.00454" lon="7.1346">
        <ele>915.95843506</ele>
        <time>2021-06-16T13:36:17Z</time>
      </trkpt>
      <trkpt lat="48.00464" lon="7.13466">
        <ele>915.95843506</ele>
        <time>2021-06-16T13:36:19Z</time>
      </trkpt>
      <trkpt lat="48.00475" lon="7.13473">
        <ele>915.12664795</ele>
        <time>2021-06-16T13:36:21Z</time>
      </trkpt>
      <trkpt lat="48.005" lon="7.13487">
        <ele>915.12664795</ele>
        <time>2021-06-16T13:36:25Z</time>
      </trkpt>
      <trkpt lat="48.00514" lon="7.13492">
        <ele>912.6829834</ele>
        <time>2021-06-16T13:36:27Z</time>
      </trkpt>
      <trkpt lat="48.00528" lon="7.13494">
        <ele>911.61328125</ele>
        <time>2021-06-16T13:36:29Z</time>
      </trkpt>
      <trkpt lat="48.00543" lon="7.13494">
        <ele>911.61328125</ele>
        <time>2021-06-16T13:36:31Z</time>
      </trkpt>
      <trkpt lat="48.00559" lon="7.13491">
        <ele>910.43695068</ele>
        <time>2021-06-16T13:36:33Z</time>
      </trkpt>
      <trkpt lat="48.00573" lon="7.13485">
        <ele>910.43695068</ele>
        <time>2021-06-16T13:36:35Z</time>
      </trkpt>
      <trkpt lat="48.00586" lon="7.13476">
        <ele>910.43695068</ele>
        <time>2021-06-16T13:36:37Z</time>
      </trkpt>
      <trkpt lat="48.00599" lon="7.13465">
        <ele>909.29681396</ele>
        <time>2021-06-16T13:36:39Z</time>
      </trkpt>
      <trkpt lat="48.00611" lon="7.13451">
        <ele>909.29681396</ele>
        <time>2021-06-16T13:36:41Z</time>
      </trkpt>
      <trkpt lat="48.00623" lon="7.13437">
        <ele>908.25097656</ele>
        <time>2021-06-16T13:36:43Z</time>
      </trkpt>
      <trkpt lat="48.00635" lon="7.1342">
        <ele>908.25097656</ele>
        <time>2021-06-16T13:36:45Z</time>
      </trkpt>
      <trkpt lat="48.00647" lon="7.13402">
        <ele>907.12945557</ele>
        <time>2021-06-16T13:36:47Z</time>
      </trkpt>
      <trkpt lat="48.00657" lon="7.13388">
        <ele>907.12945557</ele>
        <time>2021-06-16T13:36:48Z</time>
      </trkpt>
      <trkpt lat="48.00664" lon="7.13379">
        <ele>906.03674316</ele>
        <time>2021-06-16T13:36:49Z</time>
      </trkpt>
      <trkpt lat="48.00672" lon="7.13371">
        <ele>906.03674316</ele>
        <time>2021-06-16T13:36:50Z</time>
      </trkpt>
      <trkpt lat="48.00679" lon="7.13363">
        <ele>906.03674316</ele>
        <time>2021-06-16T13:36:51Z</time>
      </trkpt>
      <trkpt lat="48.00688" lon="7.13354">
        <ele>904.77197266</ele>
        <time>2021-06-16T13:36:52Z</time>
      </trkpt>
      <trkpt lat="48.00696" lon="7.13345">
        <ele>904.77197266</ele>
        <time>2021-06-16T13:36:53Z</time>
      </trkpt>
      <trkpt lat="48.00704" lon="7.13337">
        <ele>903.49761963</ele>
        <time>2021-06-16T13:36:54Z</time>
      </trkpt>
      <trkpt lat="48.00712" lon="7.13322">
        <ele>902.38238525</ele>
        <time>2021-06-16T13:36:57Z</time>
      </trkpt>
      <trkpt lat="48.00726" lon="7.13307">
        <ele>902.38238525</ele>
        <time>2021-06-16T13:36:58Z</time>
      </trkpt>
      <trkpt lat="48.00738" lon="7.13297">
        <ele>900.9710083</ele>
        <time>2021-06-16T13:37:00Z</time>
      </trkpt>
      <trkpt lat="48.00752" lon="7.13293">
        <ele>899.65637207</ele>
        <time>2021-06-16T13:37:02Z</time>
      </trkpt>
      <trkpt lat="48.00764" lon="7.13291">
        <ele>898.63482666</ele>
        <time>2021-06-16T13:37:04Z</time>
      </trkpt>
      <trkpt lat="48.00776" lon="7.13298">
        <ele>897.465271</ele>
        <time>2021-06-16T13:37:06Z</time>
      </trkpt>
      <trkpt lat="48.00789" lon="7.13307">
        <ele>897.465271</ele>
        <time>2021-06-16T13:37:07Z</time>
      </trkpt>
      <trkpt lat="48.008" lon="7.13314">
        <ele>896.3828125</ele>
        <time>2021-06-16T13:37:09Z</time>
      </trkpt>
      <trkpt lat="48.00814" lon="7.13321">
        <ele>895.2154541</ele>
        <time>2021-06-16T13:37:11Z</time>
      </trkpt>
      <trkpt lat="48.00831" lon="7.13325">
        <ele>893.87963867</ele>
        <time>2021-06-16T13:37:13Z</time>
      </trkpt>
      <trkpt lat="48.00848" lon="7.13328">
        <ele>892.54345703</ele>
        <time>2021-06-16T13:37:15Z</time>
      </trkpt>
      <trkpt lat="48.00862" lon="7.13332">
        <ele>891.08624268</ele>
        <time>2021-06-16T13:37:17Z</time>
      </trkpt>
      <trkpt lat="48.00875" lon="7.13339">
        <ele>890.17547607</ele>
        <time>2021-06-16T13:37:18Z</time>
      </trkpt>
      <trkpt lat="48.00884" lon="7.13347">
        <ele>890.17547607</ele>
        <time>2021-06-16T13:37:19Z</time>
      </trkpt>
      <trkpt lat="48.00894" lon="7.13358">
        <ele>888.8416748</ele>
        <time>2021-06-16T13:37:21Z</time>
      </trkpt>
      <trkpt lat="48.00903" lon="7.13377">
        <ele>887.36779785</ele>
        <time>2021-06-16T13:37:23Z</time>
      </trkpt>
      <trkpt lat="48.00913" lon="7.13396">
        <ele>885.89019775</ele>
        <time>2021-06-16T13:37:25Z</time>
      </trkpt>
      <trkpt lat="48.00924" lon="7.13415">
        <ele>884.42327881</ele>
        <time>2021-06-16T13:37:27Z</time>
      </trkpt>
      <trkpt lat="48.00933" lon="7.13431">
        <ele>882.93359375</ele>
        <time>2021-06-16T13:37:28Z</time>
      </trkpt>
      <trkpt lat="48.00942" lon="7.13441">
        <ele>882.93359375</ele>
        <time>2021-06-16T13:37:29Z</time>
      </trkpt>
      <trkpt lat="48.00949" lon="7.13458">
        <ele>881.43444824</ele>
        <time>2021-06-16T13:37:31Z</time>
      </trkpt>
      <trkpt lat="48.00958" lon="7.13475">
        <ele>879.90661621</ele>
        <time>2021-06-16T13:37:32Z</time>
      </trkpt>
      <trkpt lat="48.00962" lon="7.13487">
        <ele>879.90661621</ele>
        <time>2021-06-16T13:37:33Z</time>
      </trkpt>
      <trkpt lat="48.00968" lon="7.13498">
        <ele>878.29766846</ele>
        <time>2021-06-16T13:37:34Z</time>
      </trkpt>
      <trkpt lat="48.00976" lon="7.13514">
        <ele>876.54302979</ele>
        <time>2021-06-16T13:37:36Z</time>
      </trkpt>
      <trkpt lat="48.00984" lon="7.13535">
        <ele>874.90289307</ele>
        <time>2021-06-16T13:37:38Z</time>
      </trkpt>
      <trkpt lat="48.00995" lon="7.13552">
        <ele>873.23614502</ele>
        <time>2021-06-16T13:37:40Z</time>
      </trkpt>
      <trkpt lat="48.0101" lon="7.13564">
        <ele>871.65588379</ele>
        <time>2021-06-16T13:37:42Z</time>
      </trkpt>
      <trkpt lat="48.01041" lon="7.13578">
        <ele>870.09960938</ele>
        <time>2021-06-16T13:37:45Z</time>
      </trkpt>
      <trkpt lat="48.01052" lon="7.13581">
        <ele>868.43701172</ele>
        <time>2021-06-16T13:37:46Z</time>
      </trkpt>
      <trkpt lat="48.01063" lon="7.13584">
        <ele>868.43701172</ele>
        <time>2021-06-16T13:37:47Z</time>
      </trkpt>
      <trkpt lat="48.01077" lon="7.13587">
        <ele>866.69445801</ele>
        <time>2021-06-16T13:37:48Z</time>
      </trkpt>
      <trkpt lat="48.01087" lon="7.13588">
        <ele>866.69445801</ele>
        <time>2021-06-16T13:37:49Z</time>
      </trkpt>
      <trkpt lat="48.01097" lon="7.13591">
        <ele>864.87023926</ele>
        <time>2021-06-16T13:37:50Z</time>
      </trkpt>
      <trkpt lat="48.01106" lon="7.13595">
        <ele>864.87023926</ele>
        <time>2021-06-16T13:37:51Z</time>
      </trkpt>
      <trkpt lat="48.01115" lon="7.13598">
        <ele>863.05834961</ele>
        <time>2021-06-16T13:37:52Z</time>
      </trkpt>
      <trkpt lat="48.01127" lon="7.13602">
        <ele>861.30474854</ele>
        <time>2021-06-16T13:37:54Z</time>
      </trkpt>
      <trkpt lat="48.01144" lon="7.13605">
        <ele>859.52600098</ele>
        <time>2021-06-16T13:37:56Z</time>
      </trkpt>
      <trkpt lat="48.0116" lon="7.13608">
        <ele>857.98010254</ele>
        <time>2021-06-16T13:37:58Z</time>
      </trkpt>
      <trkpt lat="48.01174" lon="7.13605">
        <ele>857.98010254</ele>
        <time>2021-06-16T13:37:59Z</time>
      </trkpt>
      <trkpt lat="48.01185" lon="7.13604">
        <ele>856.45111084</ele>
        <time>2021-06-16T13:38:00Z</time>
      </trkpt>
      <trkpt lat="48.01195" lon="7.13602">
        <ele>856.45111084</ele>
        <time>2021-06-16T13:38:01Z</time>
      </trkpt>
      <trkpt lat="48.01204" lon="7.13599">
        <ele>854.95697021</ele>
        <time>2021-06-16T13:38:02Z</time>
      </trkpt>
      <trkpt lat="48.01214" lon="7.13591">
        <ele>853.45819092</ele>
        <time>2021-06-16T13:38:04Z</time>
      </trkpt>
      <trkpt lat="48.01225" lon="7.13577">
        <ele>852.04260254</ele>
        <time>2021-06-16T13:38:06Z</time>
      </trkpt>
      <trkpt lat="48.01238" lon="7.13563">
        <ele>852.04260254</ele>
        <time>2021-06-16T13:38:07Z</time>
      </trkpt>
      <trkpt lat="48.01246" lon="7.13552">
        <ele>850.51092529</ele>
        <time>2021-06-16T13:38:08Z</time>
      </trkpt>
      <trkpt lat="48.01256" lon="7.13542">
        <ele>850.51092529</ele>
        <time>2021-06-16T13:38:09Z</time>
      </trkpt>
      <trkpt lat="48.01266" lon="7.1353">
        <ele>848.9152832</ele>
        <time>2021-06-16T13:38:10Z</time>
      </trkpt>
      <trkpt lat="48.01276" lon="7.13519">
        <ele>848.9152832</ele>
        <time>2021-06-16T13:38:11Z</time>
      </trkpt>
      <trkpt lat="48.01285" lon="7.13508">
        <ele>847.26483154</ele>
        <time>2021-06-16T13:38:12Z</time>
      </trkpt>
      <trkpt lat="48.01294" lon="7.13497">
        <ele>847.26483154</ele>
        <time>2021-06-16T13:38:13Z</time>
      </trkpt>
      <trkpt lat="48.013" lon="7.13486">
        <ele>845.49841309</ele>
        <time>2021-06-16T13:38:14Z</time>
      </trkpt>
      <trkpt lat="48.01308" lon="7.13475">
        <ele>845.49841309</ele>
        <time>2021-06-16T13:38:15Z</time>
      </trkpt>
      <trkpt lat="48.01325" lon="7.13457">
        <ele>843.20593262</ele>
        <time>2021-06-16T13:38:17Z</time>
      </trkpt>
      <trkpt lat="48.01335" lon="7.13442">
        <ele>841.98327637</ele>
        <time>2021-06-16T13:38:19Z</time>
      </trkpt>
      <trkpt lat="48.01345" lon="7.13428">
        <ele>840.32000732</ele>
        <time>2021-06-16T13:38:20Z</time>
      </trkpt>
      <trkpt lat="48.01353" lon="7.13418">
        <ele>840.32000732</ele>
        <time>2021-06-16T13:38:21Z</time>
      </trkpt>
      <trkpt lat="48.01361" lon="7.13407">
        <ele>838.54956055</ele>
        <time>2021-06-16T13:38:22Z</time>
      </trkpt>
      <trkpt lat="48.01369" lon="7.13397">
        <ele>838.54956055</ele>
        <time>2021-06-16T13:38:23Z</time>
      </trkpt>
      <trkpt lat="48.01377" lon="7.13387">
        <ele>836.82275391</ele>
        <time>2021-06-16T13:38:24Z</time>
      </trkpt>
      <trkpt lat="48.01383" lon="7.13374">
        <ele>836.82275391</ele>
        <time>2021-06-16T13:38:25Z</time>
      </trkpt>
      <trkpt lat="48.01388" lon="7.13362">
        <ele>835.1060791</ele>
        <time>2021-06-16T13:38:26Z</time>
      </trkpt>
      <trkpt lat="48.01394" lon="7.13351">
        <ele>835.1060791</ele>
        <time>2021-06-16T13:38:27Z</time>
      </trkpt>
      <trkpt lat="48.01402" lon="7.13336">
        <ele>833.48181152</ele>
        <time>2021-06-16T13:38:29Z</time>
      </trkpt>
      <trkpt lat="48.01411" lon="7.13317">
        <ele>831.83221436</ele>
        <time>2021-06-16T13:38:31Z</time>
      </trkpt>
      <trkpt lat="48.01418" lon="7.13298">
        <ele>830.16186523</ele>
        <time>2021-06-16T13:38:33Z</time>
      </trkpt>
      <trkpt lat="48.01426" lon="7.13282">
        <ele>828.46508789</ele>
        <time>2021-06-16T13:38:35Z</time>
      </trkpt>
      <trkpt lat="48.01435" lon="7.13271">
        <ele>826.79833984</ele>
        <time>2021-06-16T13:38:37Z</time>
      </trkpt>
      <trkpt lat="48.01445" lon="7.13259">
        <ele>825.02502441</ele>
        <time>2021-06-16T13:38:39Z</time>
      </trkpt>
      <trkpt lat="48.01456" lon="7.13248">
        <ele>823.37921143</ele>
        <time>2021-06-16T13:38:41Z</time>
      </trkpt>
      <trkpt lat="48.01466" lon="7.13239">
        <ele>821.78320312</ele>
        <time>2021-06-16T13:38:43Z</time>
      </trkpt>
      <trkpt lat="48.01478" lon="7.1323">
        <ele>820.37554932</ele>
        <time>2021-06-16T13:38:45Z</time>
      </trkpt>
      <trkpt lat="48.01494" lon="7.13219">
        <ele>819.03308105</ele>
        <time>2021-06-16T13:38:47Z</time>
      </trkpt>
      <trkpt lat="48.01509" lon="7.13215">
        <ele>817.62915039</ele>
        <time>2021-06-16T13:38:48Z</time>
      </trkpt>
      <trkpt lat="48.01521" lon="7.13211">
        <ele>816.42858887</ele>
        <time>2021-06-16T13:38:50Z</time>
      </trkpt>
      <trkpt lat="48.01535" lon="7.13209">
        <ele>816.42858887</ele>
        <time>2021-06-16T13:38:51Z</time>
      </trkpt>
      <trkpt lat="48.01545" lon="7.13206">
        <ele>815.17913818</ele>
        <time>2021-06-16T13:38:53Z</time>
      </trkpt>
      <trkpt lat="48.01556" lon="7.13199">
        <ele>815.17913818</ele>
        <time>2021-06-16T13:38:55Z</time>
      </trkpt>
      <trkpt lat="48.01573" lon="7.13188">
        <ele>813.6439209</ele>
        <time>2021-06-16T13:38:57Z</time>
      </trkpt>
      <trkpt lat="48.01588" lon="7.13178">
        <ele>812.13879395</ele>
        <time>2021-06-16T13:38:58Z</time>
      </trkpt>
      <trkpt lat="48.01611" lon="7.13165">
        <ele>810.74243164</ele>
        <time>2021-06-16T13:39:00Z</time>
      </trkpt>
      <trkpt lat="48.0162" lon="7.13157">
        <ele>809.3170166</ele>
        <time>2021-06-16T13:39:02Z</time>
      </trkpt>
      <trkpt lat="48.01636" lon="7.13151">
        <ele>807.859375</ele>
        <time>2021-06-16T13:39:04Z</time>
      </trkpt>
      <trkpt lat="48.01653" lon="7.13152">
        <ele>806.45068359</ele>
        <time>2021-06-16T13:39:06Z</time>
      </trkpt>
      <trkpt lat="48.01669" lon="7.13156">
        <ele>805.08074951</ele>
        <time>2021-06-16T13:39:08Z</time>
      </trkpt>
      <trkpt lat="48.01686" lon="7.13159">
        <ele>803.68432617</ele>
        <time>2021-06-16T13:39:10Z</time>
      </trkpt>
      <trkpt lat="48.01702" lon="7.13165">
        <ele>801.86181641</ele>
        <time>2021-06-16T13:39:12Z</time>
      </trkpt>
      <trkpt lat="48.0172" lon="7.13167">
        <ele>800.22735596</ele>
        <time>2021-06-16T13:39:14Z</time>
      </trkpt>
      <trkpt lat="48.01735" lon="7.13167">
        <ele>800.22735596</ele>
        <time>2021-06-16T13:39:15Z</time>
      </trkpt>
      <trkpt lat="48.01757" lon="7.13173">
        <ele>798.19732666</ele>
        <time>2021-06-16T13:39:17Z</time>
      </trkpt>
      <trkpt lat="48.01768" lon="7.13179">
        <ele>796.93823242</ele>
        <time>2021-06-16T13:39:19Z</time>
      </trkpt>
      <trkpt lat="48.01785" lon="7.13183">
        <ele>795.26159668</ele>
        <time>2021-06-16T13:39:21Z</time>
      </trkpt>
      <trkpt lat="48.01802" lon="7.13185">
        <ele>793.58343506</ele>
        <time>2021-06-16T13:39:23Z</time>
      </trkpt>
      <trkpt lat="48.01817" lon="7.13183">
        <ele>791.92443848</ele>
        <time>2021-06-16T13:39:25Z</time>
      </trkpt>
      <trkpt lat="48.0183" lon="7.13177">
        <ele>790.25384521</ele>
        <time>2021-06-16T13:39:26Z</time>
      </trkpt>
      <trkpt lat="48.01842" lon="7.13169">
        <ele>788.60632324</ele>
        <time>2021-06-16T13:39:28Z</time>
      </trkpt>
      <trkpt lat="48.01856" lon="7.13161">
        <ele>788.60632324</ele>
        <time>2021-06-16T13:39:29Z</time>
      </trkpt>
      <trkpt lat="48.0187" lon="7.13155">
        <ele>786.98095703</ele>
        <time>2021-06-16T13:39:30Z</time>
      </trkpt>
      <trkpt lat="48.01879" lon="7.13149">
        <ele>786.98095703</ele>
        <time>2021-06-16T13:39:31Z</time>
      </trkpt>
      <trkpt lat="48.01889" lon="7.13147">
        <ele>785.44055176</ele>
        <time>2021-06-16T13:39:32Z</time>
      </trkpt>
      <trkpt lat="48.01902" lon="7.13144">
        <ele>784.04437256</ele>
        <time>2021-06-16T13:39:34Z</time>
      </trkpt>
      <trkpt lat="48.01919" lon="7.13142">
        <ele>782.69287109</ele>
        <time>2021-06-16T13:39:36Z</time>
      </trkpt>
      <trkpt lat="48.01932" lon="7.13142">
        <ele>781.09777832</ele>
        <time>2021-06-16T13:39:38Z</time>
      </trkpt>
      <trkpt lat="48.01945" lon="7.13142">
        <ele>781.09777832</ele>
        <time>2021-06-16T13:39:39Z</time>
      </trkpt>
      <trkpt lat="48.01954" lon="7.13144">
        <ele>779.56994629</ele>
        <time>2021-06-16T13:39:41Z</time>
      </trkpt>
      <trkpt lat="48.01969" lon="7.13146">
        <ele>777.9598999</ele>
        <time>2021-06-16T13:39:43Z</time>
      </trkpt>
      <trkpt lat="48.01983" lon="7.13145">
        <ele>776.33117676</ele>
        <time>2021-06-16T13:39:44Z</time>
      </trkpt>
      <trkpt lat="48.01994" lon="7.13143">
        <ele>776.33117676</ele>
        <time>2021-06-16T13:39:45Z</time>
      </trkpt>
      <trkpt lat="48.02016" lon="7.13136">
        <ele>774.71289062</ele>
        <time>2021-06-16T13:39:47Z</time>
      </trkpt>
      <trkpt lat="48.02025" lon="7.1313">
        <ele>772.98168945</ele>
        <time>2021-06-16T13:39:48Z</time>
      </trkpt>
      <trkpt lat="48.02035" lon="7.13123">
        <ele>772.98168945</ele>
        <time>2021-06-16T13:39:49Z</time>
      </trkpt>
      <trkpt lat="48.02045" lon="7.13116">
        <ele>771.35968018</ele>
        <time>2021-06-16T13:39:50Z</time>
      </trkpt>
      <trkpt lat="48.02056" lon="7.13108">
        <ele>771.35968018</ele>
        <time>2021-06-16T13:39:51Z</time>
      </trkpt>
      <trkpt lat="48.02065" lon="7.13101">
        <ele>769.76306152</ele>
        <time>2021-06-16T13:39:52Z</time>
      </trkpt>
      <trkpt lat="48.02076" lon="7.13092">
        <ele>768.17272949</ele>
        <time>2021-06-16T13:39:54Z</time>
      </trkpt>
      <trkpt lat="48.0209" lon="7.13081">
        <ele>768.17272949</ele>
        <time>2021-06-16T13:39:55Z</time>
      </trkpt>
      <trkpt lat="48.02102" lon="7.13074">
        <ele>766.43017578</ele>
        <time>2021-06-16T13:39:57Z</time>
      </trkpt>
      <trkpt lat="48.02114" lon="7.13065">
        <ele>764.6505127</ele>
        <time>2021-06-16T13:39:58Z</time>
      </trkpt>
      <trkpt lat="48.02124" lon="7.13063">
        <ele>764.6505127</ele>
        <time>2021-06-16T13:39:59Z</time>
      </trkpt>
      <trkpt lat="48.02134" lon="7.13058">
        <ele>762.94592285</ele>
        <time>2021-06-16T13:40:01Z</time>
      </trkpt>
      <trkpt lat="48.02148" lon="7.13057">
        <ele>761.16040039</ele>
        <time>2021-06-16T13:40:02Z</time>
      </trkpt>
      <trkpt lat="48.02169" lon="7.13061">
        <ele>759.40283203</ele>
        <time>2021-06-16T13:40:04Z</time>
      </trkpt>
      <trkpt lat="48.02182" lon="7.13064">
        <ele>759.40283203</ele>
        <time>2021-06-16T13:40:05Z</time>
      </trkpt>
      <trkpt lat="48.02193" lon="7.13068">
        <ele>757.62792969</ele>
        <time>2021-06-16T13:40:06Z</time>
      </trkpt>
      <trkpt lat="48.02206" lon="7.13072">
        <ele>757.62792969</ele>
        <time>2021-06-16T13:40:07Z</time>
      </trkpt>
      <trkpt lat="48.02215" lon="7.1308">
        <ele>756.1270752</ele>
        <time>2021-06-16T13:40:08Z</time>
      </trkpt>
      <trkpt lat="48.02226" lon="7.1309">
        <ele>756.1270752</ele>
        <time>2021-06-16T13:40:09Z</time>
      </trkpt>
      <trkpt lat="48.0224" lon="7.13107">
        <ele>754.49145508</ele>
        <time>2021-06-16T13:40:10Z</time>
      </trkpt>
      <trkpt lat="48.02251" lon="7.13117">
        <ele>754.49145508</ele>
        <time>2021-06-16T13:40:11Z</time>
      </trkpt>
      <trkpt lat="48.02264" lon="7.13126">
        <ele>752.71362305</ele>
        <time>2021-06-16T13:40:12Z</time>
      </trkpt>
      <trkpt lat="48.02276" lon="7.13135">
        <ele>752.71362305</ele>
        <time>2021-06-16T13:40:13Z</time>
      </trkpt>
      <trkpt lat="48.02287" lon="7.13142">
        <ele>750.91424561</ele>
        <time>2021-06-16T13:40:14Z</time>
      </trkpt>
      <trkpt lat="48.02295" lon="7.13148">
        <ele>750.91424561</ele>
        <time>2021-06-16T13:40:15Z</time>
      </trkpt>
      <trkpt lat="48.02304" lon="7.13157">
        <ele>748.61560059</ele>
        <time>2021-06-16T13:40:17Z</time>
      </trkpt>
      <trkpt lat="48.02316" lon="7.13162">
        <ele>745.57733154</ele>
        <time>2021-06-16T13:40:20Z</time>
      </trkpt>
      <trkpt lat="48.02331" lon="7.13165">
        <ele>745.57733154</ele>
        <time>2021-06-16T13:40:21Z</time>
      </trkpt>
      <trkpt lat="48.02346" lon="7.13165">
        <ele>743.90588379</ele>
        <time>2021-06-16T13:40:22Z</time>
      </trkpt>
      <trkpt lat="48.0236" lon="7.13162">
        <ele>742.0715332</ele>
        <time>2021-06-16T13:40:24Z</time>
      </trkpt>
      <trkpt lat="48.02379" lon="7.13161">
        <ele>740.2545166</ele>
        <time>2021-06-16T13:40:26Z</time>
      </trkpt>
      <trkpt lat="48.02393" lon="7.13158">
        <ele>740.2545166</ele>
        <time>2021-06-16T13:40:27Z</time>
      </trkpt>
      <trkpt lat="48.02413" lon="7.13156">
        <ele>738.47137451</ele>
        <time>2021-06-16T13:40:28Z</time>
      </trkpt>
      <trkpt lat="48.02426" lon="7.13156">
        <ele>736.58081055</ele>
        <time>2021-06-16T13:40:30Z</time>
      </trkpt>
      <trkpt lat="48.02443" lon="7.13156">
        <ele>736.58081055</ele>
        <time>2021-06-16T13:40:31Z</time>
      </trkpt>
      <trkpt lat="48.02456" lon="7.13156">
        <ele>732.98303223</ele>
        <time>2021-06-16T13:40:34Z</time>
      </trkpt>
      <trkpt lat="48.0247" lon="7.13159">
        <ele>732.98303223</ele>
        <time>2021-06-16T13:40:35Z</time>
      </trkpt>
      <trkpt lat="48.02486" lon="7.13161">
        <ele>731.31500244</ele>
        <time>2021-06-16T13:40:37Z</time>
      </trkpt>
      <trkpt lat="48.02502" lon="7.13159">
        <ele>729.67553711</ele>
        <time>2021-06-16T13:40:39Z</time>
      </trkpt>
      <trkpt lat="48.02516" lon="7.13157">
        <ele>728.20275879</ele>
        <time>2021-06-16T13:40:40Z</time>
      </trkpt>
      <trkpt lat="48.02526" lon="7.13157">
        <ele>726.94116211</ele>
        <time>2021-06-16T13:40:42Z</time>
      </trkpt>
      <trkpt lat="48.02536" lon="7.13161">
        <ele>725.72509766</ele>
        <time>2021-06-16T13:40:45Z</time>
      </trkpt>
      <trkpt lat="48.02545" lon="7.13176">
        <ele>723.19177246</ele>
        <time>2021-06-16T13:40:49Z</time>
      </trkpt>
      <trkpt lat="48.02559" lon="7.1319">
        <ele>721.93408203</ele>
        <time>2021-06-16T13:40:50Z</time>
      </trkpt>
      <trkpt lat="48.02576" lon="7.13198">
        <ele>721.93408203</ele>
        <time>2021-06-16T13:40:51Z</time>
      </trkpt>
      <trkpt lat="48.02591" lon="7.13203">
        <ele>720.60369873</ele>
        <time>2021-06-16T13:40:52Z</time>
      </trkpt>
      <trkpt lat="48.026" lon="7.13217">
        <ele>719.45166016</ele>
        <time>2021-06-16T13:40:55Z</time>
      </trkpt>
      <trkpt lat="48.02625" lon="7.13233">
        <ele>718.2409668</ele>
        <time>2021-06-16T13:40:56Z</time>
      </trkpt>
      <trkpt lat="48.02647" lon="7.13249">
        <ele>718.2409668</ele>
        <time>2021-06-16T13:40:57Z</time>
      </trkpt>
      <trkpt lat="48.02654" lon="7.13261">
        <ele>716.96606445</ele>
        <time>2021-06-16T13:40:58Z</time>
      </trkpt>
      <trkpt lat="48.02658" lon="7.13275">
        <ele>716.96606445</ele>
        <time>2021-06-16T13:40:59Z</time>
      </trkpt>
      <trkpt lat="48.0266" lon="7.13289">
        <ele>715.63360596</ele>
        <time>2021-06-16T13:41:00Z</time>
      </trkpt>
      <trkpt lat="48.02665" lon="7.13305">
        <ele>714.36279297</ele>
        <time>2021-06-16T13:41:02Z</time>
      </trkpt>
      <trkpt lat="48.02665" lon="7.13328">
        <ele>712.94476318</ele>
        <time>2021-06-16T13:41:05Z</time>
      </trkpt>
      <trkpt lat="48.02666" lon="7.13348">
        <ele>711.59533691</ele>
        <time>2021-06-16T13:41:06Z</time>
      </trkpt>
      <trkpt lat="48.02669" lon="7.13364">
        <ele>710.48388672</ele>
        <time>2021-06-16T13:41:09Z</time>
      </trkpt>
      <trkpt lat="48.02678" lon="7.13363">
        <ele>708.27478027</ele>
        <time>2021-06-16T13:41:12Z</time>
      </trkpt>
      <trkpt lat="48.02688" lon="7.13342">
        <ele>708.27478027</ele>
        <time>2021-06-16T13:41:14Z</time>
      </trkpt>
      <trkpt lat="48.02688" lon="7.1332">
        <ele>707.13977051</ele>
        <time>2021-06-16T13:41:15Z</time>
      </trkpt>
      <trkpt lat="48.02684" lon="7.13303">
        <ele>706.37091064</ele>
        <time>2021-06-16T13:41:17Z</time>
      </trkpt>
      <trkpt lat="48.02682" lon="7.1328">
        <ele>705.36633301</ele>
        <time>2021-06-16T13:41:19Z</time>
      </trkpt>
      <trkpt lat="48.02681" lon="7.13254">
        <ele>704.05773926</ele>
        <time>2021-06-16T13:41:21Z</time>
      </trkpt>
      <trkpt lat="48.02677" lon="7.13232">
        <ele>704.05773926</ele>
        <time>2021-06-16T13:41:22Z</time>
      </trkpt>
      <trkpt lat="48.02671" lon="7.13204">
        <ele>704.05773926</ele>
        <time>2021-06-16T13:41:24Z</time>
      </trkpt>
      <trkpt lat="48.02667" lon="7.13189">
        <ele>701.71606445</ele>
        <time>2021-06-16T13:41:25Z</time>
      </trkpt>
      <trkpt lat="48.02661" lon="7.13176">
        <ele>701.71606445</ele>
        <time>2021-06-16T13:41:26Z</time>
      </trkpt>
      <trkpt lat="48.02659" lon="7.13162">
        <ele>700.30712891</ele>
        <time>2021-06-16T13:41:27Z</time>
      </trkpt>
      <trkpt lat="48.02657" lon="7.13148">
        <ele>700.30712891</ele>
        <time>2021-06-16T13:41:28Z</time>
      </trkpt>
      <trkpt lat="48.02651" lon="7.1313">
        <ele>698.92810059</ele>
        <time>2021-06-16T13:41:30Z</time>
      </trkpt>
      <trkpt lat="48.02646" lon="7.13111">
        <ele>697.55340576</ele>
        <time>2021-06-16T13:41:31Z</time>
      </trkpt>
      <trkpt lat="48.02641" lon="7.13099">
        <ele>697.55340576</ele>
        <time>2021-06-16T13:41:32Z</time>
      </trkpt>
      <trkpt lat="48.02636" lon="7.13087">
        <ele>696.01025391</ele>
        <time>2021-06-16T13:41:33Z</time>
      </trkpt>
      <trkpt lat="48.02631" lon="7.13074">
        <ele>696.01025391</ele>
        <time>2021-06-16T13:41:34Z</time>
      </trkpt>
      <trkpt lat="48.02625" lon="7.13062">
        <ele>694.31079102</ele>
        <time>2021-06-16T13:41:36Z</time>
      </trkpt>
      <trkpt lat="48.02617" lon="7.13049">
        <ele>692.73803711</ele>
        <time>2021-06-16T13:41:37Z</time>
      </trkpt>
      <trkpt lat="48.02602" lon="7.13037">
        <ele>691.20227051</ele>
        <time>2021-06-16T13:41:39Z</time>
      </trkpt>
      <trkpt lat="48.02586" lon="7.1303">
        <ele>689.59399414</ele>
        <time>2021-06-16T13:41:41Z</time>
      </trkpt>
      <trkpt lat="48.02571" lon="7.13028">
        <ele>689.59399414</ele>
        <time>2021-06-16T13:41:42Z</time>
      </trkpt>
      <trkpt lat="48.0256" lon="7.13028">
        <ele>688.18774414</ele>
        <time>2021-06-16T13:41:43Z</time>
      </trkpt>
      <trkpt lat="48.02551" lon="7.13024">
        <ele>688.18774414</ele>
        <time>2021-06-16T13:41:44Z</time>
      </trkpt>
      <trkpt lat="48.02539" lon="7.13016">
        <ele>686.5690918</ele>
        <time>2021-06-16T13:41:45Z</time>
      </trkpt>
      <trkpt lat="48.02527" lon="7.1301">
        <ele>686.5690918</ele>
        <time>2021-06-16T13:41:46Z</time>
      </trkpt>
      <trkpt lat="48.02518" lon="7.13001">
        <ele>684.85888672</ele>
        <time>2021-06-16T13:41:47Z</time>
      </trkpt>
      <trkpt lat="48.02507" lon="7.12992">
        <ele>684.85888672</ele>
        <time>2021-06-16T13:41:48Z</time>
      </trkpt>
      <trkpt lat="48.02497" lon="7.12984">
        <ele>683.09716797</ele>
        <time>2021-06-16T13:41:49Z</time>
      </trkpt>
      <trkpt lat="48.02486" lon="7.12976">
        <ele>681.57470703</ele>
        <time>2021-06-16T13:41:50Z</time>
      </trkpt>
      <trkpt lat="48.02474" lon="7.12968">
        <ele>681.57470703</ele>
        <time>2021-06-16T13:41:51Z</time>
      </trkpt>
      <trkpt lat="48.02464" lon="7.1296">
        <ele>680.14782715</ele>
        <time>2021-06-16T13:41:52Z</time>
      </trkpt>
      <trkpt lat="48.02453" lon="7.12952">
        <ele>678.24780273</ele>
        <time>2021-06-16T13:41:54Z</time>
      </trkpt>
      <trkpt lat="48.02427" lon="7.12936">
        <ele>676.66589355</ele>
        <time>2021-06-16T13:41:55Z</time>
      </trkpt>
      <trkpt lat="48.02416" lon="7.12928">
        <ele>676.66589355</ele>
        <time>2021-06-16T13:41:56Z</time>
      </trkpt>
      <trkpt lat="48.02408" lon="7.12922">
        <ele>675.23803711</ele>
        <time>2021-06-16T13:41:57Z</time>
      </trkpt>
      <trkpt lat="48.02398" lon="7.12916">
        <ele>675.23803711</ele>
        <time>2021-06-16T13:41:58Z</time>
      </trkpt>
      <trkpt lat="48.0238" lon="7.12904">
        <ele>673.35400391</ele>
        <time>2021-06-16T13:42:00Z</time>
      </trkpt>
      <trkpt lat="48.02369" lon="7.12893">
        <ele>671.47851562</ele>
        <time>2021-06-16T13:42:02Z</time>
      </trkpt>
      <trkpt lat="48.02356" lon="7.12881">
        <ele>669.74194336</ele>
        <time>2021-06-16T13:42:03Z</time>
      </trkpt>
      <trkpt lat="48.02348" lon="7.12873">
        <ele>668.04626465</ele>
        <time>2021-06-16T13:42:05Z</time>
      </trkpt>
      <trkpt lat="48.02337" lon="7.12863">
        <ele>668.04626465</ele>
        <time>2021-06-16T13:42:06Z</time>
      </trkpt>
      <trkpt lat="48.02324" lon="7.12851">
        <ele>666.24023438</ele>
        <time>2021-06-16T13:42:07Z</time>
      </trkpt>
      <trkpt lat="48.02315" lon="7.12844">
        <ele>664.73339844</ele>
        <time>2021-06-16T13:42:08Z</time>
      </trkpt>
      <trkpt lat="48.02306" lon="7.12836">
        <ele>663.30236816</ele>
        <time>2021-06-16T13:42:10Z</time>
      </trkpt>
      <trkpt lat="48.02297" lon="7.12826">
        <ele>660.04431152</ele>
        <time>2021-06-16T13:42:14Z</time>
      </trkpt>
      <trkpt lat="48.02292" lon="7.12815">
        <ele>658.33532715</ele>
        <time>2021-06-16T13:42:17Z</time>
      </trkpt>
      <trkpt lat="48.02296" lon="7.12806">
        <ele>656.25958252</ele>
        <time>2021-06-16T13:42:20Z</time>
      </trkpt>
      <trkpt lat="48.02309" lon="7.12818">
        <ele>654.93713379</ele>
        <time>2021-06-16T13:42:22Z</time>
      </trkpt>
      <trkpt lat="48.02317" lon="7.12828">
        <ele>653.61383057</ele>
        <time>2021-06-16T13:42:24Z</time>
      </trkpt>
      <trkpt lat="48.02325" lon="7.12835">
        <ele>652.29498291</ele>
        <time>2021-06-16T13:42:26Z</time>
      </trkpt>
      <trkpt lat="48.02338" lon="7.12839">
        <ele>650.96264648</ele>
        <time>2021-06-16T13:42:28Z</time>
      </trkpt>
      <trkpt lat="48.02352" lon="7.12838">
        <ele>649.7434082</ele>
        <time>2021-06-16T13:42:30Z</time>
      </trkpt>
      <trkpt lat="48.02362" lon="7.12836">
        <ele>648.43200684</ele>
        <time>2021-06-16T13:42:32Z</time>
      </trkpt>
      <trkpt lat="48.02372" lon="7.12833">
        <ele>647.15283203</ele>
        <time>2021-06-16T13:42:35Z</time>
      </trkpt>
      <trkpt lat="48.02387" lon="7.1283">
        <ele>645.84576416</ele>
        <time>2021-06-16T13:42:36Z</time>
      </trkpt>
      <trkpt lat="48.02399" lon="7.12828">
        <ele>644.3001709</ele>
        <time>2021-06-16T13:42:38Z</time>
      </trkpt>
      <trkpt lat="48.02416" lon="7.12825">
        <ele>642.79602051</ele>
        <time>2021-06-16T13:42:40Z</time>
      </trkpt>
      <trkpt lat="48.0243" lon="7.12828">
        <ele>641.1260376</ele>
        <time>2021-06-16T13:42:42Z</time>
      </trkpt>
      <trkpt lat="48.02444" lon="7.12834">
        <ele>639.6151123</ele>
        <time>2021-06-16T13:42:44Z</time>
      </trkpt>
      <trkpt lat="48.02461" lon="7.12835">
        <ele>637.93786621</ele>
        <time>2021-06-16T13:42:46Z</time>
      </trkpt>
      <trkpt lat="48.0248" lon="7.12833">
        <ele>636.35205078</ele>
        <time>2021-06-16T13:42:48Z</time>
      </trkpt>
      <trkpt lat="48.02501" lon="7.12826">
        <ele>636.35205078</ele>
        <time>2021-06-16T13:42:49Z</time>
      </trkpt>
      <trkpt lat="48.02515" lon="7.1282">
        <ele>634.84533691</ele>
        <time>2021-06-16T13:42:50Z</time>
      </trkpt>
      <trkpt lat="48.02523" lon="7.12811">
        <ele>634.84533691</ele>
        <time>2021-06-16T13:42:51Z</time>
      </trkpt>
      <trkpt lat="48.02538" lon="7.12801">
        <ele>633.2578125</ele>
        <time>2021-06-16T13:42:52Z</time>
      </trkpt>
      <trkpt lat="48.02561" lon="7.12779">
        <ele>631.39562988</ele>
        <time>2021-06-16T13:42:54Z</time>
      </trkpt>
      <trkpt lat="48.0257" lon="7.12772">
        <ele>631.39562988</ele>
        <time>2021-06-16T13:42:55Z</time>
      </trkpt>
      <trkpt lat="48.0258" lon="7.12762">
        <ele>629.62109375</ele>
        <time>2021-06-16T13:42:56Z</time>
      </trkpt>
      <trkpt lat="48.02589" lon="7.1275">
        <ele>627.88641357</ele>
        <time>2021-06-16T13:42:58Z</time>
      </trkpt>
      <trkpt lat="48.02604" lon="7.12735">
        <ele>626.0300293</ele>
        <time>2021-06-16T13:43:00Z</time>
      </trkpt>
      <trkpt lat="48.02617" lon="7.12722">
        <ele>624.16241455</ele>
        <time>2021-06-16T13:43:02Z</time>
      </trkpt>
      <trkpt lat="48.02632" lon="7.12711">
        <ele>622.40112305</ele>
        <time>2021-06-16T13:43:04Z</time>
      </trkpt>
      <trkpt lat="48.02649" lon="7.12703">
        <ele>620.52941895</ele>
        <time>2021-06-16T13:43:06Z</time>
      </trkpt>
      <trkpt lat="48.02665" lon="7.12696">
        <ele>617.85894775</ele>
        <time>2021-06-16T13:43:08Z</time>
      </trkpt>
      <trkpt lat="48.02681" lon="7.1269">
        <ele>616.81921387</ele>
        <time>2021-06-16T13:43:10Z</time>
      </trkpt>
      <trkpt lat="48.02696" lon="7.12691">
        <ele>615.35998535</ele>
        <time>2021-06-16T13:43:11Z</time>
      </trkpt>
      <trkpt lat="48.02707" lon="7.1269">
        <ele>613.76104736</ele>
        <time>2021-06-16T13:43:13Z</time>
      </trkpt>
      <trkpt lat="48.02722" lon="7.12688">
        <ele>612.34887695</ele>
        <time>2021-06-16T13:43:15Z</time>
      </trkpt>
      <trkpt lat="48.0279" lon="7.12695">
        <ele>608.93151855</ele>
        <time>2021-06-16T13:43:17Z</time>
      </trkpt>
      <trkpt lat="48.02801" lon="7.12699">
        <ele>607.51062012</ele>
        <time>2021-06-16T13:43:19Z</time>
      </trkpt>
      <trkpt lat="48.02818" lon="7.12701">
        <ele>606.02490234</ele>
        <time>2021-06-16T13:43:20Z</time>
      </trkpt>
      <trkpt lat="48.02828" lon="7.12702">
        <ele>606.02490234</ele>
        <time>2021-06-16T13:43:21Z</time>
      </trkpt>
      <trkpt lat="48.0284" lon="7.12704">
        <ele>602.80926514</ele>
        <time>2021-06-16T13:43:24Z</time>
      </trkpt>
      <trkpt lat="48.02865" lon="7.12705">
        <ele>602.80926514</ele>
        <time>2021-06-16T13:43:25Z</time>
      </trkpt>
      <trkpt lat="48.02887" lon="7.12707">
        <ele>601.2253418</ele>
        <time>2021-06-16T13:43:26Z</time>
      </trkpt>
      <trkpt lat="48.02898" lon="7.12706">
        <ele>599.83007812</ele>
        <time>2021-06-16T13:43:28Z</time>
      </trkpt>
      <trkpt lat="48.02915" lon="7.12702">
        <ele>598.45874023</ele>
        <time>2021-06-16T13:43:30Z</time>
      </trkpt>
      <trkpt lat="48.02927" lon="7.12693">
        <ele>596.98095703</ele>
        <time>2021-06-16T13:43:32Z</time>
      </trkpt>
      <trkpt lat="48.02938" lon="7.12679">
        <ele>595.53009033</ele>
        <time>2021-06-16T13:43:34Z</time>
      </trkpt>
      <trkpt lat="48.02947" lon="7.12665">
        <ele>595.53009033</ele>
        <time>2021-06-16T13:43:35Z</time>
      </trkpt>
      <trkpt lat="48.02954" lon="7.12654">
        <ele>594.08392334</ele>
        <time>2021-06-16T13:43:36Z</time>
      </trkpt>
      <trkpt lat="48.02961" lon="7.12641">
        <ele>594.08392334</ele>
        <time>2021-06-16T13:43:37Z</time>
      </trkpt>
      <trkpt lat="48.02965" lon="7.12625">
        <ele>592.44311523</ele>
        <time>2021-06-16T13:43:38Z</time>
      </trkpt>
      <trkpt lat="48.02967" lon="7.12611">
        <ele>592.44311523</ele>
        <time>2021-06-16T13:43:39Z</time>
      </trkpt>
      <trkpt lat="48.02972" lon="7.12598">
        <ele>590.69128418</ele>
        <time>2021-06-16T13:43:40Z</time>
      </trkpt>
      <trkpt lat="48.02976" lon="7.12584">
        <ele>590.69128418</ele>
        <time>2021-06-16T13:43:41Z</time>
      </trkpt>
      <trkpt lat="48.02977" lon="7.12562">
        <ele>589.03662109</ele>
        <time>2021-06-16T13:43:42Z</time>
      </trkpt>
      <trkpt lat="48.02976" lon="7.1254">
        <ele>589.03662109</ele>
        <time>2021-06-16T13:43:43Z</time>
      </trkpt>
      <trkpt lat="48.02977" lon="7.12523">
        <ele>587.47241211</ele>
        <time>2021-06-16T13:43:44Z</time>
      </trkpt>
      <trkpt lat="48.02981" lon="7.12507">
        <ele>586.03930664</ele>
        <time>2021-06-16T13:43:46Z</time>
      </trkpt>
      <trkpt lat="48.02984" lon="7.12484">
        <ele>584.64849854</ele>
        <time>2021-06-16T13:43:48Z</time>
      </trkpt>
      <trkpt lat="48.02985" lon="7.12459">
        <ele>584.64849854</ele>
        <time>2021-06-16T13:43:49Z</time>
      </trkpt>
      <trkpt lat="48.02981" lon="7.12441">
        <ele>583.28314209</ele>
        <time>2021-06-16T13:43:51Z</time>
      </trkpt>
      <trkpt lat="48.02974" lon="7.12424">
        <ele>582.06072998</ele>
        <time>2021-06-16T13:43:53Z</time>
      </trkpt>
      <trkpt lat="48.02961" lon="7.12411">
        <ele>582.06072998</ele>
        <time>2021-06-16T13:43:55Z</time>
      </trkpt>
      <trkpt lat="48.02948" lon="7.12403">
        <ele>579.77532959</ele>
        <time>2021-06-16T13:43:57Z</time>
      </trkpt>
      <trkpt lat="48.02946" lon="7.12392">
        <ele>577.50421143</ele>
        <time>2021-06-16T13:44:02Z</time>
      </trkpt>
      <trkpt lat="48.02959" lon="7.12404">
        <ele>576.39093018</ele>
        <time>2021-06-16T13:44:04Z</time>
      </trkpt>
      <trkpt lat="48.02963" lon="7.12421">
        <ele>575.24627686</ele>
        <time>2021-06-16T13:44:06Z</time>
      </trkpt>
      <trkpt lat="48.02967" lon="7.12441">
        <ele>575.24627686</ele>
        <time>2021-06-16T13:44:08Z</time>
      </trkpt>
      <trkpt lat="48.02969" lon="7.12458">
        <ele>574.07092285</ele>
        <time>2021-06-16T13:44:10Z</time>
      </trkpt>
      <trkpt lat="48.0297" lon="7.12471">
        <ele>572.99243164</ele>
        <time>2021-06-16T13:44:13Z</time>
      </trkpt>
      <trkpt lat="48.02974" lon="7.12497">
        <ele>571.02630615</ele>
        <time>2021-06-16T13:44:17Z</time>
      </trkpt>
      <trkpt lat="48.02974" lon="7.12513">
        <ele>570.26043701</ele>
        <time>2021-06-16T13:44:19Z</time>
      </trkpt>
      <trkpt lat="48.02976" lon="7.12532">
        <ele>569.09173584</ele>
        <time>2021-06-16T13:44:21Z</time>
      </trkpt>
      <trkpt lat="48.02987" lon="7.12578">
        <ele>569.09173584</ele>
        <time>2021-06-16T13:44:24Z</time>
      </trkpt>
      <trkpt lat="48.02988" lon="7.12596">
        <ele>566.39550781</ele>
        <time>2021-06-16T13:44:26Z</time>
      </trkpt>
      <trkpt lat="48.02994" lon="7.12614">
        <ele>565.06921387</ele>
        <time>2021-06-16T13:44:27Z</time>
      </trkpt>
      <trkpt lat="48.02995" lon="7.12631">
        <ele>563.78344727</ele>
        <time>2021-06-16T13:44:29Z</time>
      </trkpt>
      <trkpt lat="48.02994" lon="7.12654">
        <ele>563.78344727</ele>
        <time>2021-06-16T13:44:31Z</time>
      </trkpt>
      <trkpt lat="48.0299" lon="7.12676">
        <ele>562.52807617</ele>
        <time>2021-06-16T13:44:33Z</time>
      </trkpt>
      <trkpt lat="48.02982" lon="7.12693">
        <ele>561.11621094</ele>
        <time>2021-06-16T13:44:34Z</time>
      </trkpt>
      <trkpt lat="48.02977" lon="7.12711">
        <ele>559.90600586</ele>
        <time>2021-06-16T13:44:36Z</time>
      </trkpt>
      <trkpt lat="48.02967" lon="7.12729">
        <ele>559.90600586</ele>
        <time>2021-06-16T13:44:37Z</time>
      </trkpt>
      <trkpt lat="48.02962" lon="7.12743">
        <ele>558.63098145</ele>
        <time>2021-06-16T13:44:39Z</time>
      </trkpt>
      <trkpt lat="48.02962" lon="7.12761">
        <ele>557.18389893</ele>
        <time>2021-06-16T13:44:41Z</time>
      </trkpt>
      <trkpt lat="48.02967" lon="7.12777">
        <ele>555.96887207</ele>
        <time>2021-06-16T13:44:43Z</time>
      </trkpt>
      <trkpt lat="48.02977" lon="7.1278">
        <ele>554.90563965</ele>
        <time>2021-06-16T13:44:45Z</time>
      </trkpt>
      <trkpt lat="48.02992" lon="7.12775">
        <ele>553.737854</ele>
        <time>2021-06-16T13:44:46Z</time>
      </trkpt>
      <trkpt lat="48.03" lon="7.1277">
        <ele>553.737854</ele>
        <time>2021-06-16T13:44:47Z</time>
      </trkpt>
      <trkpt lat="48.0301" lon="7.12762">
        <ele>552.38671875</ele>
        <time>2021-06-16T13:44:48Z</time>
      </trkpt>
      <trkpt lat="48.03017" lon="7.1275">
        <ele>552.38671875</ele>
        <time>2021-06-16T13:44:49Z</time>
      </trkpt>
      <trkpt lat="48.03022" lon="7.12738">
        <ele>551.14245605</ele>
        <time>2021-06-16T13:44:50Z</time>
      </trkpt>
      <trkpt lat="48.03026" lon="7.12726">
        <ele>551.14245605</ele>
        <time>2021-06-16T13:44:51Z</time>
      </trkpt>
      <trkpt lat="48.03032" lon="7.12713">
        <ele>549.89770508</ele>
        <time>2021-06-16T13:44:52Z</time>
      </trkpt>
      <trkpt lat="48.03036" lon="7.12697">
        <ele>549.89770508</ele>
        <time>2021-06-16T13:44:53Z</time>
      </trkpt>
      <trkpt lat="48.0304" lon="7.12686">
        <ele>548.36169434</ele>
        <time>2021-06-16T13:44:54Z</time>
      </trkpt>
      <trkpt lat="48.03045" lon="7.12668">
        <ele>546.80822754</ele>
        <time>2021-06-16T13:44:56Z</time>
      </trkpt>
      <trkpt lat="48.03051" lon="7.12646">
        <ele>545.22790527</ele>
        <time>2021-06-16T13:44:58Z</time>
      </trkpt>
      <trkpt lat="48.03055" lon="7.12622">
        <ele>543.71618652</ele>
        <time>2021-06-16T13:45:00Z</time>
      </trkpt>
      <trkpt lat="48.03054" lon="7.12599">
        <ele>543.71618652</ele>
        <time>2021-06-16T13:45:01Z</time>
      </trkpt>
      <trkpt lat="48.03054" lon="7.12583">
        <ele>542.03143311</ele>
        <time>2021-06-16T13:45:02Z</time>
      </trkpt>
      <trkpt lat="48.03056" lon="7.12567">
        <ele>542.03143311</ele>
        <time>2021-06-16T13:45:03Z</time>
      </trkpt>
      <trkpt lat="48.03059" lon="7.12551">
        <ele>540.27099609</ele>
        <time>2021-06-16T13:45:04Z</time>
      </trkpt>
      <trkpt lat="48.03061" lon="7.12533">
        <ele>540.27099609</ele>
        <time>2021-06-16T13:45:05Z</time>
      </trkpt>
      <trkpt lat="48.03061" lon="7.12516">
        <ele>538.3145752</ele>
        <time>2021-06-16T13:45:06Z</time>
      </trkpt>
      <trkpt lat="48.03062" lon="7.12499">
        <ele>536.52557373</ele>
        <time>2021-06-16T13:45:07Z</time>
      </trkpt>
      <trkpt lat="48.03063" lon="7.12482">
        <ele>535.27801514</ele>
        <time>2021-06-16T13:45:08Z</time>
      </trkpt>
      <trkpt lat="48.03066" lon="7.12464">
        <ele>534.04119873</ele>
        <time>2021-06-16T13:45:09Z</time>
      </trkpt>
      <trkpt lat="48.03067" lon="7.12448">
        <ele>532.88818359</ele>
        <time>2021-06-16T13:45:10Z</time>
      </trkpt>
      <trkpt lat="48.03067" lon="7.12434">
        <ele>531.83056641</ele>
        <time>2021-06-16T13:45:11Z</time>
      </trkpt>
      <trkpt lat="48.03065" lon="7.1242">
        <ele>530.71539307</ele>
        <time>2021-06-16T13:45:12Z</time>
      </trkpt>
      <trkpt lat="48.03068" lon="7.12401">
        <ele>528.58532715</ele>
        <time>2021-06-16T13:45:14Z</time>
      </trkpt>
      <trkpt lat="48.03075" lon="7.12367">
        <ele>525.43005371</ele>
        <time>2021-06-16T13:45:17Z</time>
      </trkpt>
      <trkpt lat="48.03076" lon="7.12346">
        <ele>524.14099121</ele>
        <time>2021-06-16T13:45:19Z</time>
      </trkpt>
      <trkpt lat="48.03074" lon="7.12325">
        <ele>522.46899414</ele>
        <time>2021-06-16T13:45:21Z</time>
      </trkpt>
      <trkpt lat="48.0307" lon="7.12302">
        <ele>520.74987793</ele>
        <time>2021-06-16T13:45:23Z</time>
      </trkpt>
      <trkpt lat="48.03066" lon="7.12278">
        <ele>519.16906738</ele>
        <time>2021-06-16T13:45:25Z</time>
      </trkpt>
      <trkpt lat="48.03061" lon="7.12259">
        <ele>519.16906738</ele>
        <time>2021-06-16T13:45:26Z</time>
      </trkpt>
      <trkpt lat="48.03058" lon="7.12245">
        <ele>517.44396973</ele>
        <time>2021-06-16T13:45:27Z</time>
      </trkpt>
      <trkpt lat="48.03056" lon="7.12228">
        <ele>517.44396973</ele>
        <time>2021-06-16T13:45:28Z</time>
      </trkpt>
      <trkpt lat="48.03053" lon="7.12212">
        <ele>515.71673584</ele>
        <time>2021-06-16T13:45:30Z</time>
      </trkpt>
      <trkpt lat="48.03051" lon="7.12193">
        <ele>514.05615234</ele>
        <time>2021-06-16T13:45:31Z</time>
      </trkpt>
      <trkpt lat="48.03048" lon="7.12169">
        <ele>512.51623535</ele>
        <time>2021-06-16T13:45:33Z</time>
      </trkpt>
      <trkpt lat="48.03042" lon="7.12148">
        <ele>511.04208374</ele>
        <time>2021-06-16T13:45:35Z</time>
      </trkpt>
      <trkpt lat="48.03034" lon="7.12132">
        <ele>509.85281372</ele>
        <time>2021-06-16T13:45:37Z</time>
      </trkpt>
      <trkpt lat="48.03025" lon="7.1212">
        <ele>508.78063965</ele>
        <time>2021-06-16T13:45:39Z</time>
      </trkpt>
      <trkpt lat="48.03012" lon="7.12106">
        <ele>507.65344238</ele>
        <time>2021-06-16T13:45:41Z</time>
      </trkpt>
      <trkpt lat="48.02998" lon="7.12092">
        <ele>507.65344238</ele>
        <time>2021-06-16T13:45:43Z</time>
      </trkpt>
      <trkpt lat="48.02986" lon="7.12076">
        <ele>506.39257812</ele>
        <time>2021-06-16T13:45:45Z</time>
      </trkpt>
      <trkpt lat="48.02975" lon="7.12061">
        <ele>504.99752808</ele>
        <time>2021-06-16T13:45:47Z</time>
      </trkpt>
      <trkpt lat="48.02962" lon="7.12046">
        <ele>503.49707031</ele>
        <time>2021-06-16T13:45:49Z</time>
      </trkpt>
      <trkpt lat="48.02945" lon="7.12039">
        <ele>502.24822998</ele>
        <time>2021-06-16T13:45:51Z</time>
      </trkpt>
      <trkpt lat="48.02931" lon="7.12036">
        <ele>501.17617798</ele>
        <time>2021-06-16T13:45:54Z</time>
      </trkpt>
      <trkpt lat="48.02916" lon="7.12043">
        <ele>501.17617798</ele>
        <time>2021-06-16T13:45:55Z</time>
      </trkpt>
      <trkpt lat="48.02903" lon="7.1205">
        <ele>500.02755737</ele>
        <time>2021-06-16T13:45:57Z</time>
      </trkpt>
      <trkpt lat="48.02892" lon="7.12055">
        <ele>498.80691528</ele>
        <time>2021-06-16T13:46:00Z</time>
      </trkpt>
      <trkpt lat="48.02891" lon="7.12045">
        <ele>497.4083252</ele>
        <time>2021-06-16T13:46:03Z</time>
      </trkpt>
      <trkpt lat="48.029" lon="7.1203">
        <ele>495.88134766</ele>
        <time>2021-06-16T13:46:05Z</time>
      </trkpt>
      <trkpt lat="48.0291" lon="7.12019">
        <ele>494.49688721</ele>
        <time>2021-06-16T13:46:07Z</time>
      </trkpt>
      <trkpt lat="48.02922" lon="7.1201">
        <ele>493.16424561</ele>
        <time>2021-06-16T13:46:09Z</time>
      </trkpt>
      <trkpt lat="48.02932" lon="7.12004">
        <ele>491.87182617</ele>
        <time>2021-06-16T13:46:11Z</time>
      </trkpt>
      <trkpt lat="48.02942" lon="7.12">
        <ele>490.48236084</ele>
        <time>2021-06-16T13:46:13Z</time>
      </trkpt>
      <trkpt lat="48.02954" lon="7.12002">
        <ele>489.08776855</ele>
        <time>2021-06-16T13:46:15Z</time>
      </trkpt>
      <trkpt lat="48.02968" lon="7.12001">
        <ele>487.93395996</ele>
        <time>2021-06-16T13:46:17Z</time>
      </trkpt>
      <trkpt lat="48.02982" lon="7.11999">
        <ele>486.82513428</ele>
        <time>2021-06-16T13:46:18Z</time>
      </trkpt>
      <trkpt lat="48.02993" lon="7.11997">
        <ele>486.82513428</ele>
        <time>2021-06-16T13:46:19Z</time>
      </trkpt>
      <trkpt lat="48.03006" lon="7.11995">
        <ele>485.10354614</ele>
        <time>2021-06-16T13:46:21Z</time>
      </trkpt>
      <trkpt lat="48.0302" lon="7.11989">
        <ele>483.33432007</ele>
        <time>2021-06-16T13:46:22Z</time>
      </trkpt>
      <trkpt lat="48.03037" lon="7.11976">
        <ele>481.57330322</ele>
        <time>2021-06-16T13:46:24Z</time>
      </trkpt>
      <trkpt lat="48.03045" lon="7.11959">
        <ele>479.66015625</ele>
        <time>2021-06-16T13:46:26Z</time>
      </trkpt>
      <trkpt lat="48.03055" lon="7.11938">
        <ele>477.83575439</ele>
        <time>2021-06-16T13:46:28Z</time>
      </trkpt>
      <trkpt lat="48.03064" lon="7.11919">
        <ele>476.21203613</ele>
        <time>2021-06-16T13:46:30Z</time>
      </trkpt>
      <trkpt lat="48.0307" lon="7.11906">
        <ele>474.71044922</ele>
        <time>2021-06-16T13:46:32Z</time>
      </trkpt>
      <trkpt lat="48.03077" lon="7.11895">
        <ele>473.37506104</ele>
        <time>2021-06-16T13:46:34Z</time>
      </trkpt>
      <trkpt lat="48.03085" lon="7.11883">
        <ele>472.20199585</ele>
        <time>2021-06-16T13:46:36Z</time>
      </trkpt>
      <trkpt lat="48.03094" lon="7.11875">
        <ele>471.16137695</ele>
        <time>2021-06-16T13:46:38Z</time>
      </trkpt>
      <trkpt lat="48.03104" lon="7.11869">
        <ele>469.95959473</ele>
        <time>2021-06-16T13:46:40Z</time>
      </trkpt>
      <trkpt lat="48.03114" lon="7.11864">
        <ele>468.73876953</ele>
        <time>2021-06-16T13:46:43Z</time>
      </trkpt>
      <trkpt lat="48.03124" lon="7.11862">
        <ele>466.37878418</ele>
        <time>2021-06-16T13:46:46Z</time>
      </trkpt>
      <trkpt lat="48.03135" lon="7.11856">
        <ele>465.32720947</ele>
        <time>2021-06-16T13:46:49Z</time>
      </trkpt>
      <trkpt lat="48.03146" lon="7.11857">
        <ele>462.91781616</ele>
        <time>2021-06-16T13:46:52Z</time>
      </trkpt>
      <trkpt lat="48.03161" lon="7.11864">
        <ele>461.38027954</ele>
        <time>2021-06-16T13:46:54Z</time>
      </trkpt>
      <trkpt lat="48.03178" lon="7.11871">
        <ele>461.38027954</ele>
        <time>2021-06-16T13:46:55Z</time>
      </trkpt>
      <trkpt lat="48.03188" lon="7.11876">
        <ele>459.77624512</ele>
        <time>2021-06-16T13:46:57Z</time>
      </trkpt>
      <trkpt lat="48.03199" lon="7.11884">
        <ele>458.11120605</ele>
        <time>2021-06-16T13:46:59Z</time>
      </trkpt>
      <trkpt lat="48.03209" lon="7.11895">
        <ele>456.512146</ele>
        <time>2021-06-16T13:47:01Z</time>
      </trkpt>
      <trkpt lat="48.03222" lon="7.11909">
        <ele>455.05593872</ele>
        <time>2021-06-16T13:47:03Z</time>
      </trkpt>
      <trkpt lat="48.03232" lon="7.11921">
        <ele>453.73968506</ele>
        <time>2021-06-16T13:47:04Z</time>
      </trkpt>
      <trkpt lat="48.03243" lon="7.11932">
        <ele>453.73968506</ele>
        <time>2021-06-16T13:47:06Z</time>
      </trkpt>
      <trkpt lat="48.03255" lon="7.11943">
        <ele>452.53497314</ele>
        <time>2021-06-16T13:47:08Z</time>
      </trkpt>
      <trkpt lat="48.03264" lon="7.1195">
        <ele>452.53497314</ele>
        <time>2021-06-16T13:47:10Z</time>
      </trkpt>
      <trkpt lat="48.03269" lon="7.11947">
        <ele>450.83694458</ele>
        <time>2021-06-16T13:49:35Z</time>
      </trkpt>
      <trkpt lat="48.03271" lon="7.11946">
        <ele>450.83694458</ele>
        <time>2021-06-16T13:49:40Z</time>
      </trkpt>
      <trkpt lat="48.03285" lon="7.11948">
        <ele>450.83694458</ele>
        <time>2021-06-16T13:49:44Z</time>
      </trkpt>
      <trkpt lat="48.03295" lon="7.11953">
        <ele>450.83694458</ele>
        <time>2021-06-16T13:49:47Z</time>
      </trkpt>
      <trkpt lat="48.03304" lon="7.11961">
        <ele>450.41299438</ele>
        <time>2021-06-16T13:49:50Z</time>
      </trkpt>
      <trkpt lat="48.03312" lon="7.11972">
        <ele>450.41299438</ele>
        <time>2021-06-16T13:49:52Z</time>
      </trkpt>
      <trkpt lat="48.03319" lon="7.11983">
        <ele>450.41299438</ele>
        <time>2021-06-16T13:49:54Z</time>
      </trkpt>
      <trkpt lat="48.03326" lon="7.11994">
        <ele>450.41299438</ele>
        <time>2021-06-16T13:49:56Z</time>
      </trkpt>
      <trkpt lat="48.03334" lon="7.12007">
        <ele>450.41299438</ele>
        <time>2021-06-16T13:49:58Z</time>
      </trkpt>
      <trkpt lat="48.03339" lon="7.12022">
        <ele>450.41299438</ele>
        <time>2021-06-16T13:50:00Z</time>
      </trkpt>
      <trkpt lat="48.03342" lon="7.12037">
        <ele>450.41299438</ele>
        <time>2021-06-16T13:50:02Z</time>
      </trkpt>
      <trkpt lat="48.03348" lon="7.12051">
        <ele>450.41299438</ele>
        <time>2021-06-16T13:50:05Z</time>
      </trkpt>
      <trkpt lat="48.03355" lon="7.12065">
        <ele>448.95196533</ele>
        <time>2021-06-16T13:50:07Z</time>
      </trkpt>
      <trkpt lat="48.03361" lon="7.12079">
        <ele>448.95196533</ele>
        <time>2021-06-16T13:50:09Z</time>
      </trkpt>
      <trkpt lat="48.03367" lon="7.12094">
        <ele>448.95196533</ele>
        <time>2021-06-16T13:50:11Z</time>
      </trkpt>
      <trkpt lat="48.03371" lon="7.12107">
        <ele>448.95196533</ele>
        <time>2021-06-16T13:50:13Z</time>
      </trkpt>
      <trkpt lat="48.03378" lon="7.12118">
        <ele>448.95196533</ele>
        <time>2021-06-16T13:50:15Z</time>
      </trkpt>
      <trkpt lat="48.03384" lon="7.12129">
        <ele>448.29730225</ele>
        <time>2021-06-16T13:50:17Z</time>
      </trkpt>
      <trkpt lat="48.03389" lon="7.12145">
        <ele>448.29730225</ele>
        <time>2021-06-16T13:50:19Z</time>
      </trkpt>
      <trkpt lat="48.03394" lon="7.12162">
        <ele>448.29730225</ele>
        <time>2021-06-16T13:50:21Z</time>
      </trkpt>
      <trkpt lat="48.03406" lon="7.12192">
        <ele>448.29730225</ele>
        <time>2021-06-16T13:50:25Z</time>
      </trkpt>
      <trkpt lat="48.0341" lon="7.12208">
        <ele>448.29730225</ele>
        <time>2021-06-16T13:50:27Z</time>
      </trkpt>
      <trkpt lat="48.03413" lon="7.12224">
        <ele>448.29730225</ele>
        <time>2021-06-16T13:50:29Z</time>
      </trkpt>
      <trkpt lat="48.03416" lon="7.12241">
        <ele>447.45755005</ele>
        <time>2021-06-16T13:50:31Z</time>
      </trkpt>
      <trkpt lat="48.03418" lon="7.12258">
        <ele>447.45755005</ele>
        <time>2021-06-16T13:50:33Z</time>
      </trkpt>
      <trkpt lat="48.03421" lon="7.12275">
        <ele>447.45755005</ele>
        <time>2021-06-16T13:50:35Z</time>
      </trkpt>
      <trkpt lat="48.03425" lon="7.12292">
        <ele>447.45755005</ele>
        <time>2021-06-16T13:50:37Z</time>
      </trkpt>
      <trkpt lat="48.03428" lon="7.12309">
        <ele>446.24765015</ele>
        <time>2021-06-16T13:50:39Z</time>
      </trkpt>
      <trkpt lat="48.03431" lon="7.12328">
        <ele>446.24765015</ele>
        <time>2021-06-16T13:50:41Z</time>
      </trkpt>
      <trkpt lat="48.03436" lon="7.12345">
        <ele>446.24765015</ele>
        <time>2021-06-16T13:50:43Z</time>
      </trkpt>
      <trkpt lat="48.03443" lon="7.1236">
        <ele>446.24765015</ele>
        <time>2021-06-16T13:50:45Z</time>
      </trkpt>
      <trkpt lat="48.03452" lon="7.12372">
        <ele>445.08862305</ele>
        <time>2021-06-16T13:50:47Z</time>
      </trkpt>
      <trkpt lat="48.03463" lon="7.12383">
        <ele>445.08862305</ele>
        <time>2021-06-16T13:50:49Z</time>
      </trkpt>
      <trkpt lat="48.03473" lon="7.12398">
        <ele>445.08862305</ele>
        <time>2021-06-16T13:50:51Z</time>
      </trkpt>
      <trkpt lat="48.03483" lon="7.12415">
        <ele>444.05258179</ele>
        <time>2021-06-16T13:50:54Z</time>
      </trkpt>
      <trkpt lat="48.0349" lon="7.12432">
        <ele>444.05258179</ele>
        <time>2021-06-16T13:50:55Z</time>
      </trkpt>
      <trkpt lat="48.03497" lon="7.1245">
        <ele>444.05258179</ele>
        <time>2021-06-16T13:50:57Z</time>
      </trkpt>
      <trkpt lat="48.03503" lon="7.12466">
        <ele>444.05258179</ele>
        <time>2021-06-16T13:50:59Z</time>
      </trkpt>
      <trkpt lat="48.03511" lon="7.12484">
        <ele>444.05258179</ele>
        <time>2021-06-16T13:51:01Z</time>
      </trkpt>
      <trkpt lat="48.03518" lon="7.12503">
        <ele>444.05258179</ele>
        <time>2021-06-16T13:51:03Z</time>
      </trkpt>
      <trkpt lat="48.03523" lon="7.12521">
        <ele>444.05258179</ele>
        <time>2021-06-16T13:51:05Z</time>
      </trkpt>
      <trkpt lat="48.03526" lon="7.12539">
        <ele>443.0295105</ele>
        <time>2021-06-16T13:51:07Z</time>
      </trkpt>
      <trkpt lat="48.0353" lon="7.12557">
        <ele>443.0295105</ele>
        <time>2021-06-16T13:51:09Z</time>
      </trkpt>
      <trkpt lat="48.03534" lon="7.12574">
        <ele>443.0295105</ele>
        <time>2021-06-16T13:51:11Z</time>
      </trkpt>
      <trkpt lat="48.0354" lon="7.12591">
        <ele>443.0295105</ele>
        <time>2021-06-16T13:51:13Z</time>
      </trkpt>
      <trkpt lat="48.03545" lon="7.12605">
        <ele>443.0295105</ele>
        <time>2021-06-16T13:51:15Z</time>
      </trkpt>
      <trkpt lat="48.03553" lon="7.12615">
        <ele>442.0539856</ele>
        <time>2021-06-16T13:51:17Z</time>
      </trkpt>
      <trkpt lat="48.03566" lon="7.1262">
        <ele>442.0539856</ele>
        <time>2021-06-16T13:51:19Z</time>
      </trkpt>
      <trkpt lat="48.03577" lon="7.12624">
        <ele>442.0539856</ele>
        <time>2021-06-16T13:51:21Z</time>
      </trkpt>
      <trkpt lat="48.03577" lon="7.12634">
        <ele>442.0539856</ele>
        <time>2021-06-16T13:51:24Z</time>
      </trkpt>
      <trkpt lat="48.03573" lon="7.12645">
        <ele>440.94754028</ele>
        <time>2021-06-16T13:51:34Z</time>
      </trkpt>
      <trkpt lat="48.03567" lon="7.12659">
        <ele>440.94754028</ele>
        <time>2021-06-16T13:51:38Z</time>
      </trkpt>
      <trkpt lat="48.03566" lon="7.12674">
        <ele>440.94754028</ele>
        <time>2021-06-16T13:51:41Z</time>
      </trkpt>
      <trkpt lat="48.03567" lon="7.12689">
        <ele>440.94754028</ele>
        <time>2021-06-16T13:51:43Z</time>
      </trkpt>
      <trkpt lat="48.03568" lon="7.12703">
        <ele>440.94754028</ele>
        <time>2021-06-16T13:51:45Z</time>
      </trkpt>
      <trkpt lat="48.03571" lon="7.12718">
        <ele>440.94754028</ele>
        <time>2021-06-16T13:51:47Z</time>
      </trkpt>
      <trkpt lat="48.03575" lon="7.12732">
        <ele>440.94754028</ele>
        <time>2021-06-16T13:51:49Z</time>
      </trkpt>
      <trkpt lat="48.0358" lon="7.12748">
        <ele>440.94754028</ele>
        <time>2021-06-16T13:51:51Z</time>
      </trkpt>
      <trkpt lat="48.03584" lon="7.12763">
        <ele>440.94754028</ele>
        <time>2021-06-16T13:51:53Z</time>
      </trkpt>
      <trkpt lat="48.0359" lon="7.12778">
        <ele>440.94754028</ele>
        <time>2021-06-16T13:51:55Z</time>
      </trkpt>
      <trkpt lat="48.03596" lon="7.12795">
        <ele>440.94754028</ele>
        <time>2021-06-16T13:51:57Z</time>
      </trkpt>
      <trkpt lat="48.03601" lon="7.12811">
        <ele>440.94754028</ele>
        <time>2021-06-16T13:51:59Z</time>
      </trkpt>
      <trkpt lat="48.03606" lon="7.12827">
        <ele>440.94754028</ele>
        <time>2021-06-16T13:52:01Z</time>
      </trkpt>
      <trkpt lat="48.03613" lon="7.12843">
        <ele>440.94754028</ele>
        <time>2021-06-16T13:52:03Z</time>
      </trkpt>
      <trkpt lat="48.03618" lon="7.12859">
        <ele>440.94754028</ele>
        <time>2021-06-16T13:52:05Z</time>
      </trkpt>
      <trkpt lat="48.03624" lon="7.12875">
        <ele>440.94754028</ele>
        <time>2021-06-16T13:52:07Z</time>
      </trkpt>
      <trkpt lat="48.03629" lon="7.12891">
        <ele>440.94754028</ele>
        <time>2021-06-16T13:52:09Z</time>
      </trkpt>
      <trkpt lat="48.03635" lon="7.12907">
        <ele>440.94754028</ele>
        <time>2021-06-16T13:52:11Z</time>
      </trkpt>
      <trkpt lat="48.0364" lon="7.12923">
        <ele>440.94754028</ele>
        <time>2021-06-16T13:52:13Z</time>
      </trkpt>
      <trkpt lat="48.03645" lon="7.12938">
        <ele>440.94754028</ele>
        <time>2021-06-16T13:52:15Z</time>
      </trkpt>
      <trkpt lat="48.03651" lon="7.12953">
        <ele>438.79452515</ele>
        <time>2021-06-16T13:52:17Z</time>
      </trkpt>
      <trkpt lat="48.03656" lon="7.12968">
        <ele>438.79452515</ele>
        <time>2021-06-16T13:52:19Z</time>
      </trkpt>
      <trkpt lat="48.03659" lon="7.12985">
        <ele>438.79452515</ele>
        <time>2021-06-16T13:52:21Z</time>
      </trkpt>
      <trkpt lat="48.03659" lon="7.13004">
        <ele>438.79452515</ele>
        <time>2021-06-16T13:52:24Z</time>
      </trkpt>
      <trkpt lat="48.03656" lon="7.13023">
        <ele>438.79452515</ele>
        <time>2021-06-16T13:52:25Z</time>
      </trkpt>
      <trkpt lat="48.03656" lon="7.13042">
        <ele>438.21969604</ele>
        <time>2021-06-16T13:52:27Z</time>
      </trkpt>
      <trkpt lat="48.03656" lon="7.13062">
        <ele>438.21969604</ele>
        <time>2021-06-16T13:52:29Z</time>
      </trkpt>
      <trkpt lat="48.03658" lon="7.13082">
        <ele>438.21969604</ele>
        <time>2021-06-16T13:52:31Z</time>
      </trkpt>
      <trkpt lat="48.03659" lon="7.13101">
        <ele>438.21969604</ele>
        <time>2021-06-16T13:52:33Z</time>
      </trkpt>
      <trkpt lat="48.03665" lon="7.13119">
        <ele>437.01754761</ele>
        <time>2021-06-16T13:52:35Z</time>
      </trkpt>
      <trkpt lat="48.0367" lon="7.13138">
        <ele>437.01754761</ele>
        <time>2021-06-16T13:52:37Z</time>
      </trkpt>
      <trkpt lat="48.03671" lon="7.13159">
        <ele>437.01754761</ele>
        <time>2021-06-16T13:52:39Z</time>
      </trkpt>
      <trkpt lat="48.03671" lon="7.13178">
        <ele>437.01754761</ele>
        <time>2021-06-16T13:52:41Z</time>
      </trkpt>
      <trkpt lat="48.03672" lon="7.13198">
        <ele>435.92498779</ele>
        <time>2021-06-16T13:52:43Z</time>
      </trkpt>
      <trkpt lat="48.03672" lon="7.13217">
        <ele>435.92498779</ele>
        <time>2021-06-16T13:52:45Z</time>
      </trkpt>
      <trkpt lat="48.03671" lon="7.13236">
        <ele>435.92498779</ele>
        <time>2021-06-16T13:52:47Z</time>
      </trkpt>
      <trkpt lat="48.03672" lon="7.13254">
        <ele>435.92498779</ele>
        <time>2021-06-16T13:52:49Z</time>
      </trkpt>
      <trkpt lat="48.03672" lon="7.13268">
        <ele>434.90805054</ele>
        <time>2021-06-16T13:52:52Z</time>
      </trkpt>
      <trkpt lat="48.03676" lon="7.13282">
        <ele>434.90805054</ele>
        <time>2021-06-16T13:52:57Z</time>
      </trkpt>
      <trkpt lat="48.03685" lon="7.13285">
        <ele>434.90805054</ele>
        <time>2021-06-16T13:53:01Z</time>
      </trkpt>
      <trkpt lat="48.03698" lon="7.13283">
        <ele>434.90805054</ele>
        <time>2021-06-16T13:53:05Z</time>
      </trkpt>
      <trkpt lat="48.0371" lon="7.13281">
        <ele>433.86294556</ele>
        <time>2021-06-16T13:53:08Z</time>
      </trkpt>
      <trkpt lat="48.03722" lon="7.1328">
        <ele>433.86294556</ele>
        <time>2021-06-16T13:53:10Z</time>
      </trkpt>
      <trkpt lat="48.03733" lon="7.13279">
        <ele>433.86294556</ele>
        <time>2021-06-16T13:53:12Z</time>
      </trkpt>
      <trkpt lat="48.03743" lon="7.13278">
        <ele>433.86294556</ele>
        <time>2021-06-16T13:53:14Z</time>
      </trkpt>
      <trkpt lat="48.03758" lon="7.13277">
        <ele>433.52255249</ele>
        <time>2021-06-16T13:53:17Z</time>
      </trkpt>
      <trkpt lat="48.03768" lon="7.13276">
        <ele>433.52255249</ele>
        <time>2021-06-16T13:53:19Z</time>
      </trkpt>
      <trkpt lat="48.03779" lon="7.13275">
        <ele>433.52255249</ele>
        <time>2021-06-16T13:53:21Z</time>
      </trkpt>
      <trkpt lat="48.03799" lon="7.13275">
        <ele>433.52255249</ele>
        <time>2021-06-16T13:53:25Z</time>
      </trkpt>
      <trkpt lat="48.03809" lon="7.13275">
        <ele>433.52255249</ele>
        <time>2021-06-16T13:53:27Z</time>
      </trkpt>
      <trkpt lat="48.03819" lon="7.13273">
        <ele>433.52255249</ele>
        <time>2021-06-16T13:53:29Z</time>
      </trkpt>
      <trkpt lat="48.03828" lon="7.13271">
        <ele>433.52255249</ele>
        <time>2021-06-16T13:53:31Z</time>
      </trkpt>
      <trkpt lat="48.03838" lon="7.13269">
        <ele>433.52255249</ele>
        <time>2021-06-16T13:53:33Z</time>
      </trkpt>
      <trkpt lat="48.03849" lon="7.13268">
        <ele>433.52255249</ele>
        <time>2021-06-16T13:53:35Z</time>
      </trkpt>
      <trkpt lat="48.03858" lon="7.13268">
        <ele>433.52255249</ele>
        <time>2021-06-16T13:53:38Z</time>
      </trkpt>
      <trkpt lat="48.03868" lon="7.13267">
        <ele>433.52255249</ele>
        <time>2021-06-16T13:53:39Z</time>
      </trkpt>
      <trkpt lat="48.03879" lon="7.13266">
        <ele>433.52255249</ele>
        <time>2021-06-16T13:53:42Z</time>
      </trkpt>
      <trkpt lat="48.03891" lon="7.13265">
        <ele>433.96966553</ele>
        <time>2021-06-16T13:53:45Z</time>
      </trkpt>
      <trkpt lat="48.03903" lon="7.13264">
        <ele>433.96966553</ele>
        <time>2021-06-16T13:53:48Z</time>
      </trkpt>
      <trkpt lat="48.03914" lon="7.13263">
        <ele>433.96966553</ele>
        <time>2021-06-16T13:53:50Z</time>
      </trkpt>
      <trkpt lat="48.03925" lon="7.13262">
        <ele>433.96966553</ele>
        <time>2021-06-16T13:53:54Z</time>
      </trkpt>
      <trkpt lat="48.03935" lon="7.1326">
        <ele>433.96966553</ele>
        <time>2021-06-16T13:53:56Z</time>
      </trkpt>
      <trkpt lat="48.03947" lon="7.13261">
        <ele>433.96966553</ele>
        <time>2021-06-16T13:54:00Z</time>
      </trkpt>
      <trkpt lat="48.0396" lon="7.13261">
        <ele>434.99560547</ele>
        <time>2021-06-16T13:54:02Z</time>
      </trkpt>
      <trkpt lat="48.03971" lon="7.13257">
        <ele>434.99560547</ele>
        <time>2021-06-16T13:54:05Z</time>
      </trkpt>
      <trkpt lat="48.03979" lon="7.13255">
        <ele>436.2142334</ele>
        <time>2021-06-16T13:54:21Z</time>
      </trkpt>
      <trkpt lat="48.03986" lon="7.13255">
        <ele>436.2142334</ele>
        <time>2021-06-16T13:54:26Z</time>
      </trkpt>
      <trkpt lat="48.03998" lon="7.1325">
        <ele>436.2142334</ele>
        <time>2021-06-16T13:54:30Z</time>
      </trkpt>
      <trkpt lat="48.04009" lon="7.13251">
        <ele>436.2142334</ele>
        <time>2021-06-16T13:54:33Z</time>
      </trkpt>
      <trkpt lat="48.04019" lon="7.13251">
        <ele>436.2142334</ele>
        <time>2021-06-16T13:54:37Z</time>
      </trkpt>
      <trkpt lat="48.04029" lon="7.13252">
        <ele>436.2142334</ele>
        <time>2021-06-16T13:54:40Z</time>
      </trkpt>
      <trkpt lat="48.04041" lon="7.13251">
        <ele>436.2142334</ele>
        <time>2021-06-16T13:54:43Z</time>
      </trkpt>
      <trkpt lat="48.04052" lon="7.13249">
        <ele>436.2142334</ele>
        <time>2021-06-16T13:54:46Z</time>
      </trkpt>
      <trkpt lat="48.0406" lon="7.13248">
        <ele>436.2142334</ele>
        <time>2021-06-16T13:54:50Z</time>
      </trkpt>
      <trkpt lat="48.04084" lon="7.13245">
        <ele>436.2142334</ele>
        <time>2021-06-16T13:54:57Z</time>
      </trkpt>
      <trkpt lat="48.04094" lon="7.13247">
        <ele>436.58163452</ele>
        <time>2021-06-16T13:55:00Z</time>
      </trkpt>
      <trkpt lat="48.04105" lon="7.13251">
        <ele>436.58163452</ele>
        <time>2021-06-16T13:55:04Z</time>
      </trkpt>
      <trkpt lat="48.04107" lon="7.13258">
        <ele>436.58163452</ele>
        <time>2021-06-16T13:55:09Z</time>
      </trkpt>
      <trkpt lat="48.04103" lon="7.13277">
        <ele>436.58163452</ele>
        <time>2021-06-16T13:55:13Z</time>
      </trkpt>
      <trkpt lat="48.04096" lon="7.13295">
        <ele>436.58163452</ele>
        <time>2021-06-16T13:55:15Z</time>
      </trkpt>
      <trkpt lat="48.0409" lon="7.13308">
        <ele>437.39828491</ele>
        <time>2021-06-16T13:55:17Z</time>
      </trkpt>
      <trkpt lat="48.04087" lon="7.13321">
        <ele>437.39828491</ele>
        <time>2021-06-16T13:55:19Z</time>
      </trkpt>
      <trkpt lat="48.04084" lon="7.13334">
        <ele>437.39828491</ele>
        <time>2021-06-16T13:55:21Z</time>
      </trkpt>
      <trkpt lat="48.04082" lon="7.1335">
        <ele>437.39828491</ele>
        <time>2021-06-16T13:55:24Z</time>
      </trkpt>
      <trkpt lat="48.04079" lon="7.13367">
        <ele>437.39828491</ele>
        <time>2021-06-16T13:55:27Z</time>
      </trkpt>
      <trkpt lat="48.04081" lon="7.13381">
        <ele>437.39828491</ele>
        <time>2021-06-16T13:55:30Z</time>
      </trkpt>
      <trkpt lat="48.0409" lon="7.13387">
        <ele>437.39828491</ele>
        <time>2021-06-16T13:55:33Z</time>
      </trkpt>
      <trkpt lat="48.04101" lon="7.1339">
        <ele>437.39828491</ele>
        <time>2021-06-16T13:55:35Z</time>
      </trkpt>
      <trkpt lat="48.04109" lon="7.13393">
        <ele>437.39828491</ele>
        <time>2021-06-16T13:55:38Z</time>
      </trkpt>
      <trkpt lat="48.04122" lon="7.13395">
        <ele>437.39828491</ele>
        <time>2021-06-16T13:55:41Z</time>
      </trkpt>
      <trkpt lat="48.04134" lon="7.13398">
        <ele>437.39828491</ele>
        <time>2021-06-16T13:55:44Z</time>
      </trkpt>
      <trkpt lat="48.04145" lon="7.13402">
        <ele>437.39828491</ele>
        <time>2021-06-16T13:55:48Z</time>
      </trkpt>
      <trkpt lat="48.04151" lon="7.13401">
        <ele>437.39828491</ele>
        <time>2021-06-16T13:55:57Z</time>
      </trkpt>
      <trkpt lat="48.04159" lon="7.13383">
        <ele>437.39828491</ele>
        <time>2021-06-16T13:56:00Z</time>
      </trkpt>
      <trkpt lat="48.04165" lon="7.13368">
        <ele>437.39828491</ele>
        <time>2021-06-16T13:56:03Z</time>
      </trkpt>
      <trkpt lat="48.04169" lon="7.13355">
        <ele>437.39828491</ele>
        <time>2021-06-16T13:56:07Z</time>
      </trkpt>
      <trkpt lat="48.04175" lon="7.13341">
        <ele>437.39828491</ele>
        <time>2021-06-16T13:56:10Z</time>
      </trkpt>
      <trkpt lat="48.04177" lon="7.13326">
        <ele>437.39828491</ele>
        <time>2021-06-16T13:56:13Z</time>
      </trkpt>
      <trkpt lat="48.04178" lon="7.13315">
        <ele>436.25540161</ele>
        <time>2021-06-16T13:56:17Z</time>
      </trkpt>
      <trkpt lat="48.04177" lon="7.13302">
        <ele>436.25540161</ele>
        <time>2021-06-16T13:56:19Z</time>
      </trkpt>
      <trkpt lat="48.04177" lon="7.13287">
        <ele>436.25540161</ele>
        <time>2021-06-16T13:56:21Z</time>
      </trkpt>
      <trkpt lat="48.04178" lon="7.13255">
        <ele>436.25540161</ele>
        <time>2021-06-16T13:56:27Z</time>
      </trkpt>
      <trkpt lat="48.04173" lon="7.13238">
        <ele>436.25540161</ele>
        <time>2021-06-16T13:56:30Z</time>
      </trkpt>
      <trkpt lat="48.04172" lon="7.13225">
        <ele>436.25540161</ele>
        <time>2021-06-16T13:56:32Z</time>
      </trkpt>
      <trkpt lat="48.04174" lon="7.1321">
        <ele>437.34121704</ele>
        <time>2021-06-16T13:56:35Z</time>
      </trkpt>
      <trkpt lat="48.04174" lon="7.13192">
        <ele>437.34121704</ele>
        <time>2021-06-16T13:56:38Z</time>
      </trkpt>
      <trkpt lat="48.04174" lon="7.13178">
        <ele>438.50857544</ele>
        <time>2021-06-16T13:56:58Z</time>
      </trkpt>
      <trkpt lat="48.04183" lon="7.13166">
        <ele>438.50857544</ele>
        <time>2021-06-16T13:57:03Z</time>
      </trkpt>
      <trkpt lat="48.0419" lon="7.13152">
        <ele>438.50857544</ele>
        <time>2021-06-16T13:57:07Z</time>
      </trkpt>
      <trkpt lat="48.04199" lon="7.13138">
        <ele>438.50857544</ele>
        <time>2021-06-16T13:57:10Z</time>
      </trkpt>
      <trkpt lat="48.04205" lon="7.13124">
        <ele>439.42538452</ele>
        <time>2021-06-16T13:57:14Z</time>
      </trkpt>
      <trkpt lat="48.0421" lon="7.13112">
        <ele>440.62664795</ele>
        <time>2021-06-16T13:57:17Z</time>
      </trkpt>
      <trkpt lat="48.04213" lon="7.13099">
        <ele>440.62664795</ele>
        <time>2021-06-16T13:57:18Z</time>
      </trkpt>
      <trkpt lat="48.04218" lon="7.13085">
        <ele>440.62664795</ele>
        <time>2021-06-16T13:57:22Z</time>
      </trkpt>
      <trkpt lat="48.04221" lon="7.1307">
        <ele>440.62664795</ele>
        <time>2021-06-16T13:57:25Z</time>
      </trkpt>
      <trkpt lat="48.04227" lon="7.13056">
        <ele>440.62664795</ele>
        <time>2021-06-16T13:57:28Z</time>
      </trkpt>
      <trkpt lat="48.04231" lon="7.13043">
        <ele>441.65731812</ele>
        <time>2021-06-16T13:57:31Z</time>
      </trkpt>
      <trkpt lat="48.04235" lon="7.13029">
        <ele>441.65731812</ele>
        <time>2021-06-16T13:57:35Z</time>
      </trkpt>
      <trkpt lat="48.04239" lon="7.13014">
        <ele>441.65731812</ele>
        <time>2021-06-16T13:57:38Z</time>
      </trkpt>
      <trkpt lat="48.04245" lon="7.13002">
        <ele>442.59466553</ele>
        <time>2021-06-16T13:57:41Z</time>
      </trkpt>
      <trkpt lat="48.04249" lon="7.12988">
        <ele>442.59466553</ele>
        <time>2021-06-16T13:57:45Z</time>
      </trkpt>
      <trkpt lat="48.04254" lon="7.12975">
        <ele>442.59466553</ele>
        <time>2021-06-16T13:57:47Z</time>
      </trkpt>
      <trkpt lat="48.04259" lon="7.1296">
        <ele>442.59466553</ele>
        <time>2021-06-16T13:57:50Z</time>
      </trkpt>
      <trkpt lat="48.04264" lon="7.12947">
        <ele>442.59466553</ele>
        <time>2021-06-16T13:57:53Z</time>
      </trkpt>
      <trkpt lat="48.04268" lon="7.12934">
        <ele>443.72357178</ele>
        <time>2021-06-16T13:57:56Z</time>
      </trkpt>
      <trkpt lat="48.04273" lon="7.12919">
        <ele>443.72357178</ele>
        <time>2021-06-16T13:57:59Z</time>
      </trkpt>
      <trkpt lat="48.04278" lon="7.12904">
        <ele>443.72357178</ele>
        <time>2021-06-16T13:58:02Z</time>
      </trkpt>
      <trkpt lat="48.04283" lon="7.1289">
        <ele>443.72357178</ele>
        <time>2021-06-16T13:58:05Z</time>
      </trkpt>
      <trkpt lat="48.04287" lon="7.12877">
        <ele>443.72357178</ele>
        <time>2021-06-16T13:58:08Z</time>
      </trkpt>
      <trkpt lat="48.04292" lon="7.12865">
        <ele>444.82159424</ele>
        <time>2021-06-16T13:58:11Z</time>
      </trkpt>
      <trkpt lat="48.04298" lon="7.12851">
        <ele>444.82159424</ele>
        <time>2021-06-16T13:58:15Z</time>
      </trkpt>
      <trkpt lat="48.043" lon="7.12845">
        <ele>445.67449951</ele>
        <time>2021-06-16T13:58:17Z</time>
      </trkpt>
      <trkpt lat="48.04305" lon="7.12837">
        <ele>445.67449951</ele>
        <time>2021-06-16T13:58:19Z</time>
      </trkpt>
      <trkpt lat="48.04313" lon="7.12823">
        <ele>445.67449951</ele>
        <time>2021-06-16T13:58:22Z</time>
      </trkpt>
      <trkpt lat="48.04321" lon="7.12811">
        <ele>445.67449951</ele>
        <time>2021-06-16T13:58:25Z</time>
      </trkpt>
      <trkpt lat="48.0433" lon="7.12799">
        <ele>445.67449951</ele>
        <time>2021-06-16T13:58:28Z</time>
      </trkpt>
      <trkpt lat="48.04338" lon="7.12787">
        <ele>446.39657593</ele>
        <time>2021-06-16T13:58:31Z</time>
      </trkpt>
      <trkpt lat="48.04346" lon="7.12776">
        <ele>446.39657593</ele>
        <time>2021-06-16T13:58:33Z</time>
      </trkpt>
      <trkpt lat="48.04353" lon="7.12767">
        <ele>446.39657593</ele>
        <time>2021-06-16T13:58:35Z</time>
      </trkpt>
      <trkpt lat="48.04362" lon="7.12757">
        <ele>446.39657593</ele>
        <time>2021-06-16T13:58:37Z</time>
      </trkpt>
      <trkpt lat="48.04369" lon="7.12748">
        <ele>446.39657593</ele>
        <time>2021-06-16T13:58:39Z</time>
      </trkpt>
      <trkpt lat="48.04377" lon="7.12738">
        <ele>446.39657593</ele>
        <time>2021-06-16T13:58:41Z</time>
      </trkpt>
      <trkpt lat="48.04383" lon="7.12728">
        <ele>447.60284424</ele>
        <time>2021-06-16T13:58:43Z</time>
      </trkpt>
      <trkpt lat="48.0439" lon="7.12717">
        <ele>447.60284424</ele>
        <time>2021-06-16T13:58:45Z</time>
      </trkpt>
      <trkpt lat="48.04396" lon="7.12703">
        <ele>447.60284424</ele>
        <time>2021-06-16T13:58:47Z</time>
      </trkpt>
      <trkpt lat="48.04402" lon="7.12693">
        <ele>447.60284424</ele>
        <time>2021-06-16T13:58:49Z</time>
      </trkpt>
      <trkpt lat="48.04409" lon="7.12681">
        <ele>447.60284424</ele>
        <time>2021-06-16T13:58:51Z</time>
      </trkpt>
      <trkpt lat="48.04418" lon="7.12671">
        <ele>448.77496338</ele>
        <time>2021-06-16T13:58:54Z</time>
      </trkpt>
      <trkpt lat="48.04427" lon="7.12659">
        <ele>448.77496338</ele>
        <time>2021-06-16T13:58:55Z</time>
      </trkpt>
      <trkpt lat="48.04435" lon="7.12645">
        <ele>448.77496338</ele>
        <time>2021-06-16T13:58:57Z</time>
      </trkpt>
      <trkpt lat="48.04443" lon="7.12632">
        <ele>448.77496338</ele>
        <time>2021-06-16T13:58:59Z</time>
      </trkpt>
      <trkpt lat="48.04451" lon="7.1262">
        <ele>448.77496338</ele>
        <time>2021-06-16T13:59:01Z</time>
      </trkpt>
      <trkpt lat="48.04458" lon="7.12609">
        <ele>449.80239868</ele>
        <time>2021-06-16T13:59:03Z</time>
      </trkpt>
      <trkpt lat="48.04462" lon="7.12595">
        <ele>449.80239868</ele>
        <time>2021-06-16T13:59:05Z</time>
      </trkpt>
      <trkpt lat="48.04467" lon="7.12583">
        <ele>449.80239868</ele>
        <time>2021-06-16T13:59:07Z</time>
      </trkpt>
      <trkpt lat="48.04472" lon="7.1257">
        <ele>449.80239868</ele>
        <time>2021-06-16T13:59:09Z</time>
      </trkpt>
      <trkpt lat="48.04477" lon="7.12556">
        <ele>450.78741455</ele>
        <time>2021-06-16T13:59:12Z</time>
      </trkpt>
      <trkpt lat="48.04483" lon="7.12542">
        <ele>450.78741455</ele>
        <time>2021-06-16T13:59:15Z</time>
      </trkpt>
      <trkpt lat="48.04485" lon="7.12537">
        <ele>451.54174805</ele>
        <time>2021-06-16T13:59:17Z</time>
      </trkpt>
      <trkpt lat="48.04489" lon="7.12526">
        <ele>451.54174805</ele>
        <time>2021-06-16T13:59:18Z</time>
      </trkpt>
      <trkpt lat="48.04496" lon="7.12511">
        <ele>451.54174805</ele>
        <time>2021-06-16T13:59:21Z</time>
      </trkpt>
      <trkpt lat="48.04507" lon="7.12478">
        <ele>451.54174805</ele>
        <time>2021-06-16T13:59:27Z</time>
      </trkpt>
      <trkpt lat="48.04512" lon="7.12461">
        <ele>451.54174805</ele>
        <time>2021-06-16T13:59:30Z</time>
      </trkpt>
      <trkpt lat="48.04519" lon="7.12445">
        <ele>452.29129028</ele>
        <time>2021-06-16T13:59:33Z</time>
      </trkpt>
      <trkpt lat="48.04524" lon="7.12427">
        <ele>452.29129028</ele>
        <time>2021-06-16T13:59:36Z</time>
      </trkpt>
      <trkpt lat="48.0453" lon="7.12412">
        <ele>452.29129028</ele>
        <time>2021-06-16T13:59:38Z</time>
      </trkpt>
      <trkpt lat="48.04536" lon="7.12399">
        <ele>453.47946167</ele>
        <time>2021-06-16T13:59:41Z</time>
      </trkpt>
      <trkpt lat="48.04544" lon="7.12385">
        <ele>453.47946167</ele>
        <time>2021-06-16T13:59:43Z</time>
      </trkpt>
      <trkpt lat="48.0455" lon="7.12375">
        <ele>453.47946167</ele>
        <time>2021-06-16T13:59:45Z</time>
      </trkpt>
      <trkpt lat="48.04557" lon="7.12366">
        <ele>453.47946167</ele>
        <time>2021-06-16T13:59:47Z</time>
      </trkpt>
      <trkpt lat="48.04564" lon="7.12356">
        <ele>453.47946167</ele>
        <time>2021-06-16T13:59:49Z</time>
      </trkpt>
      <trkpt lat="48.04571" lon="7.12346">
        <ele>453.47946167</ele>
        <time>2021-06-16T13:59:51Z</time>
      </trkpt>
      <trkpt lat="48.04578" lon="7.12335">
        <ele>454.52697754</ele>
        <time>2021-06-16T13:59:54Z</time>
      </trkpt>
      <trkpt lat="48.04585" lon="7.12323">
        <ele>454.52697754</ele>
        <time>2021-06-16T13:59:56Z</time>
      </trkpt>
      <trkpt lat="48.04593" lon="7.12311">
        <ele>454.52697754</ele>
        <time>2021-06-16T13:59:58Z</time>
      </trkpt>
      <trkpt lat="48.04599" lon="7.123">
        <ele>454.52697754</ele>
        <time>2021-06-16T14:00:00Z</time>
      </trkpt>
      <trkpt lat="48.04606" lon="7.1229">
        <ele>455.53631592</ele>
        <time>2021-06-16T14:00:02Z</time>
      </trkpt>
      <trkpt lat="48.04612" lon="7.12279">
        <ele>455.53631592</ele>
        <time>2021-06-16T14:00:04Z</time>
      </trkpt>
      <trkpt lat="48.0462" lon="7.12268">
        <ele>455.53631592</ele>
        <time>2021-06-16T14:00:06Z</time>
      </trkpt>
      <trkpt lat="48.04625" lon="7.12256">
        <ele>455.53631592</ele>
        <time>2021-06-16T14:00:08Z</time>
      </trkpt>
      <trkpt lat="48.04632" lon="7.12245">
        <ele>455.53631592</ele>
        <time>2021-06-16T14:00:10Z</time>
      </trkpt>
      <trkpt lat="48.04639" lon="7.12235">
        <ele>455.53631592</ele>
        <time>2021-06-16T14:00:12Z</time>
      </trkpt>
      <trkpt lat="48.04646" lon="7.12223">
        <ele>456.62969971</ele>
        <time>2021-06-16T14:00:15Z</time>
      </trkpt>
      <trkpt lat="48.04654" lon="7.1221">
        <ele>457.32250977</ele>
        <time>2021-06-16T14:00:17Z</time>
      </trkpt>
      <trkpt lat="48.04662" lon="7.12197">
        <ele>457.32250977</ele>
        <time>2021-06-16T14:00:20Z</time>
      </trkpt>
      <trkpt lat="48.04671" lon="7.12183">
        <ele>457.32250977</ele>
        <time>2021-06-16T14:00:23Z</time>
      </trkpt>
      <trkpt lat="48.0468" lon="7.12171">
        <ele>457.32250977</ele>
        <time>2021-06-16T14:00:25Z</time>
      </trkpt>
      <trkpt lat="48.04686" lon="7.1216">
        <ele>457.99258423</ele>
        <time>2021-06-16T14:00:27Z</time>
      </trkpt>
      <trkpt lat="48.04693" lon="7.12149">
        <ele>457.99258423</ele>
        <time>2021-06-16T14:00:29Z</time>
      </trkpt>
      <trkpt lat="48.04699" lon="7.12137">
        <ele>457.99258423</ele>
        <time>2021-06-16T14:00:31Z</time>
      </trkpt>
      <trkpt lat="48.04707" lon="7.12126">
        <ele>457.99258423</ele>
        <time>2021-06-16T14:00:34Z</time>
      </trkpt>
      <trkpt lat="48.04715" lon="7.12112">
        <ele>457.99258423</ele>
        <time>2021-06-16T14:00:36Z</time>
      </trkpt>
      <trkpt lat="48.04722" lon="7.121">
        <ele>459.02069092</ele>
        <time>2021-06-16T14:00:38Z</time>
      </trkpt>
      <trkpt lat="48.04727" lon="7.12088">
        <ele>459.02069092</ele>
        <time>2021-06-16T14:00:41Z</time>
      </trkpt>
      <trkpt lat="48.04732" lon="7.12075">
        <ele>459.02069092</ele>
        <time>2021-06-16T14:00:44Z</time>
      </trkpt>
      <trkpt lat="48.04738" lon="7.1206">
        <ele>460.07141113</ele>
        <time>2021-06-16T14:00:47Z</time>
      </trkpt>
      <trkpt lat="48.04744" lon="7.12043">
        <ele>460.07141113</ele>
        <time>2021-06-16T14:00:50Z</time>
      </trkpt>
      <trkpt lat="48.04755" lon="7.1201">
        <ele>461.19268799</ele>
        <time>2021-06-16T14:00:56Z</time>
      </trkpt>
      <trkpt lat="48.0476" lon="7.11995">
        <ele>461.19268799</ele>
        <time>2021-06-16T14:00:58Z</time>
      </trkpt>
      <trkpt lat="48.04765" lon="7.1198">
        <ele>461.19268799</ele>
        <time>2021-06-16T14:01:01Z</time>
      </trkpt>
      <trkpt lat="48.04771" lon="7.11962">
        <ele>461.19268799</ele>
        <time>2021-06-16T14:01:04Z</time>
      </trkpt>
      <trkpt lat="48.04776" lon="7.11944">
        <ele>462.39248657</ele>
        <time>2021-06-16T14:01:07Z</time>
      </trkpt>
      <trkpt lat="48.04781" lon="7.11928">
        <ele>462.39248657</ele>
        <time>2021-06-16T14:01:10Z</time>
      </trkpt>
      <trkpt lat="48.04786" lon="7.11914">
        <ele>462.39248657</ele>
        <time>2021-06-16T14:01:12Z</time>
      </trkpt>
      <trkpt lat="48.04792" lon="7.11897">
        <ele>463.28448486</ele>
        <time>2021-06-16T14:01:15Z</time>
      </trkpt>
      <trkpt lat="48.04794" lon="7.11892">
        <ele>464.03594971</ele>
        <time>2021-06-16T14:01:17Z</time>
      </trkpt>
      <trkpt lat="48.04798" lon="7.11882">
        <ele>464.03594971</ele>
        <time>2021-06-16T14:01:18Z</time>
      </trkpt>
      <trkpt lat="48.04803" lon="7.11868">
        <ele>464.03594971</ele>
        <time>2021-06-16T14:01:21Z</time>
      </trkpt>
      <trkpt lat="48.04807" lon="7.11855">
        <ele>464.70825195</ele>
        <time>2021-06-16T14:01:24Z</time>
      </trkpt>
      <trkpt lat="48.04812" lon="7.1184">
        <ele>464.70825195</ele>
        <time>2021-06-16T14:01:27Z</time>
      </trkpt>
      <trkpt lat="48.04818" lon="7.11827">
        <ele>464.70825195</ele>
        <time>2021-06-16T14:01:30Z</time>
      </trkpt>
      <trkpt lat="48.04822" lon="7.11811">
        <ele>464.70825195</ele>
        <time>2021-06-16T14:01:33Z</time>
      </trkpt>
      <trkpt lat="48.04828" lon="7.11795">
        <ele>465.81246948</ele>
        <time>2021-06-16T14:01:36Z</time>
      </trkpt>
      <trkpt lat="48.04831" lon="7.11779">
        <ele>465.81246948</ele>
        <time>2021-06-16T14:01:39Z</time>
      </trkpt>
      <trkpt lat="48.04836" lon="7.11763">
        <ele>465.81246948</ele>
        <time>2021-06-16T14:01:42Z</time>
      </trkpt>
      <trkpt lat="48.04842" lon="7.11747">
        <ele>465.81246948</ele>
        <time>2021-06-16T14:01:45Z</time>
      </trkpt>
      <trkpt lat="48.04848" lon="7.11732">
        <ele>466.82327271</ele>
        <time>2021-06-16T14:01:48Z</time>
      </trkpt>
      <trkpt lat="48.04854" lon="7.11716">
        <ele>466.82327271</ele>
        <time>2021-06-16T14:01:51Z</time>
      </trkpt>
      <trkpt lat="48.04859" lon="7.11699">
        <ele>466.82327271</ele>
        <time>2021-06-16T14:01:55Z</time>
      </trkpt>
      <trkpt lat="48.04865" lon="7.11682">
        <ele>466.82327271</ele>
        <time>2021-06-16T14:01:57Z</time>
      </trkpt>
      <trkpt lat="48.0487" lon="7.11664">
        <ele>467.99572754</ele>
        <time>2021-06-16T14:02:01Z</time>
      </trkpt>
      <trkpt lat="48.04875" lon="7.11649">
        <ele>467.99572754</ele>
        <time>2021-06-16T14:02:03Z</time>
      </trkpt>
      <trkpt lat="48.04879" lon="7.11635">
        <ele>467.99572754</ele>
        <time>2021-06-16T14:02:07Z</time>
      </trkpt>
      <trkpt lat="48.04883" lon="7.11621">
        <ele>467.99572754</ele>
        <time>2021-06-16T14:02:11Z</time>
      </trkpt>
      <trkpt lat="48.04886" lon="7.11606">
        <ele>468.95605469</ele>
        <time>2021-06-16T14:02:15Z</time>
      </trkpt>
      <trkpt lat="48.04886" lon="7.11601">
        <ele>469.87924194</ele>
        <time>2021-06-16T14:02:17Z</time>
      </trkpt>
      <trkpt lat="48.04888" lon="7.11591">
        <ele>469.87924194</ele>
        <time>2021-06-16T14:02:19Z</time>
      </trkpt>
      <trkpt lat="48.04894" lon="7.11578">
        <ele>469.87924194</ele>
        <time>2021-06-16T14:02:23Z</time>
      </trkpt>
      <trkpt lat="48.04899" lon="7.11563">
        <ele>469.87924194</ele>
        <time>2021-06-16T14:02:27Z</time>
      </trkpt>
      <trkpt lat="48.04903" lon="7.11547">
        <ele>470.6652832</ele>
        <time>2021-06-16T14:02:29Z</time>
      </trkpt>
      <trkpt lat="48.04908" lon="7.11532">
        <ele>470.6652832</ele>
        <time>2021-06-16T14:02:32Z</time>
      </trkpt>
      <trkpt lat="48.04913" lon="7.11516">
        <ele>470.6652832</ele>
        <time>2021-06-16T14:02:35Z</time>
      </trkpt>
      <trkpt lat="48.0492" lon="7.11503">
        <ele>471.72879028</ele>
        <time>2021-06-16T14:02:38Z</time>
      </trkpt>
      <trkpt lat="48.04924" lon="7.11488">
        <ele>471.72879028</ele>
        <time>2021-06-16T14:02:41Z</time>
      </trkpt>
      <trkpt lat="48.04928" lon="7.11474">
        <ele>471.72879028</ele>
        <time>2021-06-16T14:02:44Z</time>
      </trkpt>
      <trkpt lat="48.0493" lon="7.11456">
        <ele>471.72879028</ele>
        <time>2021-06-16T14:02:47Z</time>
      </trkpt>
      <trkpt lat="48.04932" lon="7.11439">
        <ele>471.72879028</ele>
        <time>2021-06-16T14:02:50Z</time>
      </trkpt>
      <trkpt lat="48.04938" lon="7.11423">
        <ele>471.72879028</ele>
        <time>2021-06-16T14:02:53Z</time>
      </trkpt>
      <trkpt lat="48.04944" lon="7.11408">
        <ele>471.72879028</ele>
        <time>2021-06-16T14:02:55Z</time>
      </trkpt>
      <trkpt lat="48.04947" lon="7.11394">
        <ele>471.72879028</ele>
        <time>2021-06-16T14:02:58Z</time>
      </trkpt>
      <trkpt lat="48.04953" lon="7.11377">
        <ele>471.72879028</ele>
        <time>2021-06-16T14:03:01Z</time>
      </trkpt>
      <trkpt lat="48.04958" lon="7.11361">
        <ele>473.85031128</ele>
        <time>2021-06-16T14:03:05Z</time>
      </trkpt>
      <trkpt lat="48.04964" lon="7.11347">
        <ele>473.85031128</ele>
        <time>2021-06-16T14:03:06Z</time>
      </trkpt>
      <trkpt lat="48.04967" lon="7.11334">
        <ele>473.85031128</ele>
        <time>2021-06-16T14:03:10Z</time>
      </trkpt>
      <trkpt lat="48.04972" lon="7.11318">
        <ele>474.94235229</ele>
        <time>2021-06-16T14:03:12Z</time>
      </trkpt>
      <trkpt lat="48.04977" lon="7.11302">
        <ele>474.94235229</ele>
        <time>2021-06-16T14:03:15Z</time>
      </trkpt>
      <trkpt lat="48.04978" lon="7.11296">
        <ele>475.77008057</ele>
        <time>2021-06-16T14:03:17Z</time>
      </trkpt>
      <trkpt lat="48.04983" lon="7.11286">
        <ele>475.77008057</ele>
        <time>2021-06-16T14:03:18Z</time>
      </trkpt>
      <trkpt lat="48.04988" lon="7.11268">
        <ele>475.77008057</ele>
        <time>2021-06-16T14:03:21Z</time>
      </trkpt>
      <trkpt lat="48.04997" lon="7.11237">
        <ele>475.77008057</ele>
        <time>2021-06-16T14:03:27Z</time>
      </trkpt>
      <trkpt lat="48.05001" lon="7.11223">
        <ele>476.62234497</ele>
        <time>2021-06-16T14:03:30Z</time>
      </trkpt>
      <trkpt lat="48.05007" lon="7.11208">
        <ele>476.62234497</ele>
        <time>2021-06-16T14:03:33Z</time>
      </trkpt>
      <trkpt lat="48.05013" lon="7.11192">
        <ele>476.62234497</ele>
        <time>2021-06-16T14:03:36Z</time>
      </trkpt>
      <trkpt lat="48.05017" lon="7.11177">
        <ele>477.5748291</ele>
        <time>2021-06-16T14:03:40Z</time>
      </trkpt>
      <trkpt lat="48.05021" lon="7.11161">
        <ele>477.5748291</ele>
        <time>2021-06-16T14:03:42Z</time>
      </trkpt>
      <trkpt lat="48.05027" lon="7.11146">
        <ele>478.74368286</ele>
        <time>2021-06-16T14:03:45Z</time>
      </trkpt>
      <trkpt lat="48.05032" lon="7.11129">
        <ele>478.74368286</ele>
        <time>2021-06-16T14:03:48Z</time>
      </trkpt>
      <trkpt lat="48.05038" lon="7.11113">
        <ele>478.74368286</ele>
        <time>2021-06-16T14:03:51Z</time>
      </trkpt>
      <trkpt lat="48.05045" lon="7.11082">
        <ele>479.79733276</ele>
        <time>2021-06-16T14:03:56Z</time>
      </trkpt>
      <trkpt lat="48.05051" lon="7.11068">
        <ele>479.79733276</ele>
        <time>2021-06-16T14:03:59Z</time>
      </trkpt>
      <trkpt lat="48.05056" lon="7.11055">
        <ele>479.79733276</ele>
        <time>2021-06-16T14:04:02Z</time>
      </trkpt>
      <trkpt lat="48.05061" lon="7.11042">
        <ele>480.88348389</ele>
        <time>2021-06-16T14:04:06Z</time>
      </trkpt>
      <trkpt lat="48.05066" lon="7.11028">
        <ele>480.88348389</ele>
        <time>2021-06-16T14:04:08Z</time>
      </trkpt>
      <trkpt lat="48.05069" lon="7.11013">
        <ele>480.88348389</ele>
        <time>2021-06-16T14:04:11Z</time>
      </trkpt>
      <trkpt lat="48.05073" lon="7.10997">
        <ele>480.88348389</ele>
        <time>2021-06-16T14:04:14Z</time>
      </trkpt>
      <trkpt lat="48.05076" lon="7.10988">
        <ele>482.37658691</ele>
        <time>2021-06-16T14:04:17Z</time>
      </trkpt>
      <trkpt lat="48.05079" lon="7.10978">
        <ele>482.37658691</ele>
        <time>2021-06-16T14:04:18Z</time>
      </trkpt>
      <trkpt lat="48.05084" lon="7.10962">
        <ele>482.37658691</ele>
        <time>2021-06-16T14:04:21Z</time>
      </trkpt>
      <trkpt lat="48.05088" lon="7.10947">
        <ele>482.97128296</ele>
        <time>2021-06-16T14:04:25Z</time>
      </trkpt>
      <trkpt lat="48.05093" lon="7.10933">
        <ele>482.97128296</ele>
        <time>2021-06-16T14:04:27Z</time>
      </trkpt>
      <trkpt lat="48.05098" lon="7.10917">
        <ele>482.97128296</ele>
        <time>2021-06-16T14:04:30Z</time>
      </trkpt>
      <trkpt lat="48.05103" lon="7.109">
        <ele>482.97128296</ele>
        <time>2021-06-16T14:04:33Z</time>
      </trkpt>
      <trkpt lat="48.05109" lon="7.10884">
        <ele>484.03317261</ele>
        <time>2021-06-16T14:04:36Z</time>
      </trkpt>
      <trkpt lat="48.05114" lon="7.10871">
        <ele>484.03317261</ele>
        <time>2021-06-16T14:04:39Z</time>
      </trkpt>
      <trkpt lat="48.05118" lon="7.10858">
        <ele>484.03317261</ele>
        <time>2021-06-16T14:04:42Z</time>
      </trkpt>
      <trkpt lat="48.05124" lon="7.10841">
        <ele>485.23452759</ele>
        <time>2021-06-16T14:04:45Z</time>
      </trkpt>
      <trkpt lat="48.05129" lon="7.10827">
        <ele>485.23452759</ele>
        <time>2021-06-16T14:04:47Z</time>
      </trkpt>
      <trkpt lat="48.05136" lon="7.10814">
        <ele>485.23452759</ele>
        <time>2021-06-16T14:04:51Z</time>
      </trkpt>
      <trkpt lat="48.05142" lon="7.10799">
        <ele>485.23452759</ele>
        <time>2021-06-16T14:04:53Z</time>
      </trkpt>
      <trkpt lat="48.05146" lon="7.10782">
        <ele>485.23452759</ele>
        <time>2021-06-16T14:04:56Z</time>
      </trkpt>
      <trkpt lat="48.05147" lon="7.10765">
        <ele>485.23452759</ele>
        <time>2021-06-16T14:04:59Z</time>
      </trkpt>
      <trkpt lat="48.05151" lon="7.10749">
        <ele>487.43408203</ele>
        <time>2021-06-16T14:05:02Z</time>
      </trkpt>
      <trkpt lat="48.05156" lon="7.10735">
        <ele>487.43408203</ele>
        <time>2021-06-16T14:05:05Z</time>
      </trkpt>
      <trkpt lat="48.05161" lon="7.10722">
        <ele>487.43408203</ele>
        <time>2021-06-16T14:05:07Z</time>
      </trkpt>
      <trkpt lat="48.05166" lon="7.10706">
        <ele>487.43408203</ele>
        <time>2021-06-16T14:05:10Z</time>
      </trkpt>
      <trkpt lat="48.05171" lon="7.1069">
        <ele>488.40563965</ele>
        <time>2021-06-16T14:05:13Z</time>
      </trkpt>
      <trkpt lat="48.05175" lon="7.10677">
        <ele>489.12371826</ele>
        <time>2021-06-16T14:05:17Z</time>
      </trkpt>
      <trkpt lat="48.05179" lon="7.10665">
        <ele>489.12371826</ele>
        <time>2021-06-16T14:05:18Z</time>
      </trkpt>
      <trkpt lat="48.05184" lon="7.10651">
        <ele>489.12371826</ele>
        <time>2021-06-16T14:05:20Z</time>
      </trkpt>
      <trkpt lat="48.05188" lon="7.10637">
        <ele>490.06921387</ele>
        <time>2021-06-16T14:05:23Z</time>
      </trkpt>
      <trkpt lat="48.05194" lon="7.10622">
        <ele>490.06921387</ele>
        <time>2021-06-16T14:05:26Z</time>
      </trkpt>
      <trkpt lat="48.05199" lon="7.10605">
        <ele>490.06921387</ele>
        <time>2021-06-16T14:05:29Z</time>
      </trkpt>
      <trkpt lat="48.05204" lon="7.1059">
        <ele>490.06921387</ele>
        <time>2021-06-16T14:05:32Z</time>
      </trkpt>
      <trkpt lat="48.05207" lon="7.10574">
        <ele>491.11816406</ele>
        <time>2021-06-16T14:05:35Z</time>
      </trkpt>
      <trkpt lat="48.05213" lon="7.10557">
        <ele>491.11816406</ele>
        <time>2021-06-16T14:05:38Z</time>
      </trkpt>
      <trkpt lat="48.05218" lon="7.10541">
        <ele>491.11816406</ele>
        <time>2021-06-16T14:05:41Z</time>
      </trkpt>
      <trkpt lat="48.05224" lon="7.10525">
        <ele>492.17355347</ele>
        <time>2021-06-16T14:05:45Z</time>
      </trkpt>
      <trkpt lat="48.0523" lon="7.10509">
        <ele>492.17355347</ele>
        <time>2021-06-16T14:05:47Z</time>
      </trkpt>
      <trkpt lat="48.05235" lon="7.10494">
        <ele>492.17355347</ele>
        <time>2021-06-16T14:05:50Z</time>
      </trkpt>
      <trkpt lat="48.05241" lon="7.10478">
        <ele>493.31286621</ele>
        <time>2021-06-16T14:05:54Z</time>
      </trkpt>
      <trkpt lat="48.05246" lon="7.10463">
        <ele>493.31286621</ele>
        <time>2021-06-16T14:05:56Z</time>
      </trkpt>
      <trkpt lat="48.0525" lon="7.10446">
        <ele>493.31286621</ele>
        <time>2021-06-16T14:05:59Z</time>
      </trkpt>
      <trkpt lat="48.05254" lon="7.1043">
        <ele>494.36853027</ele>
        <time>2021-06-16T14:06:02Z</time>
      </trkpt>
      <trkpt lat="48.05258" lon="7.10415">
        <ele>494.36853027</ele>
        <time>2021-06-16T14:06:05Z</time>
      </trkpt>
      <trkpt lat="48.05262" lon="7.10401">
        <ele>494.36853027</ele>
        <time>2021-06-16T14:06:08Z</time>
      </trkpt>
      <trkpt lat="48.05267" lon="7.10387">
        <ele>494.36853027</ele>
        <time>2021-06-16T14:06:12Z</time>
      </trkpt>
      <trkpt lat="48.05273" lon="7.10372">
        <ele>495.46505737</ele>
        <time>2021-06-16T14:06:15Z</time>
      </trkpt>
      <trkpt lat="48.05275" lon="7.10367">
        <ele>495.96734619</ele>
        <time>2021-06-16T14:06:17Z</time>
      </trkpt>
      <trkpt lat="48.05279" lon="7.10357">
        <ele>495.96734619</ele>
        <time>2021-06-16T14:06:18Z</time>
      </trkpt>
      <trkpt lat="48.05285" lon="7.10342">
        <ele>495.96734619</ele>
        <time>2021-06-16T14:06:22Z</time>
      </trkpt>
      <trkpt lat="48.05294" lon="7.10312">
        <ele>496.59567261</ele>
        <time>2021-06-16T14:06:27Z</time>
      </trkpt>
      <trkpt lat="48.05299" lon="7.10297">
        <ele>496.59567261</ele>
        <time>2021-06-16T14:06:30Z</time>
      </trkpt>
      <trkpt lat="48.05303" lon="7.10283">
        <ele>497.58459473</ele>
        <time>2021-06-16T14:06:33Z</time>
      </trkpt>
      <trkpt lat="48.05307" lon="7.10268">
        <ele>497.58459473</ele>
        <time>2021-06-16T14:06:36Z</time>
      </trkpt>
      <trkpt lat="48.05312" lon="7.10253">
        <ele>497.58459473</ele>
        <time>2021-06-16T14:06:39Z</time>
      </trkpt>
      <trkpt lat="48.05318" lon="7.10238">
        <ele>497.58459473</ele>
        <time>2021-06-16T14:06:42Z</time>
      </trkpt>
      <trkpt lat="48.05323" lon="7.10225">
        <ele>498.71875</ele>
        <time>2021-06-16T14:06:45Z</time>
      </trkpt>
      <trkpt lat="48.05327" lon="7.10212">
        <ele>498.71875</ele>
        <time>2021-06-16T14:06:47Z</time>
      </trkpt>
      <trkpt lat="48.05331" lon="7.10197">
        <ele>498.71875</ele>
        <time>2021-06-16T14:06:50Z</time>
      </trkpt>
      <trkpt lat="48.05336" lon="7.1018">
        <ele>499.90484619</ele>
        <time>2021-06-16T14:06:53Z</time>
      </trkpt>
      <trkpt lat="48.05341" lon="7.10166">
        <ele>499.90484619</ele>
        <time>2021-06-16T14:06:56Z</time>
      </trkpt>
      <trkpt lat="48.05345" lon="7.10151">
        <ele>499.90484619</ele>
        <time>2021-06-16T14:07:00Z</time>
      </trkpt>
      <trkpt lat="48.05351" lon="7.10135">
        <ele>501.0098877</ele>
        <time>2021-06-16T14:07:02Z</time>
      </trkpt>
      <trkpt lat="48.05355" lon="7.1012">
        <ele>501.0098877</ele>
        <time>2021-06-16T14:07:05Z</time>
      </trkpt>
      <trkpt lat="48.0536" lon="7.10105">
        <ele>501.0098877</ele>
        <time>2021-06-16T14:07:08Z</time>
      </trkpt>
      <trkpt lat="48.05365" lon="7.10089">
        <ele>501.0098877</ele>
        <time>2021-06-16T14:07:11Z</time>
      </trkpt>
      <trkpt lat="48.05371" lon="7.10074">
        <ele>501.89511108</ele>
        <time>2021-06-16T14:07:14Z</time>
      </trkpt>
      <trkpt lat="48.05377" lon="7.10066">
        <ele>502.72589111</ele>
        <time>2021-06-16T14:07:17Z</time>
      </trkpt>
      <trkpt lat="48.05382" lon="7.1006">
        <ele>502.72589111</ele>
        <time>2021-06-16T14:07:18Z</time>
      </trkpt>
      <trkpt lat="48.05394" lon="7.10057">
        <ele>502.72589111</ele>
        <time>2021-06-16T14:07:21Z</time>
      </trkpt>
      <trkpt lat="48.05417" lon="7.10073">
        <ele>503.34292603</ele>
        <time>2021-06-16T14:07:27Z</time>
      </trkpt>
      <trkpt lat="48.05421" lon="7.10088">
        <ele>503.34292603</ele>
        <time>2021-06-16T14:07:29Z</time>
      </trkpt>
      <trkpt lat="48.05423" lon="7.10104">
        <ele>504.478302</ele>
        <time>2021-06-16T14:07:32Z</time>
      </trkpt>
      <trkpt lat="48.05425" lon="7.10121">
        <ele>504.478302</ele>
        <time>2021-06-16T14:07:35Z</time>
      </trkpt>
      <trkpt lat="48.05427" lon="7.10137">
        <ele>505.53805542</ele>
        <time>2021-06-16T14:07:38Z</time>
      </trkpt>
      <trkpt lat="48.05428" lon="7.10152">
        <ele>505.53805542</ele>
        <time>2021-06-16T14:07:41Z</time>
      </trkpt>
      <trkpt lat="48.05429" lon="7.10168">
        <ele>505.53805542</ele>
        <time>2021-06-16T14:07:44Z</time>
      </trkpt>
      <trkpt lat="48.05431" lon="7.10184">
        <ele>506.62091064</ele>
        <time>2021-06-16T14:07:47Z</time>
      </trkpt>
      <trkpt lat="48.05434" lon="7.10198">
        <ele>506.62091064</ele>
        <time>2021-06-16T14:07:50Z</time>
      </trkpt>
      <trkpt lat="48.05439" lon="7.10212">
        <ele>507.5602417</ele>
        <time>2021-06-16T14:07:55Z</time>
      </trkpt>
      <trkpt lat="48.05442" lon="7.10228">
        <ele>508.71112061</ele>
        <time>2021-06-16T14:07:58Z</time>
      </trkpt>
      <trkpt lat="48.05446" lon="7.10244">
        <ele>508.71112061</ele>
        <time>2021-06-16T14:08:01Z</time>
      </trkpt>
      <trkpt lat="48.0545" lon="7.10257">
        <ele>508.71112061</ele>
        <time>2021-06-16T14:08:04Z</time>
      </trkpt>
      <trkpt lat="48.05454" lon="7.10269">
        <ele>508.71112061</ele>
        <time>2021-06-16T14:08:07Z</time>
      </trkpt>
      <trkpt lat="48.05459" lon="7.10283">
        <ele>509.70901489</ele>
        <time>2021-06-16T14:08:10Z</time>
      </trkpt>
      <trkpt lat="48.05464" lon="7.10297">
        <ele>509.70901489</ele>
        <time>2021-06-16T14:08:13Z</time>
      </trkpt>
      <trkpt lat="48.05468" lon="7.10306">
        <ele>511.29748535</ele>
        <time>2021-06-16T14:08:17Z</time>
      </trkpt>
      <trkpt lat="48.05475" lon="7.10316">
        <ele>511.29748535</ele>
        <time>2021-06-16T14:08:18Z</time>
      </trkpt>
      <trkpt lat="48.05482" lon="7.10325">
        <ele>511.29748535</ele>
        <time>2021-06-16T14:08:21Z</time>
      </trkpt>
      <trkpt lat="48.05491" lon="7.10334">
        <ele>511.87918091</ele>
        <time>2021-06-16T14:08:24Z</time>
      </trkpt>
      <trkpt lat="48.05499" lon="7.10344">
        <ele>511.87918091</ele>
        <time>2021-06-16T14:08:27Z</time>
      </trkpt>
      <trkpt lat="48.05508" lon="7.10353">
        <ele>511.87918091</ele>
        <time>2021-06-16T14:08:30Z</time>
      </trkpt>
      <trkpt lat="48.05518" lon="7.10359">
        <ele>511.87918091</ele>
        <time>2021-06-16T14:08:33Z</time>
      </trkpt>
      <trkpt lat="48.0553" lon="7.10363">
        <ele>512.7354126</ele>
        <time>2021-06-16T14:08:36Z</time>
      </trkpt>
      <trkpt lat="48.05541" lon="7.10366">
        <ele>512.7354126</ele>
        <time>2021-06-16T14:08:39Z</time>
      </trkpt>
      <trkpt lat="48.0555" lon="7.10367">
        <ele>513.96234131</ele>
        <time>2021-06-16T14:08:42Z</time>
      </trkpt>
      <trkpt lat="48.0556" lon="7.10366">
        <ele>513.96234131</ele>
        <time>2021-06-16T14:08:45Z</time>
      </trkpt>
      <trkpt lat="48.0557" lon="7.10363">
        <ele>515.02319336</ele>
        <time>2021-06-16T14:08:48Z</time>
      </trkpt>
      <trkpt lat="48.05581" lon="7.10357">
        <ele>515.02319336</ele>
        <time>2021-06-16T14:08:51Z</time>
      </trkpt>
      <trkpt lat="48.05592" lon="7.10352">
        <ele>516.13977051</ele>
        <time>2021-06-16T14:08:56Z</time>
      </trkpt>
      <trkpt lat="48.05604" lon="7.10347">
        <ele>517.44335938</ele>
        <time>2021-06-16T14:09:02Z</time>
      </trkpt>
      <trkpt lat="48.05613" lon="7.10341">
        <ele>517.44335938</ele>
        <time>2021-06-16T14:09:07Z</time>
      </trkpt>
      <trkpt lat="48.05624" lon="7.10332">
        <ele>517.44335938</ele>
        <time>2021-06-16T14:09:10Z</time>
      </trkpt>
      <trkpt lat="48.05636" lon="7.10328">
        <ele>517.44335938</ele>
        <time>2021-06-16T14:09:13Z</time>
      </trkpt>
      <trkpt lat="48.05644" lon="7.10324">
        <ele>518.96081543</ele>
        <time>2021-06-16T14:09:17Z</time>
      </trkpt>
      <trkpt lat="48.05652" lon="7.1032">
        <ele>518.96081543</ele>
        <time>2021-06-16T14:09:18Z</time>
      </trkpt>
      <trkpt lat="48.05661" lon="7.10315">
        <ele>518.96081543</ele>
        <time>2021-06-16T14:09:21Z</time>
      </trkpt>
      <trkpt lat="48.05671" lon="7.10309">
        <ele>518.96081543</ele>
        <time>2021-06-16T14:09:25Z</time>
      </trkpt>
      <trkpt lat="48.05682" lon="7.10303">
        <ele>519.60998535</ele>
        <time>2021-06-16T14:09:29Z</time>
      </trkpt>
      <trkpt lat="48.05693" lon="7.10295">
        <ele>519.60998535</ele>
        <time>2021-06-16T14:09:32Z</time>
      </trkpt>
      <trkpt lat="48.05703" lon="7.1029">
        <ele>520.76574707</ele>
        <time>2021-06-16T14:09:36Z</time>
      </trkpt>
      <trkpt lat="48.05711" lon="7.10284">
        <ele>520.76574707</ele>
        <time>2021-06-16T14:09:39Z</time>
      </trkpt>
      <trkpt lat="48.0572" lon="7.10278">
        <ele>520.76574707</ele>
        <time>2021-06-16T14:09:42Z</time>
      </trkpt>
      <trkpt lat="48.05729" lon="7.10274">
        <ele>521.8527832</ele>
        <time>2021-06-16T14:09:45Z</time>
      </trkpt>
      <trkpt lat="48.05738" lon="7.1027">
        <ele>521.8527832</ele>
        <time>2021-06-16T14:09:48Z</time>
      </trkpt>
      <trkpt lat="48.05748" lon="7.10264">
        <ele>522.90203857</ele>
        <time>2021-06-16T14:09:52Z</time>
      </trkpt>
      <trkpt lat="48.05759" lon="7.1026">
        <ele>522.90203857</ele>
        <time>2021-06-16T14:09:55Z</time>
      </trkpt>
      <trkpt lat="48.05769" lon="7.10254">
        <ele>522.90203857</ele>
        <time>2021-06-16T14:09:58Z</time>
      </trkpt>
      <trkpt lat="48.05779" lon="7.10248">
        <ele>524.05914307</ele>
        <time>2021-06-16T14:10:01Z</time>
      </trkpt>
      <trkpt lat="48.05788" lon="7.10243">
        <ele>524.05914307</ele>
        <time>2021-06-16T14:10:04Z</time>
      </trkpt>
      <trkpt lat="48.05799" lon="7.10239">
        <ele>525.08435059</ele>
        <time>2021-06-16T14:10:07Z</time>
      </trkpt>
      <trkpt lat="48.05809" lon="7.10233">
        <ele>525.08435059</ele>
        <time>2021-06-16T14:10:10Z</time>
      </trkpt>
      <trkpt lat="48.05819" lon="7.10228">
        <ele>525.08435059</ele>
        <time>2021-06-16T14:10:13Z</time>
      </trkpt>
      <trkpt lat="48.05825" lon="7.10224">
        <ele>526.80969238</ele>
        <time>2021-06-16T14:10:17Z</time>
      </trkpt>
      <trkpt lat="48.05833" lon="7.10219">
        <ele>526.80969238</ele>
        <time>2021-06-16T14:10:18Z</time>
      </trkpt>
      <trkpt lat="48.05843" lon="7.10212">
        <ele>526.80969238</ele>
        <time>2021-06-16T14:10:21Z</time>
      </trkpt>
      <trkpt lat="48.05853" lon="7.10206">
        <ele>527.54541016</ele>
        <time>2021-06-16T14:10:25Z</time>
      </trkpt>
      <trkpt lat="48.05864" lon="7.10197">
        <ele>527.54541016</ele>
        <time>2021-06-16T14:10:28Z</time>
      </trkpt>
      <trkpt lat="48.05874" lon="7.10192">
        <ele>528.59680176</ele>
        <time>2021-06-16T14:10:31Z</time>
      </trkpt>
      <trkpt lat="48.05883" lon="7.10186">
        <ele>528.59680176</ele>
        <time>2021-06-16T14:10:34Z</time>
      </trkpt>
      <trkpt lat="48.05893" lon="7.10182">
        <ele>528.59680176</ele>
        <time>2021-06-16T14:10:37Z</time>
      </trkpt>
      <trkpt lat="48.05901" lon="7.10176">
        <ele>529.71472168</ele>
        <time>2021-06-16T14:10:40Z</time>
      </trkpt>
      <trkpt lat="48.05909" lon="7.10169">
        <ele>529.71472168</ele>
        <time>2021-06-16T14:10:43Z</time>
      </trkpt>
      <trkpt lat="48.05919" lon="7.10164">
        <ele>529.71472168</ele>
        <time>2021-06-16T14:10:46Z</time>
      </trkpt>
      <trkpt lat="48.05928" lon="7.10161">
        <ele>530.69482422</ele>
        <time>2021-06-16T14:10:49Z</time>
      </trkpt>
      <trkpt lat="48.05938" lon="7.10158">
        <ele>530.69482422</ele>
        <time>2021-06-16T14:10:53Z</time>
      </trkpt>
      <trkpt lat="48.05948" lon="7.10157">
        <ele>530.69482422</ele>
        <time>2021-06-16T14:10:58Z</time>
      </trkpt>
      <trkpt lat="48.05961" lon="7.10161">
        <ele>531.75402832</ele>
        <time>2021-06-16T14:11:03Z</time>
      </trkpt>
      <trkpt lat="48.05972" lon="7.10164">
        <ele>532.89233398</ele>
        <time>2021-06-16T14:11:05Z</time>
      </trkpt>
      <trkpt lat="48.05981" lon="7.10169">
        <ele>532.89233398</ele>
        <time>2021-06-16T14:11:08Z</time>
      </trkpt>
      <trkpt lat="48.05991" lon="7.10174">
        <ele>534.02520752</ele>
        <time>2021-06-16T14:11:12Z</time>
      </trkpt>
      <trkpt lat="48.06001" lon="7.10177">
        <ele>534.02520752</ele>
        <time>2021-06-16T14:11:14Z</time>
      </trkpt>
      <trkpt lat="48.06008" lon="7.10181">
        <ele>534.95758057</ele>
        <time>2021-06-16T14:11:17Z</time>
      </trkpt>
      <trkpt lat="48.06014" lon="7.10185">
        <ele>534.95758057</ele>
        <time>2021-06-16T14:11:18Z</time>
      </trkpt>
      <trkpt lat="48.06024" lon="7.1019">
        <ele>534.95758057</ele>
        <time>2021-06-16T14:11:21Z</time>
      </trkpt>
      <trkpt lat="48.06033" lon="7.10195">
        <ele>535.82159424</ele>
        <time>2021-06-16T14:11:24Z</time>
      </trkpt>
      <trkpt lat="48.06043" lon="7.10199">
        <ele>535.82159424</ele>
        <time>2021-06-16T14:11:27Z</time>
      </trkpt>
      <trkpt lat="48.06051" lon="7.10203">
        <ele>535.82159424</ele>
        <time>2021-06-16T14:11:30Z</time>
      </trkpt>
      <trkpt lat="48.06061" lon="7.10209">
        <ele>535.82159424</ele>
        <time>2021-06-16T14:11:33Z</time>
      </trkpt>
      <trkpt lat="48.06071" lon="7.10216">
        <ele>536.96856689</ele>
        <time>2021-06-16T14:11:36Z</time>
      </trkpt>
      <trkpt lat="48.06081" lon="7.10223">
        <ele>536.96856689</ele>
        <time>2021-06-16T14:11:40Z</time>
      </trkpt>
      <trkpt lat="48.0609" lon="7.10231">
        <ele>536.96856689</ele>
        <time>2021-06-16T14:11:42Z</time>
      </trkpt>
      <trkpt lat="48.06101" lon="7.10238">
        <ele>536.96856689</ele>
        <time>2021-06-16T14:11:45Z</time>
      </trkpt>
      <trkpt lat="48.06112" lon="7.10245">
        <ele>536.96856689</ele>
        <time>2021-06-16T14:11:48Z</time>
      </trkpt>
      <trkpt lat="48.06124" lon="7.10252">
        <ele>536.96856689</ele>
        <time>2021-06-16T14:11:51Z</time>
      </trkpt>
      <trkpt lat="48.06135" lon="7.10259">
        <ele>536.96856689</ele>
        <time>2021-06-16T14:11:53Z</time>
      </trkpt>
      <trkpt lat="48.06144" lon="7.10263">
        <ele>538.04492188</ele>
        <time>2021-06-16T14:11:55Z</time>
      </trkpt>
      <trkpt lat="48.06155" lon="7.10268">
        <ele>538.04492188</ele>
        <time>2021-06-16T14:11:58Z</time>
      </trkpt>
      <trkpt lat="48.06165" lon="7.10275">
        <ele>538.04492188</ele>
        <time>2021-06-16T14:12:01Z</time>
      </trkpt>
      <trkpt lat="48.06174" lon="7.10282">
        <ele>538.04492188</ele>
        <time>2021-06-16T14:12:04Z</time>
      </trkpt>
      <trkpt lat="48.06183" lon="7.10291">
        <ele>539.03295898</ele>
        <time>2021-06-16T14:12:07Z</time>
      </trkpt>
      <trkpt lat="48.06192" lon="7.10302">
        <ele>539.03295898</ele>
        <time>2021-06-16T14:12:10Z</time>
      </trkpt>
      <trkpt lat="48.06201" lon="7.10314">
        <ele>539.03295898</ele>
        <time>2021-06-16T14:12:13Z</time>
      </trkpt>
      <trkpt lat="48.06209" lon="7.10322">
        <ele>540.64044189</ele>
        <time>2021-06-16T14:12:17Z</time>
      </trkpt>
      <trkpt lat="48.06216" lon="7.1033">
        <ele>540.64044189</ele>
        <time>2021-06-16T14:12:18Z</time>
      </trkpt>
      <trkpt lat="48.06222" lon="7.1034">
        <ele>540.64044189</ele>
        <time>2021-06-16T14:12:21Z</time>
      </trkpt>
      <trkpt lat="48.06231" lon="7.10349">
        <ele>541.28509521</ele>
        <time>2021-06-16T14:12:25Z</time>
      </trkpt>
      <trkpt lat="48.0624" lon="7.10357">
        <ele>541.28509521</ele>
        <time>2021-06-16T14:12:28Z</time>
      </trkpt>
      <trkpt lat="48.0625" lon="7.1036">
        <ele>542.51300049</ele>
        <time>2021-06-16T14:12:33Z</time>
      </trkpt>
      <trkpt lat="48.06252" lon="7.10357">
        <ele>543.77081299</ele>
        <time>2021-06-16T14:13:50Z</time>
      </trkpt>
      <trkpt lat="48.0625" lon="7.10346">
        <ele>543.63397217</ele>
        <time>2021-06-16T14:14:43Z</time>
      </trkpt>
      <trkpt lat="48.06254" lon="7.10342">
        <ele>543.63397217</ele>
        <time>2021-06-16T14:15:11Z</time>
      </trkpt>
      <trkpt lat="48.06266" lon="7.10339">
        <ele>543.93835449</ele>
        <time>2021-06-16T14:15:17Z</time>
      </trkpt>
      <trkpt lat="48.06276" lon="7.10337">
        <ele>543.93835449</ele>
        <time>2021-06-16T14:15:19Z</time>
      </trkpt>
      <trkpt lat="48.06285" lon="7.10334">
        <ele>543.93835449</ele>
        <time>2021-06-16T14:15:26Z</time>
      </trkpt>
      <trkpt lat="48.06294" lon="7.10323">
        <ele>543.93835449</ele>
        <time>2021-06-16T14:15:30Z</time>
      </trkpt>
      <trkpt lat="48.06303" lon="7.10315">
        <ele>543.93835449</ele>
        <time>2021-06-16T14:15:33Z</time>
      </trkpt>
      <trkpt lat="48.06314" lon="7.10308">
        <ele>545.84576416</ele>
        <time>2021-06-16T14:15:37Z</time>
      </trkpt>
      <trkpt lat="48.06324" lon="7.10303">
        <ele>545.84576416</ele>
        <time>2021-06-16T14:15:41Z</time>
      </trkpt>
      <trkpt lat="48.06335" lon="7.10298">
        <ele>546.97192383</ele>
        <time>2021-06-16T14:15:45Z</time>
      </trkpt>
      <trkpt lat="48.06345" lon="7.1029">
        <ele>546.97192383</ele>
        <time>2021-06-16T14:15:49Z</time>
      </trkpt>
      <trkpt lat="48.06356" lon="7.10282">
        <ele>547.98266602</ele>
        <time>2021-06-16T14:15:52Z</time>
      </trkpt>
      <trkpt lat="48.06373" lon="7.10265">
        <ele>547.98266602</ele>
        <time>2021-06-16T14:15:59Z</time>
      </trkpt>
      <trkpt lat="48.06381" lon="7.10256">
        <ele>549.08056641</ele>
        <time>2021-06-16T14:16:03Z</time>
      </trkpt>
      <trkpt lat="48.06392" lon="7.10251">
        <ele>550.28015137</ele>
        <time>2021-06-16T14:16:08Z</time>
      </trkpt>
      <trkpt lat="48.06401" lon="7.10245">
        <ele>550.28015137</ele>
        <time>2021-06-16T14:16:11Z</time>
      </trkpt>
      <trkpt lat="48.06412" lon="7.10247">
        <ele>550.28015137</ele>
        <time>2021-06-16T14:16:15Z</time>
      </trkpt>
      <trkpt lat="48.06419" lon="7.10253">
        <ele>551.24810791</ele>
        <time>2021-06-16T14:16:17Z</time>
      </trkpt>
      <trkpt lat="48.06424" lon="7.10261">
        <ele>551.24810791</ele>
        <time>2021-06-16T14:16:19Z</time>
      </trkpt>
      <trkpt lat="48.06428" lon="7.10275">
        <ele>551.24810791</ele>
        <time>2021-06-16T14:16:22Z</time>
      </trkpt>
      <trkpt lat="48.06432" lon="7.10288">
        <ele>551.89379883</ele>
        <time>2021-06-16T14:16:26Z</time>
      </trkpt>
      <trkpt lat="48.06435" lon="7.10301">
        <ele>551.89379883</ele>
        <time>2021-06-16T14:16:28Z</time>
      </trkpt>
      <trkpt lat="48.06436" lon="7.10315">
        <ele>553.08972168</ele>
        <time>2021-06-16T14:16:31Z</time>
      </trkpt>
      <trkpt lat="48.06436" lon="7.10329">
        <ele>553.08972168</ele>
        <time>2021-06-16T14:16:34Z</time>
      </trkpt>
      <trkpt lat="48.06433" lon="7.10342">
        <ele>554.07110596</ele>
        <time>2021-06-16T14:16:38Z</time>
      </trkpt>
      <trkpt lat="48.06424" lon="7.10353">
        <ele>555.29217529</ele>
        <time>2021-06-16T14:16:43Z</time>
      </trkpt>
      <trkpt lat="48.06413" lon="7.10358">
        <ele>555.29217529</ele>
        <time>2021-06-16T14:16:46Z</time>
      </trkpt>
      <trkpt lat="48.06403" lon="7.10362">
        <ele>556.25683594</ele>
        <time>2021-06-16T14:16:51Z</time>
      </trkpt>
      <trkpt lat="48.06392" lon="7.10367">
        <ele>556.25683594</ele>
        <time>2021-06-16T14:16:55Z</time>
      </trkpt>
      <trkpt lat="48.06381" lon="7.10373">
        <ele>557.36206055</ele>
        <time>2021-06-16T14:17:00Z</time>
      </trkpt>
      <trkpt lat="48.06371" lon="7.1038">
        <ele>557.36206055</ele>
        <time>2021-06-16T14:17:03Z</time>
      </trkpt>
      <trkpt lat="48.06361" lon="7.1039">
        <ele>558.47198486</ele>
        <time>2021-06-16T14:17:07Z</time>
      </trkpt>
      <trkpt lat="48.06353" lon="7.10401">
        <ele>558.47198486</ele>
        <time>2021-06-16T14:17:11Z</time>
      </trkpt>
      <trkpt lat="48.06347" lon="7.10413">
        <ele>559.70605469</ele>
        <time>2021-06-16T14:17:15Z</time>
      </trkpt>
      <trkpt lat="48.06344" lon="7.10417">
        <ele>560.26831055</ele>
        <time>2021-06-16T14:17:17Z</time>
      </trkpt>
      <trkpt lat="48.06341" lon="7.10427">
        <ele>560.26831055</ele>
        <time>2021-06-16T14:17:19Z</time>
      </trkpt>
      <trkpt lat="48.06334" lon="7.1044">
        <ele>561.04608154</ele>
        <time>2021-06-16T14:17:23Z</time>
      </trkpt>
      <trkpt lat="48.06329" lon="7.10453">
        <ele>561.04608154</ele>
        <time>2021-06-16T14:17:27Z</time>
      </trkpt>
      <trkpt lat="48.06327" lon="7.10467">
        <ele>562.14434814</ele>
        <time>2021-06-16T14:17:31Z</time>
      </trkpt>
      <trkpt lat="48.06327" lon="7.10482">
        <ele>563.17602539</ele>
        <time>2021-06-16T14:17:35Z</time>
      </trkpt>
      <trkpt lat="48.0633" lon="7.10496">
        <ele>563.17602539</ele>
        <time>2021-06-16T14:17:40Z</time>
      </trkpt>
      <trkpt lat="48.0634" lon="7.10508">
        <ele>564.27130127</ele>
        <time>2021-06-16T14:17:45Z</time>
      </trkpt>
      <trkpt lat="48.0635" lon="7.10514">
        <ele>564.27130127</ele>
        <time>2021-06-16T14:17:48Z</time>
      </trkpt>
      <trkpt lat="48.06361" lon="7.10516">
        <ele>565.2845459</ele>
        <time>2021-06-16T14:17:52Z</time>
      </trkpt>
      <trkpt lat="48.06381" lon="7.10513">
        <ele>566.2746582</ele>
        <time>2021-06-16T14:18:00Z</time>
      </trkpt>
      <trkpt lat="48.06392" lon="7.10512">
        <ele>566.2746582</ele>
        <time>2021-06-16T14:18:05Z</time>
      </trkpt>
      <trkpt lat="48.06402" lon="7.10511">
        <ele>566.2746582</ele>
        <time>2021-06-16T14:18:07Z</time>
      </trkpt>
      <trkpt lat="48.06411" lon="7.10509">
        <ele>567.45965576</ele>
        <time>2021-06-16T14:18:11Z</time>
      </trkpt>
      <trkpt lat="48.06421" lon="7.10503">
        <ele>568.51495361</ele>
        <time>2021-06-16T14:18:15Z</time>
      </trkpt>
      <trkpt lat="48.06424" lon="7.105">
        <ele>569.22369385</ele>
        <time>2021-06-16T14:18:17Z</time>
      </trkpt>
      <trkpt lat="48.06429" lon="7.10493">
        <ele>569.22369385</ele>
        <time>2021-06-16T14:18:20Z</time>
      </trkpt>
      <trkpt lat="48.06437" lon="7.10482">
        <ele>569.8894043</ele>
        <time>2021-06-16T14:18:23Z</time>
      </trkpt>
      <trkpt lat="48.06442" lon="7.10468">
        <ele>569.8894043</ele>
        <time>2021-06-16T14:18:27Z</time>
      </trkpt>
      <trkpt lat="48.06446" lon="7.10454">
        <ele>569.8894043</ele>
        <time>2021-06-16T14:18:30Z</time>
      </trkpt>
      <trkpt lat="48.06451" lon="7.10441">
        <ele>569.8894043</ele>
        <time>2021-06-16T14:18:34Z</time>
      </trkpt>
      <trkpt lat="48.06458" lon="7.10429">
        <ele>570.71014404</ele>
        <time>2021-06-16T14:18:37Z</time>
      </trkpt>
      <trkpt lat="48.06466" lon="7.1042">
        <ele>570.71014404</ele>
        <time>2021-06-16T14:18:41Z</time>
      </trkpt>
      <trkpt lat="48.06476" lon="7.10413">
        <ele>571.89196777</ele>
        <time>2021-06-16T14:18:46Z</time>
      </trkpt>
      <trkpt lat="48.06486" lon="7.10411">
        <ele>571.89196777</ele>
        <time>2021-06-16T14:18:49Z</time>
      </trkpt>
      <trkpt lat="48.06497" lon="7.10411">
        <ele>572.90881348</ele>
        <time>2021-06-16T14:18:53Z</time>
      </trkpt>
      <trkpt lat="48.06508" lon="7.10413">
        <ele>573.88775635</ele>
        <time>2021-06-16T14:18:57Z</time>
      </trkpt>
      <trkpt lat="48.06518" lon="7.10418">
        <ele>573.88775635</ele>
        <time>2021-06-16T14:19:00Z</time>
      </trkpt>
      <trkpt lat="48.06527" lon="7.10426">
        <ele>574.94104004</ele>
        <time>2021-06-16T14:19:04Z</time>
      </trkpt>
      <trkpt lat="48.06537" lon="7.10431">
        <ele>576.07397461</ele>
        <time>2021-06-16T14:19:08Z</time>
      </trkpt>
      <trkpt lat="48.06548" lon="7.10435">
        <ele>577.1182251</ele>
        <time>2021-06-16T14:19:13Z</time>
      </trkpt>
      <trkpt lat="48.06557" lon="7.10437">
        <ele>578.00994873</ele>
        <time>2021-06-16T14:19:17Z</time>
      </trkpt>
      <trkpt lat="48.06566" lon="7.10439">
        <ele>578.00994873</ele>
        <time>2021-06-16T14:19:19Z</time>
      </trkpt>
      <trkpt lat="48.06576" lon="7.1044">
        <ele>578.00994873</ele>
        <time>2021-06-16T14:19:23Z</time>
      </trkpt>
      <trkpt lat="48.06586" lon="7.1044">
        <ele>578.00994873</ele>
        <time>2021-06-16T14:19:27Z</time>
      </trkpt>
      <trkpt lat="48.06596" lon="7.1044">
        <ele>578.71618652</ele>
        <time>2021-06-16T14:19:31Z</time>
      </trkpt>
      <trkpt lat="48.06606" lon="7.10439">
        <ele>579.91192627</ele>
        <time>2021-06-16T14:19:35Z</time>
      </trkpt>
      <trkpt lat="48.06616" lon="7.1044">
        <ele>579.91192627</ele>
        <time>2021-06-16T14:19:40Z</time>
      </trkpt>
      <trkpt lat="48.06626" lon="7.10436">
        <ele>580.89678955</ele>
        <time>2021-06-16T14:19:43Z</time>
      </trkpt>
      <trkpt lat="48.06636" lon="7.10431">
        <ele>580.89678955</ele>
        <time>2021-06-16T14:19:48Z</time>
      </trkpt>
      <trkpt lat="48.06646" lon="7.10426">
        <ele>581.93292236</ele>
        <time>2021-06-16T14:19:51Z</time>
      </trkpt>
      <trkpt lat="48.06654" lon="7.1042">
        <ele>581.93292236</ele>
        <time>2021-06-16T14:19:55Z</time>
      </trkpt>
      <trkpt lat="48.06663" lon="7.10412">
        <ele>583.08959961</ele>
        <time>2021-06-16T14:19:59Z</time>
      </trkpt>
      <trkpt lat="48.06672" lon="7.10407">
        <ele>583.08959961</ele>
        <time>2021-06-16T14:20:04Z</time>
      </trkpt>
      <trkpt lat="48.06681" lon="7.10401">
        <ele>584.10302734</ele>
        <time>2021-06-16T14:20:07Z</time>
      </trkpt>
      <trkpt lat="48.06691" lon="7.10395">
        <ele>584.10302734</ele>
        <time>2021-06-16T14:20:11Z</time>
      </trkpt>
      <trkpt lat="48.067" lon="7.10388">
        <ele>585.22393799</ele>
        <time>2021-06-16T14:20:15Z</time>
      </trkpt>
      <trkpt lat="48.06704" lon="7.10386">
        <ele>585.84136963</ele>
        <time>2021-06-16T14:20:17Z</time>
      </trkpt>
      <trkpt lat="48.06709" lon="7.10383">
        <ele>585.84136963</ele>
        <time>2021-06-16T14:20:19Z</time>
      </trkpt>
      <trkpt lat="48.06719" lon="7.10376">
        <ele>585.84136963</ele>
        <time>2021-06-16T14:20:22Z</time>
      </trkpt>
      <trkpt lat="48.06736" lon="7.10365">
        <ele>586.48364258</ele>
        <time>2021-06-16T14:20:31Z</time>
      </trkpt>
      <trkpt lat="48.06745" lon="7.10361">
        <ele>586.48364258</ele>
        <time>2021-06-16T14:20:34Z</time>
      </trkpt>
      <trkpt lat="48.06755" lon="7.10357">
        <ele>587.5614624</ele>
        <time>2021-06-16T14:20:37Z</time>
      </trkpt>
      <trkpt lat="48.06764" lon="7.1035">
        <ele>587.5614624</ele>
        <time>2021-06-16T14:20:41Z</time>
      </trkpt>
      <trkpt lat="48.06775" lon="7.10345">
        <ele>588.49890137</ele>
        <time>2021-06-16T14:20:45Z</time>
      </trkpt>
      <trkpt lat="48.06785" lon="7.10339">
        <ele>589.66748047</ele>
        <time>2021-06-16T14:20:49Z</time>
      </trkpt>
      <trkpt lat="48.06795" lon="7.10331">
        <ele>589.66748047</ele>
        <time>2021-06-16T14:20:53Z</time>
      </trkpt>
      <trkpt lat="48.06805" lon="7.10326">
        <ele>590.66265869</ele>
        <time>2021-06-16T14:20:57Z</time>
      </trkpt>
      <trkpt lat="48.06815" lon="7.1032">
        <ele>590.66265869</ele>
        <time>2021-06-16T14:21:02Z</time>
      </trkpt>
      <trkpt lat="48.06827" lon="7.10319">
        <ele>590.66265869</ele>
        <time>2021-06-16T14:21:05Z</time>
      </trkpt>
      <trkpt lat="48.06838" lon="7.10321">
        <ele>591.63769531</ele>
        <time>2021-06-16T14:21:09Z</time>
      </trkpt>
      <trkpt lat="48.06847" lon="7.10326">
        <ele>592.84991455</ele>
        <time>2021-06-16T14:21:13Z</time>
      </trkpt>
      <trkpt lat="48.06854" lon="7.10331">
        <ele>593.68994141</ele>
        <time>2021-06-16T14:21:17Z</time>
      </trkpt>
      <trkpt lat="48.06862" lon="7.10337">
        <ele>593.68994141</ele>
        <time>2021-06-16T14:21:19Z</time>
      </trkpt>
      <trkpt lat="48.06873" lon="7.10345">
        <ele>594.39501953</ele>
        <time>2021-06-16T14:21:23Z</time>
      </trkpt>
      <trkpt lat="48.06883" lon="7.10353">
        <ele>594.39501953</ele>
        <time>2021-06-16T14:21:27Z</time>
      </trkpt>
      <trkpt lat="48.06892" lon="7.10359">
        <ele>594.39501953</ele>
        <time>2021-06-16T14:21:31Z</time>
      </trkpt>
      <trkpt lat="48.069" lon="7.10365">
        <ele>595.63464355</ele>
        <time>2021-06-16T14:21:35Z</time>
      </trkpt>
      <trkpt lat="48.06909" lon="7.10371">
        <ele>595.63464355</ele>
        <time>2021-06-16T14:21:39Z</time>
      </trkpt>
      <trkpt lat="48.06919" lon="7.10373">
        <ele>596.64593506</ele>
        <time>2021-06-16T14:21:43Z</time>
      </trkpt>
      <trkpt lat="48.06929" lon="7.10371">
        <ele>597.75500488</ele>
        <time>2021-06-16T14:21:47Z</time>
      </trkpt>
      <trkpt lat="48.06937" lon="7.10361">
        <ele>597.75500488</ele>
        <time>2021-06-16T14:21:51Z</time>
      </trkpt>
      <trkpt lat="48.06944" lon="7.10351">
        <ele>598.79180908</ele>
        <time>2021-06-16T14:21:55Z</time>
      </trkpt>
      <trkpt lat="48.06949" lon="7.10337">
        <ele>598.79180908</ele>
        <time>2021-06-16T14:21:58Z</time>
      </trkpt>
      <trkpt lat="48.06954" lon="7.10323">
        <ele>598.79180908</ele>
        <time>2021-06-16T14:22:01Z</time>
      </trkpt>
      <trkpt lat="48.06959" lon="7.1031">
        <ele>599.85101318</ele>
        <time>2021-06-16T14:22:05Z</time>
      </trkpt>
      <trkpt lat="48.06964" lon="7.10296">
        <ele>600.88336182</ele>
        <time>2021-06-16T14:22:09Z</time>
      </trkpt>
      <trkpt lat="48.0697" lon="7.10283">
        <ele>600.88336182</ele>
        <time>2021-06-16T14:22:14Z</time>
      </trkpt>
      <trkpt lat="48.06973" lon="7.10274">
        <ele>601.97344971</ele>
        <time>2021-06-16T14:22:17Z</time>
      </trkpt>
      <trkpt lat="48.06978" lon="7.10267">
        <ele>601.97344971</ele>
        <time>2021-06-16T14:22:18Z</time>
      </trkpt>
      <trkpt lat="48.06986" lon="7.10257">
        <ele>601.97344971</ele>
        <time>2021-06-16T14:22:22Z</time>
      </trkpt>
      <trkpt lat="48.07003" lon="7.10237">
        <ele>601.97344971</ele>
        <time>2021-06-16T14:22:31Z</time>
      </trkpt>
      <trkpt lat="48.07012" lon="7.10227">
        <ele>604.07757568</ele>
        <time>2021-06-16T14:22:34Z</time>
      </trkpt>
      <trkpt lat="48.0702" lon="7.10218">
        <ele>604.07757568</ele>
        <time>2021-06-16T14:22:37Z</time>
      </trkpt>
      <trkpt lat="48.07028" lon="7.10209">
        <ele>605.15161133</ele>
        <time>2021-06-16T14:22:40Z</time>
      </trkpt>
      <trkpt lat="48.07034" lon="7.10201">
        <ele>605.15161133</ele>
        <time>2021-06-16T14:22:44Z</time>
      </trkpt>
      <trkpt lat="48.07043" lon="7.1019">
        <ele>606.13183594</ele>
        <time>2021-06-16T14:22:48Z</time>
      </trkpt>
      <trkpt lat="48.07052" lon="7.10181">
        <ele>606.13183594</ele>
        <time>2021-06-16T14:22:51Z</time>
      </trkpt>
      <trkpt lat="48.07059" lon="7.10172">
        <ele>607.20965576</ele>
        <time>2021-06-16T14:22:55Z</time>
      </trkpt>
      <trkpt lat="48.07067" lon="7.10163">
        <ele>607.20965576</ele>
        <time>2021-06-16T14:22:59Z</time>
      </trkpt>
      <trkpt lat="48.07075" lon="7.10153">
        <ele>608.11633301</ele>
        <time>2021-06-16T14:23:03Z</time>
      </trkpt>
      <trkpt lat="48.07082" lon="7.10142">
        <ele>608.11633301</ele>
        <time>2021-06-16T14:23:07Z</time>
      </trkpt>
      <trkpt lat="48.0709" lon="7.10133">
        <ele>609.33093262</ele>
        <time>2021-06-16T14:23:12Z</time>
      </trkpt>
      <trkpt lat="48.07097" lon="7.10124">
        <ele>610.25543213</ele>
        <time>2021-06-16T14:23:17Z</time>
      </trkpt>
      <trkpt lat="48.07105" lon="7.10117">
        <ele>610.25543213</ele>
        <time>2021-06-16T14:23:19Z</time>
      </trkpt>
      <trkpt lat="48.07113" lon="7.10108">
        <ele>611.21343994</ele>
        <time>2021-06-16T14:23:23Z</time>
      </trkpt>
      <trkpt lat="48.07121" lon="7.101">
        <ele>611.21343994</ele>
        <time>2021-06-16T14:23:26Z</time>
      </trkpt>
      <trkpt lat="48.07127" lon="7.10089">
        <ele>611.21343994</ele>
        <time>2021-06-16T14:23:30Z</time>
      </trkpt>
      <trkpt lat="48.07133" lon="7.10077">
        <ele>612.24475098</ele>
        <time>2021-06-16T14:23:33Z</time>
      </trkpt>
      <trkpt lat="48.07139" lon="7.10066">
        <ele>612.24475098</ele>
        <time>2021-06-16T14:23:38Z</time>
      </trkpt>
      <trkpt lat="48.07148" lon="7.10058">
        <ele>612.24475098</ele>
        <time>2021-06-16T14:23:40Z</time>
      </trkpt>
      <trkpt lat="48.07157" lon="7.10055">
        <ele>613.25402832</ele>
        <time>2021-06-16T14:23:44Z</time>
      </trkpt>
      <trkpt lat="48.07168" lon="7.10057">
        <ele>613.25402832</ele>
        <time>2021-06-16T14:23:47Z</time>
      </trkpt>
      <trkpt lat="48.07177" lon="7.1006">
        <ele>614.38128662</ele>
        <time>2021-06-16T14:23:51Z</time>
      </trkpt>
      <trkpt lat="48.07187" lon="7.10064">
        <ele>614.38128662</ele>
        <time>2021-06-16T14:23:54Z</time>
      </trkpt>
      <trkpt lat="48.07196" lon="7.10068">
        <ele>615.32647705</ele>
        <time>2021-06-16T14:23:58Z</time>
      </trkpt>
      <trkpt lat="48.07208" lon="7.10073">
        <ele>616.46282959</ele>
        <time>2021-06-16T14:24:02Z</time>
      </trkpt>
      <trkpt lat="48.07218" lon="7.1008">
        <ele>616.46282959</ele>
        <time>2021-06-16T14:24:06Z</time>
      </trkpt>
      <trkpt lat="48.07227" lon="7.10086">
        <ele>617.56860352</ele>
        <time>2021-06-16T14:24:09Z</time>
      </trkpt>
      <trkpt lat="48.07238" lon="7.1009">
        <ele>617.56860352</ele>
        <time>2021-06-16T14:24:12Z</time>
      </trkpt>
      <trkpt lat="48.07246" lon="7.10094">
        <ele>619.28466797</ele>
        <time>2021-06-16T14:24:17Z</time>
      </trkpt>
      <trkpt lat="48.07254" lon="7.10096">
        <ele>619.28466797</ele>
        <time>2021-06-16T14:24:19Z</time>
      </trkpt>
      <trkpt lat="48.07266" lon="7.10097">
        <ele>619.28466797</ele>
        <time>2021-06-16T14:24:23Z</time>
      </trkpt>
      <trkpt lat="48.07276" lon="7.10094">
        <ele>619.90008545</ele>
        <time>2021-06-16T14:24:28Z</time>
      </trkpt>
      <trkpt lat="48.07285" lon="7.10085">
        <ele>619.90008545</ele>
        <time>2021-06-16T14:24:32Z</time>
      </trkpt>
      <trkpt lat="48.0729" lon="7.10071">
        <ele>619.90008545</ele>
        <time>2021-06-16T14:24:35Z</time>
      </trkpt>
      <trkpt lat="48.07294" lon="7.10054">
        <ele>619.90008545</ele>
        <time>2021-06-16T14:24:38Z</time>
      </trkpt>
      <trkpt lat="48.07294" lon="7.10037">
        <ele>619.90008545</ele>
        <time>2021-06-16T14:24:41Z</time>
      </trkpt>
      <trkpt lat="48.07288" lon="7.10023">
        <ele>620.93621826</ele>
        <time>2021-06-16T14:24:44Z</time>
      </trkpt>
      <trkpt lat="48.0728" lon="7.10014">
        <ele>620.93621826</ele>
        <time>2021-06-16T14:24:47Z</time>
      </trkpt>
      <trkpt lat="48.0727" lon="7.10009">
        <ele>620.93621826</ele>
        <time>2021-06-16T14:24:50Z</time>
      </trkpt>
      <trkpt lat="48.07261" lon="7.10002">
        <ele>621.96368408</ele>
        <time>2021-06-16T14:24:53Z</time>
      </trkpt>
      <trkpt lat="48.07252" lon="7.09993">
        <ele>621.96368408</ele>
        <time>2021-06-16T14:24:56Z</time>
      </trkpt>
      <trkpt lat="48.07243" lon="7.09987">
        <ele>621.96368408</ele>
        <time>2021-06-16T14:24:59Z</time>
      </trkpt>
      <trkpt lat="48.07234" lon="7.09978">
        <ele>623.06268311</ele>
        <time>2021-06-16T14:25:03Z</time>
      </trkpt>
      <trkpt lat="48.07227" lon="7.09966">
        <ele>624.13574219</ele>
        <time>2021-06-16T14:25:07Z</time>
      </trkpt>
      <trkpt lat="48.07221" lon="7.09954">
        <ele>624.13574219</ele>
        <time>2021-06-16T14:25:11Z</time>
      </trkpt>
      <trkpt lat="48.07213" lon="7.09943">
        <ele>625.26507568</ele>
        <time>2021-06-16T14:25:14Z</time>
      </trkpt>
      <trkpt lat="48.07209" lon="7.09937">
        <ele>626.06866455</ele>
        <time>2021-06-16T14:25:17Z</time>
      </trkpt>
      <trkpt lat="48.07204" lon="7.09929">
        <ele>626.06866455</ele>
        <time>2021-06-16T14:25:19Z</time>
      </trkpt>
      <trkpt lat="48.07197" lon="7.09918">
        <ele>626.95135498</ele>
        <time>2021-06-16T14:25:23Z</time>
      </trkpt>
      <trkpt lat="48.0718" lon="7.09901">
        <ele>627.97149658</ele>
        <time>2021-06-16T14:25:29Z</time>
      </trkpt>
      <trkpt lat="48.07172" lon="7.09896">
        <ele>627.97149658</ele>
        <time>2021-06-16T14:25:33Z</time>
      </trkpt>
      <trkpt lat="48.07163" lon="7.09894">
        <ele>629.15344238</ele>
        <time>2021-06-16T14:25:37Z</time>
      </trkpt>
      <trkpt lat="48.07151" lon="7.09893">
        <ele>629.15344238</ele>
        <time>2021-06-16T14:25:41Z</time>
      </trkpt>
      <trkpt lat="48.0714" lon="7.09888">
        <ele>630.15551758</ele>
        <time>2021-06-16T14:25:45Z</time>
      </trkpt>
      <trkpt lat="48.07129" lon="7.09886">
        <ele>630.15551758</ele>
        <time>2021-06-16T14:25:49Z</time>
      </trkpt>
      <trkpt lat="48.07108" lon="7.09882">
        <ele>631.22802734</ele>
        <time>2021-06-16T14:25:57Z</time>
      </trkpt>
      <trkpt lat="48.07097" lon="7.09881">
        <ele>632.34625244</ele>
        <time>2021-06-16T14:26:01Z</time>
      </trkpt>
      <trkpt lat="48.07087" lon="7.09881">
        <ele>632.34625244</ele>
        <time>2021-06-16T14:26:05Z</time>
      </trkpt>
      <trkpt lat="48.07076" lon="7.09882">
        <ele>633.31207275</ele>
        <time>2021-06-16T14:26:09Z</time>
      </trkpt>
      <trkpt lat="48.07064" lon="7.09883">
        <ele>633.31207275</ele>
        <time>2021-06-16T14:26:13Z</time>
      </trkpt>
      <trkpt lat="48.07055" lon="7.09886">
        <ele>634.81164551</ele>
        <time>2021-06-16T14:26:17Z</time>
      </trkpt>
      <trkpt lat="48.07047" lon="7.09888">
        <ele>634.81164551</ele>
        <time>2021-06-16T14:26:19Z</time>
      </trkpt>
      <trkpt lat="48.07036" lon="7.09887">
        <ele>635.43481445</ele>
        <time>2021-06-16T14:26:23Z</time>
      </trkpt>
      <trkpt lat="48.07025" lon="7.09889">
        <ele>635.43481445</ele>
        <time>2021-06-16T14:26:27Z</time>
      </trkpt>
      <trkpt lat="48.07015" lon="7.09891">
        <ele>636.46807861</ele>
        <time>2021-06-16T14:26:31Z</time>
      </trkpt>
      <trkpt lat="48.07003" lon="7.09891">
        <ele>636.46807861</ele>
        <time>2021-06-16T14:26:34Z</time>
      </trkpt>
      <trkpt lat="48.06994" lon="7.09892">
        <ele>637.59320068</ele>
        <time>2021-06-16T14:26:37Z</time>
      </trkpt>
      <trkpt lat="48.06984" lon="7.09893">
        <ele>637.59320068</ele>
        <time>2021-06-16T14:26:41Z</time>
      </trkpt>
      <trkpt lat="48.06972" lon="7.09895">
        <ele>638.68249512</ele>
        <time>2021-06-16T14:26:45Z</time>
      </trkpt>
      <trkpt lat="48.0696" lon="7.09897">
        <ele>638.68249512</ele>
        <time>2021-06-16T14:26:48Z</time>
      </trkpt>
      <trkpt lat="48.06951" lon="7.09898">
        <ele>638.68249512</ele>
        <time>2021-06-16T14:26:51Z</time>
      </trkpt>
      <trkpt lat="48.06942" lon="7.099">
        <ele>639.64056396</ele>
        <time>2021-06-16T14:26:56Z</time>
      </trkpt>
      <trkpt lat="48.06932" lon="7.099">
        <ele>639.64056396</ele>
        <time>2021-06-16T14:27:00Z</time>
      </trkpt>
      <trkpt lat="48.06923" lon="7.09901">
        <ele>640.71820068</ele>
        <time>2021-06-16T14:27:04Z</time>
      </trkpt>
      <trkpt lat="48.06913" lon="7.09903">
        <ele>640.71820068</ele>
        <time>2021-06-16T14:27:08Z</time>
      </trkpt>
      <trkpt lat="48.06902" lon="7.09905">
        <ele>641.81634521</ele>
        <time>2021-06-16T14:27:11Z</time>
      </trkpt>
      <trkpt lat="48.06892" lon="7.09907">
        <ele>641.81634521</ele>
        <time>2021-06-16T14:27:14Z</time>
      </trkpt>
      <trkpt lat="48.06886" lon="7.09908">
        <ele>642.74273682</ele>
        <time>2021-06-16T14:27:17Z</time>
      </trkpt>
      <trkpt lat="48.0688" lon="7.09908">
        <ele>642.74273682</ele>
        <time>2021-06-16T14:27:18Z</time>
      </trkpt>
      <trkpt lat="48.06869" lon="7.09908">
        <ele>642.74273682</ele>
        <time>2021-06-16T14:27:22Z</time>
      </trkpt>
      <trkpt lat="48.0686" lon="7.09904">
        <ele>643.71966553</ele>
        <time>2021-06-16T14:27:26Z</time>
      </trkpt>
      <trkpt lat="48.0685" lon="7.09901">
        <ele>644.78900146</ele>
        <time>2021-06-16T14:27:31Z</time>
      </trkpt>
      <trkpt lat="48.06839" lon="7.09896">
        <ele>644.78900146</ele>
        <time>2021-06-16T14:27:35Z</time>
      </trkpt>
      <trkpt lat="48.06829" lon="7.09892">
        <ele>644.78900146</ele>
        <time>2021-06-16T14:27:38Z</time>
      </trkpt>
      <trkpt lat="48.06819" lon="7.09887">
        <ele>645.92950439</ele>
        <time>2021-06-16T14:27:42Z</time>
      </trkpt>
      <trkpt lat="48.0681" lon="7.09879">
        <ele>645.92950439</ele>
        <time>2021-06-16T14:27:46Z</time>
      </trkpt>
      <trkpt lat="48.06801" lon="7.09873">
        <ele>647.07287598</ele>
        <time>2021-06-16T14:27:50Z</time>
      </trkpt>
      <trkpt lat="48.0678" lon="7.09864">
        <ele>647.07287598</ele>
        <time>2021-06-16T14:27:58Z</time>
      </trkpt>
      <trkpt lat="48.0677" lon="7.09861">
        <ele>649.3270874</ele>
        <time>2021-06-16T14:28:03Z</time>
      </trkpt>
      <trkpt lat="48.06759" lon="7.0986">
        <ele>650.43292236</ele>
        <time>2021-06-16T14:28:08Z</time>
      </trkpt>
      <trkpt lat="48.06749" lon="7.09861">
        <ele>650.43292236</ele>
        <time>2021-06-16T14:28:12Z</time>
      </trkpt>
      <trkpt lat="48.06741" lon="7.09863">
        <ele>651.36987305</ele>
        <time>2021-06-16T14:28:17Z</time>
      </trkpt>
      <trkpt lat="48.06733" lon="7.09863">
        <ele>651.36987305</ele>
        <time>2021-06-16T14:28:20Z</time>
      </trkpt>
      <trkpt lat="48.06713" lon="7.09868">
        <ele>651.36987305</ele>
        <time>2021-06-16T14:28:27Z</time>
      </trkpt>
      <trkpt lat="48.06704" lon="7.0987">
        <ele>652.33551025</ele>
        <time>2021-06-16T14:28:31Z</time>
      </trkpt>
      <trkpt lat="48.06694" lon="7.09872">
        <ele>652.33551025</ele>
        <time>2021-06-16T14:28:35Z</time>
      </trkpt>
      <trkpt lat="48.06683" lon="7.09875">
        <ele>653.44696045</ele>
        <time>2021-06-16T14:28:38Z</time>
      </trkpt>
      <trkpt lat="48.06674" lon="7.09877">
        <ele>653.44696045</ele>
        <time>2021-06-16T14:28:41Z</time>
      </trkpt>
      <trkpt lat="48.06664" lon="7.09877">
        <ele>654.50610352</ele>
        <time>2021-06-16T14:28:44Z</time>
      </trkpt>
      <trkpt lat="48.06655" lon="7.09874">
        <ele>654.50610352</ele>
        <time>2021-06-16T14:28:47Z</time>
      </trkpt>
      <trkpt lat="48.06646" lon="7.09866">
        <ele>655.62414551</ele>
        <time>2021-06-16T14:28:51Z</time>
      </trkpt>
      <trkpt lat="48.0664" lon="7.09852">
        <ele>655.62414551</ele>
        <time>2021-06-16T14:28:55Z</time>
      </trkpt>
      <trkpt lat="48.06638" lon="7.09837">
        <ele>656.83825684</ele>
        <time>2021-06-16T14:28:59Z</time>
      </trkpt>
      <trkpt lat="48.06637" lon="7.09821">
        <ele>656.83825684</ele>
        <time>2021-06-16T14:29:03Z</time>
      </trkpt>
      <trkpt lat="48.06639" lon="7.09807">
        <ele>658.04516602</ele>
        <time>2021-06-16T14:29:07Z</time>
      </trkpt>
      <trkpt lat="48.06643" lon="7.09794">
        <ele>658.04516602</ele>
        <time>2021-06-16T14:29:11Z</time>
      </trkpt>
      <trkpt lat="48.0665" lon="7.09781">
        <ele>659.14245605</ele>
        <time>2021-06-16T14:29:15Z</time>
      </trkpt>
      <trkpt lat="48.06652" lon="7.09776">
        <ele>659.79125977</ele>
        <time>2021-06-16T14:29:17Z</time>
      </trkpt>
      <trkpt lat="48.06656" lon="7.09768">
        <ele>659.79125977</ele>
        <time>2021-06-16T14:29:19Z</time>
      </trkpt>
      <trkpt lat="48.06662" lon="7.09754">
        <ele>659.79125977</ele>
        <time>2021-06-16T14:29:23Z</time>
      </trkpt>
      <trkpt lat="48.0667" lon="7.09741">
        <ele>660.64697266</ele>
        <time>2021-06-16T14:29:27Z</time>
      </trkpt>
      <trkpt lat="48.06675" lon="7.09726">
        <ele>660.64697266</ele>
        <time>2021-06-16T14:29:31Z</time>
      </trkpt>
      <trkpt lat="48.06678" lon="7.0971">
        <ele>661.63946533</ele>
        <time>2021-06-16T14:29:35Z</time>
      </trkpt>
      <trkpt lat="48.0668" lon="7.09694">
        <ele>662.84936523</ele>
        <time>2021-06-16T14:29:39Z</time>
      </trkpt>
      <trkpt lat="48.0668" lon="7.09678">
        <ele>662.84936523</ele>
        <time>2021-06-16T14:29:43Z</time>
      </trkpt>
      <trkpt lat="48.06682" lon="7.09661">
        <ele>663.95318604</ele>
        <time>2021-06-16T14:29:47Z</time>
      </trkpt>
      <trkpt lat="48.06681" lon="7.09645">
        <ele>663.95318604</ele>
        <time>2021-06-16T14:29:51Z</time>
      </trkpt>
      <trkpt lat="48.0668" lon="7.09629">
        <ele>665.0199585</ele>
        <time>2021-06-16T14:29:55Z</time>
      </trkpt>
      <trkpt lat="48.06678" lon="7.09611">
        <ele>665.0199585</ele>
        <time>2021-06-16T14:29:59Z</time>
      </trkpt>
      <trkpt lat="48.06677" lon="7.09595">
        <ele>665.91741943</ele>
        <time>2021-06-16T14:30:03Z</time>
      </trkpt>
      <trkpt lat="48.06677" lon="7.0958">
        <ele>665.91741943</ele>
        <time>2021-06-16T14:30:07Z</time>
      </trkpt>
      <trkpt lat="48.06675" lon="7.09565">
        <ele>667.13031006</ele>
        <time>2021-06-16T14:30:11Z</time>
      </trkpt>
      <trkpt lat="48.06673" lon="7.09548">
        <ele>667.13031006</ele>
        <time>2021-06-16T14:30:15Z</time>
      </trkpt>
      <trkpt lat="48.06672" lon="7.09542">
        <ele>668.07159424</ele>
        <time>2021-06-16T14:30:17Z</time>
      </trkpt>
      <trkpt lat="48.0667" lon="7.09531">
        <ele>668.07159424</ele>
        <time>2021-06-16T14:30:19Z</time>
      </trkpt>
      <trkpt lat="48.06669" lon="7.09516">
        <ele>668.07159424</ele>
        <time>2021-06-16T14:30:22Z</time>
      </trkpt>
      <trkpt lat="48.06667" lon="7.09501">
        <ele>668.91278076</ele>
        <time>2021-06-16T14:30:26Z</time>
      </trkpt>
      <trkpt lat="48.06666" lon="7.09485">
        <ele>668.91278076</ele>
        <time>2021-06-16T14:30:29Z</time>
      </trkpt>
      <trkpt lat="48.06664" lon="7.0947">
        <ele>670.07263184</ele>
        <time>2021-06-16T14:30:33Z</time>
      </trkpt>
      <trkpt lat="48.06661" lon="7.09455">
        <ele>670.07263184</ele>
        <time>2021-06-16T14:30:37Z</time>
      </trkpt>
      <trkpt lat="48.06661" lon="7.0944">
        <ele>671.16174316</ele>
        <time>2021-06-16T14:30:42Z</time>
      </trkpt>
      <trkpt lat="48.06658" lon="7.09426">
        <ele>671.16174316</ele>
        <time>2021-06-16T14:30:47Z</time>
      </trkpt>
      <trkpt lat="48.06653" lon="7.09413">
        <ele>672.26373291</ele>
        <time>2021-06-16T14:30:51Z</time>
      </trkpt>
      <trkpt lat="48.06646" lon="7.09403">
        <ele>672.26373291</ele>
        <time>2021-06-16T14:30:55Z</time>
      </trkpt>
      <trkpt lat="48.06636" lon="7.09397">
        <ele>673.36431885</ele>
        <time>2021-06-16T14:30:58Z</time>
      </trkpt>
      <trkpt lat="48.06626" lon="7.09396">
        <ele>673.36431885</ele>
        <time>2021-06-16T14:31:01Z</time>
      </trkpt>
      <trkpt lat="48.06616" lon="7.09399">
        <ele>673.36431885</ele>
        <time>2021-06-16T14:31:05Z</time>
      </trkpt>
      <trkpt lat="48.06606" lon="7.09404">
        <ele>673.36431885</ele>
        <time>2021-06-16T14:31:08Z</time>
      </trkpt>
      <trkpt lat="48.06597" lon="7.09411">
        <ele>674.26409912</ele>
        <time>2021-06-16T14:31:11Z</time>
      </trkpt>
      <trkpt lat="48.06588" lon="7.09416">
        <ele>674.26409912</ele>
        <time>2021-06-16T14:31:14Z</time>
      </trkpt>
      <trkpt lat="48.06582" lon="7.09417">
        <ele>675.05297852</ele>
        <time>2021-06-16T14:31:17Z</time>
      </trkpt>
      <trkpt lat="48.06575" lon="7.09419">
        <ele>675.05297852</ele>
        <time>2021-06-16T14:31:18Z</time>
      </trkpt>
      <trkpt lat="48.06564" lon="7.09417">
        <ele>675.05297852</ele>
        <time>2021-06-16T14:31:21Z</time>
      </trkpt>
      <trkpt lat="48.06552" lon="7.09414">
        <ele>675.05297852</ele>
        <time>2021-06-16T14:31:24Z</time>
      </trkpt>
      <trkpt lat="48.06542" lon="7.09409">
        <ele>677.16192627</ele>
        <time>2021-06-16T14:31:30Z</time>
      </trkpt>
      <trkpt lat="48.06535" lon="7.09399">
        <ele>677.16192627</ele>
        <time>2021-06-16T14:31:34Z</time>
      </trkpt>
      <trkpt lat="48.06526" lon="7.09391">
        <ele>677.16192627</ele>
        <time>2021-06-16T14:31:38Z</time>
      </trkpt>
      <trkpt lat="48.06515" lon="7.09388">
        <ele>678.05847168</ele>
        <time>2021-06-16T14:31:41Z</time>
      </trkpt>
      <trkpt lat="48.06504" lon="7.09387">
        <ele>678.05847168</ele>
        <time>2021-06-16T14:31:45Z</time>
      </trkpt>
      <trkpt lat="48.06494" lon="7.09388">
        <ele>679.31005859</ele>
        <time>2021-06-16T14:31:49Z</time>
      </trkpt>
      <trkpt lat="48.06485" lon="7.09391">
        <ele>679.31005859</ele>
        <time>2021-06-16T14:31:53Z</time>
      </trkpt>
      <trkpt lat="48.06476" lon="7.09399">
        <ele>679.31005859</ele>
        <time>2021-06-16T14:31:56Z</time>
      </trkpt>
      <trkpt lat="48.06467" lon="7.09403">
        <ele>680.42895508</ele>
        <time>2021-06-16T14:32:00Z</time>
      </trkpt>
      <trkpt lat="48.06457" lon="7.09407">
        <ele>680.42895508</ele>
        <time>2021-06-16T14:32:03Z</time>
      </trkpt>
      <trkpt lat="48.06447" lon="7.09409">
        <ele>681.41986084</ele>
        <time>2021-06-16T14:32:07Z</time>
      </trkpt>
      <trkpt lat="48.06437" lon="7.09413">
        <ele>681.41986084</ele>
        <time>2021-06-16T14:32:11Z</time>
      </trkpt>
      <trkpt lat="48.06427" lon="7.0942">
        <ele>682.45947266</ele>
        <time>2021-06-16T14:32:14Z</time>
      </trkpt>
      <trkpt lat="48.06421" lon="7.09423">
        <ele>683.13684082</ele>
        <time>2021-06-16T14:32:17Z</time>
      </trkpt>
      <trkpt lat="48.06415" lon="7.09427">
        <ele>683.13684082</ele>
        <time>2021-06-16T14:32:19Z</time>
      </trkpt>
      <trkpt lat="48.06405" lon="7.09433">
        <ele>683.79864502</ele>
        <time>2021-06-16T14:32:23Z</time>
      </trkpt>
      <trkpt lat="48.06393" lon="7.09438">
        <ele>683.79864502</ele>
        <time>2021-06-16T14:32:27Z</time>
      </trkpt>
      <trkpt lat="48.06382" lon="7.09441">
        <ele>684.80389404</ele>
        <time>2021-06-16T14:32:31Z</time>
      </trkpt>
      <trkpt lat="48.06372" lon="7.09446">
        <ele>684.80389404</ele>
        <time>2021-06-16T14:32:35Z</time>
      </trkpt>
      <trkpt lat="48.06361" lon="7.09448">
        <ele>685.87854004</ele>
        <time>2021-06-16T14:32:38Z</time>
      </trkpt>
      <trkpt lat="48.06353" lon="7.09449">
        <ele>685.87854004</ele>
        <time>2021-06-16T14:32:42Z</time>
      </trkpt>
      <trkpt lat="48.06342" lon="7.09451">
        <ele>687.01599121</ele>
        <time>2021-06-16T14:32:45Z</time>
      </trkpt>
      <trkpt lat="48.06331" lon="7.09445">
        <ele>687.01599121</ele>
        <time>2021-06-16T14:32:48Z</time>
      </trkpt>
      <trkpt lat="48.06321" lon="7.0944">
        <ele>688.06274414</ele>
        <time>2021-06-16T14:32:51Z</time>
      </trkpt>
      <trkpt lat="48.06311" lon="7.09435">
        <ele>688.06274414</ele>
        <time>2021-06-16T14:32:55Z</time>
      </trkpt>
      <trkpt lat="48.06301" lon="7.09431">
        <ele>689.09735107</ele>
        <time>2021-06-16T14:32:58Z</time>
      </trkpt>
      <trkpt lat="48.06292" lon="7.09424">
        <ele>689.09735107</ele>
        <time>2021-06-16T14:33:02Z</time>
      </trkpt>
      <trkpt lat="48.06284" lon="7.09414">
        <ele>690.15820312</ele>
        <time>2021-06-16T14:33:06Z</time>
      </trkpt>
      <trkpt lat="48.06278" lon="7.09403">
        <ele>690.15820312</ele>
        <time>2021-06-16T14:33:09Z</time>
      </trkpt>
      <trkpt lat="48.06271" lon="7.09392">
        <ele>691.22180176</ele>
        <time>2021-06-16T14:33:13Z</time>
      </trkpt>
      <trkpt lat="48.06268" lon="7.0938">
        <ele>692.00128174</ele>
        <time>2021-06-16T14:33:17Z</time>
      </trkpt>
      <trkpt lat="48.06264" lon="7.09368">
        <ele>692.00128174</ele>
        <time>2021-06-16T14:33:19Z</time>
      </trkpt>
      <trkpt lat="48.06253" lon="7.09339">
        <ele>692.00128174</ele>
        <time>2021-06-16T14:33:27Z</time>
      </trkpt>
      <trkpt lat="48.06247" lon="7.09327">
        <ele>693.87731934</ele>
        <time>2021-06-16T14:33:30Z</time>
      </trkpt>
      <trkpt lat="48.06239" lon="7.09317">
        <ele>693.87731934</ele>
        <time>2021-06-16T14:33:33Z</time>
      </trkpt>
      <trkpt lat="48.06228" lon="7.09311">
        <ele>694.93634033</ele>
        <time>2021-06-16T14:33:36Z</time>
      </trkpt>
      <trkpt lat="48.06218" lon="7.09305">
        <ele>694.93634033</ele>
        <time>2021-06-16T14:33:39Z</time>
      </trkpt>
      <trkpt lat="48.06207" lon="7.09303">
        <ele>694.93634033</ele>
        <time>2021-06-16T14:33:42Z</time>
      </trkpt>
      <trkpt lat="48.06196" lon="7.09304">
        <ele>696.23156738</ele>
        <time>2021-06-16T14:33:46Z</time>
      </trkpt>
      <trkpt lat="48.06186" lon="7.09308">
        <ele>696.23156738</ele>
        <time>2021-06-16T14:33:49Z</time>
      </trkpt>
      <trkpt lat="48.06176" lon="7.09312">
        <ele>697.1697998</ele>
        <time>2021-06-16T14:33:52Z</time>
      </trkpt>
      <trkpt lat="48.06166" lon="7.09317">
        <ele>697.1697998</ele>
        <time>2021-06-16T14:33:55Z</time>
      </trkpt>
      <trkpt lat="48.06155" lon="7.09326">
        <ele>697.1697998</ele>
        <time>2021-06-16T14:33:58Z</time>
      </trkpt>
      <trkpt lat="48.06146" lon="7.09334">
        <ele>698.24871826</ele>
        <time>2021-06-16T14:34:01Z</time>
      </trkpt>
      <trkpt lat="48.06136" lon="7.09337">
        <ele>698.24871826</ele>
        <time>2021-06-16T14:34:04Z</time>
      </trkpt>
      <trkpt lat="48.06126" lon="7.09342">
        <ele>699.38018799</ele>
        <time>2021-06-16T14:34:07Z</time>
      </trkpt>
      <trkpt lat="48.06115" lon="7.09344">
        <ele>700.54779053</ele>
        <time>2021-06-16T14:34:10Z</time>
      </trkpt>
      <trkpt lat="48.06105" lon="7.09343">
        <ele>700.54779053</ele>
        <time>2021-06-16T14:34:14Z</time>
      </trkpt>
      <trkpt lat="48.06098" lon="7.0934">
        <ele>701.60998535</ele>
        <time>2021-06-16T14:34:17Z</time>
      </trkpt>
      <trkpt lat="48.06092" lon="7.09337">
        <ele>701.60998535</ele>
        <time>2021-06-16T14:34:18Z</time>
      </trkpt>
      <trkpt lat="48.06081" lon="7.09333">
        <ele>701.60998535</ele>
        <time>2021-06-16T14:34:21Z</time>
      </trkpt>
      <trkpt lat="48.06072" lon="7.09328">
        <ele>702.5</ele>
        <time>2021-06-16T14:34:25Z</time>
      </trkpt>
      <trkpt lat="48.06064" lon="7.09321">
        <ele>702.5</ele>
        <time>2021-06-16T14:34:27Z</time>
      </trkpt>
      <trkpt lat="48.06054" lon="7.09313">
        <ele>703.63537598</ele>
        <time>2021-06-16T14:34:30Z</time>
      </trkpt>
      <trkpt lat="48.06044" lon="7.09305">
        <ele>703.63537598</ele>
        <time>2021-06-16T14:34:33Z</time>
      </trkpt>
      <trkpt lat="48.06036" lon="7.09295">
        <ele>704.7376709</ele>
        <time>2021-06-16T14:34:36Z</time>
      </trkpt>
      <trkpt lat="48.06028" lon="7.09284">
        <ele>705.91265869</ele>
        <time>2021-06-16T14:34:39Z</time>
      </trkpt>
      <trkpt lat="48.06021" lon="7.09274">
        <ele>705.91265869</ele>
        <time>2021-06-16T14:34:43Z</time>
      </trkpt>
      <trkpt lat="48.06014" lon="7.09264">
        <ele>707.00823975</ele>
        <time>2021-06-16T14:34:47Z</time>
      </trkpt>
      <trkpt lat="48.06006" lon="7.09253">
        <ele>707.00823975</ele>
        <time>2021-06-16T14:34:50Z</time>
      </trkpt>
      <trkpt lat="48.06" lon="7.09242">
        <ele>708.11816406</ele>
        <time>2021-06-16T14:34:53Z</time>
      </trkpt>
      <trkpt lat="48.05994" lon="7.09231">
        <ele>708.11816406</ele>
        <time>2021-06-16T14:34:56Z</time>
      </trkpt>
      <trkpt lat="48.05988" lon="7.0922">
        <ele>709.10015869</ele>
        <time>2021-06-16T14:34:59Z</time>
      </trkpt>
      <trkpt lat="48.05985" lon="7.09205">
        <ele>709.10015869</ele>
        <time>2021-06-16T14:35:03Z</time>
      </trkpt>
      <trkpt lat="48.0598" lon="7.0919">
        <ele>710.15948486</ele>
        <time>2021-06-16T14:35:06Z</time>
      </trkpt>
      <trkpt lat="48.05975" lon="7.09177">
        <ele>710.15948486</ele>
        <time>2021-06-16T14:35:09Z</time>
      </trkpt>
      <trkpt lat="48.0597" lon="7.09163">
        <ele>711.2210083</ele>
        <time>2021-06-16T14:35:12Z</time>
      </trkpt>
      <trkpt lat="48.05966" lon="7.09149">
        <ele>711.2210083</ele>
        <time>2021-06-16T14:35:15Z</time>
      </trkpt>
      <trkpt lat="48.05965" lon="7.09144">
        <ele>712.16552734</ele>
        <time>2021-06-16T14:35:17Z</time>
      </trkpt>
      <trkpt lat="48.05964" lon="7.09132">
        <ele>712.16552734</ele>
        <time>2021-06-16T14:35:18Z</time>
      </trkpt>
      <trkpt lat="48.05961" lon="7.09116">
        <ele>713.17828369</ele>
        <time>2021-06-16T14:35:22Z</time>
      </trkpt>
      <trkpt lat="48.05959" lon="7.09083">
        <ele>713.17828369</ele>
        <time>2021-06-16T14:35:27Z</time>
      </trkpt>
      <trkpt lat="48.05961" lon="7.09067">
        <ele>714.26123047</ele>
        <time>2021-06-16T14:35:30Z</time>
      </trkpt>
      <trkpt lat="48.05967" lon="7.09053">
        <ele>714.26123047</ele>
        <time>2021-06-16T14:35:33Z</time>
      </trkpt>
      <trkpt lat="48.05971" lon="7.0904">
        <ele>715.32666016</ele>
        <time>2021-06-16T14:35:36Z</time>
      </trkpt>
      <trkpt lat="48.05978" lon="7.09027">
        <ele>715.32666016</ele>
        <time>2021-06-16T14:35:39Z</time>
      </trkpt>
      <trkpt lat="48.05984" lon="7.09013">
        <ele>716.40570068</ele>
        <time>2021-06-16T14:35:42Z</time>
      </trkpt>
      <trkpt lat="48.05991" lon="7.09001">
        <ele>716.40570068</ele>
        <time>2021-06-16T14:35:45Z</time>
      </trkpt>
      <trkpt lat="48.05998" lon="7.08989">
        <ele>717.70965576</ele>
        <time>2021-06-16T14:35:48Z</time>
      </trkpt>
      <trkpt lat="48.06005" lon="7.08975">
        <ele>718.83300781</ele>
        <time>2021-06-16T14:35:51Z</time>
      </trkpt>
      <trkpt lat="48.06012" lon="7.08963">
        <ele>718.83300781</ele>
        <time>2021-06-16T14:35:54Z</time>
      </trkpt>
      <trkpt lat="48.0602" lon="7.0895">
        <ele>719.84588623</ele>
        <time>2021-06-16T14:35:58Z</time>
      </trkpt>
      <trkpt lat="48.06026" lon="7.08938">
        <ele>719.84588623</ele>
        <time>2021-06-16T14:36:01Z</time>
      </trkpt>
      <trkpt lat="48.0603" lon="7.08924">
        <ele>719.84588623</ele>
        <time>2021-06-16T14:36:04Z</time>
      </trkpt>
      <trkpt lat="48.06035" lon="7.0891">
        <ele>720.92791748</ele>
        <time>2021-06-16T14:36:07Z</time>
      </trkpt>
      <trkpt lat="48.06039" lon="7.08897">
        <ele>720.92791748</ele>
        <time>2021-06-16T14:36:10Z</time>
      </trkpt>
      <trkpt lat="48.06044" lon="7.08883">
        <ele>720.92791748</ele>
        <time>2021-06-16T14:36:13Z</time>
      </trkpt>
      <trkpt lat="48.06048" lon="7.08873">
        <ele>722.79980469</ele>
        <time>2021-06-16T14:36:17Z</time>
      </trkpt>
      <trkpt lat="48.06052" lon="7.08863">
        <ele>722.79980469</ele>
        <time>2021-06-16T14:36:18Z</time>
      </trkpt>
      <trkpt lat="48.06059" lon="7.08848">
        <ele>722.79980469</ele>
        <time>2021-06-16T14:36:21Z</time>
      </trkpt>
      <trkpt lat="48.06065" lon="7.08834">
        <ele>723.58538818</ele>
        <time>2021-06-16T14:36:24Z</time>
      </trkpt>
      <trkpt lat="48.06069" lon="7.08818">
        <ele>724.72827148</ele>
        <time>2021-06-16T14:36:27Z</time>
      </trkpt>
      <trkpt lat="48.06071" lon="7.08801">
        <ele>724.72827148</ele>
        <time>2021-06-16T14:36:30Z</time>
      </trkpt>
      <trkpt lat="48.06072" lon="7.08785">
        <ele>725.72845459</ele>
        <time>2021-06-16T14:36:33Z</time>
      </trkpt>
      <trkpt lat="48.06071" lon="7.0877">
        <ele>725.72845459</ele>
        <time>2021-06-16T14:36:36Z</time>
      </trkpt>
      <trkpt lat="48.0607" lon="7.08753">
        <ele>725.72845459</ele>
        <time>2021-06-16T14:36:39Z</time>
      </trkpt>
      <trkpt lat="48.0607" lon="7.08737">
        <ele>726.81610107</ele>
        <time>2021-06-16T14:36:42Z</time>
      </trkpt>
      <trkpt lat="48.06069" lon="7.08721">
        <ele>726.81610107</ele>
        <time>2021-06-16T14:36:45Z</time>
      </trkpt>
      <trkpt lat="48.06068" lon="7.08706">
        <ele>726.81610107</ele>
        <time>2021-06-16T14:36:48Z</time>
      </trkpt>
      <trkpt lat="48.06068" lon="7.0869">
        <ele>727.81896973</ele>
        <time>2021-06-16T14:36:51Z</time>
      </trkpt>
      <trkpt lat="48.06067" lon="7.08676">
        <ele>728.98925781</ele>
        <time>2021-06-16T14:36:55Z</time>
      </trkpt>
      <trkpt lat="48.06067" lon="7.08661">
        <ele>728.98925781</ele>
        <time>2021-06-16T14:36:58Z</time>
      </trkpt>
      <trkpt lat="48.06071" lon="7.08652">
        <ele>731.88922119</ele>
        <time>2021-06-16T14:48:46Z</time>
      </trkpt>
      <trkpt lat="48.06071" lon="7.08653">
        <ele>731.88922119</ele>
        <time>2021-06-16T14:49:05Z</time>
      </trkpt>
      <trkpt lat="48.06062" lon="7.08672">
        <ele>731.88922119</ele>
        <time>2021-06-16T14:49:07Z</time>
      </trkpt>
      <trkpt lat="48.06062" lon="7.08686">
        <ele>731.63104248</ele>
        <time>2021-06-16T14:49:10Z</time>
      </trkpt>
      <trkpt lat="48.06062" lon="7.08701">
        <ele>731.63104248</ele>
        <time>2021-06-16T14:49:13Z</time>
      </trkpt>
      <trkpt lat="48.06062" lon="7.08717">
        <ele>730.13134766</ele>
        <time>2021-06-16T14:49:15Z</time>
      </trkpt>
      <trkpt lat="48.0606" lon="7.08732">
        <ele>729.32531738</ele>
        <time>2021-06-16T14:49:17Z</time>
      </trkpt>
      <trkpt lat="48.0606" lon="7.08752">
        <ele>729.32531738</ele>
        <time>2021-06-16T14:49:19Z</time>
      </trkpt>
      <trkpt lat="48.0606" lon="7.08774">
        <ele>728.56066895</ele>
        <time>2021-06-16T14:49:21Z</time>
      </trkpt>
      <trkpt lat="48.0606" lon="7.08795">
        <ele>728.56066895</ele>
        <time>2021-06-16T14:49:22Z</time>
      </trkpt>
      <trkpt lat="48.0606" lon="7.08813">
        <ele>727.39819336</ele>
        <time>2021-06-16T14:49:24Z</time>
      </trkpt>
      <trkpt lat="48.06057" lon="7.08835">
        <ele>727.39819336</ele>
        <time>2021-06-16T14:49:26Z</time>
      </trkpt>
      <trkpt lat="48.06051" lon="7.08859">
        <ele>726.28479004</ele>
        <time>2021-06-16T14:49:28Z</time>
      </trkpt>
      <trkpt lat="48.0604" lon="7.0889">
        <ele>726.28479004</ele>
        <time>2021-06-16T14:49:30Z</time>
      </trkpt>
      <trkpt lat="48.06035" lon="7.08902">
        <ele>725.09747314</ele>
        <time>2021-06-16T14:49:31Z</time>
      </trkpt>
      <trkpt lat="48.06031" lon="7.08914">
        <ele>725.09747314</ele>
        <time>2021-06-16T14:49:32Z</time>
      </trkpt>
      <trkpt lat="48.06025" lon="7.08925">
        <ele>725.09747314</ele>
        <time>2021-06-16T14:49:33Z</time>
      </trkpt>
      <trkpt lat="48.0602" lon="7.08937">
        <ele>723.86450195</ele>
        <time>2021-06-16T14:49:34Z</time>
      </trkpt>
      <trkpt lat="48.06014" lon="7.08949">
        <ele>723.86450195</ele>
        <time>2021-06-16T14:49:35Z</time>
      </trkpt>
      <trkpt lat="48.06009" lon="7.0896">
        <ele>723.86450195</ele>
        <time>2021-06-16T14:49:36Z</time>
      </trkpt>
      <trkpt lat="48.06004" lon="7.08971">
        <ele>722.45361328</ele>
        <time>2021-06-16T14:49:37Z</time>
      </trkpt>
      <trkpt lat="48.05998" lon="7.08984">
        <ele>722.45361328</ele>
        <time>2021-06-16T14:49:38Z</time>
      </trkpt>
      <trkpt lat="48.05984" lon="7.09003">
        <ele>721.12896729</ele>
        <time>2021-06-16T14:49:40Z</time>
      </trkpt>
      <trkpt lat="48.05978" lon="7.09013">
        <ele>721.12896729</ele>
        <time>2021-06-16T14:49:41Z</time>
      </trkpt>
      <trkpt lat="48.05972" lon="7.09023">
        <ele>721.12896729</ele>
        <time>2021-06-16T14:49:42Z</time>
      </trkpt>
      <trkpt lat="48.05963" lon="7.09037">
        <ele>719.94781494</ele>
        <time>2021-06-16T14:49:45Z</time>
      </trkpt>
      <trkpt lat="48.05956" lon="7.09057">
        <ele>719.94781494</ele>
        <time>2021-06-16T14:49:46Z</time>
      </trkpt>
      <trkpt lat="48.05951" lon="7.09082">
        <ele>718.77624512</ele>
        <time>2021-06-16T14:49:48Z</time>
      </trkpt>
      <trkpt lat="48.0595" lon="7.09108">
        <ele>717.49249268</ele>
        <time>2021-06-16T14:49:50Z</time>
      </trkpt>
      <trkpt lat="48.05952" lon="7.09133">
        <ele>717.49249268</ele>
        <time>2021-06-16T14:49:52Z</time>
      </trkpt>
      <trkpt lat="48.05957" lon="7.09157">
        <ele>716.43511963</ele>
        <time>2021-06-16T14:49:54Z</time>
      </trkpt>
      <trkpt lat="48.05963" lon="7.09179">
        <ele>715.15618896</ele>
        <time>2021-06-16T14:49:56Z</time>
      </trkpt>
      <trkpt lat="48.05969" lon="7.09201">
        <ele>715.15618896</ele>
        <time>2021-06-16T14:49:58Z</time>
      </trkpt>
      <trkpt lat="48.05978" lon="7.09222">
        <ele>713.75115967</ele>
        <time>2021-06-16T14:50:00Z</time>
      </trkpt>
      <trkpt lat="48.05986" lon="7.09238">
        <ele>713.75115967</ele>
        <time>2021-06-16T14:50:01Z</time>
      </trkpt>
      <trkpt lat="48.05996" lon="7.09252">
        <ele>712.262146</ele>
        <time>2021-06-16T14:50:03Z</time>
      </trkpt>
      <trkpt lat="48.06007" lon="7.09266">
        <ele>710.82183838</ele>
        <time>2021-06-16T14:50:04Z</time>
      </trkpt>
      <trkpt lat="48.06015" lon="7.09275">
        <ele>710.82183838</ele>
        <time>2021-06-16T14:50:05Z</time>
      </trkpt>
      <trkpt lat="48.06023" lon="7.09285">
        <ele>709.74438477</ele>
        <time>2021-06-16T14:50:06Z</time>
      </trkpt>
      <trkpt lat="48.0603" lon="7.09293">
        <ele>709.74438477</ele>
        <time>2021-06-16T14:50:07Z</time>
      </trkpt>
      <trkpt lat="48.06038" lon="7.09304">
        <ele>709.74438477</ele>
        <time>2021-06-16T14:50:08Z</time>
      </trkpt>
      <trkpt lat="48.06054" lon="7.09318">
        <ele>708.53131104</ele>
        <time>2021-06-16T14:50:10Z</time>
      </trkpt>
      <trkpt lat="48.06063" lon="7.09324">
        <ele>708.53131104</ele>
        <time>2021-06-16T14:50:11Z</time>
      </trkpt>
      <trkpt lat="48.06075" lon="7.09332">
        <ele>707.27349854</ele>
        <time>2021-06-16T14:50:13Z</time>
      </trkpt>
      <trkpt lat="48.06092" lon="7.09341">
        <ele>705.87365723</ele>
        <time>2021-06-16T14:50:15Z</time>
      </trkpt>
      <trkpt lat="48.06109" lon="7.09346">
        <ele>704.96801758</ele>
        <time>2021-06-16T14:50:17Z</time>
      </trkpt>
      <trkpt lat="48.06123" lon="7.09348">
        <ele>704.96801758</ele>
        <time>2021-06-16T14:50:18Z</time>
      </trkpt>
      <trkpt lat="48.06132" lon="7.09347">
        <ele>704.0703125</ele>
        <time>2021-06-16T14:50:19Z</time>
      </trkpt>
      <trkpt lat="48.06141" lon="7.09345">
        <ele>704.0703125</ele>
        <time>2021-06-16T14:50:20Z</time>
      </trkpt>
      <trkpt lat="48.06151" lon="7.09343">
        <ele>704.0703125</ele>
        <time>2021-06-16T14:50:21Z</time>
      </trkpt>
      <trkpt lat="48.0616" lon="7.09338">
        <ele>702.74255371</ele>
        <time>2021-06-16T14:50:22Z</time>
      </trkpt>
      <trkpt lat="48.0617" lon="7.09332">
        <ele>702.74255371</ele>
        <time>2021-06-16T14:50:23Z</time>
      </trkpt>
      <trkpt lat="48.06178" lon="7.09325">
        <ele>702.74255371</ele>
        <time>2021-06-16T14:50:24Z</time>
      </trkpt>
      <trkpt lat="48.06188" lon="7.09318">
        <ele>701.48846436</ele>
        <time>2021-06-16T14:50:25Z</time>
      </trkpt>
      <trkpt lat="48.06206" lon="7.09307">
        <ele>701.48846436</ele>
        <time>2021-06-16T14:50:27Z</time>
      </trkpt>
      <trkpt lat="48.06228" lon="7.09309">
        <ele>700.10955811</ele>
        <time>2021-06-16T14:50:29Z</time>
      </trkpt>
      <trkpt lat="48.06239" lon="7.0931">
        <ele>700.10955811</ele>
        <time>2021-06-16T14:50:30Z</time>
      </trkpt>
      <trkpt lat="48.0625" lon="7.09318">
        <ele>698.63482666</ele>
        <time>2021-06-16T14:50:31Z</time>
      </trkpt>
      <trkpt lat="48.06253" lon="7.09337">
        <ele>698.63482666</ele>
        <time>2021-06-16T14:50:32Z</time>
      </trkpt>
      <trkpt lat="48.06257" lon="7.09351">
        <ele>697.2244873</ele>
        <time>2021-06-16T14:50:33Z</time>
      </trkpt>
      <trkpt lat="48.06261" lon="7.09366">
        <ele>697.2244873</ele>
        <time>2021-06-16T14:50:34Z</time>
      </trkpt>
      <trkpt lat="48.06265" lon="7.09381">
        <ele>696.06298828</ele>
        <time>2021-06-16T14:50:35Z</time>
      </trkpt>
      <trkpt lat="48.06271" lon="7.09395">
        <ele>696.06298828</ele>
        <time>2021-06-16T14:50:36Z</time>
      </trkpt>
      <trkpt lat="48.06279" lon="7.09409">
        <ele>696.06298828</ele>
        <time>2021-06-16T14:50:37Z</time>
      </trkpt>
      <trkpt lat="48.06289" lon="7.09421">
        <ele>694.79315186</ele>
        <time>2021-06-16T14:50:38Z</time>
      </trkpt>
      <trkpt lat="48.06299" lon="7.09432">
        <ele>694.79315186</ele>
        <time>2021-06-16T14:50:39Z</time>
      </trkpt>
      <trkpt lat="48.0631" lon="7.09441">
        <ele>694.79315186</ele>
        <time>2021-06-16T14:50:40Z</time>
      </trkpt>
      <trkpt lat="48.06321" lon="7.09447">
        <ele>693.30938721</ele>
        <time>2021-06-16T14:50:41Z</time>
      </trkpt>
      <trkpt lat="48.06334" lon="7.09451">
        <ele>693.30938721</ele>
        <time>2021-06-16T14:50:42Z</time>
      </trkpt>
      <trkpt lat="48.06347" lon="7.09455">
        <ele>691.94396973</ele>
        <time>2021-06-16T14:50:43Z</time>
      </trkpt>
      <trkpt lat="48.06361" lon="7.09457">
        <ele>691.94396973</ele>
        <time>2021-06-16T14:50:44Z</time>
      </trkpt>
      <trkpt lat="48.06372" lon="7.09455">
        <ele>690.79211426</ele>
        <time>2021-06-16T14:50:45Z</time>
      </trkpt>
      <trkpt lat="48.06383" lon="7.09452">
        <ele>690.79211426</ele>
        <time>2021-06-16T14:50:46Z</time>
      </trkpt>
      <trkpt lat="48.06394" lon="7.09448">
        <ele>689.68481445</ele>
        <time>2021-06-16T14:50:47Z</time>
      </trkpt>
      <trkpt lat="48.06404" lon="7.09442">
        <ele>689.68481445</ele>
        <time>2021-06-16T14:50:48Z</time>
      </trkpt>
      <trkpt lat="48.06426" lon="7.09431">
        <ele>688.59588623</ele>
        <time>2021-06-16T14:50:50Z</time>
      </trkpt>
      <trkpt lat="48.06437" lon="7.09426">
        <ele>688.59588623</ele>
        <time>2021-06-16T14:50:51Z</time>
      </trkpt>
      <trkpt lat="48.06449" lon="7.0942">
        <ele>687.4152832</ele>
        <time>2021-06-16T14:50:52Z</time>
      </trkpt>
      <trkpt lat="48.06459" lon="7.09416">
        <ele>687.4152832</ele>
        <time>2021-06-16T14:50:53Z</time>
      </trkpt>
      <trkpt lat="48.06479" lon="7.09405">
        <ele>686.17150879</ele>
        <time>2021-06-16T14:50:55Z</time>
      </trkpt>
      <trkpt lat="48.06501" lon="7.09397">
        <ele>686.17150879</ele>
        <time>2021-06-16T14:50:57Z</time>
      </trkpt>
      <trkpt lat="48.06513" lon="7.09394">
        <ele>683.99853516</ele>
        <time>2021-06-16T14:50:58Z</time>
      </trkpt>
      <trkpt lat="48.06525" lon="7.09393">
        <ele>683.99853516</ele>
        <time>2021-06-16T14:50:59Z</time>
      </trkpt>
      <trkpt lat="48.0655" lon="7.094">
        <ele>682.86645508</ele>
        <time>2021-06-16T14:51:01Z</time>
      </trkpt>
      <trkpt lat="48.06559" lon="7.09407">
        <ele>682.86645508</ele>
        <time>2021-06-16T14:51:02Z</time>
      </trkpt>
      <trkpt lat="48.06567" lon="7.09414">
        <ele>682.86645508</ele>
        <time>2021-06-16T14:51:03Z</time>
      </trkpt>
      <trkpt lat="48.06576" lon="7.0942">
        <ele>681.46490479</ele>
        <time>2021-06-16T14:51:04Z</time>
      </trkpt>
      <trkpt lat="48.06589" lon="7.09422">
        <ele>681.46490479</ele>
        <time>2021-06-16T14:51:06Z</time>
      </trkpt>
      <trkpt lat="48.06604" lon="7.09418">
        <ele>680.05310059</ele>
        <time>2021-06-16T14:51:08Z</time>
      </trkpt>
      <trkpt lat="48.0662" lon="7.09408">
        <ele>678.60418701</ele>
        <time>2021-06-16T14:51:10Z</time>
      </trkpt>
      <trkpt lat="48.06636" lon="7.094">
        <ele>677.23010254</ele>
        <time>2021-06-16T14:51:12Z</time>
      </trkpt>
      <trkpt lat="48.06649" lon="7.09401">
        <ele>677.23010254</ele>
        <time>2021-06-16T14:51:13Z</time>
      </trkpt>
      <trkpt lat="48.06654" lon="7.09413">
        <ele>677.23010254</ele>
        <time>2021-06-16T14:51:14Z</time>
      </trkpt>
      <trkpt lat="48.06658" lon="7.09427">
        <ele>676.09777832</ele>
        <time>2021-06-16T14:51:15Z</time>
      </trkpt>
      <trkpt lat="48.06663" lon="7.09457">
        <ele>675.46508789</ele>
        <time>2021-06-16T14:51:17Z</time>
      </trkpt>
      <trkpt lat="48.06665" lon="7.09474">
        <ele>675.46508789</ele>
        <time>2021-06-16T14:51:18Z</time>
      </trkpt>
      <trkpt lat="48.06667" lon="7.09488">
        <ele>674.77593994</ele>
        <time>2021-06-16T14:51:19Z</time>
      </trkpt>
      <trkpt lat="48.06668" lon="7.09504">
        <ele>674.77593994</ele>
        <time>2021-06-16T14:51:20Z</time>
      </trkpt>
      <trkpt lat="48.06668" lon="7.09521">
        <ele>674.77593994</ele>
        <time>2021-06-16T14:51:21Z</time>
      </trkpt>
      <trkpt lat="48.06669" lon="7.09538">
        <ele>673.66461182</ele>
        <time>2021-06-16T14:51:22Z</time>
      </trkpt>
      <trkpt lat="48.06671" lon="7.09553">
        <ele>673.66461182</ele>
        <time>2021-06-16T14:51:23Z</time>
      </trkpt>
      <trkpt lat="48.06672" lon="7.09569">
        <ele>673.66461182</ele>
        <time>2021-06-16T14:51:24Z</time>
      </trkpt>
      <trkpt lat="48.06672" lon="7.09586">
        <ele>672.38775635</ele>
        <time>2021-06-16T14:51:25Z</time>
      </trkpt>
      <trkpt lat="48.06675" lon="7.09619">
        <ele>671.09063721</ele>
        <time>2021-06-16T14:51:27Z</time>
      </trkpt>
      <trkpt lat="48.06677" lon="7.09636">
        <ele>671.09063721</ele>
        <time>2021-06-16T14:51:28Z</time>
      </trkpt>
      <trkpt lat="48.06678" lon="7.09652">
        <ele>671.09063721</ele>
        <time>2021-06-16T14:51:29Z</time>
      </trkpt>
      <trkpt lat="48.0668" lon="7.09669">
        <ele>669.96337891</ele>
        <time>2021-06-16T14:51:30Z</time>
      </trkpt>
      <trkpt lat="48.0668" lon="7.09685">
        <ele>669.96337891</ele>
        <time>2021-06-16T14:51:31Z</time>
      </trkpt>
      <trkpt lat="48.06678" lon="7.09702">
        <ele>668.58349609</ele>
        <time>2021-06-16T14:51:32Z</time>
      </trkpt>
      <trkpt lat="48.06677" lon="7.09718">
        <ele>668.58349609</ele>
        <time>2021-06-16T14:51:33Z</time>
      </trkpt>
      <trkpt lat="48.06672" lon="7.09734">
        <ele>667.32458496</ele>
        <time>2021-06-16T14:51:34Z</time>
      </trkpt>
      <trkpt lat="48.06667" lon="7.0975">
        <ele>667.32458496</ele>
        <time>2021-06-16T14:51:35Z</time>
      </trkpt>
      <trkpt lat="48.06661" lon="7.09765">
        <ele>666.1418457</ele>
        <time>2021-06-16T14:51:36Z</time>
      </trkpt>
      <trkpt lat="48.06653" lon="7.0978">
        <ele>666.1418457</ele>
        <time>2021-06-16T14:51:37Z</time>
      </trkpt>
      <trkpt lat="48.06645" lon="7.09794">
        <ele>664.94873047</ele>
        <time>2021-06-16T14:51:38Z</time>
      </trkpt>
      <trkpt lat="48.06638" lon="7.09807">
        <ele>664.94873047</ele>
        <time>2021-06-16T14:51:39Z</time>
      </trkpt>
      <trkpt lat="48.06633" lon="7.09819">
        <ele>663.79455566</ele>
        <time>2021-06-16T14:51:40Z</time>
      </trkpt>
      <trkpt lat="48.06631" lon="7.09833">
        <ele>663.79455566</ele>
        <time>2021-06-16T14:51:41Z</time>
      </trkpt>
      <trkpt lat="48.06629" lon="7.09852">
        <ele>662.63623047</ele>
        <time>2021-06-16T14:51:44Z</time>
      </trkpt>
      <trkpt lat="48.06634" lon="7.09876">
        <ele>661.42791748</ele>
        <time>2021-06-16T14:51:45Z</time>
      </trkpt>
      <trkpt lat="48.0665" lon="7.09888">
        <ele>661.42791748</ele>
        <time>2021-06-16T14:51:47Z</time>
      </trkpt>
      <trkpt lat="48.06666" lon="7.09892">
        <ele>660.07647705</ele>
        <time>2021-06-16T14:51:48Z</time>
      </trkpt>
      <trkpt lat="48.06677" lon="7.09892">
        <ele>660.07647705</ele>
        <time>2021-06-16T14:51:49Z</time>
      </trkpt>
      <trkpt lat="48.06686" lon="7.0989">
        <ele>660.07647705</ele>
        <time>2021-06-16T14:51:50Z</time>
      </trkpt>
      <trkpt lat="48.06699" lon="7.09886">
        <ele>658.82366943</ele>
        <time>2021-06-16T14:51:52Z</time>
      </trkpt>
      <trkpt lat="48.06713" lon="7.0988">
        <ele>657.58837891</ele>
        <time>2021-06-16T14:51:53Z</time>
      </trkpt>
      <trkpt lat="48.06723" lon="7.09876">
        <ele>657.58837891</ele>
        <time>2021-06-16T14:51:54Z</time>
      </trkpt>
      <trkpt lat="48.06734" lon="7.09872">
        <ele>656.38873291</ele>
        <time>2021-06-16T14:51:55Z</time>
      </trkpt>
      <trkpt lat="48.06757" lon="7.09866">
        <ele>655.14746094</ele>
        <time>2021-06-16T14:51:57Z</time>
      </trkpt>
      <trkpt lat="48.06768" lon="7.09865">
        <ele>655.14746094</ele>
        <time>2021-06-16T14:51:58Z</time>
      </trkpt>
      <trkpt lat="48.06782" lon="7.09864">
        <ele>653.85943604</ele>
        <time>2021-06-16T14:51:59Z</time>
      </trkpt>
      <trkpt lat="48.06793" lon="7.09868">
        <ele>653.85943604</ele>
        <time>2021-06-16T14:52:00Z</time>
      </trkpt>
      <trkpt lat="48.06805" lon="7.09872">
        <ele>652.62036133</ele>
        <time>2021-06-16T14:52:01Z</time>
      </trkpt>
      <trkpt lat="48.06816" lon="7.09877">
        <ele>652.62036133</ele>
        <time>2021-06-16T14:52:02Z</time>
      </trkpt>
      <trkpt lat="48.06826" lon="7.09884">
        <ele>652.62036133</ele>
        <time>2021-06-16T14:52:03Z</time>
      </trkpt>
      <trkpt lat="48.06837" lon="7.09891">
        <ele>651.38665771</ele>
        <time>2021-06-16T14:52:04Z</time>
      </trkpt>
      <trkpt lat="48.06848" lon="7.09899">
        <ele>651.38665771</ele>
        <time>2021-06-16T14:52:05Z</time>
      </trkpt>
      <trkpt lat="48.0686" lon="7.09903">
        <ele>650.1439209</ele>
        <time>2021-06-16T14:52:06Z</time>
      </trkpt>
      <trkpt lat="48.06872" lon="7.09907">
        <ele>650.1439209</ele>
        <time>2021-06-16T14:52:07Z</time>
      </trkpt>
      <trkpt lat="48.06884" lon="7.0991">
        <ele>649.12689209</ele>
        <time>2021-06-16T14:52:08Z</time>
      </trkpt>
      <trkpt lat="48.06896" lon="7.0991">
        <ele>649.12689209</ele>
        <time>2021-06-16T14:52:09Z</time>
      </trkpt>
      <trkpt lat="48.06908" lon="7.0991">
        <ele>648.10217285</ele>
        <time>2021-06-16T14:52:10Z</time>
      </trkpt>
      <trkpt lat="48.0692" lon="7.09909">
        <ele>648.10217285</ele>
        <time>2021-06-16T14:52:11Z</time>
      </trkpt>
      <trkpt lat="48.06932" lon="7.09908">
        <ele>646.85925293</ele>
        <time>2021-06-16T14:52:12Z</time>
      </trkpt>
      <trkpt lat="48.06945" lon="7.09906">
        <ele>646.85925293</ele>
        <time>2021-06-16T14:52:13Z</time>
      </trkpt>
      <trkpt lat="48.06957" lon="7.09904">
        <ele>645.57232666</ele>
        <time>2021-06-16T14:52:14Z</time>
      </trkpt>
      <trkpt lat="48.0697" lon="7.09901">
        <ele>645.57232666</ele>
        <time>2021-06-16T14:52:15Z</time>
      </trkpt>
      <trkpt lat="48.06993" lon="7.09897">
        <ele>643.88787842</ele>
        <time>2021-06-16T14:52:17Z</time>
      </trkpt>
      <trkpt lat="48.07005" lon="7.09894">
        <ele>642.95178223</ele>
        <time>2021-06-16T14:52:18Z</time>
      </trkpt>
      <trkpt lat="48.07017" lon="7.09893">
        <ele>642.95178223</ele>
        <time>2021-06-16T14:52:19Z</time>
      </trkpt>
      <trkpt lat="48.07029" lon="7.09892">
        <ele>641.67919922</ele>
        <time>2021-06-16T14:52:20Z</time>
      </trkpt>
      <trkpt lat="48.07042" lon="7.09891">
        <ele>641.67919922</ele>
        <time>2021-06-16T14:52:21Z</time>
      </trkpt>
      <trkpt lat="48.07054" lon="7.09888">
        <ele>640.53704834</ele>
        <time>2021-06-16T14:52:22Z</time>
      </trkpt>
      <trkpt lat="48.07066" lon="7.09885">
        <ele>640.53704834</ele>
        <time>2021-06-16T14:52:23Z</time>
      </trkpt>
      <trkpt lat="48.07081" lon="7.09883">
        <ele>639.4185791</ele>
        <time>2021-06-16T14:52:24Z</time>
      </trkpt>
      <trkpt lat="48.07094" lon="7.09882">
        <ele>639.4185791</ele>
        <time>2021-06-16T14:52:25Z</time>
      </trkpt>
      <trkpt lat="48.0712" lon="7.09881">
        <ele>638.21789551</ele>
        <time>2021-06-16T14:52:27Z</time>
      </trkpt>
      <trkpt lat="48.07133" lon="7.09882">
        <ele>636.97692871</ele>
        <time>2021-06-16T14:52:28Z</time>
      </trkpt>
      <trkpt lat="48.07145" lon="7.09884">
        <ele>636.97692871</ele>
        <time>2021-06-16T14:52:29Z</time>
      </trkpt>
      <trkpt lat="48.07157" lon="7.09888">
        <ele>635.68206787</ele>
        <time>2021-06-16T14:52:30Z</time>
      </trkpt>
      <trkpt lat="48.07169" lon="7.09891">
        <ele>635.68206787</ele>
        <time>2021-06-16T14:52:31Z</time>
      </trkpt>
      <trkpt lat="48.07179" lon="7.09895">
        <ele>634.26074219</ele>
        <time>2021-06-16T14:52:32Z</time>
      </trkpt>
      <trkpt lat="48.07188" lon="7.09901">
        <ele>634.26074219</ele>
        <time>2021-06-16T14:52:33Z</time>
      </trkpt>
      <trkpt lat="48.07198" lon="7.0991">
        <ele>632.84753418</ele>
        <time>2021-06-16T14:52:34Z</time>
      </trkpt>
      <trkpt lat="48.07207" lon="7.09919">
        <ele>632.84753418</ele>
        <time>2021-06-16T14:52:35Z</time>
      </trkpt>
      <trkpt lat="48.07212" lon="7.09932">
        <ele>631.54711914</ele>
        <time>2021-06-16T14:52:36Z</time>
      </trkpt>
      <trkpt lat="48.07218" lon="7.09946">
        <ele>631.54711914</ele>
        <time>2021-06-16T14:52:37Z</time>
      </trkpt>
      <trkpt lat="48.07224" lon="7.0996">
        <ele>630.39569092</ele>
        <time>2021-06-16T14:52:38Z</time>
      </trkpt>
      <trkpt lat="48.07237" lon="7.09985">
        <ele>629.37231445</ele>
        <time>2021-06-16T14:52:40Z</time>
      </trkpt>
      <trkpt lat="48.07244" lon="7.09995">
        <ele>629.37231445</ele>
        <time>2021-06-16T14:52:41Z</time>
      </trkpt>
      <trkpt lat="48.07251" lon="7.10005">
        <ele>629.37231445</ele>
        <time>2021-06-16T14:52:42Z</time>
      </trkpt>
      <trkpt lat="48.07259" lon="7.10013">
        <ele>628.2989502</ele>
        <time>2021-06-16T14:52:43Z</time>
      </trkpt>
      <trkpt lat="48.07267" lon="7.1002">
        <ele>628.2989502</ele>
        <time>2021-06-16T14:52:45Z</time>
      </trkpt>
      <trkpt lat="48.07278" lon="7.10027">
        <ele>626.90240479</ele>
        <time>2021-06-16T14:52:46Z</time>
      </trkpt>
      <trkpt lat="48.0729" lon="7.10043">
        <ele>626.90240479</ele>
        <time>2021-06-16T14:52:48Z</time>
      </trkpt>
      <trkpt lat="48.07294" lon="7.10064">
        <ele>625.67218018</ele>
        <time>2021-06-16T14:52:51Z</time>
      </trkpt>
      <trkpt lat="48.0729" lon="7.10085">
        <ele>625.67218018</ele>
        <time>2021-06-16T14:52:52Z</time>
      </trkpt>
      <trkpt lat="48.07278" lon="7.10098">
        <ele>624.65722656</ele>
        <time>2021-06-16T14:52:55Z</time>
      </trkpt>
      <trkpt lat="48.07253" lon="7.10098">
        <ele>624.65722656</ele>
        <time>2021-06-16T14:52:57Z</time>
      </trkpt>
      <trkpt lat="48.07241" lon="7.10091">
        <ele>623.63677979</ele>
        <time>2021-06-16T14:52:59Z</time>
      </trkpt>
      <trkpt lat="48.07225" lon="7.10082">
        <ele>623.63677979</ele>
        <time>2021-06-16T14:53:01Z</time>
      </trkpt>
      <trkpt lat="48.07211" lon="7.10076">
        <ele>622.30151367</ele>
        <time>2021-06-16T14:53:02Z</time>
      </trkpt>
      <trkpt lat="48.07201" lon="7.10069">
        <ele>622.30151367</ele>
        <time>2021-06-16T14:53:03Z</time>
      </trkpt>
      <trkpt lat="48.07193" lon="7.10064">
        <ele>622.30151367</ele>
        <time>2021-06-16T14:53:04Z</time>
      </trkpt>
      <trkpt lat="48.0718" lon="7.10058">
        <ele>620.92974854</ele>
        <time>2021-06-16T14:53:06Z</time>
      </trkpt>
      <trkpt lat="48.07167" lon="7.10051">
        <ele>620.92974854</ele>
        <time>2021-06-16T14:53:07Z</time>
      </trkpt>
      <trkpt lat="48.07158" lon="7.10047">
        <ele>619.66033936</ele>
        <time>2021-06-16T14:53:08Z</time>
      </trkpt>
      <trkpt lat="48.07138" lon="7.10046">
        <ele>619.66033936</ele>
        <time>2021-06-16T14:53:10Z</time>
      </trkpt>
      <trkpt lat="48.07127" lon="7.1005">
        <ele>618.44110107</ele>
        <time>2021-06-16T14:53:11Z</time>
      </trkpt>
      <trkpt lat="48.07116" lon="7.10054">
        <ele>618.44110107</ele>
        <time>2021-06-16T14:53:12Z</time>
      </trkpt>
      <trkpt lat="48.07105" lon="7.10059">
        <ele>618.44110107</ele>
        <time>2021-06-16T14:53:13Z</time>
      </trkpt>
      <trkpt lat="48.07097" lon="7.10065">
        <ele>617.33905029</ele>
        <time>2021-06-16T14:53:14Z</time>
      </trkpt>
      <trkpt lat="48.07089" lon="7.10074">
        <ele>617.33905029</ele>
        <time>2021-06-16T14:53:15Z</time>
      </trkpt>
      <trkpt lat="48.07079" lon="7.10089">
        <ele>616.32373047</ele>
        <time>2021-06-16T14:53:17Z</time>
      </trkpt>
      <trkpt lat="48.07069" lon="7.10107">
        <ele>616.32373047</ele>
        <time>2021-06-16T14:53:18Z</time>
      </trkpt>
      <trkpt lat="48.07063" lon="7.1012">
        <ele>615.10229492</ele>
        <time>2021-06-16T14:53:19Z</time>
      </trkpt>
      <trkpt lat="48.07057" lon="7.10132">
        <ele>615.10229492</ele>
        <time>2021-06-16T14:53:20Z</time>
      </trkpt>
      <trkpt lat="48.07056" lon="7.10151">
        <ele>615.10229492</ele>
        <time>2021-06-16T14:53:21Z</time>
      </trkpt>
      <trkpt lat="48.0705" lon="7.10164">
        <ele>613.68835449</ele>
        <time>2021-06-16T14:53:22Z</time>
      </trkpt>
      <trkpt lat="48.07042" lon="7.10175">
        <ele>613.68835449</ele>
        <time>2021-06-16T14:53:23Z</time>
      </trkpt>
      <trkpt lat="48.07035" lon="7.10185">
        <ele>613.68835449</ele>
        <time>2021-06-16T14:53:24Z</time>
      </trkpt>
      <trkpt lat="48.07026" lon="7.10195">
        <ele>612.30230713</ele>
        <time>2021-06-16T14:53:25Z</time>
      </trkpt>
      <trkpt lat="48.07008" lon="7.10216">
        <ele>610.98864746</ele>
        <time>2021-06-16T14:53:27Z</time>
      </trkpt>
      <trkpt lat="48.07" lon="7.10226">
        <ele>610.98864746</ele>
        <time>2021-06-16T14:53:28Z</time>
      </trkpt>
      <trkpt lat="48.0699" lon="7.10236">
        <ele>609.8815918</ele>
        <time>2021-06-16T14:53:29Z</time>
      </trkpt>
      <trkpt lat="48.06982" lon="7.10247">
        <ele>609.8815918</ele>
        <time>2021-06-16T14:53:30Z</time>
      </trkpt>
      <trkpt lat="48.06973" lon="7.10258">
        <ele>608.84533691</ele>
        <time>2021-06-16T14:53:31Z</time>
      </trkpt>
      <trkpt lat="48.06965" lon="7.1027">
        <ele>608.84533691</ele>
        <time>2021-06-16T14:53:32Z</time>
      </trkpt>
      <trkpt lat="48.06957" lon="7.10283">
        <ele>607.81884766</ele>
        <time>2021-06-16T14:53:33Z</time>
      </trkpt>
      <trkpt lat="48.0695" lon="7.10295">
        <ele>607.81884766</ele>
        <time>2021-06-16T14:53:34Z</time>
      </trkpt>
      <trkpt lat="48.06944" lon="7.10308">
        <ele>606.70947266</ele>
        <time>2021-06-16T14:53:35Z</time>
      </trkpt>
      <trkpt lat="48.06939" lon="7.1032">
        <ele>606.70947266</ele>
        <time>2021-06-16T14:53:36Z</time>
      </trkpt>
      <trkpt lat="48.06936" lon="7.10335">
        <ele>605.47827148</ele>
        <time>2021-06-16T14:53:37Z</time>
      </trkpt>
      <trkpt lat="48.06932" lon="7.1035">
        <ele>605.47827148</ele>
        <time>2021-06-16T14:53:38Z</time>
      </trkpt>
      <trkpt lat="48.06924" lon="7.10365">
        <ele>604.18518066</ele>
        <time>2021-06-16T14:53:40Z</time>
      </trkpt>
      <trkpt lat="48.06909" lon="7.10375">
        <ele>602.89447021</ele>
        <time>2021-06-16T14:53:42Z</time>
      </trkpt>
      <trkpt lat="48.06891" lon="7.10365">
        <ele>602.89447021</ele>
        <time>2021-06-16T14:53:43Z</time>
      </trkpt>
      <trkpt lat="48.06882" lon="7.10359">
        <ele>602.89447021</ele>
        <time>2021-06-16T14:53:44Z</time>
      </trkpt>
      <trkpt lat="48.06873" lon="7.10351">
        <ele>601.37005615</ele>
        <time>2021-06-16T14:53:45Z</time>
      </trkpt>
      <trkpt lat="48.06865" lon="7.10344">
        <ele>601.37005615</ele>
        <time>2021-06-16T14:53:46Z</time>
      </trkpt>
      <trkpt lat="48.06857" lon="7.10336">
        <ele>601.37005615</ele>
        <time>2021-06-16T14:53:47Z</time>
      </trkpt>
      <trkpt lat="48.06849" lon="7.10328">
        <ele>600.02514648</ele>
        <time>2021-06-16T14:53:48Z</time>
      </trkpt>
      <trkpt lat="48.06839" lon="7.1032">
        <ele>600.02514648</ele>
        <time>2021-06-16T14:53:49Z</time>
      </trkpt>
      <trkpt lat="48.06829" lon="7.10315">
        <ele>600.02514648</ele>
        <time>2021-06-16T14:53:50Z</time>
      </trkpt>
      <trkpt lat="48.06819" lon="7.10312">
        <ele>598.69683838</ele>
        <time>2021-06-16T14:53:51Z</time>
      </trkpt>
      <trkpt lat="48.0681" lon="7.10311">
        <ele>598.69683838</ele>
        <time>2021-06-16T14:53:52Z</time>
      </trkpt>
      <trkpt lat="48.06799" lon="7.10312">
        <ele>597.42712402</ele>
        <time>2021-06-16T14:53:53Z</time>
      </trkpt>
      <trkpt lat="48.06789" lon="7.10317">
        <ele>597.42712402</ele>
        <time>2021-06-16T14:53:54Z</time>
      </trkpt>
      <trkpt lat="48.06779" lon="7.10323">
        <ele>597.42712402</ele>
        <time>2021-06-16T14:53:55Z</time>
      </trkpt>
      <trkpt lat="48.06758" lon="7.10336">
        <ele>597.42712402</ele>
        <time>2021-06-16T14:53:57Z</time>
      </trkpt>
      <trkpt lat="48.06747" lon="7.10344">
        <ele>594.68969727</ele>
        <time>2021-06-16T14:53:58Z</time>
      </trkpt>
      <trkpt lat="48.06737" lon="7.10351">
        <ele>594.68969727</ele>
        <time>2021-06-16T14:53:59Z</time>
      </trkpt>
      <trkpt lat="48.06726" lon="7.10359">
        <ele>593.46276855</ele>
        <time>2021-06-16T14:54:00Z</time>
      </trkpt>
      <trkpt lat="48.06714" lon="7.10366">
        <ele>593.46276855</ele>
        <time>2021-06-16T14:54:01Z</time>
      </trkpt>
      <trkpt lat="48.06703" lon="7.10374">
        <ele>593.46276855</ele>
        <time>2021-06-16T14:54:02Z</time>
      </trkpt>
      <trkpt lat="48.06693" lon="7.10382">
        <ele>592.23754883</ele>
        <time>2021-06-16T14:54:03Z</time>
      </trkpt>
      <trkpt lat="48.06682" lon="7.10389">
        <ele>592.23754883</ele>
        <time>2021-06-16T14:54:04Z</time>
      </trkpt>
      <trkpt lat="48.06671" lon="7.10397">
        <ele>590.99365234</ele>
        <time>2021-06-16T14:54:05Z</time>
      </trkpt>
      <trkpt lat="48.0666" lon="7.10405">
        <ele>590.99365234</ele>
        <time>2021-06-16T14:54:06Z</time>
      </trkpt>
      <trkpt lat="48.06649" lon="7.10414">
        <ele>589.76739502</ele>
        <time>2021-06-16T14:54:07Z</time>
      </trkpt>
      <trkpt lat="48.06638" lon="7.10424">
        <ele>589.76739502</ele>
        <time>2021-06-16T14:54:08Z</time>
      </trkpt>
      <trkpt lat="48.06627" lon="7.1043">
        <ele>588.43591309</ele>
        <time>2021-06-16T14:54:09Z</time>
      </trkpt>
      <trkpt lat="48.06616" lon="7.10434">
        <ele>588.43591309</ele>
        <time>2021-06-16T14:54:10Z</time>
      </trkpt>
      <trkpt lat="48.06603" lon="7.10437">
        <ele>587.10308838</ele>
        <time>2021-06-16T14:54:11Z</time>
      </trkpt>
      <trkpt lat="48.06591" lon="7.10438">
        <ele>587.10308838</ele>
        <time>2021-06-16T14:54:12Z</time>
      </trkpt>
      <trkpt lat="48.06579" lon="7.10438">
        <ele>585.8482666</ele>
        <time>2021-06-16T14:54:13Z</time>
      </trkpt>
      <trkpt lat="48.06569" lon="7.10438">
        <ele>585.8482666</ele>
        <time>2021-06-16T14:54:14Z</time>
      </trkpt>
      <trkpt lat="48.06558" lon="7.10436">
        <ele>584.62243652</ele>
        <time>2021-06-16T14:54:15Z</time>
      </trkpt>
      <trkpt lat="48.06538" lon="7.10431">
        <ele>583.73718262</ele>
        <time>2021-06-16T14:54:17Z</time>
      </trkpt>
      <trkpt lat="48.06528" lon="7.10427">
        <ele>582.79455566</ele>
        <time>2021-06-16T14:54:18Z</time>
      </trkpt>
      <trkpt lat="48.06509" lon="7.10416">
        <ele>581.63867188</ele>
        <time>2021-06-16T14:54:20Z</time>
      </trkpt>
      <trkpt lat="48.065" lon="7.10411">
        <ele>581.63867188</ele>
        <time>2021-06-16T14:54:21Z</time>
      </trkpt>
      <trkpt lat="48.06488" lon="7.10406">
        <ele>580.40447998</ele>
        <time>2021-06-16T14:54:23Z</time>
      </trkpt>
      <trkpt lat="48.06473" lon="7.10404">
        <ele>579.1373291</ele>
        <time>2021-06-16T14:54:25Z</time>
      </trkpt>
      <trkpt lat="48.06458" lon="7.1041">
        <ele>579.1373291</ele>
        <time>2021-06-16T14:54:27Z</time>
      </trkpt>
      <trkpt lat="48.06444" lon="7.10424">
        <ele>577.94818115</ele>
        <time>2021-06-16T14:54:29Z</time>
      </trkpt>
      <trkpt lat="48.06436" lon="7.10441">
        <ele>577.94818115</ele>
        <time>2021-06-16T14:54:30Z</time>
      </trkpt>
      <trkpt lat="48.06433" lon="7.10455">
        <ele>576.52758789</ele>
        <time>2021-06-16T14:54:31Z</time>
      </trkpt>
      <trkpt lat="48.06429" lon="7.10469">
        <ele>576.52758789</ele>
        <time>2021-06-16T14:54:32Z</time>
      </trkpt>
      <trkpt lat="48.06424" lon="7.10485">
        <ele>575.1630249</ele>
        <time>2021-06-16T14:54:34Z</time>
      </trkpt>
      <trkpt lat="48.0641" lon="7.10502">
        <ele>573.93786621</ele>
        <time>2021-06-16T14:54:36Z</time>
      </trkpt>
      <trkpt lat="48.06397" lon="7.1051">
        <ele>572.86303711</ele>
        <time>2021-06-16T14:54:37Z</time>
      </trkpt>
      <trkpt lat="48.06387" lon="7.10512">
        <ele>572.86303711</ele>
        <time>2021-06-16T14:54:38Z</time>
      </trkpt>
      <trkpt lat="48.06377" lon="7.10512">
        <ele>572.86303711</ele>
        <time>2021-06-16T14:54:39Z</time>
      </trkpt>
      <trkpt lat="48.06364" lon="7.10512">
        <ele>571.6784668</ele>
        <time>2021-06-16T14:54:41Z</time>
      </trkpt>
      <trkpt lat="48.06348" lon="7.10508">
        <ele>570.36712646</ele>
        <time>2021-06-16T14:54:43Z</time>
      </trkpt>
      <trkpt lat="48.06331" lon="7.10498">
        <ele>570.36712646</ele>
        <time>2021-06-16T14:54:45Z</time>
      </trkpt>
      <trkpt lat="48.06318" lon="7.10485">
        <ele>569.08148193</ele>
        <time>2021-06-16T14:54:47Z</time>
      </trkpt>
      <trkpt lat="48.06319" lon="7.10465">
        <ele>569.08148193</ele>
        <time>2021-06-16T14:54:48Z</time>
      </trkpt>
      <trkpt lat="48.06324" lon="7.10451">
        <ele>567.74816895</ele>
        <time>2021-06-16T14:54:49Z</time>
      </trkpt>
      <trkpt lat="48.0633" lon="7.10438">
        <ele>567.74816895</ele>
        <time>2021-06-16T14:54:50Z</time>
      </trkpt>
      <trkpt lat="48.06337" lon="7.10427">
        <ele>567.74816895</ele>
        <time>2021-06-16T14:54:51Z</time>
      </trkpt>
      <trkpt lat="48.06343" lon="7.10416">
        <ele>566.43859863</ele>
        <time>2021-06-16T14:54:52Z</time>
      </trkpt>
      <trkpt lat="48.0635" lon="7.10406">
        <ele>566.43859863</ele>
        <time>2021-06-16T14:54:53Z</time>
      </trkpt>
      <trkpt lat="48.06359" lon="7.10397">
        <ele>566.43859863</ele>
        <time>2021-06-16T14:54:54Z</time>
      </trkpt>
      <trkpt lat="48.06366" lon="7.10388">
        <ele>565.07537842</ele>
        <time>2021-06-16T14:54:55Z</time>
      </trkpt>
      <trkpt lat="48.06382" lon="7.10373">
        <ele>565.07537842</ele>
        <time>2021-06-16T14:54:57Z</time>
      </trkpt>
      <trkpt lat="48.06391" lon="7.10367">
        <ele>563.72296143</ele>
        <time>2021-06-16T14:54:58Z</time>
      </trkpt>
      <trkpt lat="48.064" lon="7.10364">
        <ele>563.72296143</ele>
        <time>2021-06-16T14:54:59Z</time>
      </trkpt>
      <trkpt lat="48.0641" lon="7.1036">
        <ele>563.72296143</ele>
        <time>2021-06-16T14:55:00Z</time>
      </trkpt>
      <trkpt lat="48.06418" lon="7.10356">
        <ele>562.28985596</ele>
        <time>2021-06-16T14:55:01Z</time>
      </trkpt>
      <trkpt lat="48.06427" lon="7.10353">
        <ele>562.28985596</ele>
        <time>2021-06-16T14:55:02Z</time>
      </trkpt>
      <trkpt lat="48.06437" lon="7.10346">
        <ele>561.08093262</ele>
        <time>2021-06-16T14:55:04Z</time>
      </trkpt>
      <trkpt lat="48.06446" lon="7.10333">
        <ele>560.02624512</ele>
        <time>2021-06-16T14:55:06Z</time>
      </trkpt>
      <trkpt lat="48.06447" lon="7.10311">
        <ele>560.02624512</ele>
        <time>2021-06-16T14:55:08Z</time>
      </trkpt>
      <trkpt lat="48.06445" lon="7.1029">
        <ele>558.83331299</ele>
        <time>2021-06-16T14:55:10Z</time>
      </trkpt>
      <trkpt lat="48.06439" lon="7.10272">
        <ele>558.83331299</ele>
        <time>2021-06-16T14:55:11Z</time>
      </trkpt>
      <trkpt lat="48.06434" lon="7.1026">
        <ele>558.83331299</ele>
        <time>2021-06-16T14:55:12Z</time>
      </trkpt>
      <trkpt lat="48.06426" lon="7.10247">
        <ele>557.61987305</ele>
        <time>2021-06-16T14:55:14Z</time>
      </trkpt>
      <trkpt lat="48.06412" lon="7.1023">
        <ele>556.75036621</ele>
        <time>2021-06-16T14:55:17Z</time>
      </trkpt>
      <trkpt lat="48.064" lon="7.10232">
        <ele>556.75036621</ele>
        <time>2021-06-16T14:55:19Z</time>
      </trkpt>
      <trkpt lat="48.06385" lon="7.10241">
        <ele>555.73486328</ele>
        <time>2021-06-16T14:55:21Z</time>
      </trkpt>
      <trkpt lat="48.06374" lon="7.10251">
        <ele>555.73486328</ele>
        <time>2021-06-16T14:55:22Z</time>
      </trkpt>
      <trkpt lat="48.06366" lon="7.10257">
        <ele>555.73486328</ele>
        <time>2021-06-16T14:55:23Z</time>
      </trkpt>
      <trkpt lat="48.06356" lon="7.10266">
        <ele>554.44055176</ele>
        <time>2021-06-16T14:55:25Z</time>
      </trkpt>
      <trkpt lat="48.06342" lon="7.10278">
        <ele>553.27050781</ele>
        <time>2021-06-16T14:55:27Z</time>
      </trkpt>
      <trkpt lat="48.06329" lon="7.10287">
        <ele>553.27050781</ele>
        <time>2021-06-16T14:55:28Z</time>
      </trkpt>
      <trkpt lat="48.06306" lon="7.10305">
        <ele>552.15356445</ele>
        <time>2021-06-16T14:55:31Z</time>
      </trkpt>
      <trkpt lat="48.06294" lon="7.10314">
        <ele>552.15356445</ele>
        <time>2021-06-16T14:55:33Z</time>
      </trkpt>
      <trkpt lat="48.0628" lon="7.10324">
        <ele>550.90649414</ele>
        <time>2021-06-16T14:55:35Z</time>
      </trkpt>
      <trkpt lat="48.06268" lon="7.10335">
        <ele>549.59942627</ele>
        <time>2021-06-16T14:55:37Z</time>
      </trkpt>
      <trkpt lat="48.06257" lon="7.10345">
        <ele>548.4710083</ele>
        <time>2021-06-16T14:55:40Z</time>
      </trkpt>
      <trkpt lat="48.06245" lon="7.10354">
        <ele>548.4710083</ele>
        <time>2021-06-16T14:55:41Z</time>
      </trkpt>
      <trkpt lat="48.06234" lon="7.10355">
        <ele>548.4710083</ele>
        <time>2021-06-16T14:55:43Z</time>
      </trkpt>
      <trkpt lat="48.0622" lon="7.10345">
        <ele>547.43743896</ele>
        <time>2021-06-16T14:55:46Z</time>
      </trkpt>
      <trkpt lat="48.06207" lon="7.10329">
        <ele>546.1887207</ele>
        <time>2021-06-16T14:55:47Z</time>
      </trkpt>
      <trkpt lat="48.06196" lon="7.10311">
        <ele>546.1887207</ele>
        <time>2021-06-16T14:55:49Z</time>
      </trkpt>
      <trkpt lat="48.06185" lon="7.10293">
        <ele>545.08966064</ele>
        <time>2021-06-16T14:55:51Z</time>
      </trkpt>
      <trkpt lat="48.06172" lon="7.10278">
        <ele>545.08966064</ele>
        <time>2021-06-16T14:55:53Z</time>
      </trkpt>
      <trkpt lat="48.06158" lon="7.10265">
        <ele>544.00128174</ele>
        <time>2021-06-16T14:55:55Z</time>
      </trkpt>
      <trkpt lat="48.06145" lon="7.10253">
        <ele>544.00128174</ele>
        <time>2021-06-16T14:55:57Z</time>
      </trkpt>
      <trkpt lat="48.06131" lon="7.10245">
        <ele>544.00128174</ele>
        <time>2021-06-16T14:55:59Z</time>
      </trkpt>
      <trkpt lat="48.06116" lon="7.10239">
        <ele>542.99163818</ele>
        <time>2021-06-16T14:56:01Z</time>
      </trkpt>
      <trkpt lat="48.06103" lon="7.10229">
        <ele>542.99163818</ele>
        <time>2021-06-16T14:56:03Z</time>
      </trkpt>
      <trkpt lat="48.06089" lon="7.10219">
        <ele>542.99163818</ele>
        <time>2021-06-16T14:56:05Z</time>
      </trkpt>
      <trkpt lat="48.06076" lon="7.10211">
        <ele>542.99163818</ele>
        <time>2021-06-16T14:56:07Z</time>
      </trkpt>
      <trkpt lat="48.06063" lon="7.10202">
        <ele>541.94073486</ele>
        <time>2021-06-16T14:56:09Z</time>
      </trkpt>
      <trkpt lat="48.06049" lon="7.10193">
        <ele>541.94073486</ele>
        <time>2021-06-16T14:56:11Z</time>
      </trkpt>
      <trkpt lat="48.06036" lon="7.10185">
        <ele>541.94073486</ele>
        <time>2021-06-16T14:56:13Z</time>
      </trkpt>
      <trkpt lat="48.06023" lon="7.10179">
        <ele>541.94073486</ele>
        <time>2021-06-16T14:56:15Z</time>
      </trkpt>
      <trkpt lat="48.0601" lon="7.10173">
        <ele>540.37664795</ele>
        <time>2021-06-16T14:56:17Z</time>
      </trkpt>
      <trkpt lat="48.05995" lon="7.10165">
        <ele>540.37664795</ele>
        <time>2021-06-16T14:56:19Z</time>
      </trkpt>
      <trkpt lat="48.0598" lon="7.10157">
        <ele>539.68969727</ele>
        <time>2021-06-16T14:56:21Z</time>
      </trkpt>
      <trkpt lat="48.05966" lon="7.10153">
        <ele>539.68969727</ele>
        <time>2021-06-16T14:56:22Z</time>
      </trkpt>
      <trkpt lat="48.05957" lon="7.10151">
        <ele>539.68969727</ele>
        <time>2021-06-16T14:56:23Z</time>
      </trkpt>
      <trkpt lat="48.05949" lon="7.10149">
        <ele>539.68969727</ele>
        <time>2021-06-16T14:56:24Z</time>
      </trkpt>
      <trkpt lat="48.05936" lon="7.10147">
        <ele>538.35437012</ele>
        <time>2021-06-16T14:56:26Z</time>
      </trkpt>
      <trkpt lat="48.05921" lon="7.1015">
        <ele>538.35437012</ele>
        <time>2021-06-16T14:56:27Z</time>
      </trkpt>
      <trkpt lat="48.05912" lon="7.10154">
        <ele>536.97711182</ele>
        <time>2021-06-16T14:56:28Z</time>
      </trkpt>
      <trkpt lat="48.05904" lon="7.10158">
        <ele>536.97711182</ele>
        <time>2021-06-16T14:56:29Z</time>
      </trkpt>
      <trkpt lat="48.05895" lon="7.10164">
        <ele>536.97711182</ele>
        <time>2021-06-16T14:56:30Z</time>
      </trkpt>
      <trkpt lat="48.05885" lon="7.10171">
        <ele>535.730896</ele>
        <time>2021-06-16T14:56:31Z</time>
      </trkpt>
      <trkpt lat="48.05875" lon="7.10177">
        <ele>535.730896</ele>
        <time>2021-06-16T14:56:32Z</time>
      </trkpt>
      <trkpt lat="48.05866" lon="7.10183">
        <ele>535.730896</ele>
        <time>2021-06-16T14:56:33Z</time>
      </trkpt>
      <trkpt lat="48.05858" lon="7.1019">
        <ele>534.54644775</ele>
        <time>2021-06-16T14:56:34Z</time>
      </trkpt>
      <trkpt lat="48.05849" lon="7.10197">
        <ele>534.54644775</ele>
        <time>2021-06-16T14:56:35Z</time>
      </trkpt>
      <trkpt lat="48.05841" lon="7.10204">
        <ele>534.54644775</ele>
        <time>2021-06-16T14:56:36Z</time>
      </trkpt>
      <trkpt lat="48.05829" lon="7.10211">
        <ele>533.23669434</ele>
        <time>2021-06-16T14:56:38Z</time>
      </trkpt>
      <trkpt lat="48.05814" lon="7.10222">
        <ele>531.99481201</ele>
        <time>2021-06-16T14:56:40Z</time>
      </trkpt>
      <trkpt lat="48.05797" lon="7.10232">
        <ele>531.99481201</ele>
        <time>2021-06-16T14:56:42Z</time>
      </trkpt>
      <trkpt lat="48.05784" lon="7.1024">
        <ele>530.72241211</ele>
        <time>2021-06-16T14:56:43Z</time>
      </trkpt>
      <trkpt lat="48.05772" lon="7.10247">
        <ele>530.72241211</ele>
        <time>2021-06-16T14:56:45Z</time>
      </trkpt>
      <trkpt lat="48.05758" lon="7.10253">
        <ele>529.47808838</ele>
        <time>2021-06-16T14:56:46Z</time>
      </trkpt>
      <trkpt lat="48.05748" lon="7.10256">
        <ele>529.47808838</ele>
        <time>2021-06-16T14:56:47Z</time>
      </trkpt>
      <trkpt lat="48.05739" lon="7.10261">
        <ele>529.47808838</ele>
        <time>2021-06-16T14:56:48Z</time>
      </trkpt>
      <trkpt lat="48.0573" lon="7.10266">
        <ele>528.3223877</ele>
        <time>2021-06-16T14:56:49Z</time>
      </trkpt>
      <trkpt lat="48.05721" lon="7.10272">
        <ele>528.3223877</ele>
        <time>2021-06-16T14:56:50Z</time>
      </trkpt>
      <trkpt lat="48.05712" lon="7.10277">
        <ele>528.3223877</ele>
        <time>2021-06-16T14:56:51Z</time>
      </trkpt>
      <trkpt lat="48.05703" lon="7.10282">
        <ele>527.24249268</ele>
        <time>2021-06-16T14:56:52Z</time>
      </trkpt>
      <trkpt lat="48.05693" lon="7.10287">
        <ele>527.24249268</ele>
        <time>2021-06-16T14:56:53Z</time>
      </trkpt>
      <trkpt lat="48.05684" lon="7.10292">
        <ele>527.24249268</ele>
        <time>2021-06-16T14:56:54Z</time>
      </trkpt>
      <trkpt lat="48.05674" lon="7.10297">
        <ele>526.08355713</ele>
        <time>2021-06-16T14:56:55Z</time>
      </trkpt>
      <trkpt lat="48.05664" lon="7.10302">
        <ele>526.08355713</ele>
        <time>2021-06-16T14:56:56Z</time>
      </trkpt>
      <trkpt lat="48.05645" lon="7.10311">
        <ele>524.82171631</ele>
        <time>2021-06-16T14:56:58Z</time>
      </trkpt>
      <trkpt lat="48.05636" lon="7.10316">
        <ele>524.82171631</ele>
        <time>2021-06-16T14:56:59Z</time>
      </trkpt>
      <trkpt lat="48.05626" lon="7.10321">
        <ele>524.82171631</ele>
        <time>2021-06-16T14:57:00Z</time>
      </trkpt>
      <trkpt lat="48.05616" lon="7.10326">
        <ele>523.61914062</ele>
        <time>2021-06-16T14:57:01Z</time>
      </trkpt>
      <trkpt lat="48.05607" lon="7.10331">
        <ele>523.61914062</ele>
        <time>2021-06-16T14:57:02Z</time>
      </trkpt>
      <trkpt lat="48.05597" lon="7.10336">
        <ele>523.61914062</ele>
        <time>2021-06-16T14:57:03Z</time>
      </trkpt>
      <trkpt lat="48.05587" lon="7.10342">
        <ele>522.39837646</ele>
        <time>2021-06-16T14:57:04Z</time>
      </trkpt>
      <trkpt lat="48.05577" lon="7.10346">
        <ele>522.39837646</ele>
        <time>2021-06-16T14:57:05Z</time>
      </trkpt>
      <trkpt lat="48.05567" lon="7.1035">
        <ele>522.39837646</ele>
        <time>2021-06-16T14:57:06Z</time>
      </trkpt>
      <trkpt lat="48.05557" lon="7.10357">
        <ele>521.15765381</ele>
        <time>2021-06-16T14:57:07Z</time>
      </trkpt>
      <trkpt lat="48.05547" lon="7.1036">
        <ele>521.15765381</ele>
        <time>2021-06-16T14:57:08Z</time>
      </trkpt>
      <trkpt lat="48.05537" lon="7.1036">
        <ele>521.15765381</ele>
        <time>2021-06-16T14:57:09Z</time>
      </trkpt>
      <trkpt lat="48.05526" lon="7.10358">
        <ele>519.92590332</ele>
        <time>2021-06-16T14:57:10Z</time>
      </trkpt>
      <trkpt lat="48.05516" lon="7.10355">
        <ele>519.92590332</ele>
        <time>2021-06-16T14:57:11Z</time>
      </trkpt>
      <trkpt lat="48.05506" lon="7.10348">
        <ele>519.92590332</ele>
        <time>2021-06-16T14:57:12Z</time>
      </trkpt>
      <trkpt lat="48.05495" lon="7.10342">
        <ele>518.61376953</ele>
        <time>2021-06-16T14:57:13Z</time>
      </trkpt>
      <trkpt lat="48.05486" lon="7.10334">
        <ele>518.61376953</ele>
        <time>2021-06-16T14:57:14Z</time>
      </trkpt>
      <trkpt lat="48.05478" lon="7.10324">
        <ele>518.61376953</ele>
        <time>2021-06-16T14:57:15Z</time>
      </trkpt>
      <trkpt lat="48.05467" lon="7.103">
        <ele>516.85675049</ele>
        <time>2021-06-16T14:57:17Z</time>
      </trkpt>
      <trkpt lat="48.05462" lon="7.10287">
        <ele>516.85675049</ele>
        <time>2021-06-16T14:57:18Z</time>
      </trkpt>
      <trkpt lat="48.05458" lon="7.10273">
        <ele>515.95703125</ele>
        <time>2021-06-16T14:57:19Z</time>
      </trkpt>
      <trkpt lat="48.05454" lon="7.1026">
        <ele>515.95703125</ele>
        <time>2021-06-16T14:57:20Z</time>
      </trkpt>
      <trkpt lat="48.05451" lon="7.10247">
        <ele>515.95703125</ele>
        <time>2021-06-16T14:57:21Z</time>
      </trkpt>
      <trkpt lat="48.05447" lon="7.10235">
        <ele>514.51660156</ele>
        <time>2021-06-16T14:57:22Z</time>
      </trkpt>
      <trkpt lat="48.05442" lon="7.10216">
        <ele>514.51660156</ele>
        <time>2021-06-16T14:57:24Z</time>
      </trkpt>
      <trkpt lat="48.05437" lon="7.10192">
        <ele>513.27160645</ele>
        <time>2021-06-16T14:57:26Z</time>
      </trkpt>
      <trkpt lat="48.05435" lon="7.10172">
        <ele>513.27160645</ele>
        <time>2021-06-16T14:57:27Z</time>
      </trkpt>
      <trkpt lat="48.05433" lon="7.10153">
        <ele>512.01171875</ele>
        <time>2021-06-16T14:57:29Z</time>
      </trkpt>
      <trkpt lat="48.05431" lon="7.10132">
        <ele>512.01171875</ele>
        <time>2021-06-16T14:57:30Z</time>
      </trkpt>
      <trkpt lat="48.05428" lon="7.10118">
        <ele>510.86871338</ele>
        <time>2021-06-16T14:57:31Z</time>
      </trkpt>
      <trkpt lat="48.05427" lon="7.10104">
        <ele>510.86871338</ele>
        <time>2021-06-16T14:57:32Z</time>
      </trkpt>
      <trkpt lat="48.05426" lon="7.10086">
        <ele>510.86871338</ele>
        <time>2021-06-16T14:57:34Z</time>
      </trkpt>
      <trkpt lat="48.05421" lon="7.10067">
        <ele>509.66479492</ele>
        <time>2021-06-16T14:57:36Z</time>
      </trkpt>
      <trkpt lat="48.05413" lon="7.10053">
        <ele>509.66479492</ele>
        <time>2021-06-16T14:57:38Z</time>
      </trkpt>
      <trkpt lat="48.05401" lon="7.10044">
        <ele>508.31658936</ele>
        <time>2021-06-16T14:57:40Z</time>
      </trkpt>
      <trkpt lat="48.05388" lon="7.10043">
        <ele>508.31658936</ele>
        <time>2021-06-16T14:57:42Z</time>
      </trkpt>
      <trkpt lat="48.05372" lon="7.10053">
        <ele>508.31658936</ele>
        <time>2021-06-16T14:57:44Z</time>
      </trkpt>
      <trkpt lat="48.05361" lon="7.10068">
        <ele>507.13189697</ele>
        <time>2021-06-16T14:57:46Z</time>
      </trkpt>
      <trkpt lat="48.05356" lon="7.10091">
        <ele>507.13189697</ele>
        <time>2021-06-16T14:57:48Z</time>
      </trkpt>
      <trkpt lat="48.05349" lon="7.10116">
        <ele>505.95690918</ele>
        <time>2021-06-16T14:57:50Z</time>
      </trkpt>
      <trkpt lat="48.05343" lon="7.10141">
        <ele>504.76702881</ele>
        <time>2021-06-16T14:57:53Z</time>
      </trkpt>
      <trkpt lat="48.05336" lon="7.10164">
        <ele>504.76702881</ele>
        <time>2021-06-16T14:57:54Z</time>
      </trkpt>
      <trkpt lat="48.05329" lon="7.10182">
        <ele>504.76702881</ele>
        <time>2021-06-16T14:57:55Z</time>
      </trkpt>
      <trkpt lat="48.05324" lon="7.10199">
        <ele>504.76702881</ele>
        <time>2021-06-16T14:57:57Z</time>
      </trkpt>
      <trkpt lat="48.05317" lon="7.10222">
        <ele>503.81051636</ele>
        <time>2021-06-16T14:57:59Z</time>
      </trkpt>
      <trkpt lat="48.0531" lon="7.10246">
        <ele>503.81051636</ele>
        <time>2021-06-16T14:58:01Z</time>
      </trkpt>
      <trkpt lat="48.05302" lon="7.10269">
        <ele>502.71270752</ele>
        <time>2021-06-16T14:58:03Z</time>
      </trkpt>
      <trkpt lat="48.05294" lon="7.10293">
        <ele>502.71270752</ele>
        <time>2021-06-16T14:58:06Z</time>
      </trkpt>
      <trkpt lat="48.05288" lon="7.10318">
        <ele>501.54431152</ele>
        <time>2021-06-16T14:58:07Z</time>
      </trkpt>
      <trkpt lat="48.05281" lon="7.10337">
        <ele>501.54431152</ele>
        <time>2021-06-16T14:58:08Z</time>
      </trkpt>
      <trkpt lat="48.05277" lon="7.10349">
        <ele>501.54431152</ele>
        <time>2021-06-16T14:58:09Z</time>
      </trkpt>
      <trkpt lat="48.05273" lon="7.10361">
        <ele>501.54431152</ele>
        <time>2021-06-16T14:58:10Z</time>
      </trkpt>
      <trkpt lat="48.05268" lon="7.10373">
        <ele>500.64889526</ele>
        <time>2021-06-16T14:58:11Z</time>
      </trkpt>
      <trkpt lat="48.05264" lon="7.10385">
        <ele>500.64889526</ele>
        <time>2021-06-16T14:58:12Z</time>
      </trkpt>
      <trkpt lat="48.05258" lon="7.10404">
        <ele>500.64889526</ele>
        <time>2021-06-16T14:58:14Z</time>
      </trkpt>
      <trkpt lat="48.05246" lon="7.1044">
        <ele>498.77017212</ele>
        <time>2021-06-16T14:58:17Z</time>
      </trkpt>
      <trkpt lat="48.0524" lon="7.10463">
        <ele>498.77017212</ele>
        <time>2021-06-16T14:58:19Z</time>
      </trkpt>
      <trkpt lat="48.05233" lon="7.10485">
        <ele>498.0736084</ele>
        <time>2021-06-16T14:58:21Z</time>
      </trkpt>
      <trkpt lat="48.05225" lon="7.10506">
        <ele>498.0736084</ele>
        <time>2021-06-16T14:58:23Z</time>
      </trkpt>
      <trkpt lat="48.05219" lon="7.10529">
        <ele>497.05847168</ele>
        <time>2021-06-16T14:58:25Z</time>
      </trkpt>
      <trkpt lat="48.05213" lon="7.10552">
        <ele>497.05847168</ele>
        <time>2021-06-16T14:58:27Z</time>
      </trkpt>
      <trkpt lat="48.05206" lon="7.10574">
        <ele>495.91796875</ele>
        <time>2021-06-16T14:58:29Z</time>
      </trkpt>
      <trkpt lat="48.05199" lon="7.10597">
        <ele>495.91796875</ele>
        <time>2021-06-16T14:58:31Z</time>
      </trkpt>
      <trkpt lat="48.05191" lon="7.1062">
        <ele>494.84310913</ele>
        <time>2021-06-16T14:58:33Z</time>
      </trkpt>
      <trkpt lat="48.05184" lon="7.10642">
        <ele>494.84310913</ele>
        <time>2021-06-16T14:58:35Z</time>
      </trkpt>
      <trkpt lat="48.05177" lon="7.10665">
        <ele>493.81445312</ele>
        <time>2021-06-16T14:58:37Z</time>
      </trkpt>
      <trkpt lat="48.0517" lon="7.10687">
        <ele>493.81445312</ele>
        <time>2021-06-16T14:58:39Z</time>
      </trkpt>
      <trkpt lat="48.05164" lon="7.10704">
        <ele>493.81445312</ele>
        <time>2021-06-16T14:58:40Z</time>
      </trkpt>
      <trkpt lat="48.05158" lon="7.10722">
        <ele>492.7677002</ele>
        <time>2021-06-16T14:58:42Z</time>
      </trkpt>
      <trkpt lat="48.05151" lon="7.10743">
        <ele>492.7677002</ele>
        <time>2021-06-16T14:58:44Z</time>
      </trkpt>
      <trkpt lat="48.05144" lon="7.10766">
        <ele>492.7677002</ele>
        <time>2021-06-16T14:58:46Z</time>
      </trkpt>
      <trkpt lat="48.05137" lon="7.10789">
        <ele>491.74963379</ele>
        <time>2021-06-16T14:58:48Z</time>
      </trkpt>
      <trkpt lat="48.05131" lon="7.10808">
        <ele>491.74963379</ele>
        <time>2021-06-16T14:58:50Z</time>
      </trkpt>
      <trkpt lat="48.05126" lon="7.10825">
        <ele>490.50762939</ele>
        <time>2021-06-16T14:58:51Z</time>
      </trkpt>
      <trkpt lat="48.05119" lon="7.10849">
        <ele>490.50762939</ele>
        <time>2021-06-16T14:58:54Z</time>
      </trkpt>
      <trkpt lat="48.05111" lon="7.10872">
        <ele>490.50762939</ele>
        <time>2021-06-16T14:58:55Z</time>
      </trkpt>
      <trkpt lat="48.05105" lon="7.1089">
        <ele>489.35543823</ele>
        <time>2021-06-16T14:58:56Z</time>
      </trkpt>
      <trkpt lat="48.051" lon="7.10908">
        <ele>489.35543823</ele>
        <time>2021-06-16T14:58:58Z</time>
      </trkpt>
      <trkpt lat="48.05094" lon="7.10926">
        <ele>489.35543823</ele>
        <time>2021-06-16T14:58:59Z</time>
      </trkpt>
      <trkpt lat="48.05088" lon="7.10944">
        <ele>488.16903687</ele>
        <time>2021-06-16T14:59:01Z</time>
      </trkpt>
      <trkpt lat="48.05082" lon="7.10962">
        <ele>488.16903687</ele>
        <time>2021-06-16T14:59:02Z</time>
      </trkpt>
      <trkpt lat="48.05077" lon="7.10974">
        <ele>488.16903687</ele>
        <time>2021-06-16T14:59:03Z</time>
      </trkpt>
      <trkpt lat="48.05073" lon="7.10987">
        <ele>487.05038452</ele>
        <time>2021-06-16T14:59:04Z</time>
      </trkpt>
      <trkpt lat="48.05067" lon="7.11004">
        <ele>487.05038452</ele>
        <time>2021-06-16T14:59:06Z</time>
      </trkpt>
      <trkpt lat="48.05061" lon="7.11023">
        <ele>485.91818237</ele>
        <time>2021-06-16T14:59:07Z</time>
      </trkpt>
      <trkpt lat="48.05055" lon="7.11041">
        <ele>485.91818237</ele>
        <time>2021-06-16T14:59:09Z</time>
      </trkpt>
      <trkpt lat="48.05048" lon="7.11065">
        <ele>484.82006836</ele>
        <time>2021-06-16T14:59:11Z</time>
      </trkpt>
      <trkpt lat="48.0504" lon="7.11089">
        <ele>484.82006836</ele>
        <time>2021-06-16T14:59:13Z</time>
      </trkpt>
      <trkpt lat="48.05034" lon="7.11108">
        <ele>484.82006836</ele>
        <time>2021-06-16T14:59:14Z</time>
      </trkpt>
      <trkpt lat="48.0503" lon="7.1112">
        <ele>484.82006836</ele>
        <time>2021-06-16T14:59:15Z</time>
      </trkpt>
      <trkpt lat="48.05023" lon="7.11146">
        <ele>483.17468262</ele>
        <time>2021-06-16T14:59:17Z</time>
      </trkpt>
      <trkpt lat="48.05019" lon="7.11158">
        <ele>483.17468262</ele>
        <time>2021-06-16T14:59:18Z</time>
      </trkpt>
      <trkpt lat="48.05014" lon="7.11177">
        <ele>482.45626831</ele>
        <time>2021-06-16T14:59:20Z</time>
      </trkpt>
      <trkpt lat="48.05008" lon="7.11195">
        <ele>482.45626831</ele>
        <time>2021-06-16T14:59:21Z</time>
      </trkpt>
      <trkpt lat="48.05003" lon="7.11208">
        <ele>482.45626831</ele>
        <time>2021-06-16T14:59:22Z</time>
      </trkpt>
      <trkpt lat="48.04999" lon="7.1122">
        <ele>482.45626831</ele>
        <time>2021-06-16T14:59:23Z</time>
      </trkpt>
      <trkpt lat="48.04995" lon="7.11232">
        <ele>481.3052063</ele>
        <time>2021-06-16T14:59:25Z</time>
      </trkpt>
      <trkpt lat="48.0499" lon="7.1125">
        <ele>481.3052063</ele>
        <time>2021-06-16T14:59:27Z</time>
      </trkpt>
      <trkpt lat="48.04982" lon="7.11274">
        <ele>481.3052063</ele>
        <time>2021-06-16T14:59:28Z</time>
      </trkpt>
      <trkpt lat="48.04974" lon="7.11298">
        <ele>481.3052063</ele>
        <time>2021-06-16T14:59:30Z</time>
      </trkpt>
      <trkpt lat="48.04967" lon="7.11322">
        <ele>479.21960449</ele>
        <time>2021-06-16T14:59:32Z</time>
      </trkpt>
      <trkpt lat="48.0496" lon="7.11343">
        <ele>479.21960449</ele>
        <time>2021-06-16T14:59:34Z</time>
      </trkpt>
      <trkpt lat="48.04953" lon="7.11363">
        <ele>478.06332397</ele>
        <time>2021-06-16T14:59:36Z</time>
      </trkpt>
      <trkpt lat="48.04946" lon="7.11382">
        <ele>478.06332397</ele>
        <time>2021-06-16T14:59:38Z</time>
      </trkpt>
      <trkpt lat="48.04939" lon="7.11403">
        <ele>478.06332397</ele>
        <time>2021-06-16T14:59:40Z</time>
      </trkpt>
      <trkpt lat="48.04932" lon="7.11425">
        <ele>478.06332397</ele>
        <time>2021-06-16T14:59:42Z</time>
      </trkpt>
      <trkpt lat="48.04926" lon="7.11447">
        <ele>476.9602356</ele>
        <time>2021-06-16T14:59:44Z</time>
      </trkpt>
      <trkpt lat="48.04919" lon="7.11469">
        <ele>476.9602356</ele>
        <time>2021-06-16T14:59:46Z</time>
      </trkpt>
      <trkpt lat="48.04913" lon="7.11491">
        <ele>475.89089966</ele>
        <time>2021-06-16T14:59:48Z</time>
      </trkpt>
      <trkpt lat="48.04906" lon="7.11512">
        <ele>475.89089966</ele>
        <time>2021-06-16T14:59:50Z</time>
      </trkpt>
      <trkpt lat="48.04899" lon="7.11534">
        <ele>474.74185181</ele>
        <time>2021-06-16T14:59:52Z</time>
      </trkpt>
      <trkpt lat="48.04892" lon="7.11556">
        <ele>474.74185181</ele>
        <time>2021-06-16T14:59:54Z</time>
      </trkpt>
      <trkpt lat="48.04885" lon="7.11576">
        <ele>474.74185181</ele>
        <time>2021-06-16T14:59:56Z</time>
      </trkpt>
      <trkpt lat="48.04878" lon="7.11599">
        <ele>473.73620605</ele>
        <time>2021-06-16T14:59:58Z</time>
      </trkpt>
      <trkpt lat="48.0487" lon="7.11621">
        <ele>473.73620605</ele>
        <time>2021-06-16T15:00:00Z</time>
      </trkpt>
      <trkpt lat="48.04862" lon="7.11644">
        <ele>472.67379761</ele>
        <time>2021-06-16T15:00:02Z</time>
      </trkpt>
      <trkpt lat="48.04856" lon="7.11667">
        <ele>472.67379761</ele>
        <time>2021-06-16T15:00:04Z</time>
      </trkpt>
      <trkpt lat="48.04849" lon="7.1169">
        <ele>472.67379761</ele>
        <time>2021-06-16T15:00:06Z</time>
      </trkpt>
      <trkpt lat="48.04842" lon="7.11711">
        <ele>471.5234375</ele>
        <time>2021-06-16T15:00:08Z</time>
      </trkpt>
      <trkpt lat="48.04835" lon="7.11733">
        <ele>471.5234375</ele>
        <time>2021-06-16T15:00:10Z</time>
      </trkpt>
      <trkpt lat="48.04829" lon="7.11755">
        <ele>471.5234375</ele>
        <time>2021-06-16T15:00:12Z</time>
      </trkpt>
      <trkpt lat="48.04823" lon="7.11778">
        <ele>470.45587158</ele>
        <time>2021-06-16T15:00:14Z</time>
      </trkpt>
      <trkpt lat="48.04813" lon="7.11813">
        <ele>469.67340088</ele>
        <time>2021-06-16T15:00:17Z</time>
      </trkpt>
      <trkpt lat="48.04805" lon="7.11834">
        <ele>469.67340088</ele>
        <time>2021-06-16T15:00:19Z</time>
      </trkpt>
      <trkpt lat="48.04798" lon="7.11855">
        <ele>468.943573</ele>
        <time>2021-06-16T15:00:22Z</time>
      </trkpt>
      <trkpt lat="48.04791" lon="7.11877">
        <ele>468.943573</ele>
        <time>2021-06-16T15:00:23Z</time>
      </trkpt>
      <trkpt lat="48.04783" lon="7.11898">
        <ele>468.943573</ele>
        <time>2021-06-16T15:00:25Z</time>
      </trkpt>
      <trkpt lat="48.04776" lon="7.11922">
        <ele>467.80834961</ele>
        <time>2021-06-16T15:00:27Z</time>
      </trkpt>
      <trkpt lat="48.04769" lon="7.11946">
        <ele>467.80834961</ele>
        <time>2021-06-16T15:00:29Z</time>
      </trkpt>
      <trkpt lat="48.04762" lon="7.11969">
        <ele>466.5774231</ele>
        <time>2021-06-16T15:00:31Z</time>
      </trkpt>
      <trkpt lat="48.04755" lon="7.11993">
        <ele>466.5774231</ele>
        <time>2021-06-16T15:00:33Z</time>
      </trkpt>
      <trkpt lat="48.04748" lon="7.12017">
        <ele>466.5774231</ele>
        <time>2021-06-16T15:00:35Z</time>
      </trkpt>
      <trkpt lat="48.04742" lon="7.12036">
        <ele>465.41308594</ele>
        <time>2021-06-16T15:00:36Z</time>
      </trkpt>
      <trkpt lat="48.04737" lon="7.12048">
        <ele>465.41308594</ele>
        <time>2021-06-16T15:00:37Z</time>
      </trkpt>
      <trkpt lat="48.04733" lon="7.1206">
        <ele>465.41308594</ele>
        <time>2021-06-16T15:00:38Z</time>
      </trkpt>
      <trkpt lat="48.04728" lon="7.12073">
        <ele>465.41308594</ele>
        <time>2021-06-16T15:00:39Z</time>
      </trkpt>
      <trkpt lat="48.04722" lon="7.12089">
        <ele>464.13336182</ele>
        <time>2021-06-16T15:00:41Z</time>
      </trkpt>
      <trkpt lat="48.04711" lon="7.12109">
        <ele>464.13336182</ele>
        <time>2021-06-16T15:00:43Z</time>
      </trkpt>
      <trkpt lat="48.04699" lon="7.12129">
        <ele>462.97735596</ele>
        <time>2021-06-16T15:00:45Z</time>
      </trkpt>
      <trkpt lat="48.04688" lon="7.12147">
        <ele>462.97735596</ele>
        <time>2021-06-16T15:00:47Z</time>
      </trkpt>
      <trkpt lat="48.04676" lon="7.12166">
        <ele>462.97735596</ele>
        <time>2021-06-16T15:00:49Z</time>
      </trkpt>
      <trkpt lat="48.04665" lon="7.12184">
        <ele>461.99731445</ele>
        <time>2021-06-16T15:00:51Z</time>
      </trkpt>
      <trkpt lat="48.04652" lon="7.12203">
        <ele>461.99731445</ele>
        <time>2021-06-16T15:00:53Z</time>
      </trkpt>
      <trkpt lat="48.04641" lon="7.12222">
        <ele>460.80203247</ele>
        <time>2021-06-16T15:00:55Z</time>
      </trkpt>
      <trkpt lat="48.04629" lon="7.1224">
        <ele>460.80203247</ele>
        <time>2021-06-16T15:00:57Z</time>
      </trkpt>
      <trkpt lat="48.04617" lon="7.12258">
        <ele>460.80203247</ele>
        <time>2021-06-16T15:00:59Z</time>
      </trkpt>
      <trkpt lat="48.04604" lon="7.12276">
        <ele>459.85342407</ele>
        <time>2021-06-16T15:01:01Z</time>
      </trkpt>
      <trkpt lat="48.04593" lon="7.12295">
        <ele>459.85342407</ele>
        <time>2021-06-16T15:01:03Z</time>
      </trkpt>
      <trkpt lat="48.04581" lon="7.12315">
        <ele>459.85342407</ele>
        <time>2021-06-16T15:01:05Z</time>
      </trkpt>
      <trkpt lat="48.04569" lon="7.12334">
        <ele>458.76763916</ele>
        <time>2021-06-16T15:01:07Z</time>
      </trkpt>
      <trkpt lat="48.04557" lon="7.12352">
        <ele>458.76763916</ele>
        <time>2021-06-16T15:01:09Z</time>
      </trkpt>
      <trkpt lat="48.04546" lon="7.12369">
        <ele>458.76763916</ele>
        <time>2021-06-16T15:01:11Z</time>
      </trkpt>
      <trkpt lat="48.04535" lon="7.12385">
        <ele>457.71609497</ele>
        <time>2021-06-16T15:01:13Z</time>
      </trkpt>
      <trkpt lat="48.04526" lon="7.12399">
        <ele>457.71609497</ele>
        <time>2021-06-16T15:01:15Z</time>
      </trkpt>
      <trkpt lat="48.04517" lon="7.12411">
        <ele>457.01577759</ele>
        <time>2021-06-16T15:01:17Z</time>
      </trkpt>
      <trkpt lat="48.04511" lon="7.12424">
        <ele>457.01577759</ele>
        <time>2021-06-16T15:01:20Z</time>
      </trkpt>
      <trkpt lat="48.0451" lon="7.12441">
        <ele>455.97848511</ele>
        <time>2021-06-16T15:03:54Z</time>
      </trkpt>
      <trkpt lat="48.0451" lon="7.12443">
        <ele>455.97848511</ele>
        <time>2021-06-16T15:03:58Z</time>
      </trkpt>
      <trkpt lat="48.04506" lon="7.12465">
        <ele>455.509552</ele>
        <time>2021-06-16T15:04:03Z</time>
      </trkpt>
      <trkpt lat="48.045" lon="7.12481">
        <ele>455.509552</ele>
        <time>2021-06-16T15:04:05Z</time>
      </trkpt>
      <trkpt lat="48.04497" lon="7.12495">
        <ele>455.509552</ele>
        <time>2021-06-16T15:04:07Z</time>
      </trkpt>
      <trkpt lat="48.04492" lon="7.12511">
        <ele>455.509552</ele>
        <time>2021-06-16T15:04:10Z</time>
      </trkpt>
      <trkpt lat="48.04485" lon="7.12527">
        <ele>455.509552</ele>
        <time>2021-06-16T15:04:12Z</time>
      </trkpt>
      <trkpt lat="48.04479" lon="7.12542">
        <ele>454.09783936</ele>
        <time>2021-06-16T15:04:14Z</time>
      </trkpt>
      <trkpt lat="48.04469" lon="7.12563">
        <ele>453.44085693</ele>
        <time>2021-06-16T15:04:17Z</time>
      </trkpt>
      <trkpt lat="48.04462" lon="7.12578">
        <ele>453.44085693</ele>
        <time>2021-06-16T15:04:19Z</time>
      </trkpt>
      <trkpt lat="48.04456" lon="7.12592">
        <ele>453.44085693</ele>
        <time>2021-06-16T15:04:21Z</time>
      </trkpt>
      <trkpt lat="48.04451" lon="7.12607">
        <ele>453.44085693</ele>
        <time>2021-06-16T15:04:23Z</time>
      </trkpt>
      <trkpt lat="48.04445" lon="7.12621">
        <ele>453.44085693</ele>
        <time>2021-06-16T15:04:25Z</time>
      </trkpt>
      <trkpt lat="48.04439" lon="7.12636">
        <ele>452.86920166</ele>
        <time>2021-06-16T15:04:27Z</time>
      </trkpt>
      <trkpt lat="48.04432" lon="7.12649">
        <ele>452.86920166</ele>
        <time>2021-06-16T15:04:29Z</time>
      </trkpt>
      <trkpt lat="48.04424" lon="7.12662">
        <ele>452.86920166</ele>
        <time>2021-06-16T15:04:31Z</time>
      </trkpt>
      <trkpt lat="48.04416" lon="7.12675">
        <ele>452.86920166</ele>
        <time>2021-06-16T15:04:33Z</time>
      </trkpt>
      <trkpt lat="48.04407" lon="7.12688">
        <ele>451.62271118</ele>
        <time>2021-06-16T15:04:35Z</time>
      </trkpt>
      <trkpt lat="48.04398" lon="7.12701">
        <ele>451.62271118</ele>
        <time>2021-06-16T15:04:37Z</time>
      </trkpt>
      <trkpt lat="48.04388" lon="7.12715">
        <ele>451.62271118</ele>
        <time>2021-06-16T15:04:39Z</time>
      </trkpt>
      <trkpt lat="48.04378" lon="7.12729">
        <ele>451.62271118</ele>
        <time>2021-06-16T15:04:41Z</time>
      </trkpt>
      <trkpt lat="48.04368" lon="7.12744">
        <ele>451.62271118</ele>
        <time>2021-06-16T15:04:43Z</time>
      </trkpt>
      <trkpt lat="48.04358" lon="7.12757">
        <ele>451.62271118</ele>
        <time>2021-06-16T15:04:45Z</time>
      </trkpt>
      <trkpt lat="48.04349" lon="7.12769">
        <ele>450.6776123</ele>
        <time>2021-06-16T15:04:47Z</time>
      </trkpt>
      <trkpt lat="48.0434" lon="7.12782">
        <ele>450.6776123</ele>
        <time>2021-06-16T15:04:49Z</time>
      </trkpt>
      <trkpt lat="48.04329" lon="7.12794">
        <ele>450.6776123</ele>
        <time>2021-06-16T15:04:51Z</time>
      </trkpt>
      <trkpt lat="48.0432" lon="7.12808">
        <ele>450.6776123</ele>
        <time>2021-06-16T15:04:53Z</time>
      </trkpt>
      <trkpt lat="48.0431" lon="7.12823">
        <ele>449.64935303</ele>
        <time>2021-06-16T15:04:55Z</time>
      </trkpt>
      <trkpt lat="48.043" lon="7.12839">
        <ele>449.64935303</ele>
        <time>2021-06-16T15:04:57Z</time>
      </trkpt>
      <trkpt lat="48.0429" lon="7.12855">
        <ele>449.64935303</ele>
        <time>2021-06-16T15:04:59Z</time>
      </trkpt>
      <trkpt lat="48.04281" lon="7.12873">
        <ele>448.60848999</ele>
        <time>2021-06-16T15:05:01Z</time>
      </trkpt>
      <trkpt lat="48.04273" lon="7.12893">
        <ele>448.60848999</ele>
        <time>2021-06-16T15:05:03Z</time>
      </trkpt>
      <trkpt lat="48.04266" lon="7.12914">
        <ele>448.60848999</ele>
        <time>2021-06-16T15:05:05Z</time>
      </trkpt>
      <trkpt lat="48.0426" lon="7.12936">
        <ele>447.46386719</ele>
        <time>2021-06-16T15:05:07Z</time>
      </trkpt>
      <trkpt lat="48.04253" lon="7.12959">
        <ele>447.46386719</ele>
        <time>2021-06-16T15:05:09Z</time>
      </trkpt>
      <trkpt lat="48.04246" lon="7.1298">
        <ele>446.30422974</ele>
        <time>2021-06-16T15:05:11Z</time>
      </trkpt>
      <trkpt lat="48.0424" lon="7.12999">
        <ele>446.30422974</ele>
        <time>2021-06-16T15:05:13Z</time>
      </trkpt>
      <trkpt lat="48.04234" lon="7.13017">
        <ele>446.30422974</ele>
        <time>2021-06-16T15:05:15Z</time>
      </trkpt>
      <trkpt lat="48.04226" lon="7.13035">
        <ele>444.83239746</ele>
        <time>2021-06-16T15:05:17Z</time>
      </trkpt>
      <trkpt lat="48.04219" lon="7.13053">
        <ele>444.83239746</ele>
        <time>2021-06-16T15:05:19Z</time>
      </trkpt>
      <trkpt lat="48.04214" lon="7.13074">
        <ele>444.83239746</ele>
        <time>2021-06-16T15:05:21Z</time>
      </trkpt>
      <trkpt lat="48.04208" lon="7.13095">
        <ele>444.14532471</ele>
        <time>2021-06-16T15:05:23Z</time>
      </trkpt>
      <trkpt lat="48.04203" lon="7.13112">
        <ele>444.14532471</ele>
        <time>2021-06-16T15:05:25Z</time>
      </trkpt>
      <trkpt lat="48.04199" lon="7.13127">
        <ele>444.14532471</ele>
        <time>2021-06-16T15:05:27Z</time>
      </trkpt>
      <trkpt lat="48.04196" lon="7.13139">
        <ele>443.09350586</ele>
        <time>2021-06-16T15:05:31Z</time>
      </trkpt>
      <trkpt lat="48.04189" lon="7.13148">
        <ele>443.09350586</ele>
        <time>2021-06-16T15:05:34Z</time>
      </trkpt>
      <trkpt lat="48.04183" lon="7.13163">
        <ele>443.09350586</ele>
        <time>2021-06-16T15:05:36Z</time>
      </trkpt>
      <trkpt lat="48.04178" lon="7.13176">
        <ele>442.08731079</ele>
        <time>2021-06-16T15:05:39Z</time>
      </trkpt>
      <trkpt lat="48.04174" lon="7.13192">
        <ele>442.08731079</ele>
        <time>2021-06-16T15:05:40Z</time>
      </trkpt>
      <trkpt lat="48.04169" lon="7.13206">
        <ele>442.08731079</ele>
        <time>2021-06-16T15:05:42Z</time>
      </trkpt>
      <trkpt lat="48.04162" lon="7.1322">
        <ele>441.17584229</ele>
        <time>2021-06-16T15:05:44Z</time>
      </trkpt>
      <trkpt lat="48.04153" lon="7.13231">
        <ele>441.17584229</ele>
        <time>2021-06-16T15:05:47Z</time>
      </trkpt>
      <trkpt lat="48.04142" lon="7.13241">
        <ele>441.17584229</ele>
        <time>2021-06-16T15:05:50Z</time>
      </trkpt>
      <trkpt lat="48.04131" lon="7.13244">
        <ele>441.17584229</ele>
        <time>2021-06-16T15:05:52Z</time>
      </trkpt>
      <trkpt lat="48.04119" lon="7.13246">
        <ele>441.17584229</ele>
        <time>2021-06-16T15:05:55Z</time>
      </trkpt>
      <trkpt lat="48.04108" lon="7.13254">
        <ele>439.98208618</ele>
        <time>2021-06-16T15:05:59Z</time>
      </trkpt>
      <trkpt lat="48.04101" lon="7.1327">
        <ele>439.98208618</ele>
        <time>2021-06-16T15:06:03Z</time>
      </trkpt>
      <trkpt lat="48.04099" lon="7.13288">
        <ele>439.98208618</ele>
        <time>2021-06-16T15:06:05Z</time>
      </trkpt>
      <trkpt lat="48.04096" lon="7.13304">
        <ele>439.98208618</ele>
        <time>2021-06-16T15:06:07Z</time>
      </trkpt>
      <trkpt lat="48.04093" lon="7.13317">
        <ele>439.98208618</ele>
        <time>2021-06-16T15:06:09Z</time>
      </trkpt>
      <trkpt lat="48.0409" lon="7.13331">
        <ele>438.97924805</ele>
        <time>2021-06-16T15:06:11Z</time>
      </trkpt>
      <trkpt lat="48.04087" lon="7.13345">
        <ele>438.97924805</ele>
        <time>2021-06-16T15:06:13Z</time>
      </trkpt>
      <trkpt lat="48.04084" lon="7.13359">
        <ele>438.97924805</ele>
        <time>2021-06-16T15:06:15Z</time>
      </trkpt>
      <trkpt lat="48.04083" lon="7.13363">
        <ele>438.03018188</ele>
        <time>2021-06-16T15:06:17Z</time>
      </trkpt>
      <trkpt lat="48.04082" lon="7.13374">
        <ele>438.03018188</ele>
        <time>2021-06-16T15:06:18Z</time>
      </trkpt>
      <trkpt lat="48.04079" lon="7.1339">
        <ele>438.03018188</ele>
        <time>2021-06-16T15:06:20Z</time>
      </trkpt>
      <trkpt lat="48.04076" lon="7.13407">
        <ele>438.03018188</ele>
        <time>2021-06-16T15:06:22Z</time>
      </trkpt>
      <trkpt lat="48.04075" lon="7.13423">
        <ele>438.03018188</ele>
        <time>2021-06-16T15:06:25Z</time>
      </trkpt>
      <trkpt lat="48.04073" lon="7.1344">
        <ele>438.03018188</ele>
        <time>2021-06-16T15:06:28Z</time>
      </trkpt>
      <trkpt lat="48.04068" lon="7.13459">
        <ele>437.24032593</ele>
        <time>2021-06-16T15:06:31Z</time>
      </trkpt>
      <trkpt lat="48.04068" lon="7.13477">
        <ele>437.24032593</ele>
        <time>2021-06-16T15:06:33Z</time>
      </trkpt>
      <trkpt lat="48.04066" lon="7.1349">
        <ele>437.24032593</ele>
        <time>2021-06-16T15:06:35Z</time>
      </trkpt>
      <trkpt lat="48.04064" lon="7.13504">
        <ele>437.24032593</ele>
        <time>2021-06-16T15:06:37Z</time>
      </trkpt>
      <trkpt lat="48.04064" lon="7.13519">
        <ele>437.24032593</ele>
        <time>2021-06-16T15:06:39Z</time>
      </trkpt>
      <trkpt lat="48.04066" lon="7.13536">
        <ele>436.05596924</ele>
        <time>2021-06-16T15:06:42Z</time>
      </trkpt>
      <trkpt lat="48.04065" lon="7.13556">
        <ele>436.05596924</ele>
        <time>2021-06-16T15:06:45Z</time>
      </trkpt>
      <trkpt lat="48.04066" lon="7.13571">
        <ele>436.05596924</ele>
        <time>2021-06-16T15:06:47Z</time>
      </trkpt>
      <trkpt lat="48.04069" lon="7.13586">
        <ele>436.05596924</ele>
        <time>2021-06-16T15:06:50Z</time>
      </trkpt>
      <trkpt lat="48.04071" lon="7.13604">
        <ele>436.05596924</ele>
        <time>2021-06-16T15:06:52Z</time>
      </trkpt>
      <trkpt lat="48.04071" lon="7.13618">
        <ele>435.14575195</ele>
        <time>2021-06-16T15:06:55Z</time>
      </trkpt>
      <trkpt lat="48.0407" lon="7.13632">
        <ele>435.14575195</ele>
        <time>2021-06-16T15:06:57Z</time>
      </trkpt>
      <trkpt lat="48.04073" lon="7.13646">
        <ele>435.14575195</ele>
        <time>2021-06-16T15:07:00Z</time>
      </trkpt>
      <trkpt lat="48.04076" lon="7.13663">
        <ele>435.14575195</ele>
        <time>2021-06-16T15:07:01Z</time>
      </trkpt>
      <trkpt lat="48.04078" lon="7.13679">
        <ele>435.14575195</ele>
        <time>2021-06-16T15:07:04Z</time>
      </trkpt>
      <trkpt lat="48.04079" lon="7.13699">
        <ele>433.86456299</ele>
        <time>2021-06-16T15:07:07Z</time>
      </trkpt>
      <trkpt lat="48.04079" lon="7.13719">
        <ele>433.86456299</ele>
        <time>2021-06-16T15:07:10Z</time>
      </trkpt>
      <trkpt lat="48.04079" lon="7.13739">
        <ele>432.84051514</ele>
        <time>2021-06-16T15:07:12Z</time>
      </trkpt>
      <trkpt lat="48.0408" lon="7.13757">
        <ele>432.84051514</ele>
        <time>2021-06-16T15:07:15Z</time>
      </trkpt>
      <trkpt lat="48.04081" lon="7.13763">
        <ele>432.09487915</ele>
        <time>2021-06-16T15:07:16Z</time>
      </trkpt>
      <trkpt lat="48.04082" lon="7.13774">
        <ele>432.09487915</ele>
        <time>2021-06-16T15:07:18Z</time>
      </trkpt>
      <trkpt lat="48.04082" lon="7.1379">
        <ele>432.09487915</ele>
        <time>2021-06-16T15:07:21Z</time>
      </trkpt>
      <trkpt lat="48.04083" lon="7.138">
        <ele>431.34988403</ele>
        <time>2021-06-16T15:08:17Z</time>
      </trkpt>
      <trkpt lat="48.04085" lon="7.13816">
        <ele>431.34988403</ele>
        <time>2021-06-16T15:08:20Z</time>
      </trkpt>
      <trkpt lat="48.04088" lon="7.13833">
        <ele>431.34988403</ele>
        <time>2021-06-16T15:08:22Z</time>
      </trkpt>
      <trkpt lat="48.0409" lon="7.13849">
        <ele>431.34988403</ele>
        <time>2021-06-16T15:08:26Z</time>
      </trkpt>
      <trkpt lat="48.04094" lon="7.13862">
        <ele>431.34988403</ele>
        <time>2021-06-16T15:08:40Z</time>
      </trkpt>
      <trkpt lat="48.04096" lon="7.13879">
        <ele>431.34988403</ele>
        <time>2021-06-16T15:08:43Z</time>
      </trkpt>
      <trkpt lat="48.04099" lon="7.13893">
        <ele>430.36868286</ele>
        <time>2021-06-16T15:08:47Z</time>
      </trkpt>
      <trkpt lat="48.04102" lon="7.13908">
        <ele>430.36868286</ele>
        <time>2021-06-16T15:08:49Z</time>
      </trkpt>
      <trkpt lat="48.04106" lon="7.13926">
        <ele>430.36868286</ele>
        <time>2021-06-16T15:08:52Z</time>
      </trkpt>
      <trkpt lat="48.0411" lon="7.13942">
        <ele>429.49032593</ele>
        <time>2021-06-16T15:08:54Z</time>
      </trkpt>
      <trkpt lat="48.04119" lon="7.13968">
        <ele>429.49032593</ele>
        <time>2021-06-16T15:08:58Z</time>
      </trkpt>
      <trkpt lat="48.04126" lon="7.13979">
        <ele>429.49032593</ele>
        <time>2021-06-16T15:09:00Z</time>
      </trkpt>
      <trkpt lat="48.04132" lon="7.13993">
        <ele>429.49032593</ele>
        <time>2021-06-16T15:09:03Z</time>
      </trkpt>
      <trkpt lat="48.04139" lon="7.14005">
        <ele>429.49032593</ele>
        <time>2021-06-16T15:09:06Z</time>
      </trkpt>
      <trkpt lat="48.04148" lon="7.14017">
        <ele>429.49032593</ele>
        <time>2021-06-16T15:09:09Z</time>
      </trkpt>
      <trkpt lat="48.04155" lon="7.14028">
        <ele>429.49032593</ele>
        <time>2021-06-16T15:09:12Z</time>
      </trkpt>
      <trkpt lat="48.04159" lon="7.14044">
        <ele>429.49032593</ele>
        <time>2021-06-16T15:09:15Z</time>
      </trkpt>
      <trkpt lat="48.04157" lon="7.14061">
        <ele>428.99273682</ele>
        <time>2021-06-16T15:09:17Z</time>
      </trkpt>
      <trkpt lat="48.04155" lon="7.14075">
        <ele>428.99273682</ele>
        <time>2021-06-16T15:09:19Z</time>
      </trkpt>
      <trkpt lat="48.04152" lon="7.14088">
        <ele>428.99273682</ele>
        <time>2021-06-16T15:09:21Z</time>
      </trkpt>
      <trkpt lat="48.04149" lon="7.14103">
        <ele>428.99273682</ele>
        <time>2021-06-16T15:09:23Z</time>
      </trkpt>
      <trkpt lat="48.04146" lon="7.14118">
        <ele>428.99273682</ele>
        <time>2021-06-16T15:09:25Z</time>
      </trkpt>
      <trkpt lat="48.04142" lon="7.14152">
        <ele>428.99273682</ele>
        <time>2021-06-16T15:09:29Z</time>
      </trkpt>
      <trkpt lat="48.04139" lon="7.14169">
        <ele>428.99273682</ele>
        <time>2021-06-16T15:09:31Z</time>
      </trkpt>
      <trkpt lat="48.04139" lon="7.14185">
        <ele>429.13482666</ele>
        <time>2021-06-16T15:09:34Z</time>
      </trkpt>
      <trkpt lat="48.0414" lon="7.14201">
        <ele>429.13482666</ele>
        <time>2021-06-16T15:09:36Z</time>
      </trkpt>
      <trkpt lat="48.04139" lon="7.14217">
        <ele>429.13482666</ele>
        <time>2021-06-16T15:09:37Z</time>
      </trkpt>
      <trkpt lat="48.04139" lon="7.14233">
        <ele>429.13482666</ele>
        <time>2021-06-16T15:09:40Z</time>
      </trkpt>
      <trkpt lat="48.0414" lon="7.14251">
        <ele>429.13482666</ele>
        <time>2021-06-16T15:09:41Z</time>
      </trkpt>
      <trkpt lat="48.04143" lon="7.14269">
        <ele>427.97164917</ele>
        <time>2021-06-16T15:09:43Z</time>
      </trkpt>
      <trkpt lat="48.04147" lon="7.14287">
        <ele>427.97164917</ele>
        <time>2021-06-16T15:09:45Z</time>
      </trkpt>
      <trkpt lat="48.04153" lon="7.14303">
        <ele>427.97164917</ele>
        <time>2021-06-16T15:09:47Z</time>
      </trkpt>
      <trkpt lat="48.0416" lon="7.14319">
        <ele>427.97164917</ele>
        <time>2021-06-16T15:09:49Z</time>
      </trkpt>
      <trkpt lat="48.04168" lon="7.14334">
        <ele>427.97164917</ele>
        <time>2021-06-16T15:09:51Z</time>
      </trkpt>
      <trkpt lat="48.04177" lon="7.14348">
        <ele>427.97164917</ele>
        <time>2021-06-16T15:09:53Z</time>
      </trkpt>
      <trkpt lat="48.04184" lon="7.1436">
        <ele>426.86605835</ele>
        <time>2021-06-16T15:09:55Z</time>
      </trkpt>
      <trkpt lat="48.04192" lon="7.14375">
        <ele>426.86605835</ele>
        <time>2021-06-16T15:09:57Z</time>
      </trkpt>
      <trkpt lat="48.04199" lon="7.14388">
        <ele>426.86605835</ele>
        <time>2021-06-16T15:10:00Z</time>
      </trkpt>
      <trkpt lat="48.04204" lon="7.14403">
        <ele>426.86605835</ele>
        <time>2021-06-16T15:10:01Z</time>
      </trkpt>
      <trkpt lat="48.04207" lon="7.14419">
        <ele>426.86605835</ele>
        <time>2021-06-16T15:10:03Z</time>
      </trkpt>
      <trkpt lat="48.0421" lon="7.14435">
        <ele>426.86605835</ele>
        <time>2021-06-16T15:10:05Z</time>
      </trkpt>
      <trkpt lat="48.04214" lon="7.14452">
        <ele>426.86605835</ele>
        <time>2021-06-16T15:10:07Z</time>
      </trkpt>
      <trkpt lat="48.04218" lon="7.14469">
        <ele>426.86605835</ele>
        <time>2021-06-16T15:10:09Z</time>
      </trkpt>
      <trkpt lat="48.04221" lon="7.14487">
        <ele>426.86605835</ele>
        <time>2021-06-16T15:10:11Z</time>
      </trkpt>
      <trkpt lat="48.04224" lon="7.14503">
        <ele>426.86605835</ele>
        <time>2021-06-16T15:10:13Z</time>
      </trkpt>
      <trkpt lat="48.04228" lon="7.14519">
        <ele>426.86605835</ele>
        <time>2021-06-16T15:10:15Z</time>
      </trkpt>
      <trkpt lat="48.04232" lon="7.14536">
        <ele>426.26119995</ele>
        <time>2021-06-16T15:10:17Z</time>
      </trkpt>
      <trkpt lat="48.04237" lon="7.14549">
        <ele>426.26119995</ele>
        <time>2021-06-16T15:10:20Z</time>
      </trkpt>
      <trkpt lat="48.04244" lon="7.14563">
        <ele>426.26119995</ele>
        <time>2021-06-16T15:10:21Z</time>
      </trkpt>
      <trkpt lat="48.04252" lon="7.14576">
        <ele>426.26119995</ele>
        <time>2021-06-16T15:10:23Z</time>
      </trkpt>
      <trkpt lat="48.04259" lon="7.1459">
        <ele>426.26119995</ele>
        <time>2021-06-16T15:10:25Z</time>
      </trkpt>
      <trkpt lat="48.04266" lon="7.14603">
        <ele>426.26119995</ele>
        <time>2021-06-16T15:10:27Z</time>
      </trkpt>
      <trkpt lat="48.04271" lon="7.14616">
        <ele>426.26119995</ele>
        <time>2021-06-16T15:10:29Z</time>
      </trkpt>
      <trkpt lat="48.04276" lon="7.1463">
        <ele>426.26119995</ele>
        <time>2021-06-16T15:10:31Z</time>
      </trkpt>
      <trkpt lat="48.0428" lon="7.14646">
        <ele>426.26119995</ele>
        <time>2021-06-16T15:10:33Z</time>
      </trkpt>
      <trkpt lat="48.04283" lon="7.14663">
        <ele>426.26119995</ele>
        <time>2021-06-16T15:10:35Z</time>
      </trkpt>
      <trkpt lat="48.04286" lon="7.14678">
        <ele>426.26119995</ele>
        <time>2021-06-16T15:10:37Z</time>
      </trkpt>
      <trkpt lat="48.04289" lon="7.14694">
        <ele>426.26119995</ele>
        <time>2021-06-16T15:10:39Z</time>
      </trkpt>
      <trkpt lat="48.04291" lon="7.14711">
        <ele>426.26119995</ele>
        <time>2021-06-16T15:10:41Z</time>
      </trkpt>
      <trkpt lat="48.04293" lon="7.14728">
        <ele>426.26119995</ele>
        <time>2021-06-16T15:10:43Z</time>
      </trkpt>
      <trkpt lat="48.04296" lon="7.14744">
        <ele>426.26119995</ele>
        <time>2021-06-16T15:10:45Z</time>
      </trkpt>
      <trkpt lat="48.04298" lon="7.14761">
        <ele>426.26119995</ele>
        <time>2021-06-16T15:10:47Z</time>
      </trkpt>
      <trkpt lat="48.04302" lon="7.14777">
        <ele>426.26119995</ele>
        <time>2021-06-16T15:10:50Z</time>
      </trkpt>
      <trkpt lat="48.04304" lon="7.14792">
        <ele>426.26119995</ele>
        <time>2021-06-16T15:10:51Z</time>
      </trkpt>
      <trkpt lat="48.04307" lon="7.14808">
        <ele>426.26119995</ele>
        <time>2021-06-16T15:10:53Z</time>
      </trkpt>
      <trkpt lat="48.04309" lon="7.14824">
        <ele>426.26119995</ele>
        <time>2021-06-16T15:10:56Z</time>
      </trkpt>
      <trkpt lat="48.04313" lon="7.14841">
        <ele>426.26119995</ele>
        <time>2021-06-16T15:10:57Z</time>
      </trkpt>
      <trkpt lat="48.04313" lon="7.14858">
        <ele>426.26119995</ele>
        <time>2021-06-16T15:10:59Z</time>
      </trkpt>
      <trkpt lat="48.04314" lon="7.14874">
        <ele>426.26119995</ele>
        <time>2021-06-16T15:11:02Z</time>
      </trkpt>
      <trkpt lat="48.04314" lon="7.1489">
        <ele>426.26119995</ele>
        <time>2021-06-16T15:11:03Z</time>
      </trkpt>
      <trkpt lat="48.04315" lon="7.14907">
        <ele>426.26119995</ele>
        <time>2021-06-16T15:11:05Z</time>
      </trkpt>
      <trkpt lat="48.04316" lon="7.14923">
        <ele>426.26119995</ele>
        <time>2021-06-16T15:11:07Z</time>
      </trkpt>
      <trkpt lat="48.04318" lon="7.14941">
        <ele>426.26119995</ele>
        <time>2021-06-16T15:11:10Z</time>
      </trkpt>
      <trkpt lat="48.04321" lon="7.1496">
        <ele>426.26119995</ele>
        <time>2021-06-16T15:11:11Z</time>
      </trkpt>
      <trkpt lat="48.0432" lon="7.14976">
        <ele>426.26119995</ele>
        <time>2021-06-16T15:11:13Z</time>
      </trkpt>
      <trkpt lat="48.04325" lon="7.14993">
        <ele>426.26119995</ele>
        <time>2021-06-16T15:11:15Z</time>
      </trkpt>
      <trkpt lat="48.0433" lon="7.1501">
        <ele>426.45834351</ele>
        <time>2021-06-16T15:11:17Z</time>
      </trkpt>
      <trkpt lat="48.04337" lon="7.15029">
        <ele>426.45834351</ele>
        <time>2021-06-16T15:11:19Z</time>
      </trkpt>
      <trkpt lat="48.04343" lon="7.15049">
        <ele>426.45834351</ele>
        <time>2021-06-16T15:11:21Z</time>
      </trkpt>
      <trkpt lat="48.04347" lon="7.15069">
        <ele>425.34317017</ele>
        <time>2021-06-16T15:11:23Z</time>
      </trkpt>
      <trkpt lat="48.0435" lon="7.15091">
        <ele>425.34317017</ele>
        <time>2021-06-16T15:11:25Z</time>
      </trkpt>
      <trkpt lat="48.04353" lon="7.15112">
        <ele>425.34317017</ele>
        <time>2021-06-16T15:11:27Z</time>
      </trkpt>
      <trkpt lat="48.04358" lon="7.15134">
        <ele>424.05734253</ele>
        <time>2021-06-16T15:11:30Z</time>
      </trkpt>
      <trkpt lat="48.04361" lon="7.15155">
        <ele>424.05734253</ele>
        <time>2021-06-16T15:11:31Z</time>
      </trkpt>
      <trkpt lat="48.04364" lon="7.15177">
        <ele>424.05734253</ele>
        <time>2021-06-16T15:11:33Z</time>
      </trkpt>
      <trkpt lat="48.04367" lon="7.15199">
        <ele>423.11541748</ele>
        <time>2021-06-16T15:11:35Z</time>
      </trkpt>
      <trkpt lat="48.04369" lon="7.15219">
        <ele>423.11541748</ele>
        <time>2021-06-16T15:11:37Z</time>
      </trkpt>
      <trkpt lat="48.04371" lon="7.15241">
        <ele>423.11541748</ele>
        <time>2021-06-16T15:11:39Z</time>
      </trkpt>
      <trkpt lat="48.04374" lon="7.15259">
        <ele>423.11541748</ele>
        <time>2021-06-16T15:11:41Z</time>
      </trkpt>
      <trkpt lat="48.04376" lon="7.15276">
        <ele>421.94396973</ele>
        <time>2021-06-16T15:11:43Z</time>
      </trkpt>
      <trkpt lat="48.04379" lon="7.15295">
        <ele>421.94396973</ele>
        <time>2021-06-16T15:11:45Z</time>
      </trkpt>
      <trkpt lat="48.04384" lon="7.15313">
        <ele>421.94396973</ele>
        <time>2021-06-16T15:11:47Z</time>
      </trkpt>
      <trkpt lat="48.04388" lon="7.15331">
        <ele>421.94396973</ele>
        <time>2021-06-16T15:11:49Z</time>
      </trkpt>
      <trkpt lat="48.04394" lon="7.15348">
        <ele>421.94396973</ele>
        <time>2021-06-16T15:11:51Z</time>
      </trkpt>
      <trkpt lat="48.04399" lon="7.15365">
        <ele>421.94396973</ele>
        <time>2021-06-16T15:11:53Z</time>
      </trkpt>
      <trkpt lat="48.04402" lon="7.15383">
        <ele>421.94396973</ele>
        <time>2021-06-16T15:11:55Z</time>
      </trkpt>
      <trkpt lat="48.04403" lon="7.15399">
        <ele>421.94396973</ele>
        <time>2021-06-16T15:11:57Z</time>
      </trkpt>
      <trkpt lat="48.04406" lon="7.15415">
        <ele>421.94396973</ele>
        <time>2021-06-16T15:11:59Z</time>
      </trkpt>
      <trkpt lat="48.04407" lon="7.15432">
        <ele>421.94396973</ele>
        <time>2021-06-16T15:12:01Z</time>
      </trkpt>
      <trkpt lat="48.04408" lon="7.1545">
        <ele>421.01889038</ele>
        <time>2021-06-16T15:12:03Z</time>
      </trkpt>
      <trkpt lat="48.04407" lon="7.15467">
        <ele>421.01889038</ele>
        <time>2021-06-16T15:12:05Z</time>
      </trkpt>
      <trkpt lat="48.04406" lon="7.15483">
        <ele>421.01889038</ele>
        <time>2021-06-16T15:12:07Z</time>
      </trkpt>
      <trkpt lat="48.04404" lon="7.155">
        <ele>421.01889038</ele>
        <time>2021-06-16T15:12:10Z</time>
      </trkpt>
      <trkpt lat="48.044" lon="7.15517">
        <ele>419.97427368</ele>
        <time>2021-06-16T15:12:13Z</time>
      </trkpt>
      <trkpt lat="48.04399" lon="7.15528">
        <ele>419.11117554</ele>
        <time>2021-06-16T15:12:17Z</time>
      </trkpt>
      <trkpt lat="48.04402" lon="7.15532">
        <ele>419.11117554</ele>
        <time>2021-06-16T15:12:24Z</time>
      </trkpt>
      <trkpt lat="48.04412" lon="7.15531">
        <ele>419.11117554</ele>
        <time>2021-06-16T15:12:49Z</time>
      </trkpt>
      <trkpt lat="48.04414" lon="7.1552">
        <ele>419.11117554</ele>
        <time>2021-06-16T15:12:55Z</time>
      </trkpt>
      <trkpt lat="48.04424" lon="7.1551">
        <ele>419.11117554</ele>
        <time>2021-06-16T15:12:58Z</time>
      </trkpt>
      <trkpt lat="48.04434" lon="7.15509">
        <ele>419.11117554</ele>
        <time>2021-06-16T15:13:03Z</time>
      </trkpt>
      <trkpt lat="48.04442" lon="7.15519">
        <ele>419.11117554</ele>
        <time>2021-06-16T15:13:06Z</time>
      </trkpt>
      <trkpt lat="48.04448" lon="7.15532">
        <ele>419.13751221</ele>
        <time>2021-06-16T15:13:10Z</time>
      </trkpt>
      <trkpt lat="48.04451" lon="7.15546">
        <ele>419.13751221</ele>
        <time>2021-06-16T15:13:13Z</time>
      </trkpt>
      <trkpt lat="48.04449" lon="7.15557">
        <ele>420.19616699</ele>
        <time>2021-06-16T15:13:16Z</time>
      </trkpt>
      <trkpt lat="48.04447" lon="7.15562">
        <ele>420.87420654</ele>
        <time>2021-06-16T15:16:43Z</time>
      </trkpt>
      <trkpt lat="48.04447" lon="7.15563">
        <ele>420.87420654</ele>
        <time>2021-06-16T15:16:48Z</time>
      </trkpt>
      <trkpt lat="48.04451" lon="7.15586">
        <ele>420.87420654</ele>
        <time>2021-06-16T15:16:51Z</time>
      </trkpt>
      <trkpt lat="48.04452" lon="7.15601">
        <ele>420.87420654</ele>
        <time>2021-06-16T15:16:54Z</time>
      </trkpt>
      <trkpt lat="48.04453" lon="7.15615">
        <ele>420.87420654</ele>
        <time>2021-06-16T15:16:57Z</time>
      </trkpt>
      <trkpt lat="48.04454" lon="7.1563">
        <ele>420.87420654</ele>
        <time>2021-06-16T15:17:01Z</time>
      </trkpt>
      <trkpt lat="48.04456" lon="7.15649">
        <ele>420.87420654</ele>
        <time>2021-06-16T15:17:04Z</time>
      </trkpt>
      <trkpt lat="48.04456" lon="7.15666">
        <ele>420.87420654</ele>
        <time>2021-06-16T15:17:06Z</time>
      </trkpt>
      <trkpt lat="48.04458" lon="7.15682">
        <ele>420.87420654</ele>
        <time>2021-06-16T15:17:09Z</time>
      </trkpt>
      <trkpt lat="48.04459" lon="7.157">
        <ele>420.87420654</ele>
        <time>2021-06-16T15:17:12Z</time>
      </trkpt>
      <trkpt lat="48.04462" lon="7.15716">
        <ele>420.87420654</ele>
        <time>2021-06-16T15:17:16Z</time>
      </trkpt>
      <trkpt lat="48.04466" lon="7.15732">
        <ele>421.06881714</ele>
        <time>2021-06-16T15:17:17Z</time>
      </trkpt>
      <trkpt lat="48.04471" lon="7.15745">
        <ele>421.06881714</ele>
        <time>2021-06-16T15:17:20Z</time>
      </trkpt>
      <trkpt lat="48.04479" lon="7.15759">
        <ele>421.06881714</ele>
        <time>2021-06-16T15:17:23Z</time>
      </trkpt>
      <trkpt lat="48.04483" lon="7.15777">
        <ele>420.82507324</ele>
        <time>2021-06-16T15:17:27Z</time>
      </trkpt>
      <trkpt lat="48.04489" lon="7.15795">
        <ele>420.82507324</ele>
        <time>2021-06-16T15:17:28Z</time>
      </trkpt>
      <trkpt lat="48.04495" lon="7.15811">
        <ele>419.64508057</ele>
        <time>2021-06-16T15:17:30Z</time>
      </trkpt>
      <trkpt lat="48.045" lon="7.15828">
        <ele>419.64508057</ele>
        <time>2021-06-16T15:17:32Z</time>
      </trkpt>
      <trkpt lat="48.04505" lon="7.15843">
        <ele>419.64508057</ele>
        <time>2021-06-16T15:17:34Z</time>
      </trkpt>
      <trkpt lat="48.04508" lon="7.15861">
        <ele>418.58050537</ele>
        <time>2021-06-16T15:17:36Z</time>
      </trkpt>
      <trkpt lat="48.04511" lon="7.1588">
        <ele>418.58050537</ele>
        <time>2021-06-16T15:17:38Z</time>
      </trkpt>
      <trkpt lat="48.04514" lon="7.15899">
        <ele>417.46105957</ele>
        <time>2021-06-16T15:17:40Z</time>
      </trkpt>
      <trkpt lat="48.04518" lon="7.15921">
        <ele>417.46105957</ele>
        <time>2021-06-16T15:17:42Z</time>
      </trkpt>
      <trkpt lat="48.04522" lon="7.15941">
        <ele>417.46105957</ele>
        <time>2021-06-16T15:17:44Z</time>
      </trkpt>
      <trkpt lat="48.04527" lon="7.15963">
        <ele>416.38803101</ele>
        <time>2021-06-16T15:17:46Z</time>
      </trkpt>
      <trkpt lat="48.0453" lon="7.15984">
        <ele>416.38803101</ele>
        <time>2021-06-16T15:17:48Z</time>
      </trkpt>
      <trkpt lat="48.04533" lon="7.16006">
        <ele>416.38803101</ele>
        <time>2021-06-16T15:17:50Z</time>
      </trkpt>
      <trkpt lat="48.04534" lon="7.16027">
        <ele>416.38803101</ele>
        <time>2021-06-16T15:17:52Z</time>
      </trkpt>
      <trkpt lat="48.04535" lon="7.16047">
        <ele>416.38803101</ele>
        <time>2021-06-16T15:17:54Z</time>
      </trkpt>
      <trkpt lat="48.04537" lon="7.16067">
        <ele>416.38803101</ele>
        <time>2021-06-16T15:17:56Z</time>
      </trkpt>
      <trkpt lat="48.0454" lon="7.16087">
        <ele>415.46609497</ele>
        <time>2021-06-16T15:17:58Z</time>
      </trkpt>
      <trkpt lat="48.04541" lon="7.16107">
        <ele>415.46609497</ele>
        <time>2021-06-16T15:18:00Z</time>
      </trkpt>
      <trkpt lat="48.04544" lon="7.16127">
        <ele>415.46609497</ele>
        <time>2021-06-16T15:18:02Z</time>
      </trkpt>
      <trkpt lat="48.04547" lon="7.16147">
        <ele>415.46609497</ele>
        <time>2021-06-16T15:18:04Z</time>
      </trkpt>
      <trkpt lat="48.0455" lon="7.16167">
        <ele>415.46609497</ele>
        <time>2021-06-16T15:18:06Z</time>
      </trkpt>
      <trkpt lat="48.04552" lon="7.16186">
        <ele>415.46609497</ele>
        <time>2021-06-16T15:18:08Z</time>
      </trkpt>
      <trkpt lat="48.04554" lon="7.16206">
        <ele>415.46609497</ele>
        <time>2021-06-16T15:18:10Z</time>
      </trkpt>
      <trkpt lat="48.04557" lon="7.16227">
        <ele>415.46609497</ele>
        <time>2021-06-16T15:18:12Z</time>
      </trkpt>
      <trkpt lat="48.0456" lon="7.16247">
        <ele>414.60293579</ele>
        <time>2021-06-16T15:18:14Z</time>
      </trkpt>
      <trkpt lat="48.04565" lon="7.16279">
        <ele>413.71124268</ele>
        <time>2021-06-16T15:18:17Z</time>
      </trkpt>
      <trkpt lat="48.04568" lon="7.163">
        <ele>413.71124268</ele>
        <time>2021-06-16T15:18:19Z</time>
      </trkpt>
      <trkpt lat="48.04569" lon="7.16321">
        <ele>413.71124268</ele>
        <time>2021-06-16T15:18:21Z</time>
      </trkpt>
      <trkpt lat="48.04567" lon="7.16343">
        <ele>413.71124268</ele>
        <time>2021-06-16T15:18:23Z</time>
      </trkpt>
      <trkpt lat="48.04565" lon="7.16361">
        <ele>412.98675537</ele>
        <time>2021-06-16T15:18:25Z</time>
      </trkpt>
      <trkpt lat="48.04562" lon="7.16382">
        <ele>412.98675537</ele>
        <time>2021-06-16T15:18:27Z</time>
      </trkpt>
      <trkpt lat="48.0456" lon="7.16403">
        <ele>412.98675537</ele>
        <time>2021-06-16T15:18:29Z</time>
      </trkpt>
      <trkpt lat="48.04558" lon="7.16424">
        <ele>412.98675537</ele>
        <time>2021-06-16T15:18:31Z</time>
      </trkpt>
      <trkpt lat="48.04559" lon="7.16444">
        <ele>411.931427</ele>
        <time>2021-06-16T15:18:33Z</time>
      </trkpt>
      <trkpt lat="48.04561" lon="7.16462">
        <ele>411.931427</ele>
        <time>2021-06-16T15:18:35Z</time>
      </trkpt>
      <trkpt lat="48.04562" lon="7.16478">
        <ele>410.56564331</ele>
        <time>2021-06-16T15:18:38Z</time>
      </trkpt>
      <trkpt lat="48.04561" lon="7.16493">
        <ele>409.47387695</ele>
        <time>2021-06-16T15:18:41Z</time>
      </trkpt>
      <trkpt lat="48.04562" lon="7.16507">
        <ele>409.47387695</ele>
        <time>2021-06-16T15:18:44Z</time>
      </trkpt>
      <trkpt lat="48.04569" lon="7.16518">
        <ele>409.47387695</ele>
        <time>2021-06-16T15:18:46Z</time>
      </trkpt>
      <trkpt lat="48.04578" lon="7.16527">
        <ele>409.47387695</ele>
        <time>2021-06-16T15:18:49Z</time>
      </trkpt>
      <trkpt lat="48.04589" lon="7.16533">
        <ele>408.8241272</ele>
        <time>2021-06-16T15:18:52Z</time>
      </trkpt>
      <trkpt lat="48.046" lon="7.16531">
        <ele>411.09710693</ele>
        <time>2021-06-16T15:18:56Z</time>
      </trkpt>
      <trkpt lat="48.0461" lon="7.16525">
        <ele>412.49609375</ele>
        <time>2021-06-16T15:18:59Z</time>
      </trkpt>
      <trkpt lat="48.04621" lon="7.16516">
        <ele>414.9331665</ele>
        <time>2021-06-16T15:19:02Z</time>
      </trkpt>
      <trkpt lat="48.04629" lon="7.16503">
        <ele>416.09939575</ele>
        <time>2021-06-16T15:19:05Z</time>
      </trkpt>
      <trkpt lat="48.04638" lon="7.16495">
        <ele>417.44146729</ele>
        <time>2021-06-16T15:19:08Z</time>
      </trkpt>
      <trkpt lat="48.04647" lon="7.1649">
        <ele>418.70922852</ele>
        <time>2021-06-16T15:19:11Z</time>
      </trkpt>
      <trkpt lat="48.04653" lon="7.16497">
        <ele>420.8527832</ele>
        <time>2021-06-16T15:19:15Z</time>
      </trkpt>
      <trkpt lat="48.04655" lon="7.16504">
        <ele>422.16299438</ele>
        <time>2021-06-16T15:19:17Z</time>
      </trkpt>
      <trkpt lat="48.04658" lon="7.1651">
        <ele>422.9630127</ele>
        <time>2021-06-16T15:19:19Z</time>
      </trkpt>
      <trkpt lat="48.04667" lon="7.1651">
        <ele>425.18017578</ele>
        <time>2021-06-16T15:19:23Z</time>
      </trkpt>
      <trkpt lat="48.04677" lon="7.16499">
        <ele>426.57232666</ele>
        <time>2021-06-16T15:19:26Z</time>
      </trkpt>
      <trkpt lat="48.04686" lon="7.16491">
        <ele>427.83578491</ele>
        <time>2021-06-16T15:19:30Z</time>
      </trkpt>
      <trkpt lat="48.04696" lon="7.16482">
        <ele>428.99090576</ele>
        <time>2021-06-16T15:19:33Z</time>
      </trkpt>
      <trkpt lat="48.04705" lon="7.16474">
        <ele>430.32766724</ele>
        <time>2021-06-16T15:19:36Z</time>
      </trkpt>
      <trkpt lat="48.04716" lon="7.16466">
        <ele>431.72210693</ele>
        <time>2021-06-16T15:19:39Z</time>
      </trkpt>
      <trkpt lat="48.04724" lon="7.16454">
        <ele>433.15829468</ele>
        <time>2021-06-16T15:19:43Z</time>
      </trkpt>
      <trkpt lat="48.04731" lon="7.16442">
        <ele>434.52481079</ele>
        <time>2021-06-16T15:19:46Z</time>
      </trkpt>
      <trkpt lat="48.04739" lon="7.16431">
        <ele>436.82235718</ele>
        <time>2021-06-16T15:19:50Z</time>
      </trkpt>
      <trkpt lat="48.04747" lon="7.16419">
        <ele>437.92532349</ele>
        <time>2021-06-16T15:19:54Z</time>
      </trkpt>
      <trkpt lat="48.04754" lon="7.16407">
        <ele>439.04815674</ele>
        <time>2021-06-16T15:19:58Z</time>
      </trkpt>
      <trkpt lat="48.04762" lon="7.16395">
        <ele>440.16696167</ele>
        <time>2021-06-16T15:20:01Z</time>
      </trkpt>
      <trkpt lat="48.04767" lon="7.16379">
        <ele>441.31994629</ele>
        <time>2021-06-16T15:20:04Z</time>
      </trkpt>
      <trkpt lat="48.04775" lon="7.1637">
        <ele>442.48095703</ele>
        <time>2021-06-16T15:20:07Z</time>
      </trkpt>
      <trkpt lat="48.04783" lon="7.16365">
        <ele>444.60357666</ele>
        <time>2021-06-16T15:20:11Z</time>
      </trkpt>
      <trkpt lat="48.04792" lon="7.16362">
        <ele>445.84631348</ele>
        <time>2021-06-16T15:20:15Z</time>
      </trkpt>
      <trkpt lat="48.04796" lon="7.1636">
        <ele>446.85748291</ele>
        <time>2021-06-16T15:20:17Z</time>
      </trkpt>
      <trkpt lat="48.04802" lon="7.16358">
        <ele>446.85748291</ele>
        <time>2021-06-16T15:20:18Z</time>
      </trkpt>
      <trkpt lat="48.04812" lon="7.16353">
        <ele>448.93954468</ele>
        <time>2021-06-16T15:20:22Z</time>
      </trkpt>
      <trkpt lat="48.04827" lon="7.16336">
        <ele>451.25631714</ele>
        <time>2021-06-16T15:20:30Z</time>
      </trkpt>
      <trkpt lat="48.04825" lon="7.16318">
        <ele>451.25631714</ele>
        <time>2021-06-16T15:20:32Z</time>
      </trkpt>
      <trkpt lat="48.04817" lon="7.16311">
        <ele>452.27929688</ele>
        <time>2021-06-16T15:20:35Z</time>
      </trkpt>
      <trkpt lat="48.04808" lon="7.1631">
        <ele>454.465271</ele>
        <time>2021-06-16T15:20:39Z</time>
      </trkpt>
      <trkpt lat="48.04797" lon="7.1631">
        <ele>455.55487061</ele>
        <time>2021-06-16T15:20:43Z</time>
      </trkpt>
      <trkpt lat="48.04786" lon="7.16309">
        <ele>456.59085083</ele>
        <time>2021-06-16T15:20:46Z</time>
      </trkpt>
      <trkpt lat="48.04778" lon="7.16307">
        <ele>457.69998169</ele>
        <time>2021-06-16T15:20:49Z</time>
      </trkpt>
      <trkpt lat="48.0477" lon="7.16299">
        <ele>458.82623291</ele>
        <time>2021-06-16T15:20:52Z</time>
      </trkpt>
      <trkpt lat="48.04766" lon="7.16285">
        <ele>460.07171631</ele>
        <time>2021-06-16T15:20:56Z</time>
      </trkpt>
      <trkpt lat="48.04763" lon="7.1627">
        <ele>461.12390137</ele>
        <time>2021-06-16T15:20:59Z</time>
      </trkpt>
      <trkpt lat="48.04763" lon="7.16256">
        <ele>462.11578369</ele>
        <time>2021-06-16T15:21:02Z</time>
      </trkpt>
      <trkpt lat="48.04766" lon="7.16241">
        <ele>464.44418335</ele>
        <time>2021-06-16T15:21:06Z</time>
      </trkpt>
      <trkpt lat="48.04774" lon="7.16246">
        <ele>465.65615845</ele>
        <time>2021-06-16T15:21:09Z</time>
      </trkpt>
      <trkpt lat="48.04781" lon="7.16255">
        <ele>466.82781982</ele>
        <time>2021-06-16T15:21:13Z</time>
      </trkpt>
      <trkpt lat="48.0479" lon="7.16254">
        <ele>468.8621521</ele>
        <time>2021-06-16T15:21:17Z</time>
      </trkpt>
      <trkpt lat="48.04794" lon="7.16243">
        <ele>469.59976196</ele>
        <time>2021-06-16T15:21:19Z</time>
      </trkpt>
      <trkpt lat="48.04789" lon="7.16227">
        <ele>470.70272827</ele>
        <time>2021-06-16T15:21:22Z</time>
      </trkpt>
      <trkpt lat="48.04783" lon="7.16214">
        <ele>471.83914185</ele>
        <time>2021-06-16T15:21:26Z</time>
      </trkpt>
      <trkpt lat="48.04787" lon="7.16199">
        <ele>472.93920898</ele>
        <time>2021-06-16T15:21:30Z</time>
      </trkpt>
      <trkpt lat="48.04799" lon="7.16198">
        <ele>474.05203247</ele>
        <time>2021-06-16T15:21:33Z</time>
      </trkpt>
      <trkpt lat="48.04811" lon="7.16205">
        <ele>475.1796875</ele>
        <time>2021-06-16T15:21:36Z</time>
      </trkpt>
      <trkpt lat="48.04819" lon="7.1621">
        <ele>476.35192871</ele>
        <time>2021-06-16T15:21:40Z</time>
      </trkpt>
      <trkpt lat="48.04827" lon="7.16217">
        <ele>477.61712646</ele>
        <time>2021-06-16T15:21:42Z</time>
      </trkpt>
      <trkpt lat="48.04835" lon="7.16228">
        <ele>477.61712646</ele>
        <time>2021-06-16T15:21:45Z</time>
      </trkpt>
      <trkpt lat="48.0484" lon="7.1624">
        <ele>478.74673462</ele>
        <time>2021-06-16T15:21:48Z</time>
      </trkpt>
    </trkseg>
  </trk>
</gpx>